Wetterdaten: Donnerstag, 14.09.2017
Datum Zeit Temp. A. Temp. A. max Feuchte A. Luftdruck Regen Wind Richtung Richtung Sonnenschein ET UV Solar Taupunkt Windchill Windböen
14.09.2017 00:00 11,8 °C 11,8 °C 87 % 1008,9 hPa 0,0 mm 0,0 km/h (0 Bft) S-SW 194 ° 0 min 0,000 mm 0,0 UV-I 0 W/m² 9,7 °C 11,8 °C 0,0 km/h (0 Bft)
14.09.2017 00:01 11,8 °C 11,8 °C 87 % 1008,9 hPa 0,0 mm 0,0 km/h (0 Bft) S-SW 194 ° 0 min 0,000 mm 0,0 UV-I 0 W/m² 9,7 °C 11,8 °C 0,0 km/h (0 Bft)
14.09.2017 00:02 11,8 °C 11,9 °C 87 % 1008,9 hPa 0,0 mm 0,0 km/h (0 Bft) S-SW 194 ° 0 min 0,000 mm 0,0 UV-I 0 W/m² 9,7 °C 11,8 °C 0,0 km/h (0 Bft)
14.09.2017 00:03 11,8 °C 11,9 °C 87 % 1008,8 hPa 0,0 mm 0,9 km/h (0 Bft) S-SW 194 ° 0 min 0,000 mm 0,0 UV-I 0 W/m² 9,7 °C 11,8 °C 3,2 km/h (1 Bft)
14.09.2017 00:04 11,8 °C 11,9 °C 86 % 1008,8 hPa 0,0 mm 0,1 km/h (0 Bft) S-SW 194 ° 0 min 0,000 mm 0,0 UV-I 0 W/m² 9,5 °C 11,8 °C 1,6 km/h (1 Bft)
14.09.2017 00:05 11,9 °C 11,9 °C 86 % 1008,9 hPa 0,0 mm 1,9 km/h (1 Bft) W-SW 252 ° 0 min 0,000 mm 0,0 UV-I 0 W/m² 9,6 °C 11,9 °C 4,8 km/h (1 Bft)
14.09.2017 00:06 11,9 °C 11,9 °C 86 % 1008,9 hPa 0,0 mm 2,7 km/h (1 Bft) W-SW 252 ° 0 min 0,000 mm 0,0 UV-I 0 W/m² 9,6 °C 11,9 °C 4,8 km/h (1 Bft)
14.09.2017 00:07 11,9 °C 11,9 °C 86 % 1008,9 hPa 0,0 mm 1,7 km/h (1 Bft) W-SW 252 ° 0 min 0,000 mm 0,0 UV-I 0 W/m² 9,6 °C 11,9 °C 3,2 km/h (1 Bft)
14.09.2017 00:08 11,8 °C 11,9 °C 85 % 1008,9 hPa 0,0 mm 0,0 km/h (0 Bft) W-SW 252 ° 0 min 0,000 mm 0,0 UV-I 0 W/m² 9,4 °C 11,8 °C 0,0 km/h (0 Bft)
14.09.2017 00:09 11,6 °C 11,8 °C 85 % 1008,9 hPa 0,0 mm 0,0 km/h (0 Bft) W-SW 252 ° 0 min 0,000 mm 0,0 UV-I 0 W/m² 9,2 °C 11,6 °C 0,0 km/h (0 Bft)
14.09.2017 00:10 11,3 °C 11,6 °C 86 % 1008,9 hPa 0,0 mm 0,0 km/h (0 Bft) W-SW 252 ° 0 min 0,000 mm 0,0 UV-I 0 W/m² 9,0 °C 11,3 °C 0,0 km/h (0 Bft)
14.09.2017 00:11 11,2 °C 11,3 °C 87 % 1008,9 hPa 0,0 mm 0,0 km/h (0 Bft) W-SW 252 ° 0 min 0,000 mm 0,0 UV-I 0 W/m² 9,1 °C 11,2 °C 0,0 km/h (0 Bft)
14.09.2017 00:12 11,1 °C 11,2 °C 88 % 1008,9 hPa 0,0 mm 0,0 km/h (0 Bft) W-SW 252 ° 0 min 0,000 mm 0,0 UV-I 0 W/m² 9,2 °C 11,1 °C 0,0 km/h (0 Bft)
14.09.2017 00:13 11,0 °C 11,1 °C 89 % 1008,9 hPa 0,0 mm 0,0 km/h (0 Bft) W-SW 252 ° 0 min 0,000 mm 0,0 UV-I 0 W/m² 9,3 °C 11,0 °C 0,0 km/h (0 Bft)
14.09.2017 00:14 11,0 °C 11,0 °C 89 % 1008,8 hPa 0,0 mm 0,0 km/h (0 Bft) W-SW 252 ° 0 min 0,000 mm 0,0 UV-I 0 W/m² 9,3 °C 11,0 °C 0,0 km/h (0 Bft)
14.09.2017 00:15 10,9 °C 11,0 °C 89 % 1008,8 hPa 0,0 mm 0,0 km/h (0 Bft) W-SW 252 ° 0 min 0,000 mm 0,0 UV-I 0 W/m² 9,2 °C 10,9 °C 0,0 km/h (0 Bft)
14.09.2017 00:16 10,9 °C 10,9 °C 89 % 1008,8 hPa 0,0 mm 0,0 km/h (0 Bft) W-SW 252 ° 0 min 0,000 mm 0,0 UV-I 0 W/m² 9,2 °C 10,9 °C 0,0 km/h (0 Bft)
14.09.2017 00:17 10,9 °C 10,9 °C 89 % 1008,8 hPa 0,0 mm 0,0 km/h (0 Bft) W-SW 252 ° 0 min 0,000 mm 0,0 UV-I 0 W/m² 9,2 °C 10,9 °C 0,0 km/h (0 Bft)
14.09.2017 00:18 10,8 °C 10,9 °C 89 % 1008,8 hPa 0,0 mm 0,0 km/h (0 Bft) W-SW 252 ° 0 min 0,000 mm 0,0 UV-I 0 W/m² 9,1 °C 10,8 °C 0,0 km/h (0 Bft)
14.09.2017 00:19 10,7 °C 10,8 °C 89 % 1008,8 hPa 0,0 mm 0,0 km/h (0 Bft) W-SW 252 ° 0 min 0,000 mm 0,0 UV-I 0 W/m² 9,0 °C 10,7 °C 0,0 km/h (0 Bft)
14.09.2017 00:20 10,7 °C 10,7 °C 89 % 1008,8 hPa 0,0 mm 0,0 km/h (0 Bft) W-SW 252 ° 0 min 0,000 mm 0,0 UV-I 0 W/m² 9,0 °C 10,7 °C 0,0 km/h (0 Bft)
14.09.2017 00:21 10,6 °C 10,7 °C 89 % 1008,8 hPa 0,0 mm 0,0 km/h (0 Bft) W-SW 252 ° 0 min 0,000 mm 0,0 UV-I 0 W/m² 8,9 °C 10,6 °C 0,0 km/h (0 Bft)
14.09.2017 00:22 10,6 °C 10,6 °C 90 % 1008,8 hPa 0,0 mm 0,0 km/h (0 Bft) W-SW 252 ° 0 min 0,000 mm 0,0 UV-I 0 W/m² 9,0 °C 10,6 °C 0,0 km/h (0 Bft)
14.09.2017 00:23 10,6 °C 10,6 °C 90 % 1008,8 hPa 0,0 mm 0,0 km/h (0 Bft) W-SW 252 ° 0 min 0,000 mm 0,0 UV-I 0 W/m² 9,0 °C 10,6 °C 0,0 km/h (0 Bft)
14.09.2017 00:24 10,6 °C 10,6 °C 90 % 1008,8 hPa 0,0 mm 0,0 km/h (0 Bft) W-SW 252 ° 0 min 0,000 mm 0,0 UV-I 0 W/m² 9,0 °C 10,6 °C 0,0 km/h (0 Bft)
14.09.2017 00:25 10,6 °C 10,6 °C 90 % 1008,8 hPa 0,0 mm 0,0 km/h (0 Bft) W-SW 252 ° 0 min 0,000 mm 0,0 UV-I 0 W/m² 9,0 °C 10,6 °C 0,0 km/h (0 Bft)
14.09.2017 00:26 10,6 °C 10,6 °C 90 % 1008,7 hPa 0,0 mm 0,0 km/h (0 Bft) W-SW 252 ° 0 min 0,000 mm 0,0 UV-I 0 W/m² 9,0 °C 10,6 °C 0,0 km/h (0 Bft)
14.09.2017 00:27 10,6 °C 10,6 °C 91 % 1008,7 hPa 0,0 mm 0,0 km/h (0 Bft) W-SW 252 ° 0 min 0,000 mm 0,0 UV-I 0 W/m² 9,2 °C 10,6 °C 0,0 km/h (0 Bft)
14.09.2017 00:28 10,6 °C 10,6 °C 90 % 1008,7 hPa 0,0 mm 0,0 km/h (0 Bft) W-SW 252 ° 0 min 0,000 mm 0,0 UV-I 0 W/m² 9,0 °C 10,6 °C 0,0 km/h (0 Bft)
14.09.2017 00:29 10,7 °C 10,7 °C 90 % 1008,7 hPa 0,0 mm 0,0 km/h (0 Bft) W-SW 252 ° 0 min 0,000 mm 0,0 UV-I 0 W/m² 9,1 °C 10,7 °C 0,0 km/h (0 Bft)
14.09.2017 00:30 10,7 °C 10,7 °C 90 % 1008,7 hPa 0,0 mm 0,0 km/h (0 Bft) W-SW 252 ° 0 min 0,000 mm 0,0 UV-I 0 W/m² 9,1 °C 10,7 °C 0,0 km/h (0 Bft)
14.09.2017 00:31 10,7 °C 10,7 °C 89 % 1008,7 hPa 0,0 mm 0,0 km/h (0 Bft) W-SW 252 ° 0 min 0,000 mm 0,0 UV-I 0 W/m² 9,0 °C 10,7 °C 0,0 km/h (0 Bft)
14.09.2017 00:32 10,6 °C 10,7 °C 89 % 1008,7 hPa 0,0 mm 0,0 km/h (0 Bft) W-SW 252 ° 0 min 0,000 mm 0,0 UV-I 0 W/m² 8,9 °C 10,6 °C 0,0 km/h (0 Bft)
14.09.2017 00:33 10,5 °C 10,6 °C 89 % 1008,7 hPa 0,0 mm 0,0 km/h (0 Bft) W-SW 252 ° 0 min 0,000 mm 0,0 UV-I 0 W/m² 8,8 °C 10,5 °C 0,0 km/h (0 Bft)
14.09.2017 00:34 10,4 °C 10,5 °C 89 % 1008,7 hPa 0,0 mm 0,0 km/h (0 Bft) W-SW 252 ° 0 min 0,000 mm 0,0 UV-I 0 W/m² 8,7 °C 10,4 °C 0,0 km/h (0 Bft)
14.09.2017 00:35 10,4 °C 10,4 °C 90 % 1008,6 hPa 0,0 mm 0,0 km/h (0 Bft) W-SW 252 ° 0 min 0,000 mm 0,0 UV-I 0 W/m² 8,8 °C 10,4 °C 0,0 km/h (0 Bft)
14.09.2017 00:36 10,4 °C 10,4 °C 90 % 1008,6 hPa 0,0 mm 1,3 km/h (1 Bft) W-SW 252 ° 0 min 0,000 mm 0,0 UV-I 0 W/m² 8,8 °C 10,4 °C 1,6 km/h (1 Bft)
14.09.2017 00:37 10,3 °C 10,4 °C 90 % 1008,6 hPa 0,0 mm 0,0 km/h (0 Bft) W-SW 252 ° 0 min 0,000 mm 0,0 UV-I 0 W/m² 8,7 °C 10,3 °C 0,0 km/h (0 Bft)
14.09.2017 00:38 10,2 °C 10,3 °C 89 % 1008,6 hPa 0,0 mm 0,0 km/h (0 Bft) W-SW 252 ° 0 min 0,000 mm 0,0 UV-I 0 W/m² 8,5 °C 10,2 °C 0,0 km/h (0 Bft)
14.09.2017 00:39 10,2 °C 10,3 °C 90 % 1008,6 hPa 0,0 mm 0,0 km/h (0 Bft) W-SW 252 ° 0 min 0,000 mm 0,0 UV-I 0 W/m² 8,6 °C 10,2 °C 0,0 km/h (0 Bft)
14.09.2017 00:40 10,2 °C 10,2 °C 90 % 1008,6 hPa 0,0 mm 0,0 km/h (0 Bft) W-SW 252 ° 0 min 0,000 mm 0,0 UV-I 0 W/m² 8,6 °C 10,2 °C 0,0 km/h (0 Bft)
14.09.2017 00:41 10,1 °C 10,2 °C 90 % 1008,5 hPa 0,0 mm 0,0 km/h (0 Bft) W-SW 252 ° 0 min 0,000 mm 0,0 UV-I 0 W/m² 8,5 °C 10,1 °C 0,0 km/h (0 Bft)
14.09.2017 00:42 10,1 °C 10,1 °C 90 % 1008,5 hPa 0,0 mm 0,0 km/h (0 Bft) W-SW 252 ° 0 min 0,000 mm 0,0 UV-I 0 W/m² 8,5 °C 10,1 °C 0,0 km/h (0 Bft)
14.09.2017 00:43 10,1 °C 10,1 °C 90 % 1008,5 hPa 0,0 mm 0,0 km/h (0 Bft) W-SW 252 ° 0 min 0,000 mm 0,0 UV-I 0 W/m² 8,5 °C 10,1 °C 0,0 km/h (0 Bft)
14.09.2017 00:44 10,1 °C 10,1 °C 91 % 1008,5 hPa 0,0 mm 0,0 km/h (0 Bft) W-SW 252 ° 0 min 0,000 mm 0,0 UV-I 0 W/m² 8,7 °C 10,1 °C 0,0 km/h (0 Bft)
14.09.2017 00:45 10,1 °C 10,1 °C 91 % 1008,5 hPa 0,0 mm 0,0 km/h (0 Bft) W-SW 252 ° 0 min 0,000 mm 0,0 UV-I 0 W/m² 8,7 °C 10,1 °C 0,0 km/h (0 Bft)
14.09.2017 00:46 10,1 °C 10,1 °C 91 % 1008,5 hPa 0,0 mm 0,0 km/h (0 Bft) W-SW 252 ° 0 min 0,000 mm 0,0 UV-I 0 W/m² 8,7 °C 10,1 °C 0,0 km/h (0 Bft)
14.09.2017 00:47 10,1 °C 10,2 °C 91 % 1008,4 hPa 0,0 mm 0,0 km/h (0 Bft) W-SW 252 ° 0 min 0,000 mm 0,0 UV-I 0 W/m² 8,7 °C 10,1 °C 0,0 km/h (0 Bft)
14.09.2017 00:48 10,2 °C 10,2 °C 91 % 1008,4 hPa 0,0 mm 0,0 km/h (0 Bft) W-SW 252 ° 0 min 0,000 mm 0,0 UV-I 0 W/m² 8,8 °C 10,2 °C 0,0 km/h (0 Bft)
14.09.2017 00:49 10,2 °C 10,3 °C 91 % 1008,4 hPa 0,0 mm 0,0 km/h (0 Bft) W-SW 252 ° 0 min 0,000 mm 0,0 UV-I 0 W/m² 8,8 °C 10,2 °C 0,0 km/h (0 Bft)
14.09.2017 00:50 10,2 °C 10,2 °C 90 % 1008,4 hPa 0,0 mm 0,0 km/h (0 Bft) W-SW 252 ° 0 min 0,000 mm 0,0 UV-I 0 W/m² 8,6 °C 10,2 °C 0,0 km/h (0 Bft)
14.09.2017 00:51 10,1 °C 10,2 °C 90 % 1008,4 hPa 0,0 mm 0,0 km/h (0 Bft) W-SW 252 ° 0 min 0,000 mm 0,0 UV-I 0 W/m² 8,5 °C 10,1 °C 0,0 km/h (0 Bft)
14.09.2017 00:52 10,0 °C 10,1 °C 90 % 1008,4 hPa 0,0 mm 0,0 km/h (0 Bft) W-SW 252 ° 0 min 0,000 mm 0,0 UV-I 0 W/m² 8,4 °C 10,0 °C 0,0 km/h (0 Bft)
14.09.2017 00:53 9,9 °C 10,0 °C 90 % 1008,4 hPa 0,0 mm 0,0 km/h (0 Bft) W-SW 252 ° 0 min 0,000 mm 0,0 UV-I 0 W/m² 8,3 °C 9,9 °C 0,0 km/h (0 Bft)
14.09.2017 00:54 9,9 °C 9,9 °C 91 % 1008,3 hPa 0,0 mm 0,0 km/h (0 Bft) W-SW 252 ° 0 min 0,000 mm 0,0 UV-I 0 W/m² 8,5 °C 9,9 °C 0,0 km/h (0 Bft)
14.09.2017 00:55 9,9 °C 9,9 °C 91 % 1008,3 hPa 0,0 mm 0,0 km/h (0 Bft) W-SW 252 ° 0 min 0,000 mm 0,0 UV-I 0 W/m² 8,5 °C 9,9 °C 0,0 km/h (0 Bft)
14.09.2017 00:56 9,9 °C 9,9 °C 91 % 1008,2 hPa 0,0 mm 0,0 km/h (0 Bft) W-SW 252 ° 0 min 0,000 mm 0,0 UV-I 0 W/m² 8,5 °C 9,9 °C 0,0 km/h (0 Bft)
14.09.2017 00:57 9,9 °C 9,9 °C 91 % 1008,3 hPa 0,0 mm 0,0 km/h (0 Bft) W-SW 252 ° 0 min 0,000 mm 0,0 UV-I 0 W/m² 8,5 °C 9,9 °C 0,0 km/h (0 Bft)
14.09.2017 00:58 9,9 °C 10,0 °C 91 % 1008,3 hPa 0,0 mm 1,7 km/h (1 Bft) W-SW 252 ° 0 min 0,000 mm 0,0 UV-I 0 W/m² 8,5 °C 9,9 °C 3,2 km/h (1 Bft)
14.09.2017 00:59 9,8 °C 9,9 °C 91 % 1008,4 hPa 0,0 mm 0,1 km/h (0 Bft) W-SW 252 ° 0 min 0,000 mm 0,0 UV-I 0 W/m² 8,4 °C 9,8 °C 1,6 km/h (1 Bft)
14.09.2017 01:00 9,8 °C 9,8 °C 90 % 1008,3 hPa 0,0 mm 0,0 km/h (0 Bft) W-SW 252 ° 0 min 0,000 mm 0,0 UV-I 0 W/m² 8,2 °C 9,8 °C 0,0 km/h (0 Bft)
14.09.2017 01:01 9,8 °C 9,8 °C 91 % 1008,2 hPa 0,0 mm 0,0 km/h (0 Bft) W-SW 252 ° 0 min 0,000 mm 0,0 UV-I 0 W/m² 8,4 °C 9,8 °C 0,0 km/h (0 Bft)
14.09.2017 01:02 9,8 °C 9,8 °C 92 % 1008,2 hPa 0,0 mm 0,0 km/h (0 Bft) W-SW 252 ° 0 min 0,000 mm 0,0 UV-I 0 W/m² 8,6 °C 9,8 °C 0,0 km/h (0 Bft)
14.09.2017 01:03 9,8 °C 9,8 °C 92 % 1008,2 hPa 0,0 mm 0,0 km/h (0 Bft) W-SW 252 ° 0 min 0,000 mm 0,0 UV-I 0 W/m² 8,6 °C 9,8 °C 0,0 km/h (0 Bft)
14.09.2017 01:04 9,8 °C 9,9 °C 92 % 1008,3 hPa 0,0 mm 0,0 km/h (0 Bft) W-SW 252 ° 0 min 0,000 mm 0,0 UV-I 0 W/m² 8,6 °C 9,8 °C 0,0 km/h (0 Bft)
14.09.2017 01:05 9,8 °C 9,8 °C 91 % 1008,3 hPa 0,0 mm 0,0 km/h (0 Bft) W-SW 252 ° 0 min 0,000 mm 0,0 UV-I 0 W/m² 8,4 °C 9,8 °C 0,0 km/h (0 Bft)
14.09.2017 01:06 9,8 °C 9,8 °C 91 % 1008,3 hPa 0,0 mm 0,0 km/h (0 Bft) W-SW 252 ° 0 min 0,000 mm 0,0 UV-I 0 W/m² 8,4 °C 9,8 °C 0,0 km/h (0 Bft)
14.09.2017 01:07 9,7 °C 9,8 °C 91 % 1008,2 hPa 0,0 mm 0,0 km/h (0 Bft) W-SW 252 ° 0 min 0,000 mm 0,0 UV-I 0 W/m² 8,3 °C 9,7 °C 0,0 km/h (0 Bft)
14.09.2017 01:08 9,7 °C 9,8 °C 92 % 1008,2 hPa 0,0 mm 0,0 km/h (0 Bft) W-SW 252 ° 0 min 0,000 mm 0,0 UV-I 0 W/m² 8,5 °C 9,7 °C 0,0 km/h (0 Bft)
14.09.2017 01:09 9,8 °C 9,8 °C 92 % 1008,2 hPa 0,0 mm 0,0 km/h (0 Bft) W-SW 252 ° 0 min 0,000 mm 0,0 UV-I 0 W/m² 8,6 °C 9,8 °C 0,0 km/h (0 Bft)
14.09.2017 01:10 9,8 °C 9,8 °C 92 % 1008,2 hPa 0,0 mm 0,0 km/h (0 Bft) W-SW 252 ° 0 min 0,000 mm 0,0 UV-I 0 W/m² 8,6 °C 9,8 °C 0,0 km/h (0 Bft)
14.09.2017 01:11 9,8 °C 9,8 °C 92 % 1008,2 hPa 0,0 mm 0,0 km/h (0 Bft) W-SW 252 ° 0 min 0,000 mm 0,0 UV-I 0 W/m² 8,6 °C 9,8 °C 0,0 km/h (0 Bft)
14.09.2017 01:12 9,9 °C 9,9 °C 92 % 1008,1 hPa 0,0 mm 0,0 km/h (0 Bft) W-SW 252 ° 0 min 0,000 mm 0,0 UV-I 0 W/m² 8,7 °C 9,9 °C 0,0 km/h (0 Bft)
14.09.2017 01:13 9,9 °C 9,9 °C 92 % 1008,1 hPa 0,0 mm 0,0 km/h (0 Bft) W-SW 252 ° 0 min 0,000 mm 0,0 UV-I 0 W/m² 8,7 °C 9,9 °C 0,0 km/h (0 Bft)
14.09.2017 01:14 10,0 °C 10,0 °C 92 % 1008,1 hPa 0,0 mm 0,0 km/h (0 Bft) W-SW 252 ° 0 min 0,000 mm 0,0 UV-I 0 W/m² 8,8 °C 10,0 °C 0,0 km/h (0 Bft)
14.09.2017 01:15 10,0 °C 10,0 °C 92 % 1008,2 hPa 0,0 mm 0,5 km/h (0 Bft) W-SW 252 ° 0 min 0,000 mm 0,0 UV-I 0 W/m² 8,8 °C 10,0 °C 1,6 km/h (1 Bft)
14.09.2017 01:16 10,0 °C 10,1 °C 91 % 1008,2 hPa 0,0 mm 1,0 km/h (0 Bft) W-SW 252 ° 0 min 0,000 mm 0,0 UV-I 0 W/m² 8,6 °C 10,0 °C 3,2 km/h (1 Bft)
14.09.2017 01:17 9,9 °C 10,0 °C 91 % 1008,1 hPa 0,0 mm 0,0 km/h (0 Bft) W-SW 252 ° 0 min 0,000 mm 0,0 UV-I 0 W/m² 8,5 °C 9,9 °C 0,0 km/h (0 Bft)
14.09.2017 01:18 9,9 °C 9,9 °C 91 % 1008,0 hPa 0,0 mm 0,0 km/h (0 Bft) W-SW 252 ° 0 min 0,000 mm 0,0 UV-I 0 W/m² 8,5 °C 9,9 °C 0,0 km/h (0 Bft)
14.09.2017 01:19 9,9 °C 9,9 °C 91 % 1008,0 hPa 0,0 mm 0,0 km/h (0 Bft) W-SW 252 ° 0 min 0,000 mm 0,0 UV-I 0 W/m² 8,5 °C 9,9 °C 0,0 km/h (0 Bft)
14.09.2017 01:20 9,9 °C 9,9 °C 91 % 1008,0 hPa 0,0 mm 0,0 km/h (0 Bft) W-SW 252 ° 0 min 0,000 mm 0,0 UV-I 0 W/m² 8,5 °C 9,9 °C 0,0 km/h (0 Bft)
14.09.2017 01:21 9,9 °C 9,9 °C 91 % 1008,1 hPa 0,0 mm 0,0 km/h (0 Bft) W-SW 252 ° 0 min 0,000 mm 0,0 UV-I 0 W/m² 8,5 °C 9,9 °C 0,0 km/h (0 Bft)
14.09.2017 01:22 9,9 °C 9,9 °C 91 % 1008,1 hPa 0,0 mm 1,7 km/h (1 Bft) W-SW 252 ° 0 min 0,000 mm 0,0 UV-I 0 W/m² 8,5 °C 9,9 °C 3,2 km/h (1 Bft)
14.09.2017 01:23 9,8 °C 9,9 °C 91 % 1008,1 hPa 0,0 mm 0,0 km/h (0 Bft) W-SW 252 ° 0 min 0,000 mm 0,0 UV-I 0 W/m² 8,4 °C 9,8 °C 0,0 km/h (0 Bft)
14.09.2017 01:24 9,7 °C 9,8 °C 91 % 1008,1 hPa 0,0 mm 0,0 km/h (0 Bft) W-SW 252 ° 0 min 0,000 mm 0,0 UV-I 0 W/m² 8,3 °C 9,7 °C 0,0 km/h (0 Bft)
14.09.2017 01:25 9,7 °C 9,7 °C 91 % 1008,1 hPa 0,0 mm 0,0 km/h (0 Bft) W-SW 252 ° 0 min 0,000 mm 0,0 UV-I 0 W/m² 8,3 °C 9,7 °C 0,0 km/h (0 Bft)
14.09.2017 01:26 9,7 °C 9,7 °C 92 % 1008,1 hPa 0,0 mm 0,0 km/h (0 Bft) W-SW 252 ° 0 min 0,000 mm 0,0 UV-I 0 W/m² 8,5 °C 9,7 °C 0,0 km/h (0 Bft)
14.09.2017 01:27 9,8 °C 9,8 °C 92 % 1007,9 hPa 0,0 mm 1,7 km/h (1 Bft) W-SW 252 ° 0 min 0,000 mm 0,0 UV-I 0 W/m² 8,6 °C 9,8 °C 3,2 km/h (1 Bft)
14.09.2017 01:28 9,8 °C 9,8 °C 92 % 1007,9 hPa 0,0 mm 0,8 km/h (0 Bft) W-SW 252 ° 0 min 0,000 mm 0,0 UV-I 0 W/m² 8,6 °C 9,8 °C 1,6 km/h (1 Bft)
14.09.2017 01:29 9,9 °C 9,9 °C 92 % 1007,9 hPa 0,0 mm 0,0 km/h (0 Bft) W-SW 252 ° 0 min 0,000 mm 0,0 UV-I 0 W/m² 8,7 °C 9,9 °C 0,0 km/h (0 Bft)
14.09.2017 01:30 10,1 °C 10,1 °C 92 % 1008,0 hPa 0,0 mm 0,0 km/h (0 Bft) W-SW 252 ° 0 min 0,000 mm 0,0 UV-I 0 W/m² 8,9 °C 10,1 °C 0,0 km/h (0 Bft)
14.09.2017 01:31 10,2 °C 10,2 °C 92 % 1007,9 hPa 0,0 mm 0,0 km/h (0 Bft) W-SW 252 ° 0 min 0,000 mm 0,0 UV-I 0 W/m² 9,0 °C 10,2 °C 0,0 km/h (0 Bft)
14.09.2017 01:32 10,2 °C 10,2 °C 91 % 1007,9 hPa 0,0 mm 0,0 km/h (0 Bft) W-SW 252 ° 0 min 0,000 mm 0,0 UV-I 0 W/m² 8,8 °C 10,2 °C 0,0 km/h (0 Bft)
14.09.2017 01:33 10,2 °C 10,2 °C 91 % 1007,9 hPa 0,0 mm 0,0 km/h (0 Bft) W-SW 252 ° 0 min 0,000 mm 0,0 UV-I 0 W/m² 8,8 °C 10,2 °C 0,0 km/h (0 Bft)
14.09.2017 01:34 10,1 °C 10,2 °C 90 % 1007,9 hPa 0,0 mm 0,0 km/h (0 Bft) W-SW 252 ° 0 min 0,000 mm 0,0 UV-I 0 W/m² 8,5 °C 10,1 °C 0,0 km/h (0 Bft)
14.09.2017 01:35 10,2 °C 10,2 °C 91 % 1007,9 hPa 0,0 mm 0,0 km/h (0 Bft) W-SW 252 ° 0 min 0,000 mm 0,0 UV-I 0 W/m² 8,8 °C 10,2 °C 0,0 km/h (0 Bft)
14.09.2017 01:36 10,1 °C 10,2 °C 90 % 1007,8 hPa 0,0 mm 0,0 km/h (0 Bft) W-SW 252 ° 0 min 0,000 mm 0,0 UV-I 0 W/m² 8,5 °C 10,1 °C 0,0 km/h (0 Bft)
14.09.2017 01:37 10,0 °C 10,1 °C 90 % 1007,9 hPa 0,0 mm 0,0 km/h (0 Bft) W-SW 252 ° 0 min 0,000 mm 0,0 UV-I 0 W/m² 8,4 °C 10,0 °C 0,0 km/h (0 Bft)
14.09.2017 01:38 9,9 °C 10,0 °C 90 % 1007,9 hPa 0,0 mm 0,0 km/h (0 Bft) W-SW 252 ° 0 min 0,000 mm 0,0 UV-I 0 W/m² 8,3 °C 9,9 °C 0,0 km/h (0 Bft)
14.09.2017 01:39 9,9 °C 9,9 °C 91 % 1007,9 hPa 0,0 mm 0,0 km/h (0 Bft) W-SW 252 ° 0 min 0,000 mm 0,0 UV-I 0 W/m² 8,5 °C 9,9 °C 0,0 km/h (0 Bft)
14.09.2017 01:40 9,9 °C 9,9 °C 91 % 1007,9 hPa 0,0 mm 0,5 km/h (0 Bft) W-SW 252 ° 0 min 0,000 mm 0,0 UV-I 0 W/m² 8,5 °C 9,9 °C 3,2 km/h (1 Bft)
14.09.2017 01:41 10,0 °C 10,0 °C 91 % 1007,8 hPa 0,0 mm 2,9 km/h (1 Bft) SW 227 ° 0 min 0,000 mm 0,0 UV-I 0 W/m² 8,6 °C 10,0 °C 4,8 km/h (1 Bft)
14.09.2017 01:42 10,1 °C 10,1 °C 92 % 1007,8 hPa 0,0 mm 0,0 km/h (0 Bft) SW 227 ° 0 min 0,000 mm 0,0 UV-I 0 W/m² 8,9 °C 10,1 °C 0,0 km/h (0 Bft)
14.09.2017 01:43 10,1 °C 10,2 °C 91 % 1007,7 hPa 0,0 mm 0,0 km/h (0 Bft) SW 227 ° 0 min 0,000 mm 0,0 UV-I 0 W/m² 8,7 °C 10,1 °C 0,0 km/h (0 Bft)
14.09.2017 01:44 10,1 °C 10,2 °C 91 % 1007,8 hPa 0,0 mm 0,0 km/h (0 Bft) SW 227 ° 0 min 0,000 mm 0,0 UV-I 0 W/m² 8,7 °C 10,1 °C 0,0 km/h (0 Bft)
14.09.2017 01:45 10,1 °C 10,1 °C 90 % 1007,6 hPa 0,0 mm 0,0 km/h (0 Bft) SW 227 ° 0 min 0,000 mm 0,0 UV-I 0 W/m² 8,5 °C 10,1 °C 0,0 km/h (0 Bft)
14.09.2017 01:46 10,0 °C 10,1 °C 90 % 1007,6 hPa 0,0 mm 0,0 km/h (0 Bft) SW 227 ° 0 min 0,000 mm 0,0 UV-I 0 W/m² 8,4 °C 10,0 °C 0,0 km/h (0 Bft)
14.09.2017 01:47 9,9 °C 10,0 °C 91 % 1007,7 hPa 0,0 mm 2,6 km/h (1 Bft) W 273 ° 0 min 0,000 mm 0,0 UV-I 0 W/m² 8,5 °C 9,9 °C 4,8 km/h (1 Bft)
14.09.2017 01:48 9,9 °C 9,9 °C 91 % 1007,8 hPa 0,0 mm 2,5 km/h (1 Bft) W 273 ° 0 min 0,000 mm 0,0 UV-I 0 W/m² 8,5 °C 9,9 °C 4,8 km/h (1 Bft)
14.09.2017 01:49 9,8 °C 9,9 °C 91 % 1007,7 hPa 0,0 mm 0,0 km/h (0 Bft) W 273 ° 0 min 0,000 mm 0,0 UV-I 0 W/m² 8,4 °C 9,8 °C 0,0 km/h (0 Bft)
14.09.2017 01:50 9,7 °C 9,8 °C 91 % 1007,7 hPa 0,0 mm 0,9 km/h (0 Bft) W-SW 237 ° 0 min 0,000 mm 0,0 UV-I 0 W/m² 8,3 °C 9,7 °C 3,2 km/h (1 Bft)
14.09.2017 01:51 9,7 °C 9,7 °C 91 % 1007,7 hPa 0,0 mm 1,7 km/h (1 Bft) W-SW 237 ° 0 min 0,000 mm 0,0 UV-I 0 W/m² 8,3 °C 9,7 °C 3,2 km/h (1 Bft)
14.09.2017 01:52 9,7 °C 9,7 °C 91 % 1007,7 hPa 0,0 mm 0,1 km/h (0 Bft) W-SW 237 ° 0 min 0,000 mm 0,0 UV-I 0 W/m² 8,3 °C 9,7 °C 1,6 km/h (1 Bft)
14.09.2017 01:53 9,7 °C 9,8 °C 92 % 1007,6 hPa 0,0 mm 0,0 km/h (0 Bft) W-SW 237 ° 0 min 0,000 mm 0,0 UV-I 0 W/m² 8,5 °C 9,7 °C 0,0 km/h (0 Bft)
14.09.2017 01:54 9,7 °C 9,8 °C 91 % 1007,6 hPa 0,0 mm 0,0 km/h (0 Bft) W-SW 237 ° 0 min 0,000 mm 0,0 UV-I 0 W/m² 8,3 °C 9,7 °C 0,0 km/h (0 Bft)
14.09.2017 01:55 9,7 °C 9,7 °C 91 % 1007,6 hPa 0,0 mm 0,0 km/h (0 Bft) W-SW 237 ° 0 min 0,000 mm 0,0 UV-I 0 W/m² 8,3 °C 9,7 °C 0,0 km/h (0 Bft)
14.09.2017 01:56 9,7 °C 9,7 °C 91 % 1007,6 hPa 0,0 mm 0,0 km/h (0 Bft) W-SW 238 ° 0 min 0,000 mm 0,0 UV-I 0 W/m² 8,3 °C 9,7 °C 0,0 km/h (0 Bft)
14.09.2017 01:57 9,6 °C 9,7 °C 91 % 1007,6 hPa 0,0 mm 0,0 km/h (0 Bft) W-SW 238 ° 0 min 0,000 mm 0,0 UV-I 0 W/m² 8,2 °C 9,6 °C 0,0 km/h (0 Bft)
14.09.2017 01:58 9,6 °C 9,6 °C 91 % 1007,5 hPa 0,0 mm 0,0 km/h (0 Bft) W-SW 238 ° 0 min 0,000 mm 0,0 UV-I 0 W/m² 8,2 °C 9,6 °C 0,0 km/h (0 Bft)
14.09.2017 01:59 9,6 °C 9,6 °C 91 % 1007,5 hPa 0,0 mm 0,0 km/h (0 Bft) W-SW 238 ° 0 min 0,000 mm 0,0 UV-I 0 W/m² 8,2 °C 9,6 °C 0,0 km/h (0 Bft)
14.09.2017 02:00 9,6 °C 9,6 °C 92 % 1007,5 hPa 0,0 mm 0,0 km/h (0 Bft) W-SW 238 ° 0 min 0,000 mm 0,0 UV-I 0 W/m² 8,4 °C 9,6 °C 0,0 km/h (0 Bft)
14.09.2017 02:01 9,7 °C 9,7 °C 92 % 1007,5 hPa 0,0 mm 0,0 km/h (0 Bft) W-SW 238 ° 0 min 0,000 mm 0,0 UV-I 0 W/m² 8,5 °C 9,7 °C 0,0 km/h (0 Bft)
14.09.2017 02:02 9,7 °C 9,7 °C 92 % 1007,5 hPa 0,0 mm 0,0 km/h (0 Bft) W-SW 238 ° 0 min 0,000 mm 0,0 UV-I 0 W/m² 8,5 °C 9,7 °C 0,0 km/h (0 Bft)
14.09.2017 02:03 9,8 °C 9,8 °C 92 % 1007,5 hPa 0,0 mm 0,0 km/h (0 Bft) W-SW 238 ° 0 min 0,000 mm 0,0 UV-I 0 W/m² 8,6 °C 9,8 °C 0,0 km/h (0 Bft)
14.09.2017 02:04 9,7 °C 9,8 °C 91 % 1007,5 hPa 0,0 mm 0,0 km/h (0 Bft) W-SW 238 ° 0 min 0,000 mm 0,0 UV-I 0 W/m² 8,3 °C 9,7 °C 0,0 km/h (0 Bft)
14.09.2017 02:05 9,7 °C 9,7 °C 91 % 1007,4 hPa 0,0 mm 0,0 km/h (0 Bft) W-SW 238 ° 0 min 0,000 mm 0,0 UV-I 0 W/m² 8,3 °C 9,7 °C 0,0 km/h (0 Bft)
14.09.2017 02:06 9,6 °C 9,7 °C 91 % 1007,5 hPa 0,0 mm 0,0 km/h (0 Bft) W-SW 238 ° 0 min 0,000 mm 0,0 UV-I 0 W/m² 8,2 °C 9,6 °C 0,0 km/h (0 Bft)
14.09.2017 02:07 9,6 °C 9,6 °C 91 % 1007,3 hPa 0,0 mm 0,0 km/h (0 Bft) W-SW 238 ° 0 min 0,000 mm 0,0 UV-I 0 W/m² 8,2 °C 9,6 °C 0,0 km/h (0 Bft)
14.09.2017 02:08 9,5 °C 9,6 °C 91 % 1007,4 hPa 0,0 mm 0,0 km/h (0 Bft) W-SW 238 ° 0 min 0,000 mm 0,0 UV-I 0 W/m² 8,1 °C 9,5 °C 0,0 km/h (0 Bft)
14.09.2017 02:09 9,4 °C 9,5 °C 91 % 1007,4 hPa 0,0 mm 2,6 km/h (1 Bft) W-NW 303 ° 0 min 0,000 mm 0,0 UV-I 0 W/m² 8,0 °C 9,4 °C 6,4 km/h (2 Bft)
14.09.2017 02:10 9,4 °C 9,4 °C 91 % 1007,5 hPa 0,0 mm 2,5 km/h (1 Bft) W-NW 296 ° 0 min 0,000 mm 0,0 UV-I 0 W/m² 8,0 °C 9,4 °C 4,8 km/h (1 Bft)
14.09.2017 02:11 9,3 °C 9,4 °C 91 % 1007,5 hPa 0,0 mm 3,1 km/h (1 Bft) SO 138 ° 0 min 0,000 mm 0,0 UV-I 0 W/m² 7,9 °C 9,3 °C 6,4 km/h (2 Bft)
14.09.2017 02:12 9,4 °C 9,4 °C 92 % 1007,3 hPa 0,0 mm 4,5 km/h (1 Bft) S-SO 158 ° 0 min 0,000 mm 0,0 UV-I 0 W/m² 8,2 °C 9,4 °C 6,4 km/h (2 Bft)
14.09.2017 02:13 9,6 °C 9,6 °C 92 % 1007,4 hPa 0,0 mm 1,5 km/h (1 Bft) S-SO 158 ° 0 min 0,000 mm 0,0 UV-I 0 W/m² 8,4 °C 9,6 °C 4,8 km/h (1 Bft)
14.09.2017 02:14 9,7 °C 9,7 °C 92 % 1007,5 hPa 0,0 mm 1,7 km/h (1 Bft) S-SO 158 ° 0 min 0,000 mm 0,0 UV-I 0 W/m² 8,5 °C 9,7 °C 3,2 km/h (1 Bft)
14.09.2017 02:15 9,6 °C 9,7 °C 91 % 1007,4 hPa 0,0 mm 3,0 km/h (1 Bft) S-SO 158 ° 0 min 0,000 mm 0,0 UV-I 0 W/m² 8,2 °C 9,6 °C 4,8 km/h (1 Bft)
14.09.2017 02:16 9,4 °C 9,6 °C 90 % 1007,5 hPa 0,0 mm 0,6 km/h (0 Bft) S-SO 158 ° 0 min 0,000 mm 0,0 UV-I 0 W/m² 7,8 °C 9,4 °C 3,2 km/h (1 Bft)
14.09.2017 02:17 9,4 °C 9,4 °C 91 % 1007,3 hPa 0,0 mm 4,4 km/h (1 Bft) S-SO 158 ° 0 min 0,000 mm 0,0 UV-I 0 W/m² 8,0 °C 9,4 °C 4,8 km/h (1 Bft)
14.09.2017 02:18 9,3 °C 9,4 °C 91 % 1007,3 hPa 0,0 mm 1,8 km/h (1 Bft) S-SO 158 ° 0 min 0,000 mm 0,0 UV-I 0 W/m² 7,9 °C 9,3 °C 3,2 km/h (1 Bft)
14.09.2017 02:19 9,4 °C 9,4 °C 92 % 1007,2 hPa 0,0 mm 0,3 km/h (0 Bft) S-SO 158 ° 0 min 0,000 mm 0,0 UV-I 0 W/m² 8,2 °C 9,4 °C 1,6 km/h (1 Bft)
14.09.2017 02:20 9,4 °C 9,4 °C 92 % 1007,3 hPa 0,0 mm 0,0 km/h (0 Bft) S-SO 158 ° 0 min 0,000 mm 0,0 UV-I 0 W/m² 8,2 °C 9,4 °C 0,0 km/h (0 Bft)
14.09.2017 02:21 9,4 °C 9,4 °C 91 % 1007,3 hPa 0,0 mm 0,0 km/h (0 Bft) S-SO 158 ° 0 min 0,000 mm 0,0 UV-I 0 W/m² 8,0 °C 9,4 °C 0,0 km/h (0 Bft)
14.09.2017 02:22 9,4 °C 9,4 °C 91 % 1007,2 hPa 0,0 mm 0,0 km/h (0 Bft) S-SO 158 ° 0 min 0,000 mm 0,0 UV-I 0 W/m² 8,0 °C 9,4 °C 0,0 km/h (0 Bft)
14.09.2017 02:23 9,3 °C 9,4 °C 91 % 1007,1 hPa 0,0 mm 0,0 km/h (0 Bft) S-SO 158 ° 0 min 0,000 mm 0,0 UV-I 0 W/m² 7,9 °C 9,3 °C 0,0 km/h (0 Bft)
14.09.2017 02:24 9,2 °C 9,3 °C 91 % 1007,2 hPa 0,0 mm 0,0 km/h (0 Bft) S-SO 158 ° 0 min 0,000 mm 0,0 UV-I 0 W/m² 7,8 °C 9,2 °C 0,0 km/h (0 Bft)
14.09.2017 02:25 9,3 °C 9,3 °C 91 % 1007,2 hPa 0,0 mm 0,0 km/h (0 Bft) S-SO 158 ° 0 min 0,000 mm 0,0 UV-I 0 W/m² 7,9 °C 9,3 °C 0,0 km/h (0 Bft)
14.09.2017 02:26 9,2 °C 9,3 °C 91 % 1007,2 hPa 0,0 mm 0,8 km/h (0 Bft) S-SO 158 ° 0 min 0,000 mm 0,0 UV-I 0 W/m² 7,8 °C 9,2 °C 3,2 km/h (1 Bft)
14.09.2017 02:27 9,2 °C 9,2 °C 91 % 1007,3 hPa 0,0 mm 0,1 km/h (0 Bft) S-SO 158 ° 0 min 0,000 mm 0,0 UV-I 0 W/m² 7,8 °C 9,2 °C 1,6 km/h (1 Bft)
14.09.2017 02:28 9,1 °C 9,2 °C 91 % 1007,2 hPa 0,0 mm 0,0 km/h (0 Bft) S-SO 158 ° 0 min 0,000 mm 0,0 UV-I 0 W/m² 7,7 °C 9,1 °C 0,0 km/h (0 Bft)
14.09.2017 02:29 9,1 °C 9,1 °C 91 % 1007,2 hPa 0,0 mm 0,0 km/h (0 Bft) S-SO 158 ° 0 min 0,000 mm 0,0 UV-I 0 W/m² 7,7 °C 9,1 °C 0,0 km/h (0 Bft)
14.09.2017 02:30 9,0 °C 9,1 °C 91 % 1007,1 hPa 0,0 mm 0,0 km/h (0 Bft) S-SO 158 ° 0 min 0,000 mm 0,0 UV-I 0 W/m² 7,6 °C 9,0 °C 0,0 km/h (0 Bft)
14.09.2017 02:31 9,0 °C 9,0 °C 92 % 1007,0 hPa 0,0 mm 0,0 km/h (0 Bft) S-SO 158 ° 0 min 0,000 mm 0,0 UV-I 0 W/m² 7,8 °C 9,0 °C 0,0 km/h (0 Bft)
14.09.2017 02:32 9,0 °C 9,0 °C 92 % 1007,0 hPa 0,0 mm 0,0 km/h (0 Bft) S-SO 158 ° 0 min 0,000 mm 0,0 UV-I 0 W/m² 7,8 °C 9,0 °C 0,0 km/h (0 Bft)
14.09.2017 02:33 9,0 °C 9,0 °C 92 % 1007,0 hPa 0,0 mm 0,3 km/h (0 Bft) S-SO 158 ° 0 min 0,000 mm 0,0 UV-I 0 W/m² 7,8 °C 9,0 °C 1,6 km/h (1 Bft)
14.09.2017 02:34 9,0 °C 9,0 °C 92 % 1007,1 hPa 0,0 mm 0,3 km/h (0 Bft) S-SO 158 ° 0 min 0,000 mm 0,0 UV-I 0 W/m² 7,8 °C 9,0 °C 1,6 km/h (1 Bft)
14.09.2017 02:35 8,9 °C 9,0 °C 91 % 1007,1 hPa 0,0 mm 0,8 km/h (0 Bft) S-SO 158 ° 0 min 0,000 mm 0,0 UV-I 0 W/m² 7,5 °C 8,9 °C 3,2 km/h (1 Bft)
14.09.2017 02:36 9,0 °C 9,0 °C 92 % 1006,9 hPa 0,0 mm 1,9 km/h (1 Bft) S-SO 158 ° 0 min 0,000 mm 0,0 UV-I 0 W/m² 7,8 °C 9,0 °C 3,2 km/h (1 Bft)
14.09.2017 02:37 9,1 °C 9,1 °C 92 % 1007,0 hPa 0,0 mm 0,3 km/h (0 Bft) S-SO 159 ° 0 min 0,000 mm 0,0 UV-I 0 W/m² 7,9 °C 9,1 °C 1,6 km/h (1 Bft)
14.09.2017 02:38 9,1 °C 9,1 °C 92 % 1007,0 hPa 0,0 mm 5,8 km/h (2 Bft) NW 318 ° 0 min 0,000 mm 0,0 UV-I 0 W/m² 7,9 °C 8,5 °C 8,0 km/h (2 Bft)
14.09.2017 02:39 9,1 °C 9,1 °C 92 % 1007,1 hPa 0,0 mm 3,2 km/h (1 Bft) NW 312 ° 0 min 0,000 mm 0,0 UV-I 0 W/m² 7,9 °C 9,1 °C 4,8 km/h (1 Bft)
14.09.2017 02:40 9,1 °C 9,1 °C 92 % 1007,0 hPa 0,0 mm 5,5 km/h (1 Bft) S-SO 163 ° 0 min 0,000 mm 0,0 UV-I 0 W/m² 7,9 °C 8,6 °C 8,0 km/h (2 Bft)
14.09.2017 02:41 9,1 °C 9,1 °C 92 % 1006,9 hPa 0,0 mm 3,1 km/h (1 Bft) S-SO 163 ° 0 min 0,000 mm 0,0 UV-I 0 W/m² 7,9 °C 9,1 °C 6,4 km/h (2 Bft)
14.09.2017 02:42 9,1 °C 9,1 °C 92 % 1006,8 hPa 0,0 mm 1,3 km/h (1 Bft) S-SO 163 ° 0 min 0,000 mm 0,0 UV-I 0 W/m² 7,9 °C 9,1 °C 3,2 km/h (1 Bft)
14.09.2017 02:43 9,3 °C 9,3 °C 92 % 1006,8 hPa 0,0 mm 4,4 km/h (1 Bft) SO 142 ° 0 min 0,000 mm 0,0 UV-I 0 W/m² 8,1 °C 9,3 °C 6,4 km/h (2 Bft)
14.09.2017 02:44 9,4 °C 9,4 °C 93 % 1006,8 hPa 0,0 mm 5,8 km/h (2 Bft) SO 141 ° 0 min 0,000 mm 0,0 UV-I 0 W/m² 8,3 °C 8,8 °C 8,0 km/h (2 Bft)
14.09.2017 02:45 9,6 °C 9,6 °C 93 % 1006,8 hPa 0,0 mm 2,5 km/h (1 Bft) SO 144 ° 0 min 0,000 mm 0,0 UV-I 0 W/m² 8,5 °C 9,6 °C 4,8 km/h (1 Bft)
14.09.2017 02:46 9,8 °C 9,8 °C 92 % 1006,8 hPa 0,0 mm 0,7 km/h (0 Bft) SO 144 ° 0 min 0,000 mm 0,0 UV-I 0 W/m² 8,6 °C 9,8 °C 3,2 km/h (1 Bft)
14.09.2017 02:47 10,0 °C 10,0 °C 91 % 1006,9 hPa 0,0 mm 3,7 km/h (1 Bft) W-NW 295 ° 0 min 0,000 mm 0,0 UV-I 0 W/m² 8,6 °C 10,0 °C 4,8 km/h (1 Bft)
14.09.2017 02:48 10,1 °C 10,1 °C 90 % 1006,9 hPa 0,0 mm 1,8 km/h (1 Bft) W-NW 295 ° 0 min 0,000 mm 0,0 UV-I 0 W/m² 8,5 °C 10,1 °C 3,2 km/h (1 Bft)
14.09.2017 02:49 10,1 °C 10,1 °C 89 % 1006,9 hPa 0,0 mm 2,7 km/h (1 Bft) S-SW 208 ° 0 min 0,000 mm 0,0 UV-I 0 W/m² 8,4 °C 10,1 °C 4,8 km/h (1 Bft)
14.09.2017 02:50 10,1 °C 10,1 °C 90 % 1006,8 hPa 0,0 mm 3,0 km/h (1 Bft) S-SW 207 ° 0 min 0,000 mm 0,0 UV-I 0 W/m² 8,5 °C 10,1 °C 4,8 km/h (1 Bft)
14.09.2017 02:51 10,3 °C 10,3 °C 90 % 1006,8 hPa 0,0 mm 3,3 km/h (1 Bft) S-SW 202 ° 0 min 0,000 mm 0,0 UV-I 0 W/m² 8,7 °C 10,3 °C 6,4 km/h (2 Bft)
14.09.2017 02:52 10,4 °C 10,4 °C 89 % 1006,8 hPa 0,0 mm 0,0 km/h (0 Bft) S-SW 202 ° 0 min 0,000 mm 0,0 UV-I 0 W/m² 8,7 °C 10,4 °C 0,0 km/h (0 Bft)
14.09.2017 02:53 10,4 °C 10,5 °C 88 % 1006,7 hPa 0,0 mm 0,0 km/h (0 Bft) S-SW 202 ° 0 min 0,000 mm 0,0 UV-I 0 W/m² 8,5 °C 10,4 °C 0,0 km/h (0 Bft)
14.09.2017 02:54 10,3 °C 10,4 °C 87 % 1006,7 hPa 0,0 mm 0,0 km/h (0 Bft) S-SW 202 ° 0 min 0,000 mm 0,0 UV-I 0 W/m² 8,2 °C 10,3 °C 0,0 km/h (0 Bft)
14.09.2017 02:55 10,1 °C 10,3 °C 87 % 1006,7 hPa 0,0 mm 0,0 km/h (0 Bft) S-SW 202 ° 0 min 0,000 mm 0,0 UV-I 0 W/m² 8,0 °C 10,1 °C 0,0 km/h (0 Bft)
14.09.2017 02:56 9,9 °C 10,1 °C 87 % 1006,7 hPa 0,0 mm 0,0 km/h (0 Bft) S-SW 202 ° 0 min 0,000 mm 0,0 UV-I 0 W/m² 7,8 °C 9,9 °C 0,0 km/h (0 Bft)
14.09.2017 02:57 9,7 °C 9,9 °C 87 % 1006,7 hPa 0,0 mm 2,2 km/h (1 Bft) W 266 ° 0 min 0,000 mm 0,0 UV-I 0 W/m² 7,6 °C 9,7 °C 4,8 km/h (1 Bft)
14.09.2017 02:58 9,5 °C 9,7 °C 88 % 1006,7 hPa 0,0 mm 3,5 km/h (1 Bft) W-NW 297 ° 0 min 0,000 mm 0,0 UV-I 0 W/m² 7,6 °C 9,5 °C 4,8 km/h (1 Bft)
14.09.2017 02:59 9,3 °C 9,5 °C 88 % 1006,7 hPa 0,0 mm 2,0 km/h (1 Bft) S-SW 202 ° 0 min 0,000 mm 0,0 UV-I 0 W/m² 7,4 °C 9,3 °C 4,8 km/h (1 Bft)
14.09.2017 03:00 9,2 °C 9,3 °C 89 % 1006,8 hPa 0,0 mm 4,0 km/h (1 Bft) S 185 ° 0 min 0,000 mm 0,0 UV-I 0 W/m² 7,5 °C 9,2 °C 6,4 km/h (2 Bft)
14.09.2017 03:01 9,1 °C 9,2 °C 90 % 1006,7 hPa 0,0 mm 1,3 km/h (1 Bft) S 185 ° 0 min 0,000 mm 0,0 UV-I 0 W/m² 7,5 °C 9,1 °C 3,2 km/h (1 Bft)
14.09.2017 03:02 9,1 °C 9,1 °C 91 % 1006,7 hPa 0,0 mm 0,0 km/h (0 Bft) S 185 ° 0 min 0,000 mm 0,0 UV-I 0 W/m² 7,7 °C 9,1 °C 0,0 km/h (0 Bft)
14.09.2017 03:03 9,1 °C 9,1 °C 91 % 1006,8 hPa 0,0 mm 0,3 km/h (0 Bft) S 185 ° 0 min 0,000 mm 0,0 UV-I 0 W/m² 7,7 °C 9,1 °C 1,6 km/h (1 Bft)
14.09.2017 03:04 9,0 °C 9,1 °C 91 % 1006,8 hPa 0,0 mm 0,5 km/h (0 Bft) S 185 ° 0 min 0,000 mm 0,0 UV-I 0 W/m² 7,6 °C 9,0 °C 3,2 km/h (1 Bft)
14.09.2017 03:05 8,9 °C 9,0 °C 91 % 1006,9 hPa 0,0 mm 2,7 km/h (1 Bft) S 173 ° 0 min 0,000 mm 0,0 UV-I 0 W/m² 7,5 °C 8,9 °C 3,2 km/h (1 Bft)
14.09.2017 03:06 9,0 °C 9,0 °C 91 % 1006,7 hPa 0,0 mm 5,1 km/h (1 Bft) S-SO 150 ° 0 min 0,000 mm 0,0 UV-I 0 W/m² 7,6 °C 8,6 °C 6,4 km/h (2 Bft)
14.09.2017 03:07 9,1 °C 9,1 °C 92 % 1006,7 hPa 0,0 mm 5,9 km/h (2 Bft) S-SO 152 ° 0 min 0,000 mm 0,0 UV-I 0 W/m² 7,9 °C 8,5 °C 6,4 km/h (2 Bft)
14.09.2017 03:08 9,2 °C 9,2 °C 92 % 1006,6 hPa 0,0 mm 4,6 km/h (1 Bft) S-SO 147 ° 0 min 0,000 mm 0,0 UV-I 0 W/m² 8,0 °C 9,0 °C 8,0 km/h (2 Bft)
14.09.2017 03:09 9,4 °C 9,4 °C 92 % 1006,4 hPa 0,0 mm 2,1 km/h (1 Bft) SO 144 ° 0 min 0,000 mm 0,0 UV-I 0 W/m² 8,2 °C 9,4 °C 4,8 km/h (1 Bft)
14.09.2017 03:10 9,6 °C 9,6 °C 92 % 1006,4 hPa 0,0 mm 2,4 km/h (1 Bft) S-SO 163 ° 0 min 0,000 mm 0,0 UV-I 0 W/m² 8,4 °C 9,6 °C 8,0 km/h (2 Bft)
14.09.2017 03:11 9,8 °C 9,8 °C 91 % 1006,5 hPa 0,0 mm 2,9 km/h (1 Bft) W-NW 298 ° 0 min 0,000 mm 0,0 UV-I 0 W/m² 8,4 °C 9,8 °C 4,8 km/h (1 Bft)
14.09.2017 03:12 9,8 °C 9,8 °C 90 % 1006,6 hPa 0,0 mm 3,9 km/h (1 Bft) W-NW 300 ° 0 min 0,000 mm 0,0 UV-I 0 W/m² 8,2 °C 9,8 °C 6,4 km/h (2 Bft)
14.09.2017 03:13 9,7 °C 9,8 °C 89 % 1006,6 hPa 0,0 mm 0,9 km/h (0 Bft) W-NW 300 ° 0 min 0,000 mm 0,0 UV-I 0 W/m² 8,0 °C 9,7 °C 3,2 km/h (1 Bft)
14.09.2017 03:14 9,4 °C 9,7 °C 89 % 1006,6 hPa 0,0 mm 3,2 km/h (1 Bft) SW 225 ° 0 min 0,000 mm 0,0 UV-I 0 W/m² 7,7 °C 9,4 °C 4,8 km/h (1 Bft)
14.09.2017 03:15 9,4 °C 9,4 °C 89 % 1006,6 hPa 0,0 mm 2,2 km/h (1 Bft) SW 225 ° 0 min 0,000 mm 0,0 UV-I 0 W/m² 7,7 °C 9,4 °C 3,2 km/h (1 Bft)
14.09.2017 03:16 9,3 °C 9,4 °C 90 % 1006,5 hPa 0,0 mm 3,9 km/h (1 Bft) SW 221 ° 0 min 0,000 mm 0,0 UV-I 0 W/m² 7,7 °C 9,3 °C 4,8 km/h (1 Bft)
14.09.2017 03:17 9,3 °C 9,3 °C 90 % 1006,4 hPa 0,0 mm 2,8 km/h (1 Bft) SW 221 ° 0 min 0,000 mm 0,0 UV-I 0 W/m² 7,7 °C 9,3 °C 4,8 km/h (1 Bft)
14.09.2017 03:18 9,3 °C 9,3 °C 90 % 1006,4 hPa 0,0 mm 2,2 km/h (1 Bft) SW 221 ° 0 min 0,000 mm 0,0 UV-I 0 W/m² 7,7 °C 9,3 °C 3,2 km/h (1 Bft)
14.09.2017 03:19 9,4 °C 9,4 °C 91 % 1006,4 hPa 0,0 mm 1,4 km/h (1 Bft) SW 221 ° 0 min 0,000 mm 0,0 UV-I 0 W/m² 8,0 °C 9,4 °C 3,2 km/h (1 Bft)
14.09.2017 03:20 9,4 °C 9,4 °C 91 % 1006,4 hPa 0,0 mm 0,9 km/h (0 Bft) SW 217 ° 0 min 0,000 mm 0,0 UV-I 0 W/m² 8,0 °C 9,4 °C 4,8 km/h (1 Bft)
14.09.2017 03:21 9,6 °C 9,6 °C 91 % 1006,5 hPa 0,0 mm 0,8 km/h (0 Bft) SW 224 ° 0 min 0,000 mm 0,0 UV-I 0 W/m² 8,2 °C 9,6 °C 3,2 km/h (1 Bft)
14.09.2017 03:22 9,6 °C 9,6 °C 90 % 1006,4 hPa 0,0 mm 3,2 km/h (1 Bft) NW 316 ° 0 min 0,000 mm 0,0 UV-I 0 W/m² 8,0 °C 9,6 °C 4,8 km/h (1 Bft)
14.09.2017 03:23 9,6 °C 9,6 °C 89 % 1006,4 hPa 0,0 mm 0,3 km/h (0 Bft) W-SW 244 ° 0 min 0,000 mm 0,0 UV-I 0 W/m² 7,9 °C 9,6 °C 1,6 km/h (1 Bft)
14.09.2017 03:24 9,6 °C 9,6 °C 90 % 1006,4 hPa 0,0 mm 3,0 km/h (1 Bft) SW 223 ° 0 min 0,000 mm 0,0 UV-I 0 W/m² 8,0 °C 9,6 °C 3,2 km/h (1 Bft)
14.09.2017 03:25 9,6 °C 9,6 °C 90 % 1006,3 hPa 0,0 mm 0,6 km/h (0 Bft) SW 223 ° 0 min 0,000 mm 0,0 UV-I 0 W/m² 8,0 °C 9,6 °C 1,6 km/h (1 Bft)
14.09.2017 03:26 9,6 °C 9,6 °C 90 % 1006,3 hPa 0,0 mm 0,0 km/h (0 Bft) SW 223 ° 0 min 0,000 mm 0,0 UV-I 0 W/m² 8,0 °C 9,6 °C 0,0 km/h (0 Bft)
14.09.2017 03:27 9,6 °C 9,6 °C 89 % 1006,3 hPa 0,0 mm 0,7 km/h (0 Bft) W-SW 242 ° 0 min 0,000 mm 0,0 UV-I 0 W/m² 7,9 °C 9,6 °C 3,2 km/h (1 Bft)
14.09.2017 03:28 9,4 °C 9,6 °C 89 % 1006,4 hPa 0,0 mm 0,0 km/h (0 Bft) W-SW 242 ° 0 min 0,000 mm 0,0 UV-I 0 W/m² 7,7 °C 9,4 °C 0,0 km/h (0 Bft)
14.09.2017 03:29 9,2 °C 9,4 °C 89 % 1006,3 hPa 0,0 mm 1,5 km/h (1 Bft) SW 218 ° 0 min 0,000 mm 0,0 UV-I 0 W/m² 7,5 °C 9,2 °C 4,8 km/h (1 Bft)
14.09.2017 03:30 9,2 °C 9,2 °C 89 % 1006,3 hPa 0,0 mm 2,3 km/h (1 Bft) SW 218 ° 0 min 0,000 mm 0,0 UV-I 0 W/m² 7,5 °C 9,2 °C 4,8 km/h (1 Bft)
14.09.2017 03:31 9,2 °C 9,2 °C 90 % 1006,3 hPa 0,0 mm 1,3 km/h (1 Bft) SW 218 ° 0 min 0,000 mm 0,0 UV-I 0 W/m² 7,6 °C 9,2 °C 3,2 km/h (1 Bft)
14.09.2017 03:32 9,2 °C 9,2 °C 91 % 1006,4 hPa 0,0 mm 2,5 km/h (1 Bft) W 266 ° 0 min 0,000 mm 0,0 UV-I 0 W/m² 7,8 °C 9,2 °C 4,8 km/h (1 Bft)
14.09.2017 03:33 9,1 °C 9,2 °C 90 % 1006,4 hPa 0,0 mm 2,1 km/h (1 Bft) W 266 ° 0 min 0,000 mm 0,0 UV-I 0 W/m² 7,5 °C 9,1 °C 3,2 km/h (1 Bft)
14.09.2017 03:34 9,0 °C 9,1 °C 90 % 1006,3 hPa 0,0 mm 2,1 km/h (1 Bft) S 188 ° 0 min 0,000 mm 0,0 UV-I 0 W/m² 7,4 °C 9,0 °C 4,8 km/h (1 Bft)
14.09.2017 03:35 9,0 °C 9,0 °C 90 % 1006,2 hPa 0,0 mm 4,8 km/h (1 Bft) SO 145 ° 0 min 0,000 mm 0,0 UV-I 0 W/m² 7,4 °C 8,7 °C 6,4 km/h (2 Bft)
14.09.2017 03:36 9,2 °C 9,2 °C 91 % 1006,1 hPa 0,0 mm 3,9 km/h (1 Bft) SO 146 ° 0 min 0,000 mm 0,0 UV-I 0 W/m² 7,8 °C 9,2 °C 6,4 km/h (2 Bft)
14.09.2017 03:37 9,4 °C 9,4 °C 91 % 1006,1 hPa 0,0 mm 1,3 km/h (1 Bft) SO 146 ° 0 min 0,000 mm 0,0 UV-I 0 W/m² 8,0 °C 9,4 °C 3,2 km/h (1 Bft)
14.09.2017 03:38 9,8 °C 9,8 °C 91 % 1006,0 hPa 0,0 mm 3,2 km/h (1 Bft) S-SO 162 ° 0 min 0,000 mm 0,0 UV-I 0 W/m² 8,4 °C 9,8 °C 6,4 km/h (2 Bft)
14.09.2017 03:39 9,9 °C 9,9 °C 90 % 1006,0 hPa 0,0 mm 1,7 km/h (1 Bft) W-NW 291 ° 0 min 0,000 mm 0,0 UV-I 0 W/m² 8,3 °C 9,9 °C 4,8 km/h (1 Bft)
14.09.2017 03:40 9,9 °C 10,0 °C 88 % 1006,2 hPa 0,0 mm 2,6 km/h (1 Bft) W-NW 291 ° 0 min 0,000 mm 0,0 UV-I 0 W/m² 8,0 °C 9,9 °C 4,8 km/h (1 Bft)
14.09.2017 03:41 9,8 °C 9,9 °C 88 % 1006,1 hPa 0,0 mm 2,7 km/h (1 Bft) W-NW 288 ° 0 min 0,000 mm 0,0 UV-I 0 W/m² 7,9 °C 9,8 °C 6,4 km/h (2 Bft)
14.09.2017 03:42 9,6 °C 9,8 °C 87 % 1006,3 hPa 0,0 mm 3,6 km/h (1 Bft) W-SW 240 ° 0 min 0,000 mm 0,0 UV-I 0 W/m² 7,5 °C 9,6 °C 6,4 km/h (2 Bft)
14.09.2017 03:43 9,4 °C 9,6 °C 87 % 1006,2 hPa 0,0 mm 6,4 km/h (2 Bft) S 169 ° 0 min 0,000 mm 0,0 UV-I 0 W/m² 7,3 °C 8,7 °C 8,0 km/h (2 Bft)
14.09.2017 03:44 9,2 °C 9,4 °C 88 % 1006,1 hPa 0,0 mm 5,1 km/h (1 Bft) S-SO 167 ° 0 min 0,000 mm 0,0 UV-I 0 W/m² 7,3 °C 8,8 °C 6,4 km/h (2 Bft)
14.09.2017 03:45 9,2 °C 9,2 °C 89 % 1006,2 hPa 0,0 mm 0,1 km/h (0 Bft) S-SO 167 ° 0 min 0,000 mm 0,0 UV-I 0 W/m² 7,5 °C 9,2 °C 1,6 km/h (1 Bft)
14.09.2017 03:46 9,1 °C 9,2 °C 89 % 1006,2 hPa 0,0 mm 2,0 km/h (1 Bft) S-SO 167 ° 0 min 0,000 mm 0,0 UV-I 0 W/m² 7,4 °C 9,1 °C 4,8 km/h (1 Bft)
14.09.2017 03:47 9,0 °C 9,1 °C 89 % 1006,1 hPa 0,0 mm 2,8 km/h (1 Bft) S-SO 167 ° 0 min 0,000 mm 0,0 UV-I 0 W/m² 7,3 °C 9,0 °C 8,0 km/h (2 Bft)
14.09.2017 03:48 8,9 °C 9,0 °C 89 % 1006,1 hPa 0,0 mm 5,0 km/h (1 Bft) S-SO 157 ° 0 min 0,000 mm 0,0 UV-I 0 W/m² 7,2 °C 8,5 °C 8,0 km/h (2 Bft)
14.09.2017 03:49 9,0 °C 9,0 °C 90 % 1006,1 hPa 0,0 mm 2,4 km/h (1 Bft) S-SO 159 ° 0 min 0,000 mm 0,0 UV-I 0 W/m² 7,4 °C 9,0 °C 6,4 km/h (2 Bft)
14.09.2017 03:50 9,1 °C 9,1 °C 91 % 1006,1 hPa 0,0 mm 0,1 km/h (0 Bft) S-SO 159 ° 0 min 0,000 mm 0,0 UV-I 0 W/m² 7,7 °C 9,1 °C 1,6 km/h (1 Bft)
14.09.2017 03:51 9,1 °C 9,2 °C 90 % 1006,2 hPa 0,0 mm 3,4 km/h (1 Bft) N-NW 331 ° 0 min 0,000 mm 0,0 UV-I 0 W/m² 7,5 °C 9,1 °C 6,4 km/h (2 Bft)
14.09.2017 03:52 9,0 °C 9,1 °C 89 % 1006,3 hPa 0,0 mm 0,0 km/h (0 Bft) N-NW 331 ° 0 min 0,000 mm 0,0 UV-I 0 W/m² 7,3 °C 9,0 °C 0,0 km/h (0 Bft)
14.09.2017 03:53 8,9 °C 9,0 °C 90 % 1006,1 hPa 0,0 mm 3,0 km/h (1 Bft) O-NO 77 ° 0 min 0,000 mm 0,0 UV-I 0 W/m² 7,4 °C 8,9 °C 4,8 km/h (1 Bft)
14.09.2017 03:54 8,9 °C 8,9 °C 90 % 1006,1 hPa 0,0 mm 2,3 km/h (1 Bft) O-NO 78 ° 0 min 0,000 mm 0,0 UV-I 0 W/m² 7,4 °C 8,9 °C 3,2 km/h (1 Bft)
14.09.2017 03:55 9,1 °C 9,1 °C 91 % 1006,2 hPa 0,0 mm 1,5 km/h (1 Bft) SO 138 ° 0 min 0,000 mm 0,0 UV-I 0 W/m² 7,7 °C 9,1 °C 3,2 km/h (1 Bft)
14.09.2017 03:56 9,2 °C 9,2 °C 91 % 1006,2 hPa 0,0 mm 0,3 km/h (0 Bft) SO 138 ° 0 min 0,000 mm 0,0 UV-I 0 W/m² 7,8 °C 9,2 °C 1,6 km/h (1 Bft)
14.09.2017 03:57 9,2 °C 9,2 °C 90 % 1006,1 hPa 0,0 mm 0,5 km/h (0 Bft) SO 126 ° 0 min 0,000 mm 0,0 UV-I 0 W/m² 7,6 °C 9,2 °C 3,2 km/h (1 Bft)
14.09.2017 03:58 9,2 °C 9,3 °C 89 % 1006,0 hPa 0,0 mm 2,0 km/h (1 Bft) SO 126 ° 0 min 0,000 mm 0,0 UV-I 0 W/m² 7,5 °C 9,2 °C 3,2 km/h (1 Bft)
14.09.2017 03:59 9,2 °C 9,2 °C 90 % 1006,2 hPa 0,0 mm 0,5 km/h (0 Bft) SO 126 ° 0 min 0,000 mm 0,0 UV-I 0 W/m² 7,6 °C 9,2 °C 1,6 km/h (1 Bft)
14.09.2017 04:00 9,3 °C 9,3 °C 90 % 1006,2 hPa 0,0 mm 1,7 km/h (1 Bft) SO 126 ° 0 min 0,000 mm 0,0 UV-I 0 W/m² 7,7 °C 9,3 °C 3,2 km/h (1 Bft)
14.09.2017 04:01 9,2 °C 9,3 °C 90 % 1006,1 hPa 0,0 mm 1,2 km/h (1 Bft) SO 126 ° 0 min 0,000 mm 0,0 UV-I 0 W/m² 7,6 °C 9,2 °C 3,2 km/h (1 Bft)
14.09.2017 04:02 9,1 °C 9,2 °C 89 % 1006,0 hPa 0,0 mm 3,0 km/h (1 Bft) SO 126 ° 0 min 0,000 mm 0,0 UV-I 0 W/m² 7,4 °C 9,1 °C 4,8 km/h (1 Bft)
14.09.2017 04:03 9,3 °C 9,3 °C 91 % 1006,0 hPa 0,0 mm 1,5 km/h (1 Bft) SO 126 ° 0 min 0,000 mm 0,0 UV-I 0 W/m² 7,9 °C 9,3 °C 1,6 km/h (1 Bft)
14.09.2017 04:04 9,6 °C 9,6 °C 90 % 1005,9 hPa 0,0 mm 0,4 km/h (0 Bft) SO 126 ° 0 min 0,000 mm 0,0 UV-I 0 W/m² 8,0 °C 9,6 °C 1,6 km/h (1 Bft)
14.09.2017 04:05 9,7 °C 9,7 °C 89 % 1006,0 hPa 0,0 mm 0,0 km/h (0 Bft) SO 126 ° 0 min 0,000 mm 0,0 UV-I 0 W/m² 8,0 °C 9,7 °C 0,0 km/h (0 Bft)
14.09.2017 04:06 9,7 °C 9,7 °C 88 % 1006,0 hPa 0,0 mm 1,6 km/h (1 Bft) NW 319 ° 0 min 0,000 mm 0,0 UV-I 0 W/m² 7,8 °C 9,7 °C 4,8 km/h (1 Bft)
14.09.2017 04:07 9,4 °C 9,7 °C 87 % 1005,9 hPa 0,0 mm 0,3 km/h (0 Bft) NW 319 ° 0 min 0,000 mm 0,0 UV-I 0 W/m² 7,3 °C 9,4 °C 1,6 km/h (1 Bft)
14.09.2017 04:08 9,1 °C 9,4 °C 86 % 1005,9 hPa 0,0 mm 0,0 km/h (0 Bft) NW 319 ° 0 min 0,000 mm 0,0 UV-I 0 W/m² 6,9 °C 9,1 °C 0,0 km/h (0 Bft)
14.09.2017 04:09 8,9 °C 9,1 °C 89 % 1005,8 hPa 0,0 mm 0,0 km/h (0 Bft) NW 319 ° 0 min 0,000 mm 0,0 UV-I 0 W/m² 7,2 °C 8,9 °C 0,0 km/h (0 Bft)
14.09.2017 04:10 8,9 °C 8,9 °C 89 % 1005,8 hPa 0,0 mm 1,2 km/h (1 Bft) N 350 ° 0 min 0,000 mm 0,0 UV-I 0 W/m² 7,2 °C 8,9 °C 3,2 km/h (1 Bft)
14.09.2017 04:11 8,8 °C 8,9 °C 89 % 1005,9 hPa 0,0 mm 0,0 km/h (0 Bft) N 350 ° 0 min 0,000 mm 0,0 UV-I 0 W/m² 7,1 °C 8,8 °C 0,0 km/h (0 Bft)
14.09.2017 04:12 8,9 °C 8,9 °C 90 % 1005,9 hPa 0,0 mm 0,0 km/h (0 Bft) N 350 ° 0 min 0,000 mm 0,0 UV-I 0 W/m² 7,4 °C 8,9 °C 0,0 km/h (0 Bft)
14.09.2017 04:13 8,9 °C 8,9 °C 91 % 1005,9 hPa 0,0 mm 0,0 km/h (0 Bft) N 350 ° 0 min 0,000 mm 0,0 UV-I 0 W/m² 7,5 °C 8,9 °C 0,0 km/h (0 Bft)
14.09.2017 04:14 8,9 °C 8,9 °C 90 % 1005,9 hPa 0,0 mm 0,0 km/h (0 Bft) N 350 ° 0 min 0,000 mm 0,0 UV-I 0 W/m² 7,4 °C 8,9 °C 0,0 km/h (0 Bft)
14.09.2017 04:15 8,9 °C 8,9 °C 90 % 1005,8 hPa 0,0 mm 2,0 km/h (1 Bft) N 350 ° 0 min 0,000 mm 0,0 UV-I 0 W/m² 7,4 °C 8,9 °C 3,2 km/h (1 Bft)
14.09.2017 04:16 8,9 °C 8,9 °C 91 % 1005,8 hPa 0,0 mm 0,0 km/h (0 Bft) N 350 ° 0 min 0,000 mm 0,0 UV-I 0 W/m² 7,5 °C 8,9 °C 0,0 km/h (0 Bft)
14.09.2017 04:17 8,9 °C 8,9 °C 91 % 1005,9 hPa 0,0 mm 0,0 km/h (0 Bft) N 350 ° 0 min 0,000 mm 0,0 UV-I 0 W/m² 7,5 °C 8,9 °C 0,0 km/h (0 Bft)
14.09.2017 04:18 8,8 °C 8,9 °C 90 % 1005,9 hPa 0,0 mm 0,0 km/h (0 Bft) N 350 ° 0 min 0,000 mm 0,0 UV-I 0 W/m² 7,3 °C 8,8 °C 0,0 km/h (0 Bft)
14.09.2017 04:19 8,8 °C 8,9 °C 90 % 1005,9 hPa 0,0 mm 0,0 km/h (0 Bft) N 350 ° 0 min 0,000 mm 0,0 UV-I 0 W/m² 7,3 °C 8,8 °C 0,0 km/h (0 Bft)
14.09.2017 04:20 8,8 °C 8,8 °C 90 % 1005,9 hPa 0,0 mm 0,5 km/h (0 Bft) N 350 ° 0 min 0,000 mm 0,0 UV-I 0 W/m² 7,3 °C 8,8 °C 1,6 km/h (1 Bft)
14.09.2017 04:21 8,6 °C 8,8 °C 90 % 1005,9 hPa 0,0 mm 0,4 km/h (0 Bft) N 350 ° 0 min 0,000 mm 0,0 UV-I 0 W/m² 7,1 °C 8,6 °C 1,6 km/h (1 Bft)
14.09.2017 04:22 8,5 °C 8,6 °C 90 % 1005,9 hPa 0,0 mm 0,5 km/h (0 Bft) N 350 ° 0 min 0,000 mm 0,0 UV-I 0 W/m² 7,0 °C 8,5 °C 1,6 km/h (1 Bft)
14.09.2017 04:23 8,4 °C 8,5 °C 90 % 1005,9 hPa 0,0 mm 3,0 km/h (1 Bft) N 350 ° 0 min 0,000 mm 0,0 UV-I 0 W/m² 6,9 °C 8,4 °C 4,8 km/h (1 Bft)
14.09.2017 04:24 8,6 °C 8,6 °C 91 % 1005,8 hPa 0,0 mm 1,3 km/h (1 Bft) N 350 ° 0 min 0,000 mm 0,0 UV-I 0 W/m² 7,2 °C 8,6 °C 3,2 km/h (1 Bft)
14.09.2017 04:25 8,9 °C 8,9 °C 92 % 1005,8 hPa 0,0 mm 0,0 km/h (0 Bft) N 350 ° 0 min 0,000 mm 0,0 UV-I 0 W/m² 7,7 °C 8,9 °C 0,0 km/h (0 Bft)
14.09.2017 04:26 9,2 °C 9,2 °C 91 % 1005,8 hPa 0,0 mm 0,7 km/h (0 Bft) N 350 ° 0 min 0,000 mm 0,0 UV-I 0 W/m² 7,8 °C 9,2 °C 3,2 km/h (1 Bft)
14.09.2017 04:27 9,1 °C 9,2 °C 89 % 1005,8 hPa 0,0 mm 2,9 km/h (1 Bft) N-NW 333 ° 0 min 0,000 mm 0,0 UV-I 0 W/m² 7,4 °C 9,1 °C 3,2 km/h (1 Bft)
14.09.2017 04:28 9,0 °C 9,1 °C 89 % 1005,8 hPa 0,0 mm 0,1 km/h (0 Bft) N-NW 333 ° 0 min 0,000 mm 0,0 UV-I 0 W/m² 7,3 °C 9,0 °C 1,6 km/h (1 Bft)
14.09.2017 04:29 8,8 °C 9,0 °C 89 % 1005,7 hPa 0,0 mm 1,2 km/h (1 Bft) N-NW 333 ° 0 min 0,000 mm 0,0 UV-I 0 W/m² 7,1 °C 8,8 °C 1,6 km/h (1 Bft)
14.09.2017 04:30 8,8 °C 8,8 °C 89 % 1005,7 hPa 0,0 mm 1,2 km/h (1 Bft) N-NW 333 ° 0 min 0,000 mm 0,0 UV-I 0 W/m² 7,1 °C 8,8 °C 3,2 km/h (1 Bft)
14.09.2017 04:31 8,9 °C 8,9 °C 90 % 1005,8 hPa 0,0 mm 3,3 km/h (1 Bft) S-SW 211 ° 0 min 0,000 mm 0,0 UV-I 0 W/m² 7,4 °C 8,9 °C 6,4 km/h (2 Bft)
14.09.2017 04:32 9,1 °C 9,1 °C 90 % 1005,6 hPa 0,0 mm 0,1 km/h (0 Bft) S-SW 211 ° 0 min 0,000 mm 0,0 UV-I 0 W/m² 7,5 °C 9,1 °C 1,6 km/h (1 Bft)
14.09.2017 04:33 8,9 °C 9,1 °C 89 % 1005,6 hPa 0,0 mm 0,1 km/h (0 Bft) S-SW 199 ° 0 min 0,000 mm 0,0 UV-I 0 W/m² 7,2 °C 8,9 °C 1,6 km/h (1 Bft)
14.09.2017 04:34 8,9 °C 8,9 °C 89 % 1005,7 hPa 0,0 mm 0,0 km/h (0 Bft) S-SW 199 ° 0 min 0,000 mm 0,0 UV-I 0 W/m² 7,2 °C 8,9 °C 0,0 km/h (0 Bft)
14.09.2017 04:35 8,8 °C 8,9 °C 90 % 1005,7 hPa 0,0 mm 0,0 km/h (0 Bft) S-SW 199 ° 0 min 0,000 mm 0,0 UV-I 0 W/m² 7,3 °C 8,8 °C 0,0 km/h (0 Bft)
14.09.2017 04:36 8,7 °C 8,8 °C 89 % 1005,5 hPa 0,0 mm 0,1 km/h (0 Bft) S-SW 200 ° 0 min 0,000 mm 0,0 UV-I 0 W/m² 7,0 °C 8,7 °C 1,6 km/h (1 Bft)
14.09.2017 04:37 8,6 °C 8,7 °C 89 % 1005,7 hPa 0,0 mm 3,2 km/h (1 Bft) W-SW 255 ° 0 min 0,000 mm 0,0 UV-I 0 W/m² 6,9 °C 8,6 °C 4,8 km/h (1 Bft)
14.09.2017 04:38 8,4 °C 8,6 °C 89 % 1005,7 hPa 0,0 mm 0,4 km/h (0 Bft) W-SW 255 ° 0 min 0,000 mm 0,0 UV-I 0 W/m² 6,7 °C 8,4 °C 1,6 km/h (1 Bft)
14.09.2017 04:39 8,3 °C 8,4 °C 90 % 1005,6 hPa 0,0 mm 1,3 km/h (1 Bft) W-SW 244 ° 0 min 0,000 mm 0,0 UV-I 0 W/m² 6,8 °C 8,3 °C 3,2 km/h (1 Bft)
14.09.2017 04:40 8,3 °C 8,3 °C 90 % 1005,6 hPa 0,0 mm 0,1 km/h (0 Bft) W-SW 244 ° 0 min 0,000 mm 0,0 UV-I 0 W/m² 6,8 °C 8,3 °C 1,6 km/h (1 Bft)
14.09.2017 04:41 8,3 °C 8,3 °C 91 % 1005,6 hPa 0,0 mm 0,0 km/h (0 Bft) W-SW 244 ° 0 min 0,000 mm 0,0 UV-I 0 W/m² 6,9 °C 8,3 °C 0,0 km/h (0 Bft)
14.09.2017 04:42 8,3 °C 8,3 °C 91 % 1005,6 hPa 0,0 mm 0,0 km/h (0 Bft) W-SW 244 ° 0 min 0,000 mm 0,0 UV-I 0 W/m² 6,9 °C 8,3 °C 0,0 km/h (0 Bft)
14.09.2017 04:43 8,3 °C 8,3 °C 91 % 1005,5 hPa 0,0 mm 0,1 km/h (0 Bft) W-SW 244 ° 0 min 0,000 mm 0,0 UV-I 0 W/m² 6,9 °C 8,3 °C 1,6 km/h (1 Bft)
14.09.2017 04:44 8,3 °C 8,3 °C 92 % 1005,7 hPa 0,0 mm 0,5 km/h (0 Bft) W 263 ° 0 min 0,000 mm 0,0 UV-I 0 W/m² 7,1 °C 8,3 °C 3,2 km/h (1 Bft)
14.09.2017 04:45 8,3 °C 8,3 °C 92 % 1005,7 hPa 0,0 mm 2,6 km/h (1 Bft) W 263 ° 0 min 0,000 mm 0,0 UV-I 0 W/m² 7,1 °C 8,3 °C 4,8 km/h (1 Bft)
14.09.2017 04:46 8,3 °C 8,4 °C 92 % 1005,7 hPa 0,0 mm 1,0 km/h (0 Bft) S-SW 212 ° 0 min 0,000 mm 0,0 UV-I 0 W/m² 7,1 °C 8,3 °C 3,2 km/h (1 Bft)
14.09.2017 04:47 8,4 °C 8,4 °C 91 % 1005,6 hPa 0,0 mm 2,7 km/h (1 Bft) S-SW 212 ° 0 min 0,000 mm 0,0 UV-I 0 W/m² 7,0 °C 8,4 °C 4,8 km/h (1 Bft)
14.09.2017 04:48 8,4 °C 8,4 °C 92 % 1005,6 hPa 0,0 mm 1,5 km/h (1 Bft) S-SW 212 ° 0 min 0,000 mm 0,0 UV-I 0 W/m² 7,2 °C 8,4 °C 3,2 km/h (1 Bft)
14.09.2017 04:49 8,6 °C 8,6 °C 92 % 1005,6 hPa 0,0 mm 0,2 km/h (0 Bft) S-SW 212 ° 0 min 0,000 mm 0,0 UV-I 0 W/m² 7,4 °C 8,6 °C 1,6 km/h (1 Bft)
14.09.2017 04:50 8,7 °C 8,7 °C 92 % 1005,6 hPa 0,0 mm 0,0 km/h (0 Bft) S-SW 212 ° 0 min 0,000 mm 0,0 UV-I 0 W/m² 7,5 °C 8,7 °C 0,0 km/h (0 Bft)
14.09.2017 04:51 8,9 °C 8,9 °C 92 % 1005,6 hPa 0,0 mm 3,6 km/h (1 Bft) N-NW 329 ° 0 min 0,000 mm 0,0 UV-I 0 W/m² 7,7 °C 8,9 °C 6,4 km/h (2 Bft)
14.09.2017 04:52 8,8 °C 8,9 °C 90 % 1005,6 hPa 0,0 mm 2,6 km/h (1 Bft) N-NW 329 ° 0 min 0,000 mm 0,0 UV-I 0 W/m² 7,3 °C 8,8 °C 6,4 km/h (2 Bft)
14.09.2017 04:53 8,6 °C 8,8 °C 89 % 1005,6 hPa 0,0 mm 3,0 km/h (1 Bft) S-SO 168 ° 0 min 0,000 mm 0,0 UV-I 0 W/m² 6,9 °C 8,6 °C 6,4 km/h (2 Bft)
14.09.2017 04:54 8,5 °C 8,6 °C 90 % 1005,6 hPa 0,0 mm 2,1 km/h (1 Bft) S-SO 168 ° 0 min 0,000 mm 0,0 UV-I 0 W/m² 7,0 °C 8,5 °C 6,4 km/h (2 Bft)
14.09.2017 04:55 8,4 °C 8,5 °C 90 % 1005,7 hPa 0,0 mm 3,6 km/h (1 Bft) NW 323 ° 0 min 0,000 mm 0,0 UV-I 0 W/m² 6,9 °C 8,4 °C 6,4 km/h (2 Bft)
14.09.2017 04:56 8,3 °C 8,4 °C 90 % 1005,7 hPa 0,0 mm 1,8 km/h (1 Bft) NW 323 ° 0 min 0,000 mm 0,0 UV-I 0 W/m² 6,8 °C 8,3 °C 4,8 km/h (1 Bft)
14.09.2017 04:57 8,1 °C 8,3 °C 90 % 1005,6 hPa 0,0 mm 4,4 km/h (1 Bft) S-SO 162 ° 0 min 0,000 mm 0,0 UV-I 0 W/m² 6,6 °C 8,1 °C 6,4 km/h (2 Bft)
14.09.2017 04:58 8,3 °C 8,3 °C 91 % 1005,5 hPa 0,0 mm 3,4 km/h (1 Bft) S-SO 162 ° 0 min 0,000 mm 0,0 UV-I 0 W/m² 6,9 °C 8,3 °C 6,4 km/h (2 Bft)
14.09.2017 04:59 8,7 °C 8,7 °C 92 % 1005,5 hPa 0,0 mm 2,9 km/h (1 Bft) S 177 ° 0 min 0,000 mm 0,0 UV-I 0 W/m² 7,5 °C 8,7 °C 6,4 km/h (2 Bft)
14.09.2017 05:00 9,0 °C 9,0 °C 93 % 1005,6 hPa 0,0 mm 4,8 km/h (1 Bft) S 178 ° 0 min 0,000 mm 0,0 UV-I 0 W/m² 7,9 °C 8,7 °C 6,4 km/h (2 Bft)
14.09.2017 05:01 9,3 °C 9,3 °C 91 % 1005,7 hPa 0,0 mm 2,5 km/h (1 Bft) W-NW 302 ° 0 min 0,000 mm 0,0 UV-I 0 W/m² 7,9 °C 9,3 °C 4,8 km/h (1 Bft)
14.09.2017 05:02 9,2 °C 9,3 °C 89 % 1005,7 hPa 0,0 mm 0,5 km/h (0 Bft) W-NW 302 ° 0 min 0,000 mm 0,0 UV-I 0 W/m² 7,5 °C 9,2 °C 3,2 km/h (1 Bft)
14.09.2017 05:03 9,0 °C 9,2 °C 88 % 1005,6 hPa 0,0 mm 0,0 km/h (0 Bft) W-NW 302 ° 0 min 0,000 mm 0,0 UV-I 0 W/m² 7,1 °C 9,0 °C 0,0 km/h (0 Bft)
14.09.2017 05:04 8,8 °C 9,0 °C 88 % 1005,6 hPa 0,0 mm 1,1 km/h (1 Bft) W-NW 302 ° 0 min 0,000 mm 0,0 UV-I 0 W/m² 6,9 °C 8,8 °C 3,2 km/h (1 Bft)
14.09.2017 05:05 8,6 °C 8,8 °C 89 % 1005,7 hPa 0,0 mm 0,3 km/h (0 Bft) W-NW 302 ° 0 min 0,000 mm 0,0 UV-I 0 W/m² 6,9 °C 8,6 °C 1,6 km/h (1 Bft)
14.09.2017 05:06 8,4 °C 8,6 °C 89 % 1005,7 hPa 0,0 mm 1,3 km/h (1 Bft) SW 236 ° 0 min 0,000 mm 0,0 UV-I 0 W/m² 6,7 °C 8,4 °C 3,2 km/h (1 Bft)
14.09.2017 05:07 8,4 °C 8,4 °C 90 % 1005,6 hPa 0,0 mm 3,3 km/h (1 Bft) SW 220 ° 0 min 0,000 mm 0,0 UV-I 0 W/m² 6,9 °C 8,4 °C 4,8 km/h (1 Bft)
14.09.2017 05:08 8,5 °C 8,5 °C 91 % 1005,6 hPa 0,0 mm 2,4 km/h (1 Bft) S-SO 167 ° 0 min 0,000 mm 0,0 UV-I 0 W/m² 7,1 °C 8,5 °C 4,8 km/h (1 Bft)
14.09.2017 05:09 8,5 °C 8,6 °C 91 % 1005,5 hPa 0,0 mm 2,7 km/h (1 Bft) W-NW 296 ° 0 min 0,000 mm 0,0 UV-I 0 W/m² 7,1 °C 8,5 °C 4,8 km/h (1 Bft)
14.09.2017 05:10 8,4 °C 8,5 °C 90 % 1005,6 hPa 0,0 mm 3,8 km/h (1 Bft) W-NW 298 ° 0 min 0,000 mm 0,0 UV-I 0 W/m² 6,9 °C 8,4 °C 4,8 km/h (1 Bft)
14.09.2017 05:11 8,3 °C 8,4 °C 90 % 1005,7 hPa 0,0 mm 2,7 km/h (1 Bft) S-SW 211 ° 0 min 0,000 mm 0,0 UV-I 0 W/m² 6,8 °C 8,3 °C 4,8 km/h (1 Bft)
14.09.2017 05:12 8,3 °C 8,3 °C 90 % 1005,7 hPa 0,0 mm 3,2 km/h (1 Bft) S-SW 195 ° 0 min 0,000 mm 0,0 UV-I 0 W/m² 6,8 °C 8,3 °C 4,8 km/h (1 Bft)
14.09.2017 05:13 8,3 °C 8,3 °C 91 % 1005,7 hPa 0,0 mm 0,0 km/h (0 Bft) S-SW 195 ° 0 min 0,000 mm 0,0 UV-I 0 W/m² 6,9 °C 8,3 °C 0,0 km/h (0 Bft)
14.09.2017 05:14 8,3 °C 8,3 °C 91 % 1005,8 hPa 0,0 mm 1,5 km/h (1 Bft) S-SW 196 ° 0 min 0,000 mm 0,0 UV-I 0 W/m² 6,9 °C 8,3 °C 4,8 km/h (1 Bft)
14.09.2017 05:15 8,3 °C 8,3 °C 91 % 1005,6 hPa 0,0 mm 3,2 km/h (1 Bft) SO 146 ° 0 min 0,000 mm 0,0 UV-I 0 W/m² 6,9 °C 8,3 °C 6,4 km/h (2 Bft)
14.09.2017 05:16 8,4 °C 8,4 °C 92 % 1005,6 hPa 0,0 mm 3,5 km/h (1 Bft) SO 144 ° 0 min 0,000 mm 0,0 UV-I 0 W/m² 7,2 °C 8,4 °C 4,8 km/h (1 Bft)
14.09.2017 05:17 8,6 °C 8,6 °C 92 % 1005,6 hPa 0,0 mm 0,8 km/h (0 Bft) SO 144 ° 0 min 0,000 mm 0,0 UV-I 0 W/m² 7,4 °C 8,6 °C 3,2 km/h (1 Bft)
14.09.2017 05:18 8,7 °C 8,7 °C 92 % 1005,5 hPa 0,0 mm 0,0 km/h (0 Bft) SO 144 ° 0 min 0,000 mm 0,0 UV-I 0 W/m² 7,5 °C 8,7 °C 0,0 km/h (0 Bft)
14.09.2017 05:19 8,8 °C 8,8 °C 91 % 1005,5 hPa 0,0 mm 0,0 km/h (0 Bft) SO 144 ° 0 min 0,000 mm 0,0 UV-I 0 W/m² 7,4 °C 8,8 °C 0,0 km/h (0 Bft)
14.09.2017 05:20 8,8 °C 8,8 °C 91 % 1005,6 hPa 0,0 mm 0,1 km/h (0 Bft) SO 144 ° 0 min 0,000 mm 0,0 UV-I 0 W/m² 7,4 °C 8,8 °C 1,6 km/h (1 Bft)
14.09.2017 05:21 8,7 °C 8,8 °C 91 % 1005,6 hPa 0,0 mm 3,0 km/h (1 Bft) SO 144 ° 0 min 0,000 mm 0,0 UV-I 0 W/m² 7,3 °C 8,7 °C 6,4 km/h (2 Bft)
14.09.2017 05:22 8,7 °C 8,7 °C 91 % 1005,6 hPa 0,0 mm 0,0 km/h (0 Bft) SO 144 ° 0 min 0,000 mm 0,0 UV-I 0 W/m² 7,3 °C 8,7 °C 0,0 km/h (0 Bft)
14.09.2017 05:23 8,4 °C 8,4 °C 90 % 1005,7 hPa 0,0 mm 0,0 km/h (0 Bft) SO 135 ° 0 min 0,000 mm 0,0 UV-I 0 W/m² 6,9 °C 8,4 °C 1,6 km/h (1 Bft)
14.09.2017 05:24 8,3 °C 8,4 °C 90 % 1005,8 hPa 0,0 mm 0,0 km/h (0 Bft) N 0 ° 0 min 0,000 mm 0,0 UV-I 0 W/m² 6,8 °C 8,3 °C 0,0 km/h (0 Bft)
14.09.2017 05:25 8,2 °C 8,3 °C 90 % 1005,8 hPa 0,0 mm 0,0 km/h (0 Bft) N 0 ° 0 min 0,000 mm 0,0 UV-I 0 W/m² 6,7 °C 8,2 °C 0,0 km/h (0 Bft)
14.09.2017 05:26 8,2 °C 8,2 °C 91 % 1005,8 hPa 0,0 mm 0,0 km/h (0 Bft) SO 135 ° 0 min 0,000 mm 0,0 UV-I 0 W/m² 6,8 °C 8,2 °C 3,2 km/h (1 Bft)
14.09.2017 05:27 8,2 °C 8,2 °C 91 % 1005,6 hPa 0,0 mm 3,2 km/h (1 Bft) SO 135 ° 0 min 0,000 mm 0,0 UV-I 0 W/m² 6,8 °C 8,2 °C 4,8 km/h (1 Bft)
14.09.2017 05:28 8,3 °C 8,3 °C 92 % 1005,6 hPa 0,0 mm 1,6 km/h (1 Bft) SO 135 ° 0 min 0,000 mm 0,0 UV-I 0 W/m² 7,1 °C 8,3 °C 1,6 km/h (1 Bft)
14.09.2017 05:29 8,3 °C 8,3 °C 91 % 1005,5 hPa 0,0 mm 0,0 km/h (0 Bft) N 0 ° 0 min 0,000 mm 0,0 UV-I 0 W/m² 6,9 °C 8,3 °C 0,0 km/h (0 Bft)
14.09.2017 05:30 8,3 °C 8,3 °C 92 % 1005,6 hPa 0,0 mm 0,0 km/h (0 Bft) N 0 ° 0 min 0,000 mm 0,0 UV-I 0 W/m² 7,1 °C 8,3 °C 0,0 km/h (0 Bft)
14.09.2017 05:31 8,4 °C 8,4 °C 92 % 1005,6 hPa 0,0 mm 0,0 km/h (0 Bft) N 0 ° 0 min 0,000 mm 0,0 UV-I 0 W/m² 7,2 °C 8,4 °C 0,0 km/h (0 Bft)
14.09.2017 05:32 8,4 °C 8,4 °C 92 % 1005,6 hPa 0,0 mm 0,0 km/h (0 Bft) N 0 ° 0 min 0,000 mm 0,0 UV-I 0 W/m² 7,2 °C 8,4 °C 0,0 km/h (0 Bft)
14.09.2017 05:34 9,0 °C 9,0 °C 92 % 1005,6 hPa 0,0 mm 1,9 km/h (1 Bft) SO 145 ° 0 min 0,000 mm 0,0 UV-I 0 W/m² 7,8 °C 9,0 °C 3,2 km/h (1 Bft)
14.09.2017 05:35 9,2 °C 9,2 °C 92 % 1005,6 hPa 0,0 mm 0,0 km/h (0 Bft) SO 145 ° 0 min 0,000 mm 0,0 UV-I 0 W/m² 8,0 °C 9,2 °C 0,0 km/h (0 Bft)
14.09.2017 05:36 9,3 °C 9,3 °C 90 % 1005,6 hPa 0,0 mm 0,0 km/h (0 Bft) SO 145 ° 0 min 0,000 mm 0,0 UV-I 0 W/m² 7,7 °C 9,3 °C 0,0 km/h (0 Bft)
14.09.2017 05:37 9,3 °C 9,3 °C 89 % 1005,5 hPa 0,0 mm 1,1 km/h (1 Bft) NW 307 ° 0 min 0,000 mm 0,0 UV-I 0 W/m² 7,6 °C 9,3 °C 4,8 km/h (1 Bft)
14.09.2017 05:38 9,1 °C 9,3 °C 88 % 1005,6 hPa 0,0 mm 3,6 km/h (1 Bft) NW 305 ° 0 min 0,000 mm 0,0 UV-I 0 W/m² 7,2 °C 9,1 °C 4,8 km/h (1 Bft)
14.09.2017 05:39 8,8 °C 9,1 °C 88 % 1005,6 hPa 0,0 mm 2,5 km/h (1 Bft) NW 305 ° 0 min 0,000 mm 0,0 UV-I 0 W/m² 6,9 °C 8,8 °C 3,2 km/h (1 Bft)
14.09.2017 05:41 8,5 °C 8,8 °C 89 % 1005,5 hPa 0,0 mm 0,9 km/h (0 Bft) NW 305 ° 0 min 0,000 mm 0,0 UV-I 0 W/m² 6,8 °C 8,5 °C 4,8 km/h (1 Bft)
14.09.2017 05:42 8,3 °C 8,5 °C 89 % 1005,5 hPa 0,0 mm 0,0 km/h (0 Bft) NW 305 ° 0 min 0,000 mm 0,0 UV-I 0 W/m² 6,6 °C 8,3 °C 0,0 km/h (0 Bft)
14.09.2017 05:43 8,2 °C 8,3 °C 90 % 1005,6 hPa 0,0 mm 0,0 km/h (0 Bft) NW 305 ° 0 min 0,000 mm 0,0 UV-I 0 W/m² 6,7 °C 8,2 °C 0,0 km/h (0 Bft)
14.09.2017 05:44 8,1 °C 8,2 °C 90 % 1005,6 hPa 0,0 mm 0,2 km/h (0 Bft) NW 305 ° 0 min 0,000 mm 0,0 UV-I 0 W/m² 6,6 °C 8,1 °C 1,6 km/h (1 Bft)
14.09.2017 05:45 8,1 °C 8,1 °C 91 % 1005,6 hPa 0,0 mm 0,9 km/h (0 Bft) NW 305 ° 0 min 0,000 mm 0,0 UV-I 0 W/m² 6,7 °C 8,1 °C 3,2 km/h (1 Bft)
14.09.2017 05:46 7,9 °C 8,1 °C 90 % 1005,5 hPa 0,0 mm 0,0 km/h (0 Bft) NW 305 ° 0 min 0,000 mm 0,0 UV-I 0 W/m² 6,4 °C 7,9 °C 0,0 km/h (0 Bft)
14.09.2017 05:47 7,9 °C 7,9 °C 91 % 1005,5 hPa 0,0 mm 0,6 km/h (0 Bft) NW 305 ° 0 min 0,000 mm 0,0 UV-I 0 W/m² 6,5 °C 7,9 °C 3,2 km/h (1 Bft)
14.09.2017 05:48 8,0 °C 8,0 °C 91 % 1005,5 hPa 0,0 mm 1,1 km/h (1 Bft) NW 305 ° 0 min 0,000 mm 0,0 UV-I 0 W/m² 6,6 °C 8,0 °C 3,2 km/h (1 Bft)
14.09.2017 05:49 8,1 °C 8,1 °C 92 % 1005,5 hPa 0,0 mm 0,0 km/h (0 Bft) NW 305 ° 0 min 0,000 mm 0,0 UV-I 0 W/m² 6,9 °C 8,1 °C 0,0 km/h (0 Bft)
14.09.2017 05:50 8,0 °C 8,1 °C 91 % 1005,5 hPa 0,0 mm 0,0 km/h (0 Bft) NW 305 ° 0 min 0,000 mm 0,0 UV-I 0 W/m² 6,6 °C 8,0 °C 0,0 km/h (0 Bft)
14.09.2017 05:51 7,9 °C 8,1 °C 91 % 1005,5 hPa 0,0 mm 0,0 km/h (0 Bft) NW 305 ° 0 min 0,000 mm 0,0 UV-I 0 W/m² 6,5 °C 7,9 °C 0,0 km/h (0 Bft)
14.09.2017 05:52 7,9 °C 7,9 °C 91 % 1005,4 hPa 0,0 mm 0,0 km/h (0 Bft) NW 305 ° 0 min 0,000 mm 0,0 UV-I 0 W/m² 6,5 °C 7,9 °C 0,0 km/h (0 Bft)
14.09.2017 05:53 7,8 °C 7,9 °C 91 % 1005,4 hPa 0,0 mm 0,0 km/h (0 Bft) NW 305 ° 0 min 0,000 mm 0,0 UV-I 0 W/m² 6,4 °C 7,8 °C 0,0 km/h (0 Bft)
14.09.2017 05:54 7,8 °C 7,8 °C 91 % 1005,5 hPa 0,0 mm 0,0 km/h (0 Bft) NW 305 ° 0 min 0,000 mm 0,0 UV-I 0 W/m² 6,4 °C 7,8 °C 0,0 km/h (0 Bft)
14.09.2017 05:55 7,7 °C 7,8 °C 92 % 1005,5 hPa 0,0 mm 0,0 km/h (0 Bft) NW 305 ° 0 min 0,000 mm 0,0 UV-I 0 W/m² 6,5 °C 7,7 °C 0,0 km/h (0 Bft)
14.09.2017 05:56 7,7 °C 7,8 °C 92 % 1005,6 hPa 0,0 mm 0,0 km/h (0 Bft) NW 305 ° 0 min 0,000 mm 0,0 UV-I 0 W/m² 6,5 °C 7,7 °C 0,0 km/h (0 Bft)
14.09.2017 05:57 7,7 °C 7,7 °C 92 % 1005,5 hPa 0,0 mm 0,0 km/h (0 Bft) NW 305 ° 0 min 0,000 mm 0,0 UV-I 0 W/m² 6,5 °C 7,7 °C 0,0 km/h (0 Bft)
14.09.2017 05:58 7,7 °C 7,7 °C 91 % 1005,5 hPa 0,0 mm 0,0 km/h (0 Bft) NW 305 ° 0 min 0,000 mm 0,0 UV-I 0 W/m² 6,3 °C 7,7 °C 0,0 km/h (0 Bft)
14.09.2017 05:59 7,7 °C 7,7 °C 92 % 1005,4 hPa 0,0 mm 0,0 km/h (0 Bft) NW 305 ° 0 min 0,000 mm 0,0 UV-I 0 W/m² 6,5 °C 7,7 °C 0,0 km/h (0 Bft)
14.09.2017 06:00 7,7 °C 7,7 °C 92 % 1005,4 hPa 0,0 mm 0,0 km/h (0 Bft) NW 305 ° 0 min 0,000 mm 0,0 UV-I 0 W/m² 6,5 °C 7,7 °C 0,0 km/h (0 Bft)
14.09.2017 06:01 7,7 °C 7,7 °C 92 % 1005,4 hPa 0,0 mm 0,0 km/h (0 Bft) NW 305 ° 0 min 0,000 mm 0,0 UV-I 0 W/m² 6,5 °C 7,7 °C 0,0 km/h (0 Bft)
14.09.2017 06:02 7,8 °C 7,8 °C 92 % 1005,5 hPa 0,0 mm 0,0 km/h (0 Bft) NW 305 ° 0 min 0,000 mm 0,0 UV-I 0 W/m² 6,6 °C 7,8 °C 0,0 km/h (0 Bft)
14.09.2017 06:03 7,9 °C 7,9 °C 93 % 1005,4 hPa 0,0 mm 0,0 km/h (0 Bft) NW 305 ° 0 min 0,000 mm 0,0 UV-I 0 W/m² 6,8 °C 7,9 °C 0,0 km/h (0 Bft)
14.09.2017 06:04 8,1 °C 8,1 °C 93 % 1005,4 hPa 0,0 mm 0,0 km/h (0 Bft) NW 305 ° 0 min 0,000 mm 0,0 UV-I 0 W/m² 7,0 °C 8,1 °C 0,0 km/h (0 Bft)
14.09.2017 06:05 8,2 °C 8,2 °C 93 % 1005,3 hPa 0,0 mm 0,3 km/h (0 Bft) NW 305 ° 0 min 0,000 mm 0,0 UV-I 0 W/m² 7,1 °C 8,2 °C 1,6 km/h (1 Bft)
14.09.2017 06:06 8,3 °C 8,3 °C 93 % 1005,4 hPa 0,0 mm 0,0 km/h (0 Bft) NW 305 ° 0 min 0,000 mm 0,0 UV-I 0 W/m² 7,2 °C 8,3 °C 0,0 km/h (0 Bft)
14.09.2017 06:07 8,4 °C 8,4 °C 92 % 1005,3 hPa 0,0 mm 0,3 km/h (0 Bft) NW 305 ° 0 min 0,000 mm 0,0 UV-I 0 W/m² 7,2 °C 8,4 °C 1,6 km/h (1 Bft)
14.09.2017 06:08 8,3 °C 8,4 °C 92 % 1005,3 hPa 0,0 mm 1,6 km/h (1 Bft) NW 305 ° 0 min 0,000 mm 0,0 UV-I 0 W/m² 7,1 °C 8,3 °C 3,2 km/h (1 Bft)
14.09.2017 06:09 8,3 °C 8,3 °C 91 % 1005,4 hPa 0,0 mm 0,4 km/h (0 Bft) NW 305 ° 0 min 0,000 mm 0,0 UV-I 0 W/m² 6,9 °C 8,3 °C 1,6 km/h (1 Bft)
14.09.2017 06:10 8,1 °C 8,3 °C 91 % 1005,4 hPa 0,0 mm 0,0 km/h (0 Bft) NW 305 ° 0 min 0,000 mm 0,0 UV-I 0 W/m² 6,7 °C 8,1 °C 0,0 km/h (0 Bft)
14.09.2017 06:11 7,9 °C 8,1 °C 91 % 1005,5 hPa 0,0 mm 0,0 km/h (0 Bft) NW 305 ° 0 min 0,000 mm 0,0 UV-I 0 W/m² 6,5 °C 7,9 °C 0,0 km/h (0 Bft)
14.09.2017 06:12 7,9 °C 7,9 °C 91 % 1005,3 hPa 0,0 mm 0,9 km/h (0 Bft) NW 305 ° 0 min 0,000 mm 0,0 UV-I 0 W/m² 6,5 °C 7,9 °C 4,8 km/h (1 Bft)
14.09.2017 06:13 8,0 °C 8,0 °C 92 % 1005,3 hPa 0,0 mm 2,5 km/h (1 Bft) S 189 ° 0 min 0,000 mm 0,0 UV-I 0 W/m² 6,8 °C 8,0 °C 3,2 km/h (1 Bft)
14.09.2017 06:14 8,2 °C 8,2 °C 93 % 1005,3 hPa 0,0 mm 3,0 km/h (1 Bft) S 191 ° 0 min 0,000 mm 0,0 UV-I 0 W/m² 7,1 °C 8,2 °C 4,8 km/h (1 Bft)
14.09.2017 06:16 8,6 °C 8,6 °C 93 % 1005,4 hPa 0,0 mm 1,2 km/h (1 Bft) W-SW 243 ° 0 min 0,000 mm 0,0 UV-I 0 W/m² 7,5 °C 8,6 °C 3,2 km/h (1 Bft)
14.09.2017 06:17 8,6 °C 8,6 °C 91 % 1005,4 hPa 0,0 mm 0,0 km/h (0 Bft) W-SW 243 ° 0 min 0,000 mm 0,0 UV-I 0 W/m² 7,2 °C 8,6 °C 0,0 km/h (0 Bft)
14.09.2017 06:18 8,5 °C 8,6 °C 91 % 1005,5 hPa 0,0 mm 0,0 km/h (0 Bft) W-SW 243 ° 0 min 0,000 mm 0,0 UV-I 0 W/m² 7,1 °C 8,5 °C 0,0 km/h (0 Bft)
14.09.2017 06:19 8,4 °C 8,5 °C 91 % 1005,5 hPa 0,0 mm 0,0 km/h (0 Bft) W-SW 243 ° 0 min 0,000 mm 0,0 UV-I 0 W/m² 7,0 °C 8,4 °C 0,0 km/h (0 Bft)
14.09.2017 06:20 8,3 °C 8,4 °C 91 % 1005,4 hPa 0,0 mm 0,0 km/h (0 Bft) W-SW 243 ° 0 min 0,000 mm 0,0 UV-I 0 W/m² 6,9 °C 8,3 °C 0,0 km/h (0 Bft)
14.09.2017 06:21 8,3 °C 8,3 °C 91 % 1005,4 hPa 0,0 mm 0,0 km/h (0 Bft) W-SW 243 ° 0 min 0,000 mm 0,0 UV-I 0 W/m² 6,9 °C 8,3 °C 0,0 km/h (0 Bft)
14.09.2017 06:22 8,4 °C 8,4 °C 91 % 1005,3 hPa 0,0 mm 0,0 km/h (0 Bft) W-SW 243 ° 0 min 0,000 mm 0,0 UV-I 0 W/m² 7,0 °C 8,4 °C 0,0 km/h (0 Bft)
14.09.2017 06:23 8,6 °C 8,6 °C 92 % 1005,4 hPa 0,0 mm 0,0 km/h (0 Bft) W-SW 243 ° 0 min 0,000 mm 0,0 UV-I 0 W/m² 7,4 °C 8,6 °C 0,0 km/h (0 Bft)
14.09.2017 06:24 8,7 °C 8,7 °C 91 % 1005,5 hPa 0,0 mm 0,0 km/h (0 Bft) W-SW 243 ° 0 min 0,000 mm 0,0 UV-I 0 W/m² 7,3 °C 8,7 °C 0,0 km/h (0 Bft)
14.09.2017 06:25 8,7 °C 8,7 °C 90 % 1005,5 hPa 0,0 mm 0,0 km/h (0 Bft) W-SW 243 ° 0 min 0,000 mm 0,0 UV-I 0 W/m² 7,2 °C 8,7 °C 0,0 km/h (0 Bft)
14.09.2017 06:26 8,6 °C 8,7 °C 90 % 1005,5 hPa 0,0 mm 0,1 km/h (0 Bft) W-SW 243 ° 0 min 0,000 mm 0,0 UV-I 0 W/m² 7,1 °C 8,6 °C 1,6 km/h (1 Bft)
14.09.2017 06:27 8,4 °C 8,6 °C 90 % 1005,4 hPa 0,0 mm 1,3 km/h (1 Bft) W-SW 244 ° 0 min 0,000 mm 0,0 UV-I 0 W/m² 6,9 °C 8,4 °C 3,2 km/h (1 Bft)
14.09.2017 06:28 8,3 °C 8,4 °C 90 % 1005,4 hPa 0,0 mm 1,4 km/h (1 Bft) W-SW 243 ° 0 min 0,000 mm 0,0 UV-I 0 W/m² 6,8 °C 8,3 °C 3,2 km/h (1 Bft)
14.09.2017 06:29 8,3 °C 8,3 °C 91 % 1005,4 hPa 0,0 mm 2,0 km/h (1 Bft) SW 214 ° 0 min 0,000 mm 0,0 UV-I 0 W/m² 6,9 °C 8,3 °C 3,2 km/h (1 Bft)
14.09.2017 06:30 8,3 °C 8,3 °C 92 % 1005,4 hPa 0,0 mm 1,6 km/h (1 Bft) SW 214 ° 0 min 0,000 mm 0,0 UV-I 0 W/m² 7,1 °C 8,3 °C 3,2 km/h (1 Bft)
14.09.2017 06:31 8,3 °C 8,4 °C 91 % 1005,4 hPa 0,0 mm 1,9 km/h (1 Bft) NW 309 ° 0 min 0,000 mm 0,0 UV-I 0 W/m² 6,9 °C 8,3 °C 4,8 km/h (1 Bft)
14.09.2017 06:32 8,3 °C 8,3 °C 90 % 1005,5 hPa 0,0 mm 0,9 km/h (0 Bft) NW 309 ° 0 min 0,000 mm 0,0 UV-I 0 W/m² 6,8 °C 8,3 °C 3,2 km/h (1 Bft)
14.09.2017 06:33 8,3 °C 8,3 °C 91 % 1005,5 hPa 0,0 mm 0,8 km/h (0 Bft) NW 309 ° 0 min 0,000 mm 0,0 UV-I 0 W/m² 6,9 °C 8,3 °C 3,2 km/h (1 Bft)
14.09.2017 06:34 8,2 °C 8,3 °C 91 % 1005,5 hPa 0,0 mm 0,0 km/h (0 Bft) NW 309 ° 0 min 0,000 mm 0,0 UV-I 0 W/m² 6,8 °C 8,2 °C 0,0 km/h (0 Bft)
14.09.2017 06:35 8,2 °C 8,2 °C 91 % 1005,5 hPa 0,0 mm 0,0 km/h (0 Bft) NW 309 ° 0 min 0,000 mm 0,0 UV-I 0 W/m² 6,8 °C 8,2 °C 0,0 km/h (0 Bft)
14.09.2017 06:36 8,2 °C 8,2 °C 91 % 1005,6 hPa 0,0 mm 0,0 km/h (0 Bft) NW 309 ° 0 min 0,000 mm 0,0 UV-I 0 W/m² 6,8 °C 8,2 °C 0,0 km/h (0 Bft)
14.09.2017 06:37 8,3 °C 8,3 °C 91 % 1005,5 hPa 0,0 mm 2,3 km/h (1 Bft) NW 309 ° 0 min 0,000 mm 0,0 UV-I 0 W/m² 6,9 °C 8,3 °C 4,8 km/h (1 Bft)
14.09.2017 06:38 8,5 °C 8,5 °C 92 % 1005,4 hPa 0,0 mm 3,0 km/h (1 Bft) NW 309 ° 0 min 0,000 mm 0,0 UV-I 0 W/m² 7,3 °C 8,5 °C 3,2 km/h (1 Bft)
14.09.2017 06:39 8,9 °C 8,9 °C 92 % 1005,4 hPa 0,0 mm 1,5 km/h (1 Bft) NW 309 ° 0 min 0,000 mm 0,0 UV-I 0 W/m² 7,7 °C 8,9 °C 3,2 km/h (1 Bft)
14.09.2017 06:40 9,2 °C 9,2 °C 92 % 1005,4 hPa 0,0 mm 0,0 km/h (0 Bft) NW 309 ° 0 min 0,000 mm 0,0 UV-I 0 W/m² 8,0 °C 9,2 °C 0,0 km/h (0 Bft)
14.09.2017 06:41 9,1 °C 9,2 °C 89 % 1005,4 hPa 0,0 mm 0,0 km/h (0 Bft) NW 309 ° 0 min 0,000 mm 0,0 UV-I 0 W/m² 7,4 °C 9,1 °C 0,0 km/h (0 Bft)
14.09.2017 06:42 9,0 °C 9,1 °C 89 % 1005,4 hPa 0,0 mm 1,6 km/h (1 Bft) S-SW 200 ° 0 min 0,000 mm 0,0 UV-I 0 W/m² 7,3 °C 9,0 °C 3,2 km/h (1 Bft)
14.09.2017 06:43 9,0 °C 9,0 °C 90 % 1005,5 hPa 0,0 mm 0,1 km/h (0 Bft) S-SW 200 ° 0 min 0,000 mm 0,0 UV-I 0 W/m² 7,4 °C 9,0 °C 1,6 km/h (1 Bft)
14.09.2017 06:44 9,1 °C 9,1 °C 90 % 1005,5 hPa 0,0 mm 0,0 km/h (0 Bft) S-SW 200 ° 0 min 0,000 mm 0,0 UV-I 0 W/m² 7,5 °C 9,1 °C 0,0 km/h (0 Bft)
14.09.2017 06:45 9,1 °C 9,1 °C 90 % 1005,4 hPa 0,0 mm 0,0 km/h (0 Bft) S-SW 200 ° 0 min 0,000 mm 0,0 UV-I 0 W/m² 7,5 °C 9,1 °C 0,0 km/h (0 Bft)
14.09.2017 06:46 8,9 °C 9,1 °C 89 % 1005,5 hPa 0,0 mm 0,0 km/h (0 Bft) S-SW 200 ° 0 min 0,000 mm 0,0 UV-I 0 W/m² 7,2 °C 8,9 °C 0,0 km/h (0 Bft)
14.09.2017 06:47 8,9 °C 8,9 °C 89 % 1005,5 hPa 0,0 mm 0,0 km/h (0 Bft) S-SW 200 ° 0 min 0,000 mm 0,0 UV-I 0 W/m² 7,2 °C 8,9 °C 0,0 km/h (0 Bft)
14.09.2017 06:48 8,9 °C 8,9 °C 90 % 1005,5 hPa 0,0 mm 0,3 km/h (0 Bft) S-SW 200 ° 0 min 0,000 mm 0,0 UV-I 0 W/m² 7,4 °C 8,9 °C 1,6 km/h (1 Bft)
14.09.2017 06:49 8,8 °C 8,9 °C 89 % 1005,5 hPa 0,0 mm 0,1 km/h (0 Bft) S-SW 200 ° 0 min 0,000 mm 0,0 UV-I 0 W/m² 7,1 °C 8,8 °C 1,6 km/h (1 Bft)
14.09.2017 06:50 8,8 °C 8,8 °C 90 % 1005,5 hPa 0,0 mm 2,3 km/h (1 Bft) W 276 ° 0 min 0,000 mm 0,0 UV-I 0 W/m² 7,3 °C 8,8 °C 4,8 km/h (1 Bft)
14.09.2017 06:51 8,7 °C 8,8 °C 89 % 1005,6 hPa 0,0 mm 0,3 km/h (0 Bft) W 276 ° 0 min 0,000 mm 0,0 UV-I 0 W/m² 7,0 °C 8,7 °C 1,6 km/h (1 Bft)
14.09.2017 06:52 8,7 °C 8,7 °C 91 % 1005,5 hPa 0,0 mm 2,0 km/h (1 Bft) S-SW 210 ° 0 min 0,000 mm 0,0 UV-I 0 W/m² 7,3 °C 8,7 °C 3,2 km/h (1 Bft)
14.09.2017 06:53 8,9 °C 8,9 °C 91 % 1005,5 hPa 0,0 mm 2,0 km/h (1 Bft) S-SW 210 ° 0 min 0,000 mm 0,0 UV-I 5 W/m² 7,5 °C 8,9 °C 3,2 km/h (1 Bft)
14.09.2017 06:54 9,2 °C 9,2 °C 91 % 1005,6 hPa 0,0 mm 2,8 km/h (1 Bft) S-SW 210 ° 0 min 0,000 mm 0,0 UV-I 5 W/m² 7,8 °C 9,2 °C 4,8 km/h (1 Bft)
14.09.2017 06:55 9,7 °C 9,7 °C 92 % 1005,5 hPa 0,0 mm 2,2 km/h (1 Bft) S-SW 198 ° 0 min 0,000 mm 0,0 UV-I 5 W/m² 8,5 °C 9,7 °C 3,2 km/h (1 Bft)
14.09.2017 06:56 10,1 °C 10,1 °C 91 % 1005,5 hPa 0,0 mm 3,3 km/h (1 Bft) O-SO 117 ° 0 min 0,000 mm 0,0 UV-I 5 W/m² 8,7 °C 10,1 °C 6,4 km/h (2 Bft)
14.09.2017 06:57 10,3 °C 10,3 °C 90 % 1005,6 hPa 0,0 mm 3,3 km/h (1 Bft) S-SO 152 ° 0 min 0,000 mm 0,0 UV-I 5 W/m² 8,7 °C 10,3 °C 6,4 km/h (2 Bft)
14.09.2017 06:58 10,8 °C 10,8 °C 89 % 1005,5 hPa 0,0 mm 3,4 km/h (1 Bft) S-SW 213 ° 0 min 0,000 mm 0,0 UV-I 5 W/m² 9,1 °C 10,8 °C 6,4 km/h (2 Bft)
14.09.2017 06:59 11,0 °C 11,0 °C 87 % 1005,5 hPa 0,0 mm 1,1 km/h (1 Bft) SW 221 ° 0 min 0,000 mm 0,0 UV-I 5 W/m² 8,9 °C 11,0 °C 3,2 km/h (1 Bft)
14.09.2017 07:00 10,8 °C 11,0 °C 83 % 1005,4 hPa 0,0 mm 0,7 km/h (0 Bft) SW 221 ° 0 min 0,000 mm 0,0 UV-I 5 W/m² 8,0 °C 10,8 °C 3,2 km/h (1 Bft)
14.09.2017 07:01 10,6 °C 10,8 °C 84 % 1005,4 hPa 0,0 mm 0,0 km/h (0 Bft) SW 221 ° 0 min 0,000 mm 0,0 UV-I 7 W/m² 8,0 °C 10,6 °C 0,0 km/h (0 Bft)
14.09.2017 07:02 10,2 °C 10,6 °C 85 % 1005,5 hPa 0,0 mm 0,9 km/h (0 Bft) SW 221 ° 0 min 0,000 mm 0,0 UV-I 7 W/m² 7,8 °C 10,2 °C 3,2 km/h (1 Bft)
14.09.2017 07:03 10,0 °C 10,2 °C 86 % 1005,5 hPa 0,0 mm 1,8 km/h (1 Bft) SW 216 ° 0 min 0,000 mm 0,0 UV-I 7 W/m² 7,8 °C 10,0 °C 3,2 km/h (1 Bft)
14.09.2017 07:04 10,0 °C 10,0 °C 88 % 1005,5 hPa 0,0 mm 1,0 km/h (0 Bft) SW 216 ° 0 min 0,000 mm 0,0 UV-I 7 W/m² 8,1 °C 10,0 °C 3,2 km/h (1 Bft)
14.09.2017 07:05 10,1 °C 10,1 °C 89 % 1005,5 hPa 0,0 mm 0,3 km/h (0 Bft) SW 216 ° 0 min 0,000 mm 0,0 UV-I 7 W/m² 8,4 °C 10,1 °C 1,6 km/h (1 Bft)
14.09.2017 07:06 10,2 °C 10,2 °C 88 % 1005,5 hPa 0,0 mm 1,9 km/h (1 Bft) SW 216 ° 0 min 0,000 mm 0,0 UV-I 7 W/m² 8,3 °C 10,2 °C 3,2 km/h (1 Bft)
14.09.2017 07:07 10,1 °C 10,2 °C 87 % 1005,5 hPa 0,0 mm 0,7 km/h (0 Bft) SW 216 ° 0 min 0,000 mm 0,0 UV-I 9 W/m² 8,0 °C 10,1 °C 3,2 km/h (1 Bft)
14.09.2017 07:08 9,8 °C 10,1 °C 86 % 1005,5 hPa 0,0 mm 0,4 km/h (0 Bft) SW 216 ° 0 min 0,000 mm 0,0 UV-I 9 W/m² 7,6 °C 9,8 °C 1,6 km/h (1 Bft)
14.09.2017 07:09 9,5 °C 9,8 °C 86 % 1005,5 hPa 0,0 mm 3,2 km/h (1 Bft) SO 137 ° 0 min 0,000 mm 0,0 UV-I 9 W/m² 7,3 °C 9,5 °C 6,4 km/h (2 Bft)
14.09.2017 07:10 9,3 °C 9,5 °C 88 % 1005,4 hPa 0,0 mm 2,5 km/h (1 Bft) SO 138 ° 0 min 0,000 mm 0,0 UV-I 9 W/m² 7,4 °C 9,3 °C 4,8 km/h (1 Bft)
14.09.2017 07:11 9,4 °C 9,4 °C 90 % 1005,5 hPa 0,0 mm 3,6 km/h (1 Bft) S-SO 153 ° 0 min 0,000 mm 0,0 UV-I 9 W/m² 7,8 °C 9,4 °C 4,8 km/h (1 Bft)
14.09.2017 07:12 9,8 °C 9,8 °C 91 % 1005,5 hPa 0,0 mm 3,9 km/h (1 Bft) S 186 ° 0 min 0,000 mm 0,0 UV-I 11 W/m² 8,4 °C 9,8 °C 6,4 km/h (2 Bft)
14.09.2017 07:13 10,3 °C 10,3 °C 90 % 1005,5 hPa 0,0 mm 4,8 km/h (1 Bft) S 175 ° 0 min 0,000 mm 0,0 UV-I 11 W/m² 8,7 °C 10,3 °C 6,4 km/h (2 Bft)
14.09.2017 07:14 10,7 °C 10,7 °C 90 % 1005,4 hPa 0,0 mm 1,6 km/h (1 Bft) S 175 ° 0 min 0,000 mm 0,0 UV-I 11 W/m² 9,1 °C 10,7 °C 3,2 km/h (1 Bft)
14.09.2017 07:15 11,0 °C 11,0 °C 89 % 1005,4 hPa 0,0 mm 1,4 km/h (1 Bft) S 176 ° 0 min 0,000 mm 0,0 UV-I 11 W/m² 9,3 °C 11,0 °C 3,2 km/h (1 Bft)
14.09.2017 07:16 11,2 °C 11,2 °C 86 % 1005,4 hPa 0,0 mm 1,8 km/h (1 Bft) S 176 ° 0 min 0,000 mm 0,0 UV-I 11 W/m² 8,9 °C 11,2 °C 4,8 km/h (1 Bft)
14.09.2017 07:17 11,2 °C 11,3 °C 83 % 1005,5 hPa 0,0 mm 2,7 km/h (1 Bft) S 186 ° 0 min 0,000 mm 0,0 UV-I 11 W/m² 8,4 °C 11,2 °C 4,8 km/h (1 Bft)
14.09.2017 07:18 11,1 °C 11,2 °C 84 % 1005,5 hPa 0,0 mm 3,8 km/h (1 Bft) S 172 ° 0 min 0,000 mm 0,0 UV-I 12 W/m² 8,5 °C 11,1 °C 9,7 km/h (2 Bft)
14.09.2017 07:19 11,2 °C 11,2 °C 86 % 1005,4 hPa 0,0 mm 2,0 km/h (1 Bft) S 172 ° 0 min 0,000 mm 0,0 UV-I 12 W/m² 8,9 °C 11,2 °C 3,2 km/h (1 Bft)
14.09.2017 07:20 11,5 °C 11,5 °C 86 % 1005,4 hPa 0,0 mm 2,3 km/h (1 Bft) S 172 ° 0 min 0,000 mm 0,0 UV-I 12 W/m² 9,2 °C 11,5 °C 6,4 km/h (2 Bft)
14.09.2017 07:21 11,7 °C 11,7 °C 86 % 1005,4 hPa 0,0 mm 2,3 km/h (1 Bft) S 171 ° 0 min 0,000 mm 0,0 UV-I 12 W/m² 9,4 °C 11,7 °C 6,4 km/h (2 Bft)
14.09.2017 07:22 11,9 °C 11,9 °C 84 % 1005,4 hPa 0,0 mm 1,7 km/h (1 Bft) W 259 ° 0 min 0,000 mm 0,0 UV-I 12 W/m² 9,3 °C 11,9 °C 4,8 km/h (1 Bft)
14.09.2017 07:23 11,9 °C 11,9 °C 84 % 1005,4 hPa 0,0 mm 2,5 km/h (1 Bft) S 176 ° 0 min 0,000 mm 0,0 UV-I 12 W/m² 9,3 °C 11,9 °C 6,4 km/h (2 Bft)
14.09.2017 07:24 12,0 °C 12,0 °C 84 % 1005,4 hPa 0,0 mm 4,0 km/h (1 Bft) S-SO 165 ° 0 min 0,000 mm 0,0 UV-I 12 W/m² 9,4 °C 12,0 °C 8,0 km/h (2 Bft)
14.09.2017 07:25 12,2 °C 12,2 °C 84 % 1005,4 hPa 0,0 mm 5,2 km/h (1 Bft) S 180 ° 0 min 0,000 mm 0,0 UV-I 12 W/m² 9,6 °C 12,2 °C 8,0 km/h (2 Bft)
14.09.2017 07:26 12,3 °C 12,3 °C 83 % 1005,4 hPa 0,0 mm 5,1 km/h (1 Bft) S-SW 192 ° 0 min 0,000 mm 0,0 UV-I 12 W/m² 9,5 °C 12,3 °C 8,0 km/h (2 Bft)
14.09.2017 07:27 12,6 °C 12,6 °C 83 % 1005,2 hPa 0,0 mm 4,4 km/h (1 Bft) S-SW 202 ° 0 min 0,000 mm 0,0 UV-I 12 W/m² 9,8 °C 12,6 °C 6,4 km/h (2 Bft)
14.09.2017 07:28 12,7 °C 12,7 °C 82 % 1005,2 hPa 0,0 mm 2,0 km/h (1 Bft) S-SW 202 ° 0 min 0,000 mm 0,0 UV-I 14 W/m² 9,7 °C 12,7 °C 4,8 km/h (1 Bft)
14.09.2017 07:29 12,7 °C 12,7 °C 82 % 1005,2 hPa 0,0 mm 2,7 km/h (1 Bft) S 177 ° 0 min 0,000 mm 0,0 UV-I 14 W/m² 9,7 °C 12,7 °C 4,8 km/h (1 Bft)
14.09.2017 07:30 12,7 °C 12,7 °C 82 % 1005,2 hPa 0,0 mm 4,4 km/h (1 Bft) S 190 ° 0 min 0,000 mm 0,0 UV-I 14 W/m² 9,7 °C 12,7 °C 6,4 km/h (2 Bft)
14.09.2017 07:31 12,7 °C 12,7 °C 82 % 1005,2 hPa 0,0 mm 2,5 km/h (1 Bft) S 174 ° 0 min 0,000 mm 0,0 UV-I 14 W/m² 9,7 °C 12,7 °C 3,2 km/h (1 Bft)
14.09.2017 07:32 12,7 °C 12,7 °C 82 % 1005,2 hPa 0,0 mm 2,5 km/h (1 Bft) S 175 ° 0 min 0,000 mm 0,0 UV-I 14 W/m² 9,7 °C 12,7 °C 3,2 km/h (1 Bft)
14.09.2017 07:33 12,8 °C 12,8 °C 81 % 1005,1 hPa 0,0 mm 2,3 km/h (1 Bft) S 184 ° 0 min 0,000 mm 0,0 UV-I 14 W/m² 9,6 °C 12,8 °C 4,8 km/h (1 Bft)
14.09.2017 07:34 12,9 °C 12,9 °C 81 % 1005,0 hPa 0,0 mm 4,4 km/h (1 Bft) S 186 ° 0 min 0,000 mm 0,0 UV-I 14 W/m² 9,7 °C 12,9 °C 6,4 km/h (2 Bft)
14.09.2017 07:35 12,9 °C 12,9 °C 81 % 1005,0 hPa 0,0 mm 2,6 km/h (1 Bft) S 186 ° 0 min 0,000 mm 0,0 UV-I 14 W/m² 9,7 °C 12,9 °C 4,8 km/h (1 Bft)
14.09.2017 07:36 12,9 °C 12,9 °C 80 % 1005,1 hPa 0,0 mm 4,7 km/h (1 Bft) S 186 ° 0 min 0,000 mm 0,0 UV-I 16 W/m² 9,5 °C 12,9 °C 6,4 km/h (2 Bft)
14.09.2017 07:37 12,9 °C 12,9 °C 80 % 1005,1 hPa 0,0 mm 4,0 km/h (1 Bft) S 169 ° 0 min 0,000 mm 0,0 UV-I 16 W/m² 9,5 °C 12,9 °C 6,4 km/h (2 Bft)
14.09.2017 07:38 13,1 °C 13,1 °C 80 % 1005,1 hPa 0,0 mm 5,6 km/h (1 Bft) S 179 ° 0 min 0,000 mm 0,0 UV-I 16 W/m² 9,7 °C 13,1 °C 8,0 km/h (2 Bft)
14.09.2017 07:39 13,1 °C 13,1 °C 80 % 1005,0 hPa 0,0 mm 4,2 km/h (1 Bft) S-SW 193 ° 0 min 0,000 mm 0,0 UV-I 16 W/m² 9,7 °C 13,1 °C 8,0 km/h (2 Bft)
14.09.2017 07:40 13,1 °C 13,1 °C 80 % 1005,1 hPa 0,0 mm 3,0 km/h (1 Bft) S 187 ° 0 min 0,000 mm 0,0 UV-I 16 W/m² 9,7 °C 13,1 °C 6,4 km/h (2 Bft)
14.09.2017 07:41 13,1 °C 13,1 °C 80 % 1005,1 hPa 0,0 mm 4,2 km/h (1 Bft) S-SW 196 ° 0 min 0,000 mm 0,0 UV-I 18 W/m² 9,7 °C 13,1 °C 6,4 km/h (2 Bft)
14.09.2017 07:42 13,2 °C 13,2 °C 79 % 1005,1 hPa 0,0 mm 1,4 km/h (1 Bft) S 184 ° 0 min 0,000 mm 0,0 UV-I 18 W/m² 9,6 °C 13,2 °C 4,8 km/h (1 Bft)
14.09.2017 07:43 13,1 °C 13,2 °C 80 % 1005,1 hPa 0,0 mm 5,3 km/h (1 Bft) S-SW 197 ° 0 min 0,000 mm 0,0 UV-I 18 W/m² 9,7 °C 13,1 °C 8,0 km/h (2 Bft)
14.09.2017 07:44 13,1 °C 13,1 °C 79 % 1005,0 hPa 0,0 mm 4,4 km/h (1 Bft) S 175 ° 0 min 0,000 mm 0,0 UV-I 18 W/m² 9,5 °C 13,1 °C 6,4 km/h (2 Bft)
14.09.2017 07:45 13,1 °C 13,1 °C 80 % 1005,0 hPa 0,0 mm 6,1 km/h (2 Bft) S-SW 198 ° 0 min 0,000 mm 0,0 UV-I 18 W/m² 9,7 °C 13,1 °C 11,3 km/h (2 Bft)
14.09.2017 07:46 13,1 °C 13,1 °C 79 % 1004,9 hPa 0,0 mm 4,6 km/h (1 Bft) W-SW 244 ° 0 min 0,000 mm 0,0 UV-I 18 W/m² 9,5 °C 13,1 °C 11,3 km/h (2 Bft)
14.09.2017 07:47 13,0 °C 13,1 °C 81 % 1004,9 hPa 0,0 mm 4,0 km/h (1 Bft) S-SO 157 ° 0 min 0,000 mm 0,0 UV-I 19 W/m² 9,8 °C 13,0 °C 8,0 km/h (2 Bft)
14.09.2017 07:48 12,9 °C 13,1 °C 80 % 1005,0 hPa 0,0 mm 5,6 km/h (1 Bft) S-SW 202 ° 0 min 0,000 mm 0,0 UV-I 19 W/m² 9,5 °C 12,9 °C 9,7 km/h (2 Bft)
14.09.2017 07:49 13,0 °C 13,0 °C 79 % 1005,0 hPa 0,0 mm 4,8 km/h (1 Bft) W-SW 253 ° 0 min 0,000 mm 0,0 UV-I 19 W/m² 9,4 °C 13,0 °C 8,0 km/h (2 Bft)
14.09.2017 07:50 13,0 °C 13,1 °C 79 % 1005,0 hPa 0,0 mm 3,6 km/h (1 Bft) S 173 ° 0 min 0,000 mm 0,0 UV-I 21 W/m² 9,4 °C 13,0 °C 6,4 km/h (2 Bft)
14.09.2017 07:51 12,9 °C 13,1 °C 79 % 1005,0 hPa 0,0 mm 0,2 km/h (0 Bft) S 175 ° 0 min 0,000 mm 0,0 UV-I 21 W/m² 9,3 °C 12,9 °C 1,6 km/h (1 Bft)
14.09.2017 07:52 13,0 °C 13,0 °C 79 % 1004,9 hPa 0,0 mm 1,8 km/h (1 Bft) S 190 ° 0 min 0,000 mm 0,0 UV-I 21 W/m² 9,4 °C 13,0 °C 6,4 km/h (2 Bft)
14.09.2017 07:53 13,1 °C 13,1 °C 78 % 1004,9 hPa 0,0 mm 4,8 km/h (1 Bft) S-SW 210 ° 0 min 0,000 mm 0,0 UV-I 21 W/m² 9,4 °C 13,1 °C 8,0 km/h (2 Bft)
14.09.2017 07:54 13,1 °C 13,1 °C 78 % 1004,9 hPa 0,0 mm 5,5 km/h (1 Bft) S 179 ° 0 min 0,000 mm 0,0 UV-I 23 W/m² 9,4 °C 13,1 °C 9,7 km/h (2 Bft)
14.09.2017 07:55 13,2 °C 13,2 °C 77 % 1004,9 hPa 0,0 mm 7,2 km/h (2 Bft) S-SW 200 ° 0 min 0,000 mm 0,0 UV-I 23 W/m² 9,3 °C 13,2 °C 9,7 km/h (2 Bft)
14.09.2017 07:56 13,2 °C 13,2 °C 78 % 1004,8 hPa 0,0 mm 6,4 km/h (2 Bft) S 184 ° 0 min 0,000 mm 0,0 UV-I 23 W/m² 9,4 °C 13,2 °C 9,7 km/h (2 Bft)
14.09.2017 07:57 13,2 °C 13,3 °C 78 % 1004,8 hPa 0,0 mm 5,2 km/h (1 Bft) S-SW 201 ° 0 min 0,000 mm 0,0 UV-I 23 W/m² 9,4 °C 13,2 °C 8,0 km/h (2 Bft)
14.09.2017 07:58 13,2 °C 13,2 °C 78 % 1004,8 hPa 0,0 mm 6,3 km/h (2 Bft) S-SW 192 ° 0 min 0,000 mm 0,0 UV-I 23 W/m² 9,4 °C 13,2 °C 12,9 km/h (3 Bft)
14.09.2017 07:59 13,2 °C 13,2 °C 78 % 1004,8 hPa 0,0 mm 7,5 km/h (2 Bft) SW 217 ° 0 min 0,000 mm 0,0 UV-I 23 W/m² 9,4 °C 13,2 °C 14,5 km/h (3 Bft)
14.09.2017 08:00 13,2 °C 13,2 °C 78 % 1004,9 hPa 0,0 mm 4,5 km/h (1 Bft) S 188 ° 0 min 0,000 mm 0,0 UV-I 25 W/m² 9,4 °C 13,2 °C 8,0 km/h (2 Bft)
14.09.2017 08:01 13,3 °C 13,3 °C 77 % 1004,8 hPa 0,0 mm 2,5 km/h (1 Bft) S 188 ° 0 min 0,025 mm 0,0 UV-I 25 W/m² 9,4 °C 13,3 °C 3,2 km/h (1 Bft)
14.09.2017 08:02 13,4 °C 13,4 °C 76 % 1004,8 hPa 0,0 mm 2,6 km/h (1 Bft) S 190 ° 0 min 0,000 mm 0,0 UV-I 25 W/m² 9,3 °C 13,4 °C 4,8 km/h (1 Bft)
14.09.2017 08:03 13,4 °C 13,4 °C 76 % 1004,6 hPa 0,0 mm 4,1 km/h (1 Bft) S 178 ° 0 min 0,000 mm 0,0 UV-I 25 W/m² 9,3 °C 13,4 °C 8,0 km/h (2 Bft)
14.09.2017 08:04 13,3 °C 13,4 °C 78 % 1004,6 hPa 0,0 mm 3,6 km/h (1 Bft) S 188 ° 0 min 0,000 mm 0,0 UV-I 25 W/m² 9,5 °C 13,3 °C 6,4 km/h (2 Bft)
14.09.2017 08:05 13,3 °C 13,3 °C 76 % 1004,7 hPa 0,0 mm 2,9 km/h (1 Bft) SW 215 ° 0 min 0,000 mm 0,0 UV-I 28 W/m² 9,2 °C 13,3 °C 6,4 km/h (2 Bft)
14.09.2017 08:06 13,3 °C 13,3 °C 76 % 1004,7 hPa 0,0 mm 1,3 km/h (1 Bft) S 188 ° 0 min 0,000 mm 0,0 UV-I 30 W/m² 9,2 °C 13,3 °C 3,2 km/h (1 Bft)
14.09.2017 08:07 13,3 °C 13,3 °C 77 % 1004,7 hPa 0,0 mm 0,8 km/h (0 Bft) S 188 ° 0 min 0,000 mm 0,0 UV-I 42 W/m² 9,4 °C 13,3 °C 1,6 km/h (1 Bft)
14.09.2017 08:08 13,2 °C 13,3 °C 78 % 1004,7 hPa 0,0 mm 0,0 km/h (0 Bft) S 188 ° 0 min 0,000 mm 0,5 UV-I 60 W/m² 9,4 °C 13,2 °C 0,0 km/h (0 Bft)
14.09.2017 08:09 12,9 °C 13,2 °C 79 % 1004,7 hPa 0,0 mm 0,0 km/h (0 Bft) S 188 ° 0 min 0,000 mm 0,5 UV-I 70 W/m² 9,3 °C 12,9 °C 0,0 km/h (0 Bft)
14.09.2017 08:10 12,9 °C 12,9 °C 79 % 1004,7 hPa 0,0 mm 2,7 km/h (1 Bft) S 188 ° 0 min 0,000 mm 0,5 UV-I 62 W/m² 9,3 °C 12,9 °C 4,8 km/h (1 Bft)
14.09.2017 08:11 12,9 °C 12,9 °C 80 % 1004,7 hPa 0,0 mm 2,2 km/h (1 Bft) S 188 ° 0 min 0,000 mm 0,0 UV-I 30 W/m² 9,5 °C 12,9 °C 3,2 km/h (1 Bft)
14.09.2017 08:12 12,8 °C 12,9 °C 80 % 1004,7 hPa 0,0 mm 0,5 km/h (0 Bft) S 188 ° 0 min 0,000 mm 0,0 UV-I 28 W/m² 9,4 °C 12,8 °C 1,6 km/h (1 Bft)
14.09.2017 08:13 12,8 °C 12,8 °C 80 % 1004,6 hPa 0,0 mm 0,3 km/h (0 Bft) S 188 ° 0 min 0,000 mm 0,0 UV-I 28 W/m² 9,4 °C 12,8 °C 1,6 km/h (1 Bft)
14.09.2017 08:14 12,8 °C 12,8 °C 80 % 1004,5 hPa 0,0 mm 2,1 km/h (1 Bft) S 188 ° 0 min 0,000 mm 0,0 UV-I 28 W/m² 9,4 °C 12,8 °C 3,2 km/h (1 Bft)
14.09.2017 08:15 12,8 °C 12,8 °C 80 % 1004,5 hPa 0,0 mm 2,5 km/h (1 Bft) S 188 ° 0 min 0,000 mm 0,0 UV-I 28 W/m² 9,4 °C 12,8 °C 3,2 km/h (1 Bft)
14.09.2017 08:16 12,8 °C 12,8 °C 81 % 1004,5 hPa 0,0 mm 2,7 km/h (1 Bft) S 188 ° 0 min 0,000 mm 0,0 UV-I 39 W/m² 9,6 °C 12,8 °C 3,2 km/h (1 Bft)
14.09.2017 08:17 12,8 °C 12,8 °C 80 % 1004,5 hPa 0,0 mm 2,2 km/h (1 Bft) S 188 ° 0 min 0,000 mm 0,0 UV-I 30 W/m² 9,4 °C 12,8 °C 3,2 km/h (1 Bft)
14.09.2017 08:18 12,8 °C 12,8 °C 81 % 1004,6 hPa 0,0 mm 1,2 km/h (1 Bft) S 188 ° 0 min 0,000 mm 0,0 UV-I 30 W/m² 9,6 °C 12,8 °C 3,2 km/h (1 Bft)
14.09.2017 08:19 12,8 °C 12,9 °C 81 % 1004,5 hPa 0,0 mm 0,0 km/h (0 Bft) S 188 ° 0 min 0,000 mm 0,0 UV-I 30 W/m² 9,6 °C 12,8 °C 0,0 km/h (0 Bft)
14.09.2017 08:20 12,7 °C 12,8 °C 81 % 1004,5 hPa 0,0 mm 0,0 km/h (0 Bft) S 188 ° 0 min 0,000 mm 0,0 UV-I 28 W/m² 9,5 °C 12,7 °C 0,0 km/h (0 Bft)
14.09.2017 08:21 12,6 °C 12,7 °C 82 % 1004,5 hPa 0,0 mm 0,0 km/h (0 Bft) S 188 ° 0 min 0,000 mm 0,0 UV-I 28 W/m² 9,6 °C 12,6 °C 0,0 km/h (0 Bft)
14.09.2017 08:22 12,6 °C 12,6 °C 82 % 1004,6 hPa 0,0 mm 0,0 km/h (0 Bft) S 188 ° 0 min 0,000 mm 0,0 UV-I 28 W/m² 9,6 °C 12,6 °C 0,0 km/h (0 Bft)
14.09.2017 08:23 12,5 °C 12,6 °C 83 % 1004,6 hPa 0,0 mm 0,0 km/h (0 Bft) S 188 ° 0 min 0,000 mm 0,0 UV-I 28 W/m² 9,7 °C 12,5 °C 0,0 km/h (0 Bft)
14.09.2017 08:24 12,4 °C 12,5 °C 83 % 1004,5 hPa 0,0 mm 0,0 km/h (0 Bft) S 188 ° 0 min 0,000 mm 0,0 UV-I 28 W/m² 9,6 °C 12,4 °C 0,0 km/h (0 Bft)
14.09.2017 08:25 12,4 °C 12,4 °C 83 % 1004,4 hPa 0,0 mm 0,0 km/h (0 Bft) S 188 ° 0 min 0,000 mm 0,0 UV-I 28 W/m² 9,6 °C 12,4 °C 0,0 km/h (0 Bft)
14.09.2017 08:26 12,4 °C 12,4 °C 84 % 1004,4 hPa 0,0 mm 0,0 km/h (0 Bft) S 188 ° 0 min 0,000 mm 0,0 UV-I 28 W/m² 9,8 °C 12,4 °C 0,0 km/h (0 Bft)
14.09.2017 08:27 12,4 °C 12,4 °C 83 % 1004,4 hPa 0,0 mm 0,0 km/h (0 Bft) S 188 ° 0 min 0,000 mm 0,0 UV-I 28 W/m² 9,6 °C 12,4 °C 0,0 km/h (0 Bft)
14.09.2017 08:28 12,6 °C 12,6 °C 82 % 1004,5 hPa 0,0 mm 2,4 km/h (1 Bft) S 188 ° 0 min 0,000 mm 0,0 UV-I 28 W/m² 9,6 °C 12,6 °C 4,8 km/h (1 Bft)
14.09.2017 08:29 12,6 °C 12,6 °C 82 % 1004,4 hPa 0,0 mm 3,8 km/h (1 Bft) S 188 ° 0 min 0,000 mm 0,0 UV-I 30 W/m² 9,6 °C 12,6 °C 4,8 km/h (1 Bft)
14.09.2017 08:30 12,8 °C 12,8 °C 82 % 1004,4 hPa 0,0 mm 2,7 km/h (1 Bft) S 188 ° 0 min 0,000 mm 0,0 UV-I 30 W/m² 9,8 °C 12,8 °C 4,8 km/h (1 Bft)
14.09.2017 08:31 12,8 °C 12,8 °C 81 % 1004,4 hPa 0,0 mm 1,8 km/h (1 Bft) S 188 ° 0 min 0,000 mm 0,0 UV-I 30 W/m² 9,6 °C 12,8 °C 3,2 km/h (1 Bft)
14.09.2017 08:32 12,9 °C 12,9 °C 81 % 1004,4 hPa 0,0 mm 1,5 km/h (1 Bft) S 188 ° 0 min 0,000 mm 0,0 UV-I 30 W/m² 9,7 °C 12,9 °C 1,6 km/h (1 Bft)
14.09.2017 08:33 12,9 °C 12,9 °C 81 % 1004,4 hPa 0,0 mm 2,2 km/h (1 Bft) S 188 ° 0 min 0,000 mm 0,0 UV-I 32 W/m² 9,7 °C 12,9 °C 3,2 km/h (1 Bft)
14.09.2017 08:34 12,9 °C 12,9 °C 81 % 1004,3 hPa 0,0 mm 0,1 km/h (0 Bft) S 188 ° 0 min 0,000 mm 0,0 UV-I 32 W/m² 9,7 °C 12,9 °C 1,6 km/h (1 Bft)
14.09.2017 08:35 12,9 °C 13,0 °C 82 % 1004,2 hPa 0,0 mm 0,6 km/h (0 Bft) W 269 ° 0 min 0,000 mm 0,0 UV-I 40 W/m² 9,9 °C 12,9 °C 3,2 km/h (1 Bft)
14.09.2017 08:36 12,9 °C 12,9 °C 83 % 1004,3 hPa 0,0 mm 3,3 km/h (1 Bft) N-NW 342 ° 0 min 0,000 mm 0,8 UV-I 81 W/m² 10,1 °C 12,9 °C 4,8 km/h (1 Bft)
14.09.2017 08:37 12,9 °C 12,9 °C 85 % 1004,4 hPa 0,0 mm 3,0 km/h (1 Bft) N-NW 342 ° 0 min 0,000 mm 0,9 UV-I 141 W/m² 10,4 °C 12,9 °C 4,8 km/h (1 Bft)
14.09.2017 08:38 13,0 °C 13,0 °C 86 % 1004,4 hPa 0,0 mm 1,5 km/h (1 Bft) N-NW 342 ° 0 min 0,000 mm 0,9 UV-I 199 W/m² 10,7 °C 13,0 °C 3,2 km/h (1 Bft)
14.09.2017 08:39 12,9 °C 13,0 °C 86 % 1004,5 hPa 0,0 mm 0,6 km/h (0 Bft) N-NW 342 ° 0 min 0,000 mm 1,0 UV-I 239 W/m² 10,6 °C 12,9 °C 1,6 km/h (1 Bft)
14.09.2017 08:40 12,9 °C 12,9 °C 85 % 1004,5 hPa 0,0 mm 0,0 km/h (0 Bft) N-NW 342 ° 0 min 0,000 mm 1,0 UV-I 246 W/m² 10,4 °C 12,9 °C 0,0 km/h (0 Bft)
14.09.2017 08:41 13,0 °C 13,0 °C 85 % 1004,5 hPa 0,0 mm 0,3 km/h (0 Bft) N-NW 342 ° 0 min 0,000 mm 1,0 UV-I 246 W/m² 10,5 °C 13,0 °C 1,6 km/h (1 Bft)
14.09.2017 08:42 12,9 °C 13,0 °C 85 % 1004,5 hPa 0,0 mm 0,6 km/h (0 Bft) O-NO 57 ° 0 min 0,000 mm 1,0 UV-I 251 W/m² 10,4 °C 12,9 °C 3,2 km/h (1 Bft)
14.09.2017 08:43 12,9 °C 13,0 °C 85 % 1004,5 hPa 0,0 mm 2,4 km/h (1 Bft) O-NO 57 ° 0 min 0,000 mm 1,1 UV-I 257 W/m² 10,4 °C 12,9 °C 4,8 km/h (1 Bft)
14.09.2017 08:44 13,0 °C 13,0 °C 85 % 1004,4 hPa 0,0 mm 1,9 km/h (1 Bft) O-NO 57 ° 0 min 0,000 mm 1,1 UV-I 260 W/m² 10,5 °C 13,0 °C 3,2 km/h (1 Bft)
14.09.2017 08:45 13,1 °C 13,1 °C 85 % 1004,4 hPa 0,0 mm 0,7 km/h (0 Bft) O-NO 57 ° 0 min 0,000 mm 1,1 UV-I 264 W/m² 10,6 °C 13,1 °C 1,6 km/h (1 Bft)
14.09.2017 08:46 13,1 °C 13,1 °C 85 % 1004,3 hPa 0,0 mm 0,0 km/h (0 Bft) O-NO 57 ° 0 min 0,000 mm 1,1 UV-I 265 W/m² 10,6 °C 13,1 °C 0,0 km/h (0 Bft)
14.09.2017 08:47 13,2 °C 13,2 °C 85 % 1004,3 hPa 0,0 mm 2,3 km/h (1 Bft) SO 146 ° 0 min 0,000 mm 1,1 UV-I 267 W/m² 10,7 °C 13,2 °C 6,4 km/h (2 Bft)
14.09.2017 08:48 13,3 °C 13,3 °C 83 % 1004,3 hPa 0,0 mm 5,0 km/h (1 Bft) S-SO 151 ° 0 min 0,000 mm 1,2 UV-I 278 W/m² 10,5 °C 13,3 °C 6,4 km/h (2 Bft)
14.09.2017 08:49 13,4 °C 13,4 °C 83 % 1004,3 hPa 0,0 mm 4,9 km/h (1 Bft) S-SO 156 ° 0 min 0,000 mm 1,2 UV-I 281 W/m² 10,6 °C 13,4 °C 6,4 km/h (2 Bft)
14.09.2017 08:50 13,6 °C 13,6 °C 83 % 1004,3 hPa 0,0 mm 5,8 km/h (2 Bft) S 171 ° 0 min 0,000 mm 1,2 UV-I 285 W/m² 10,8 °C 13,6 °C 9,7 km/h (2 Bft)
14.09.2017 08:51 13,7 °C 13,7 °C 83 % 1004,3 hPa 0,0 mm 5,9 km/h (2 Bft) S 171 ° 0 min 0,000 mm 1,0 UV-I 283 W/m² 10,9 °C 13,7 °C 8,0 km/h (2 Bft)
14.09.2017 08:52 13,8 °C 13,8 °C 82 % 1004,3 hPa 0,0 mm 5,4 km/h (1 Bft) S 171 ° 1 min 0,000 mm 1,2 UV-I 292 W/m² 10,8 °C 13,8 °C 8,0 km/h (2 Bft)
14.09.2017 08:53 13,9 °C 13,9 °C 81 % 1004,3 hPa 0,0 mm 2,1 km/h (1 Bft) S 171 ° 1 min 0,000 mm 1,3 UV-I 292 W/m² 10,7 °C 13,9 °C 3,2 km/h (1 Bft)
14.09.2017 08:54 13,8 °C 13,9 °C 82 % 1004,3 hPa 0,0 mm 0,2 km/h (0 Bft) S 171 ° 1 min 0,000 mm 1,3 UV-I 301 W/m² 10,8 °C 13,8 °C 1,6 km/h (1 Bft)
14.09.2017 08:55 13,9 °C 13,9 °C 82 % 1004,4 hPa 0,0 mm 1,5 km/h (1 Bft) W 272 ° 1 min 0,000 mm 1,3 UV-I 302 W/m² 10,9 °C 13,9 °C 3,2 km/h (1 Bft)
14.09.2017 08:56 14,1 °C 14,1 °C 82 % 1004,4 hPa 0,0 mm 3,2 km/h (1 Bft) W-NW 288 ° 1 min 0,000 mm 1,3 UV-I 308 W/m² 11,1 °C 14,1 °C 4,8 km/h (1 Bft)
14.09.2017 08:57 14,4 °C 14,4 °C 83 % 1004,4 hPa 0,0 mm 1,7 km/h (1 Bft) W-NW 289 ° 1 min 0,000 mm 1,3 UV-I 313 W/m² 11,5 °C 14,4 °C 3,2 km/h (1 Bft)
14.09.2017 08:58 14,6 °C 14,6 °C 80 % 1004,3 hPa 0,0 mm 0,8 km/h (0 Bft) W-NW 289 ° 1 min 0,000 mm 1,4 UV-I 316 W/m² 11,2 °C 14,6 °C 1,6 km/h (1 Bft)
14.09.2017 08:59 14,7 °C 14,7 °C 78 % 1004,3 hPa 0,0 mm 0,0 km/h (0 Bft) W-NW 289 ° 1 min 0,000 mm 1,4 UV-I 316 W/m² 10,9 °C 14,7 °C 0,0 km/h (0 Bft)
14.09.2017 09:00 14,6 °C 14,7 °C 79 % 1004,2 hPa 0,0 mm 0,8 km/h (0 Bft) SW 225 ° 1 min 0,000 mm 1,4 UV-I 313 W/m² 11,0 °C 14,6 °C 3,2 km/h (1 Bft)
14.09.2017 09:01 14,4 °C 14,6 °C 80 % 1004,2 hPa 0,0 mm 2,0 km/h (1 Bft) SW 225 ° 1 min 0,077 mm 1,0 UV-I 315 W/m² 11,0 °C 14,4 °C 3,2 km/h (1 Bft)
14.09.2017 09:02 14,4 °C 14,4 °C 80 % 1004,2 hPa 0,0 mm 0,2 km/h (0 Bft) SW 225 ° 1 min 0,000 mm 1,5 UV-I 320 W/m² 11,0 °C 14,4 °C 1,6 km/h (1 Bft)
14.09.2017 09:03 14,3 °C 14,4 °C 80 % 1004,3 hPa 0,0 mm 0,0 km/h (0 Bft) SW 225 ° 1 min 0,000 mm 1,5 UV-I 329 W/m² 10,9 °C 14,3 °C 0,0 km/h (0 Bft)
14.09.2017 09:04 14,3 °C 14,3 °C 81 % 1004,3 hPa 0,0 mm 0,0 km/h (0 Bft) SW 225 ° 1 min 0,000 mm 1,5 UV-I 334 W/m² 11,1 °C 14,3 °C 0,0 km/h (0 Bft)
14.09.2017 09:05 14,2 °C 14,3 °C 81 % 1004,1 hPa 0,0 mm 0,0 km/h (0 Bft) SW 225 ° 1 min 0,000 mm 1,6 UV-I 338 W/m² 11,0 °C 14,2 °C 0,0 km/h (0 Bft)
14.09.2017 09:06 14,2 °C 14,2 °C 82 % 1004,1 hPa 0,0 mm 0,0 km/h (0 Bft) SW 225 ° 1 min 0,000 mm 1,6 UV-I 338 W/m² 11,2 °C 14,2 °C 0,0 km/h (0 Bft)
14.09.2017 09:07 14,2 °C 14,2 °C 81 % 1004,1 hPa 0,0 mm 0,1 km/h (0 Bft) SW 225 ° 1 min 0,000 mm 1,6 UV-I 341 W/m² 11,0 °C 14,2 °C 1,6 km/h (1 Bft)
14.09.2017 09:08 14,2 °C 14,2 °C 82 % 1004,2 hPa 0,0 mm 0,0 km/h (0 Bft) SW 225 ° 1 min 0,000 mm 1,6 UV-I 348 W/m² 11,2 °C 14,2 °C 0,0 km/h (0 Bft)
14.09.2017 09:09 14,4 °C 14,4 °C 82 % 1004,1 hPa 0,0 mm 0,0 km/h (0 Bft) SW 225 ° 1 min 0,000 mm 1,7 UV-I 355 W/m² 11,4 °C 14,4 °C 0,0 km/h (0 Bft)
14.09.2017 09:10 14,6 °C 14,6 °C 82 % 1004,2 hPa 0,0 mm 0,0 km/h (0 Bft) SW 225 ° 1 min 0,000 mm 1,7 UV-I 371 W/m² 11,6 °C 14,6 °C 0,0 km/h (0 Bft)
14.09.2017 09:11 14,8 °C 14,8 °C 82 % 1004,2 hPa 0,0 mm 0,0 km/h (0 Bft) SW 225 ° 1 min 0,000 mm 1,8 UV-I 380 W/m² 11,8 °C 14,8 °C 0,0 km/h (0 Bft)
14.09.2017 09:12 14,8 °C 14,8 °C 81 % 1004,2 hPa 0,0 mm 0,0 km/h (0 Bft) SW 225 ° 1 min 0,000 mm 1,8 UV-I 383 W/m² 11,6 °C 14,8 °C 0,0 km/h (0 Bft)
14.09.2017 09:13 14,9 °C 14,9 °C 80 % 1004,2 hPa 0,0 mm 0,0 km/h (0 Bft) SW 225 ° 1 min 0,000 mm 1,8 UV-I 381 W/m² 11,5 °C 14,9 °C 0,0 km/h (0 Bft)
14.09.2017 09:14 15,0 °C 15,0 °C 80 % 1004,2 hPa 0,0 mm 0,0 km/h (0 Bft) SW 225 ° 1 min 0,000 mm 1,8 UV-I 381 W/m² 11,6 °C 15,0 °C 0,0 km/h (0 Bft)
14.09.2017 09:15 15,1 °C 15,1 °C 80 % 1004,2 hPa 0,0 mm 0,0 km/h (0 Bft) SW 225 ° 1 min 0,000 mm 1,9 UV-I 387 W/m² 11,7 °C 15,1 °C 0,0 km/h (0 Bft)
14.09.2017 09:16 15,2 °C 15,2 °C 79 % 1004,1 hPa 0,0 mm 0,0 km/h (0 Bft) SW 225 ° 1 min 0,000 mm 1,9 UV-I 387 W/m² 11,6 °C 15,2 °C 0,0 km/h (0 Bft)
14.09.2017 09:17 15,3 °C 15,3 °C 80 % 1004,1 hPa 0,0 mm 0,0 km/h (0 Bft) SW 225 ° 1 min 0,000 mm 1,9 UV-I 399 W/m² 11,9 °C 15,3 °C 0,0 km/h (0 Bft)
14.09.2017 09:18 15,4 °C 15,4 °C 79 % 1004,1 hPa 0,0 mm 0,0 km/h (0 Bft) SW 225 ° 1 min 0,000 mm 2,0 UV-I 399 W/m² 11,8 °C 15,4 °C 0,0 km/h (0 Bft)
14.09.2017 09:19 15,3 °C 15,4 °C 79 % 1004,1 hPa 0,0 mm 1,2 km/h (1 Bft) SW 225 ° 1 min 0,000 mm 2,0 UV-I 427 W/m² 11,7 °C 15,3 °C 3,2 km/h (1 Bft)
14.09.2017 09:20 15,2 °C 15,3 °C 81 % 1003,9 hPa 0,0 mm 1,0 km/h (0 Bft) SW 225 ° 1 min 0,000 mm 2,0 UV-I 436 W/m² 12,0 °C 15,2 °C 1,6 km/h (1 Bft)
14.09.2017 09:21 15,1 °C 15,2 °C 82 % 1004,0 hPa 0,0 mm 0,1 km/h (0 Bft) SW 225 ° 1 min 0,000 mm 2,0 UV-I 446 W/m² 12,0 °C 15,1 °C 1,6 km/h (1 Bft)
14.09.2017 09:22 15,1 °C 15,2 °C 81 % 1004,0 hPa 0,0 mm 0,0 km/h (0 Bft) SW 225 ° 1 min 0,000 mm 2,1 UV-I 454 W/m² 11,9 °C 15,1 °C 0,0 km/h (0 Bft)
14.09.2017 09:23 15,3 °C 15,3 °C 79 % 1004,1 hPa 0,0 mm 0,0 km/h (0 Bft) SW 225 ° 1 min 0,000 mm 2,1 UV-I 464 W/m² 11,7 °C 15,3 °C 0,0 km/h (0 Bft)
14.09.2017 09:24 15,6 °C 15,6 °C 81 % 1004,1 hPa 0,0 mm 0,0 km/h (0 Bft) SW 225 ° 1 min 0,000 mm 2,1 UV-I 464 W/m² 12,3 °C 15,6 °C 0,0 km/h (0 Bft)
14.09.2017 09:25 15,9 °C 15,9 °C 82 % 1004,1 hPa 0,0 mm 0,0 km/h (0 Bft) SW 225 ° 1 min 0,000 mm 2,2 UV-I 462 W/m² 12,8 °C 15,9 °C 0,0 km/h (0 Bft)
14.09.2017 09:26 16,2 °C 16,2 °C 77 % 1004,1 hPa 0,0 mm 0,0 km/h (0 Bft) SW 225 ° 1 min 0,000 mm 2,2 UV-I 471 W/m² 12,2 °C 16,2 °C 0,0 km/h (0 Bft)
14.09.2017 09:27 16,4 °C 16,4 °C 77 % 1004,1 hPa 0,0 mm 0,0 km/h (0 Bft) SW 225 ° 1 min 0,000 mm 2,2 UV-I 468 W/m² 12,4 °C 16,4 °C 0,0 km/h (0 Bft)
14.09.2017 09:28 16,6 °C 16,7 °C 77 % 1004,1 hPa 0,0 mm 0,0 km/h (0 Bft) SW 225 ° 1 min 0,000 mm 2,2 UV-I 427 W/m² 12,5 °C 16,6 °C 0,0 km/h (0 Bft)
14.09.2017 09:29 16,6 °C 16,6 °C 75 % 1004,1 hPa 0,0 mm 1,1 km/h (1 Bft) SW 221 ° 1 min 0,000 mm 2,3 UV-I 459 W/m² 12,1 °C 16,6 °C 3,2 km/h (1 Bft)
14.09.2017 09:30 16,4 °C 16,6 °C 74 % 1004,0 hPa 0,0 mm 2,1 km/h (1 Bft) SW 215 ° 1 min 0,000 mm 2,3 UV-I 461 W/m² 11,8 °C 16,4 °C 3,2 km/h (1 Bft)
14.09.2017 09:31 16,3 °C 16,4 °C 74 % 1004,0 hPa 0,0 mm 1,8 km/h (1 Bft) SW 215 ° 1 min 0,000 mm 2,3 UV-I 469 W/m² 11,7 °C 16,3 °C 3,2 km/h (1 Bft)
14.09.2017 09:32 16,3 °C 16,3 °C 76 % 1003,9 hPa 0,0 mm 0,1 km/h (0 Bft) SW 215 ° 1 min 0,000 mm 2,3 UV-I 476 W/m² 12,1 °C 16,3 °C 1,6 km/h (1 Bft)
14.09.2017 09:33 16,4 °C 16,4 °C 73 % 1004,0 hPa 0,0 mm 0,0 km/h (0 Bft) SW 215 ° 1 min 0,000 mm 2,4 UV-I 478 W/m² 11,5 °C 16,4 °C 0,0 km/h (0 Bft)
14.09.2017 09:34 16,4 °C 16,4 °C 74 % 1004,0 hPa 0,0 mm 0,0 km/h (0 Bft) SW 215 ° 1 min 0,000 mm 2,4 UV-I 462 W/m² 11,8 °C 16,4 °C 0,0 km/h (0 Bft)
14.09.2017 09:35 16,5 °C 16,5 °C 73 % 1004,0 hPa 0,0 mm 1,1 km/h (1 Bft) SW 215 ° 1 min 0,000 mm 2,4 UV-I 492 W/m² 11,6 °C 16,5 °C 3,2 km/h (1 Bft)
14.09.2017 09:36 16,6 °C 16,6 °C 71 % 1004,0 hPa 0,0 mm 0,2 km/h (0 Bft) SW 215 ° 1 min 0,000 mm 2,0 UV-I 501 W/m² 11,3 °C 16,6 °C 1,6 km/h (1 Bft)
14.09.2017 09:37 16,6 °C 16,6 °C 69 % 1004,0 hPa 0,0 mm 0,0 km/h (0 Bft) SW 215 ° 1 min 0,000 mm 2,5 UV-I 515 W/m² 10,9 °C 16,6 °C 0,0 km/h (0 Bft)
14.09.2017 09:39 16,9 °C 16,9 °C 73 % 1004,0 hPa 0,0 mm 0,0 km/h (0 Bft) SW 215 ° 2 min 0,000 mm 1,6 UV-I 504 W/m² 12,0 °C 16,9 °C 1,6 km/h (1 Bft)
14.09.2017 09:40 17,1 °C 17,1 °C 70 % 1004,0 hPa 0,0 mm 2,1 km/h (1 Bft) S 175 ° 1 min 0,000 mm 2,4 UV-I 487 W/m² 11,6 °C 17,1 °C 4,8 km/h (1 Bft)
14.09.2017 09:41 17,2 °C 17,2 °C 68 % 1004,0 hPa 0,0 mm 2,7 km/h (1 Bft) S 175 ° 1 min 0,000 mm 2,5 UV-I 487 W/m² 11,2 °C 17,2 °C 3,2 km/h (1 Bft)
14.09.2017 09:42 17,1 °C 17,2 °C 67 % 1004,0 hPa 0,0 mm 1,0 km/h (0 Bft) S 175 ° 1 min 0,000 mm 2,5 UV-I 476 W/m² 10,9 °C 17,1 °C 3,2 km/h (1 Bft)
14.09.2017 09:43 17,0 °C 17,2 °C 70 % 1003,9 hPa 0,0 mm 0,0 km/h (0 Bft) S 175 ° 1 min 0,000 mm 2,6 UV-I 490 W/m² 11,5 °C 17,0 °C 0,0 km/h (0 Bft)
14.09.2017 09:44 16,7 °C 17,0 °C 72 % 1003,9 hPa 0,0 mm 0,0 km/h (0 Bft) S 175 ° 1 min 0,000 mm 2,7 UV-I 512 W/m² 11,6 °C 16,7 °C 0,0 km/h (0 Bft)
14.09.2017 09:45 16,6 °C 16,7 °C 72 % 1003,9 hPa 0,0 mm 0,0 km/h (0 Bft) S 175 ° 1 min 0,000 mm 2,3 UV-I 527 W/m² 11,5 °C 16,6 °C 0,0 km/h (0 Bft)
14.09.2017 09:46 16,6 °C 16,6 °C 72 % 1003,9 hPa 0,0 mm 0,0 km/h (0 Bft) S 175 ° 1 min 0,000 mm 2,8 UV-I 538 W/m² 11,5 °C 16,6 °C 0,0 km/h (0 Bft)
14.09.2017 09:47 16,6 °C 16,6 °C 72 % 1004,0 hPa 0,0 mm 0,0 km/h (0 Bft) S 175 ° 1 min 0,000 mm 2,8 UV-I 555 W/m² 11,5 °C 16,6 °C 0,0 km/h (0 Bft)
14.09.2017 09:49 16,6 °C 16,6 °C 70 % 1004,0 hPa 0,0 mm 0,0 km/h (0 Bft) S 175 ° 2 min 0,000 mm 2,8 UV-I 564 W/m² 11,1 °C 16,6 °C 0,0 km/h (0 Bft)
14.09.2017 09:50 16,7 °C 16,7 °C 68 % 1004,0 hPa 0,0 mm 2,4 km/h (1 Bft) S-SO 157 ° 1 min 0,000 mm 2,8 UV-I 566 W/m² 10,8 °C 16,7 °C 6,4 km/h (2 Bft)
14.09.2017 09:51 16,8 °C 16,8 °C 69 % 1003,9 hPa 0,0 mm 4,0 km/h (1 Bft) SO 143 ° 0 min 0,000 mm 2,0 UV-I 213 W/m² 11,1 °C 16,8 °C 4,8 km/h (1 Bft)
14.09.2017 09:52 16,7 °C 16,8 °C 70 % 1003,8 hPa 0,0 mm 3,3 km/h (1 Bft) SO 143 ° 0 min 0,000 mm 2,5 UV-I 213 W/m² 11,2 °C 16,7 °C 4,8 km/h (1 Bft)
14.09.2017 09:54 16,8 °C 16,8 °C 71 % 1003,8 hPa 0,0 mm 1,9 km/h (1 Bft) SO 143 ° 2 min 0,000 mm 2,6 UV-I 612 W/m² 11,5 °C 16,8 °C 4,8 km/h (1 Bft)
14.09.2017 09:55 17,0 °C 17,0 °C 71 % 1003,8 hPa 0,0 mm 0,0 km/h (0 Bft) SO 143 ° 1 min 0,000 mm 2,9 UV-I 605 W/m² 11,7 °C 17,0 °C 0,0 km/h (0 Bft)
14.09.2017 09:56 17,3 °C 17,3 °C 71 % 1003,8 hPa 0,0 mm 0,7 km/h (0 Bft) SO 143 ° 1 min 0,000 mm 3,0 UV-I 613 W/m² 12,0 °C 17,3 °C 1,6 km/h (1 Bft)
14.09.2017 09:57 17,6 °C 17,6 °C 64 % 1003,8 hPa 0,0 mm 1,6 km/h (1 Bft) SO 145 ° 1 min 0,000 mm 3,0 UV-I 635 W/m² 10,7 °C 17,6 °C 3,2 km/h (1 Bft)
14.09.2017 09:59 17,9 °C 17,9 °C 63 % 1004,0 hPa 0,0 mm 0,7 km/h (0 Bft) SO 146 ° 2 min 0,000 mm 1,7 UV-I 608 W/m² 10,8 °C 17,9 °C 3,2 km/h (1 Bft)
14.09.2017 10:00 18,0 °C 18,1 °C 66 % 1004,0 hPa 0,0 mm 1,0 km/h (0 Bft) SO 143 ° 1 min 0,228 mm 2,7 UV-I 367 W/m² 11,6 °C 18,0 °C 3,2 km/h (1 Bft)
14.09.2017 10:01 18,1 °C 18,1 °C 66 % 1004,0 hPa 0,0 mm 2,9 km/h (1 Bft) N-NO 29 ° 1 min 0,000 mm 1,7 UV-I 367 W/m² 11,6 °C 18,1 °C 4,8 km/h (1 Bft)
14.09.2017 10:02 18,1 °C 18,1 °C 68 % 1004,0 hPa 0,0 mm 3,0 km/h (1 Bft) N-NO 29 ° 1 min 0,000 mm 3,1 UV-I 367 W/m² 12,1 °C 18,1 °C 3,2 km/h (1 Bft)
14.09.2017 10:04 17,8 °C 18,1 °C 68 % 1004,0 hPa 0,0 mm 3,4 km/h (1 Bft) N-NO 25 ° 0 min 0,000 mm 1,9 UV-I 214 W/m² 11,8 °C 17,8 °C 6,4 km/h (2 Bft)
14.09.2017 10:05 17,6 °C 17,8 °C 72 % 1004,0 hPa 0,0 mm 2,1 km/h (1 Bft) NO 45 ° 0 min 0,000 mm 1,7 UV-I 214 W/m² 12,5 °C 17,6 °C 3,2 km/h (1 Bft)
14.09.2017 10:06 17,5 °C 17,6 °C 74 % 1004,0 hPa 0,0 mm 2,1 km/h (1 Bft) NO 52 ° 0 min 0,000 mm 3,0 UV-I 218 W/m² 12,8 °C 17,5 °C 3,2 km/h (1 Bft)
14.09.2017 10:07 17,6 °C 17,6 °C 67 % 1004,0 hPa 0,0 mm 3,4 km/h (1 Bft) N-NO 29 ° 0 min 0,000 mm 1,9 UV-I 218 W/m² 11,4 °C 17,6 °C 6,4 km/h (2 Bft)
14.09.2017 10:08 17,7 °C 17,7 °C 66 % 1003,9 hPa 0,0 mm 1,9 km/h (1 Bft) N-NO 28 ° 0 min 0,000 mm 1,7 UV-I 204 W/m² 11,3 °C 17,7 °C 3,2 km/h (1 Bft)
14.09.2017 10:09 17,9 °C 17,9 °C 67 % 1004,0 hPa 0,0 mm 3,9 km/h (1 Bft) N 355 ° 0 min 0,000 mm 2,3 UV-I 204 W/m² 11,7 °C 17,9 °C 6,4 km/h (2 Bft)
14.09.2017 10:10 18,1 °C 18,1 °C 68 % 1004,0 hPa 0,0 mm 2,6 km/h (1 Bft) N 5 ° 1 min 0,000 mm 3,1 UV-I 691 W/m² 12,1 °C 18,1 °C 3,2 km/h (1 Bft)
14.09.2017 10:11 18,2 °C 18,2 °C 69 % 1004,0 hPa 0,0 mm 3,8 km/h (1 Bft) NW 321 ° 1 min 0,000 mm 1,7 UV-I 691 W/m² 12,4 °C 18,2 °C 8,0 km/h (2 Bft)
14.09.2017 10:12 18,3 °C 18,3 °C 68 % 1003,9 hPa 0,0 mm 5,7 km/h (1 Bft) N-NW 348 ° 0 min 0,000 mm 1,5 UV-I 213 W/m² 12,3 °C 18,3 °C 8,0 km/h (2 Bft)
14.09.2017 10:13 18,3 °C 18,3 °C 66 % 1003,9 hPa 0,0 mm 3,4 km/h (1 Bft) N-NW 347 ° 0 min 0,000 mm 1,5 UV-I 209 W/m² 11,8 °C 18,3 °C 4,8 km/h (1 Bft)
14.09.2017 10:14 18,3 °C 18,3 °C 63 % 1003,9 hPa 0,0 mm 1,9 km/h (1 Bft) N-NW 347 ° 0 min 0,000 mm 1,5 UV-I 248 W/m² 11,1 °C 18,3 °C 3,2 km/h (1 Bft)
14.09.2017 10:15 18,3 °C 18,3 °C 63 % 1004,0 hPa 0,0 mm 2,0 km/h (1 Bft) NW 324 ° 0 min 0,000 mm 1,7 UV-I 248 W/m² 11,1 °C 18,3 °C 3,2 km/h (1 Bft)
14.09.2017 10:16 18,3 °C 18,3 °C 67 % 1004,0 hPa 0,0 mm 2,9 km/h (1 Bft) N-NW 338 ° 0 min 0,000 mm 1,8 UV-I 248 W/m² 12,1 °C 18,3 °C 4,8 km/h (1 Bft)
14.09.2017 10:17 18,3 °C 18,3 °C 68 % 1004,0 hPa 0,0 mm 3,3 km/h (1 Bft) N 5 ° 0 min 0,000 mm 2,6 UV-I 248 W/m² 12,3 °C 18,3 °C 6,4 km/h (2 Bft)
14.09.2017 10:19 18,2 °C 18,3 °C 63 % 1004,0 hPa 0,0 mm 0,8 km/h (0 Bft) N-NW 348 ° 0 min 0,000 mm 1,7 UV-I 248 W/m² 11,0 °C 18,2 °C 3,2 km/h (1 Bft)
14.09.2017 10:20 18,2 °C 18,2 °C 64 % 1004,0 hPa 0,0 mm 3,8 km/h (1 Bft) W-NW 290 ° 0 min 0,000 mm 2,6 UV-I 207 W/m² 11,3 °C 18,2 °C 6,4 km/h (2 Bft)
14.09.2017 10:21 18,2 °C 18,2 °C 66 % 1004,0 hPa 0,0 mm 4,7 km/h (1 Bft) NW 306 ° 0 min 0,000 mm 1,4 UV-I 181 W/m² 11,7 °C 18,2 °C 6,4 km/h (2 Bft)
14.09.2017 10:22 18,1 °C 18,2 °C 65 % 1004,1 hPa 0,0 mm 3,6 km/h (1 Bft) W-NW 288 ° 0 min 0,000 mm 1,4 UV-I 171 W/m² 11,4 °C 18,1 °C 6,4 km/h (2 Bft)
14.09.2017 10:23 17,9 °C 18,1 °C 63 % 1004,0 hPa 0,0 mm 6,2 km/h (2 Bft) W-NW 292 ° 0 min 0,000 mm 1,4 UV-I 176 W/m² 10,8 °C 17,9 °C 11,3 km/h (2 Bft)
14.09.2017 10:24 17,9 °C 17,9 °C 64 % 1004,0 hPa 0,0 mm 5,8 km/h (2 Bft) W-NW 299 ° 0 min 0,000 mm 1,6 UV-I 192 W/m² 11,0 °C 17,9 °C 11,3 km/h (2 Bft)
14.09.2017 10:25 17,8 °C 17,9 °C 64 % 1004,0 hPa 0,0 mm 4,6 km/h (1 Bft) W-NW 289 ° 0 min 0,000 mm 1,6 UV-I 243 W/m² 10,9 °C 17,8 °C 6,4 km/h (2 Bft)
14.09.2017 10:26 17,7 °C 17,8 °C 64 % 1004,0 hPa 0,0 mm 4,3 km/h (1 Bft) W-NW 285 ° 0 min 0,000 mm 1,6 UV-I 206 W/m² 10,8 °C 17,7 °C 6,4 km/h (2 Bft)
14.09.2017 10:27 17,6 °C 17,7 °C 63 % 1003,9 hPa 0,0 mm 4,0 km/h (1 Bft) W-NW 296 ° 1 min 0,000 mm 2,1 UV-I 295 W/m² 10,5 °C 17,6 °C 4,8 km/h (1 Bft)
14.09.2017 10:28 17,6 °C 17,6 °C 63 % 1003,9 hPa 0,0 mm 0,9 km/h (0 Bft) W-NW 296 ° 0 min 0,000 mm 2,0 UV-I 214 W/m² 10,5 °C 17,6 °C 3,2 km/h (1 Bft)
14.09.2017 10:29 17,5 °C 17,6 °C 64 % 1003,8 hPa 0,0 mm 0,0 km/h (0 Bft) W-NW 296 ° 0 min 0,000 mm 1,2 UV-I 174 W/m² 10,6 °C 17,5 °C 0,0 km/h (0 Bft)
14.09.2017 10:30 17,4 °C 17,5 °C 64 % 1003,7 hPa 0,0 mm 0,9 km/h (0 Bft) W-NW 296 ° 0 min 0,000 mm 1,2 UV-I 160 W/m² 10,5 °C 17,4 °C 3,2 km/h (1 Bft)
14.09.2017 10:31 17,3 °C 17,4 °C 62 % 1003,8 hPa 0,0 mm 1,3 km/h (1 Bft) W-NW 296 ° 0 min 0,000 mm 1,2 UV-I 188 W/m² 9,9 °C 17,3 °C 3,2 km/h (1 Bft)
14.09.2017 10:32 17,3 °C 17,3 °C 64 % 1003,9 hPa 0,0 mm 2,0 km/h (1 Bft) W-NW 290 ° 0 min 0,000 mm 1,1 UV-I 137 W/m² 10,4 °C 17,3 °C 4,8 km/h (1 Bft)
14.09.2017 10:33 17,2 °C 17,3 °C 67 % 1004,0 hPa 0,0 mm 4,0 km/h (1 Bft) W-NW 292 ° 0 min 0,000 mm 1,2 UV-I 137 W/m² 11,0 °C 17,2 °C 4,8 km/h (1 Bft)
14.09.2017 10:34 17,2 °C 17,2 °C 65 % 1004,0 hPa 0,0 mm 3,5 km/h (1 Bft) W-NW 292 ° 0 min 0,000 mm 1,2 UV-I 137 W/m² 10,6 °C 17,2 °C 4,8 km/h (1 Bft)
14.09.2017 10:35 17,2 °C 17,2 °C 67 % 1004,0 hPa 0,0 mm 1,2 km/h (1 Bft) W-NW 292 ° 0 min 0,000 mm 1,1 UV-I 142 W/m² 11,0 °C 17,2 °C 3,2 km/h (1 Bft)
14.09.2017 10:36 17,1 °C 17,2 °C 67 % 1004,0 hPa 0,0 mm 0,9 km/h (0 Bft) W-NW 292 ° 0 min 0,000 mm 1,1 UV-I 132 W/m² 10,9 °C 17,1 °C 4,8 km/h (1 Bft)
14.09.2017 10:37 17,1 °C 17,1 °C 70 % 1003,9 hPa 0,0 mm 0,9 km/h (0 Bft) W-NW 292 ° 0 min 0,000 mm 1,0 UV-I 127 W/m² 11,6 °C 17,1 °C 3,2 km/h (1 Bft)
14.09.2017 10:38 16,9 °C 17,1 °C 69 % 1003,9 hPa 0,0 mm 0,3 km/h (0 Bft) W-NW 292 ° 0 min 0,000 mm 1,0 UV-I 113 W/m² 11,2 °C 16,9 °C 1,6 km/h (1 Bft)
14.09.2017 10:39 16,8 °C 16,9 °C 67 % 1003,7 hPa 0,0 mm 0,8 km/h (0 Bft) W-NW 292 ° 0 min 0,000 mm 1,9 UV-I 123 W/m² 10,6 °C 16,8 °C 3,2 km/h (1 Bft)
14.09.2017 10:40 16,6 °C 16,8 °C 68 % 1003,7 hPa 0,0 mm 0,1 km/h (0 Bft) W-NW 292 ° 0 min 0,000 mm 0,9 UV-I 105 W/m² 10,7 °C 16,6 °C 1,6 km/h (1 Bft)
14.09.2017 10:41 16,4 °C 16,6 °C 70 % 1003,7 hPa 0,0 mm 0,6 km/h (0 Bft) W-NW 292 ° 0 min 0,000 mm 0,8 UV-I 100 W/m² 10,9 °C 16,4 °C 3,2 km/h (1 Bft)
14.09.2017 10:42 16,4 °C 16,4 °C 72 % 1003,8 hPa 0,0 mm 4,2 km/h (1 Bft) W-NW 292 ° 0 min 0,000 mm 0,8 UV-I 95 W/m² 11,3 °C 16,4 °C 4,8 km/h (1 Bft)
14.09.2017 10:43 16,4 °C 16,4 °C 72 % 1003,9 hPa 0,0 mm 4,5 km/h (1 Bft) W-NW 290 ° 0 min 0,000 mm 0,8 UV-I 91 W/m² 11,3 °C 16,4 °C 6,4 km/h (2 Bft)
14.09.2017 10:44 16,4 °C 16,4 °C 71 % 1004,0 hPa 0,0 mm 4,8 km/h (1 Bft) W-NW 299 ° 0 min 0,000 mm 0,8 UV-I 93 W/m² 11,1 °C 16,4 °C 6,4 km/h (2 Bft)
14.09.2017 10:45 16,5 °C 16,5 °C 71 % 1004,0 hPa 0,0 mm 4,2 km/h (1 Bft) W-NW 296 ° 0 min 0,000 mm 0,8 UV-I 91 W/m² 11,2 °C 16,5 °C 6,4 km/h (2 Bft)
14.09.2017 10:46 16,5 °C 16,5 °C 70 % 1004,1 hPa 0,0 mm 4,8 km/h (1 Bft) W-NW 300 ° 0 min 0,000 mm 0,8 UV-I 93 W/m² 11,0 °C 16,5 °C 6,4 km/h (2 Bft)
14.09.2017 10:47 16,5 °C 16,5 °C 70 % 1004,3 hPa 0,0 mm 4,0 km/h (1 Bft) W-NW 297 ° 0 min 0,000 mm 0,8 UV-I 95 W/m² 11,0 °C 16,5 °C 4,8 km/h (1 Bft)
14.09.2017 10:48 16,5 °C 16,5 °C 70 % 1004,4 hPa 0,0 mm 6,1 km/h (2 Bft) W-NW 283 ° 0 min 0,000 mm 0,9 UV-I 100 W/m² 11,0 °C 16,5 °C 11,3 km/h (2 Bft)
14.09.2017 10:49 16,4 °C 16,5 °C 70 % 1004,5 hPa 0,0 mm 8,6 km/h (2 Bft) W-NW 284 ° 0 min 0,000 mm 0,9 UV-I 111 W/m² 10,9 °C 16,4 °C 12,9 km/h (3 Bft)
14.09.2017 10:50 16,4 °C 16,4 °C 69 % 1004,6 hPa 0,0 mm 6,8 km/h (2 Bft) W-NW 286 ° 0 min 0,000 mm 1,0 UV-I 113 W/m² 10,7 °C 16,4 °C 11,3 km/h (2 Bft)
14.09.2017 10:51 16,4 °C 16,4 °C 72 % 1004,6 hPa 0,0 mm 7,2 km/h (2 Bft) W-NW 294 ° 0 min 0,000 mm 1,0 UV-I 111 W/m² 11,3 °C 16,4 °C 11,3 km/h (2 Bft)
14.09.2017 10:52 16,4 °C 16,4 °C 70 % 1004,4 hPa 0,0 mm 5,9 km/h (2 Bft) NW 306 ° 0 min 0,000 mm 0,9 UV-I 104 W/m² 10,9 °C 16,4 °C 8,0 km/h (2 Bft)
14.09.2017 10:53 16,3 °C 16,4 °C 70 % 1004,4 hPa 0,0 mm 4,0 km/h (1 Bft) NW 305 ° 0 min 0,000 mm 0,9 UV-I 97 W/m² 10,8 °C 16,3 °C 6,4 km/h (2 Bft)
14.09.2017 10:54 16,3 °C 16,3 °C 70 % 1004,4 hPa 0,0 mm 2,5 km/h (1 Bft) NW 305 ° 0 min 0,000 mm 0,9 UV-I 97 W/m² 10,8 °C 16,3 °C 3,2 km/h (1 Bft)
14.09.2017 10:55 16,3 °C 16,3 °C 70 % 1004,5 hPa 0,0 mm 5,8 km/h (2 Bft) W 280 ° 0 min 0,000 mm 0,9 UV-I 98 W/m² 10,8 °C 16,3 °C 12,9 km/h (3 Bft)
14.09.2017 10:56 16,2 °C 16,3 °C 71 % 1004,6 hPa 0,0 mm 4,9 km/h (1 Bft) W-NW 284 ° 0 min 0,000 mm 0,8 UV-I 95 W/m² 10,9 °C 16,2 °C 6,4 km/h (2 Bft)
14.09.2017 10:57 16,2 °C 16,2 °C 71 % 1004,7 hPa 0,0 mm 6,4 km/h (2 Bft) W 267 ° 0 min 0,000 mm 0,8 UV-I 93 W/m² 10,9 °C 16,2 °C 9,7 km/h (2 Bft)
14.09.2017 10:58 16,2 °C 16,2 °C 71 % 1004,7 hPa 0,0 mm 6,1 km/h (2 Bft) W-NW 290 ° 0 min 0,000 mm 0,8 UV-I 91 W/m² 10,9 °C 16,2 °C 11,3 km/h (2 Bft)
14.09.2017 10:59 16,1 °C 16,2 °C 70 % 1004,8 hPa 0,0 mm 4,7 km/h (1 Bft) W-NW 286 ° 0 min 0,000 mm 0,8 UV-I 93 W/m² 10,6 °C 16,1 °C 9,7 km/h (2 Bft)
14.09.2017 11:00 16,1 °C 16,2 °C 72 % 1004,8 hPa 0,0 mm 6,4 km/h (2 Bft) W 267 ° 0 min 0,127 mm 0,9 UV-I 95 W/m² 11,0 °C 16,1 °C 9,7 km/h (2 Bft)
14.09.2017 11:01 16,1 °C 16,1 °C 72 % 1004,9 hPa 0,0 mm 5,1 km/h (1 Bft) NW 323 ° 0 min 0,000 mm 0,9 UV-I 114 W/m² 11,0 °C 16,1 °C 6,4 km/h (2 Bft)
14.09.2017 11:02 16,1 °C 16,1 °C 71 % 1004,8 hPa 0,0 mm 4,5 km/h (1 Bft) W-NW 298 ° 0 min 0,000 mm 1,1 UV-I 120 W/m² 10,8 °C 16,1 °C 6,4 km/h (2 Bft)
14.09.2017 11:03 16,1 °C 16,1 °C 71 % 1004,7 hPa 0,0 mm 1,7 km/h (1 Bft) W-NW 291 ° 0 min 0,000 mm 1,1 UV-I 123 W/m² 10,8 °C 16,1 °C 4,8 km/h (1 Bft)
14.09.2017 11:04 16,1 °C 16,1 °C 73 % 1004,7 hPa 0,0 mm 3,9 km/h (1 Bft) NW 312 ° 0 min 0,000 mm 1,1 UV-I 125 W/m² 11,3 °C 16,1 °C 6,4 km/h (2 Bft)
14.09.2017 11:05 16,1 °C 16,1 °C 71 % 1004,7 hPa 0,0 mm 1,5 km/h (1 Bft) NW 313 ° 0 min 0,000 mm 1,1 UV-I 125 W/m² 10,8 °C 16,1 °C 3,2 km/h (1 Bft)
14.09.2017 11:06 16,1 °C 16,1 °C 72 % 1004,8 hPa 0,0 mm 3,0 km/h (1 Bft) W 261 ° 0 min 0,000 mm 1,1 UV-I 125 W/m² 11,0 °C 16,1 °C 9,7 km/h (2 Bft)
14.09.2017 11:07 16,1 °C 16,1 °C 72 % 1004,9 hPa 0,0 mm 4,4 km/h (1 Bft) W-NW 303 ° 0 min 0,000 mm 1,1 UV-I 132 W/m² 11,0 °C 16,1 °C 9,7 km/h (2 Bft)
14.09.2017 11:08 16,1 °C 16,1 °C 72 % 1005,0 hPa 0,0 mm 2,2 km/h (1 Bft) W 278 ° 0 min 0,000 mm 1,3 UV-I 144 W/m² 11,0 °C 16,1 °C 4,8 km/h (1 Bft)
14.09.2017 11:09 16,1 °C 16,1 °C 73 % 1004,9 hPa 0,0 mm 2,8 km/h (1 Bft) W 278 ° 0 min 0,000 mm 1,5 UV-I 162 W/m² 11,3 °C 16,1 °C 3,2 km/h (1 Bft)
14.09.2017 11:10 16,1 °C 16,1 °C 74 % 1004,6 hPa 0,0 mm 0,4 km/h (0 Bft) W 278 ° 0 min 0,000 mm 1,6 UV-I 181 W/m² 11,5 °C 16,1 °C 3,2 km/h (1 Bft)
14.09.2017 11:11 16,0 °C 16,1 °C 74 % 1004,6 hPa 0,0 mm 0,6 km/h (0 Bft) W 278 ° 0 min 0,000 mm 1,7 UV-I 188 W/m² 11,4 °C 16,0 °C 1,6 km/h (1 Bft)
14.09.2017 11:12 16,1 °C 16,1 °C 77 % 1004,6 hPa 0,0 mm 0,2 km/h (0 Bft) W 278 ° 0 min 0,000 mm 1,5 UV-I 176 W/m² 12,1 °C 16,1 °C 1,6 km/h (1 Bft)
14.09.2017 11:13 16,1 °C 16,1 °C 76 % 1004,7 hPa 0,0 mm 1,4 km/h (1 Bft) W 278 ° 0 min 0,000 mm 1,4 UV-I 142 W/m² 11,9 °C 16,1 °C 1,6 km/h (1 Bft)
14.09.2017 11:14 16,1 °C 16,1 °C 76 % 1004,9 hPa 0,0 mm 3,0 km/h (1 Bft) W 277 ° 0 min 0,000 mm 1,2 UV-I 134 W/m² 11,9 °C 16,1 °C 4,8 km/h (1 Bft)
14.09.2017 11:15 16,1 °C 16,1 °C 75 % 1004,9 hPa 0,0 mm 4,8 km/h (1 Bft) W 263 ° 0 min 0,000 mm 1,1 UV-I 130 W/m² 11,7 °C 16,1 °C 6,4 km/h (2 Bft)
14.09.2017 11:16 16,1 °C 16,1 °C 76 % 1005,0 hPa 0,0 mm 5,2 km/h (1 Bft) W 265 ° 0 min 0,000 mm 1,1 UV-I 125 W/m² 11,9 °C 16,1 °C 6,4 km/h (2 Bft)
14.09.2017 11:17 16,1 °C 16,1 °C 77 % 1005,1 hPa 0,0 mm 1,7 km/h (1 Bft) W 265 ° 0 min 0,000 mm 1,0 UV-I 121 W/m² 12,1 °C 16,1 °C 3,2 km/h (1 Bft)
14.09.2017 11:18 16,1 °C 16,1 °C 76 % 1005,1 hPa 0,0 mm 0,0 km/h (0 Bft) W 265 ° 0 min 0,000 mm 0,9 UV-I 114 W/m² 11,9 °C 16,1 °C 0,0 km/h (0 Bft)
14.09.2017 11:19 16,1 °C 16,1 °C 77 % 1005,1 hPa 0,0 mm 3,5 km/h (1 Bft) W 265 ° 0 min 0,000 mm 0,9 UV-I 107 W/m² 12,1 °C 16,1 °C 4,8 km/h (1 Bft)
14.09.2017 11:20 16,1 °C 16,1 °C 76 % 1005,2 hPa 0,0 mm 3,1 km/h (1 Bft) W 263 ° 0 min 0,000 mm 1,1 UV-I 120 W/m² 11,9 °C 16,1 °C 6,4 km/h (2 Bft)
14.09.2017 11:21 16,0 °C 16,1 °C 77 % 1005,2 hPa 0,0 mm 3,1 km/h (1 Bft) W-SW 257 ° 0 min 0,000 mm 1,2 UV-I 134 W/m² 12,0 °C 16,0 °C 6,4 km/h (2 Bft)
14.09.2017 11:22 16,0 °C 16,0 °C 75 % 1005,1 hPa 0,0 mm 0,4 km/h (0 Bft) W-SW 257 ° 0 min 0,000 mm 1,2 UV-I 141 W/m² 11,6 °C 16,0 °C 1,6 km/h (1 Bft)
14.09.2017 11:23 15,9 °C 16,0 °C 75 % 1005,0 hPa 0,0 mm 0,0 km/h (0 Bft) W-SW 257 ° 0 min 0,000 mm 1,2 UV-I 141 W/m² 11,5 °C 15,9 °C 0,0 km/h (0 Bft)
14.09.2017 11:24 15,9 °C 15,9 °C 78 % 1004,9 hPa 0,0 mm 0,0 km/h (0 Bft) W-SW 257 ° 0 min 0,000 mm 1,1 UV-I 107 W/m² 12,1 °C 15,9 °C 0,0 km/h (0 Bft)
14.09.2017 11:25 15,8 °C 15,9 °C 79 % 1005,0 hPa 0,0 mm 2,7 km/h (1 Bft) W 259 ° 0 min 0,000 mm 0,9 UV-I 98 W/m² 12,2 °C 15,8 °C 6,4 km/h (2 Bft)
14.09.2017 11:26 15,8 °C 15,8 °C 78 % 1005,1 hPa 0,0 mm 3,5 km/h (1 Bft) W 259 ° 0 min 0,000 mm 1,0 UV-I 107 W/m² 12,0 °C 15,8 °C 4,8 km/h (1 Bft)
14.09.2017 11:27 15,8 °C 15,8 °C 77 % 1005,1 hPa 0,0 mm 2,1 km/h (1 Bft) S-SW 198 ° 0 min 0,000 mm 1,2 UV-I 130 W/m² 11,8 °C 15,8 °C 6,4 km/h (2 Bft)
14.09.2017 11:28 15,9 °C 15,9 °C 74 % 1005,0 hPa 0,0 mm 0,8 km/h (0 Bft) S-SW 198 ° 0 min 0,000 mm 1,5 UV-I 165 W/m² 11,3 °C 15,9 °C 3,2 km/h (1 Bft)
14.09.2017 11:29 16,0 °C 16,0 °C 74 % 1005,0 hPa 0,0 mm 0,1 km/h (0 Bft) S-SW 198 ° 0 min 0,000 mm 1,9 UV-I 204 W/m² 11,4 °C 16,0 °C 1,6 km/h (1 Bft)
14.09.2017 11:30 16,0 °C 16,1 °C 76 % 1004,8 hPa 0,0 mm 0,2 km/h (0 Bft) S-SW 199 ° 0 min 0,000 mm 2,2 UV-I 225 W/m² 11,8 °C 16,0 °C 1,6 km/h (1 Bft)
14.09.2017 11:31 16,1 °C 16,1 °C 75 % 1004,8 hPa 0,0 mm 2,9 km/h (1 Bft) W 276 ° 0 min 0,000 mm 2,0 UV-I 206 W/m² 11,7 °C 16,1 °C 6,4 km/h (2 Bft)
14.09.2017 11:32 16,2 °C 16,2 °C 77 % 1004,9 hPa 0,0 mm 0,2 km/h (0 Bft) SW 235 ° 0 min 0,000 mm 1,8 UV-I 181 W/m² 12,2 °C 16,2 °C 1,6 km/h (1 Bft)
14.09.2017 11:33 16,3 °C 16,3 °C 76 % 1004,9 hPa 0,0 mm 1,3 km/h (1 Bft) W 276 ° 0 min 0,000 mm 1,5 UV-I 167 W/m² 12,1 °C 16,3 °C 3,2 km/h (1 Bft)
14.09.2017 11:34 16,3 °C 16,3 °C 73 % 1005,0 hPa 0,0 mm 5,4 km/h (1 Bft) W-NW 293 ° 0 min 0,000 mm 1,4 UV-I 153 W/m² 11,4 °C 16,3 °C 8,0 km/h (2 Bft)
14.09.2017 11:35 16,4 °C 16,4 °C 74 % 1005,0 hPa 0,0 mm 5,2 km/h (1 Bft) W 269 ° 0 min 0,000 mm 1,3 UV-I 139 W/m² 11,8 °C 16,4 °C 8,0 km/h (2 Bft)
14.09.2017 11:36 16,4 °C 16,4 °C 74 % 1005,1 hPa 0,0 mm 9,1 km/h (2 Bft) W 269 ° 0 min 0,000 mm 1,2 UV-I 130 W/m² 11,8 °C 16,4 °C 14,5 km/h (3 Bft)
14.09.2017 11:37 16,4 °C 16,4 °C 74 % 1005,1 hPa 0,0 mm 7,9 km/h (2 Bft) NW 310 ° 0 min 0,000 mm 1,0 UV-I 109 W/m² 11,8 °C 16,4 °C 11,3 km/h (2 Bft)
14.09.2017 11:38 16,4 °C 16,5 °C 75 % 1005,1 hPa 0,0 mm 6,2 km/h (2 Bft) W 261 ° 0 min 0,000 mm 1,0 UV-I 111 W/m² 12,0 °C 16,4 °C 9,7 km/h (2 Bft)
14.09.2017 11:39 16,4 °C 16,4 °C 76 % 1005,1 hPa 0,0 mm 3,3 km/h (1 Bft) W 265 ° 0 min 0,000 mm 1,2 UV-I 128 W/m² 12,2 °C 16,4 °C 6,4 km/h (2 Bft)
14.09.2017 11:40 16,4 °C 16,4 °C 75 % 1005,0 hPa 0,0 mm 2,2 km/h (1 Bft) W 265 ° 0 min 0,000 mm 1,2 UV-I 144 W/m² 12,0 °C 16,4 °C 3,2 km/h (1 Bft)
14.09.2017 11:41 16,4 °C 16,4 °C 78 % 1005,1 hPa 0,0 mm 2,6 km/h (1 Bft) W 265 ° 0 min 0,000 mm 1,2 UV-I 148 W/m² 12,6 °C 16,4 °C 4,8 km/h (1 Bft)
14.09.2017 11:42 16,4 °C 16,4 °C 77 % 1005,2 hPa 0,0 mm 3,0 km/h (1 Bft) W 264 ° 0 min 0,000 mm 1,2 UV-I 111 W/m² 12,4 °C 16,4 °C 4,8 km/h (1 Bft)
14.09.2017 11:43 16,4 °C 16,4 °C 75 % 1005,3 hPa 0,0 mm 1,3 km/h (1 Bft) W 266 ° 0 min 0,000 mm 1,1 UV-I 128 W/m² 12,0 °C 16,4 °C 4,8 km/h (1 Bft)
14.09.2017 11:44 16,4 °C 16,4 °C 76 % 1005,2 hPa 0,0 mm 3,6 km/h (1 Bft) SW 223 ° 0 min 0,000 mm 1,0 UV-I 113 W/m² 12,2 °C 16,4 °C 6,4 km/h (2 Bft)
14.09.2017 11:45 16,4 °C 16,4 °C 75 % 1005,1 hPa 0,0 mm 4,2 km/h (1 Bft) SW 232 ° 0 min 0,000 mm 1,0 UV-I 111 W/m² 12,0 °C 16,4 °C 6,4 km/h (2 Bft)
14.09.2017 11:46 16,4 °C 16,4 °C 75 % 1005,3 hPa 0,0 mm 8,1 km/h (2 Bft) W-SW 237 ° 0 min 0,000 mm 1,0 UV-I 111 W/m² 12,0 °C 16,4 °C 12,9 km/h (3 Bft)
14.09.2017 11:47 16,4 °C 16,4 °C 74 % 1005,3 hPa 0,0 mm 4,5 km/h (1 Bft) W 269 ° 0 min 0,000 mm 1,1 UV-I 116 W/m² 11,8 °C 16,4 °C 9,7 km/h (2 Bft)
14.09.2017 11:48 16,4 °C 16,4 °C 76 % 1005,5 hPa 0,0 mm 5,6 km/h (1 Bft) W 281 ° 0 min 0,000 mm 1,0 UV-I 100 W/m² 12,2 °C 16,4 °C 9,7 km/h (2 Bft)
14.09.2017 11:49 16,3 °C 16,4 °C 76 % 1005,4 hPa 0,0 mm 2,4 km/h (1 Bft) W 280 ° 0 min 0,000 mm 0,9 UV-I 97 W/m² 12,1 °C 16,3 °C 3,2 km/h (1 Bft)
14.09.2017 11:50 16,3 °C 16,3 °C 77 % 1005,4 hPa 0,0 mm 7,8 km/h (2 Bft) W-NW 289 ° 0 min 0,000 mm 0,9 UV-I 155 W/m² 12,3 °C 16,3 °C 12,9 km/h (3 Bft)
14.09.2017 11:51 16,3 °C 16,3 °C 76 % 1005,5 hPa 0,0 mm 9,2 km/h (2 Bft) NW 304 ° 0 min 0,000 mm 0,7 UV-I 79 W/m² 12,1 °C 16,3 °C 14,5 km/h (3 Bft)
14.09.2017 11:52 16,2 °C 16,3 °C 76 % 1005,7 hPa 0,0 mm 12,6 km/h (3 Bft) NW 321 ° 0 min 0,000 mm 0,5 UV-I 56 W/m² 12,0 °C 16,2 °C 17,7 km/h (3 Bft)
14.09.2017 11:53 16,2 °C 16,2 °C 77 % 1006,0 hPa 0,0 mm 16,3 km/h (3 Bft) NW 311 ° 0 min 0,000 mm 0,0 UV-I 47 W/m² 12,2 °C 16,2 °C 22,5 km/h (4 Bft)
14.09.2017 11:54 15,9 °C 16,2 °C 78 % 1006,1 hPa 0,0 mm 13,9 km/h (3 Bft) NW 313 ° 0 min 0,000 mm 0,0 UV-I 46 W/m² 12,1 °C 15,9 °C 19,3 km/h (3 Bft)
14.09.2017 11:55 15,7 °C 15,9 °C 79 % 1006,1 hPa 0,0 mm 15,1 km/h (3 Bft) W 280 ° 0 min 0,000 mm 0,0 UV-I 47 W/m² 12,1 °C 15,7 °C 20,9 km/h (4 Bft)
14.09.2017 11:56 15,3 °C 15,7 °C 80 % 1006,2 hPa 0,0 mm 13,3 km/h (3 Bft) NW 326 ° 0 min 0,000 mm 0,0 UV-I 47 W/m² 11,9 °C 15,3 °C 20,9 km/h (4 Bft)
14.09.2017 11:57 15,0 °C 15,3 °C 82 % 1006,2 hPa 0,0 mm 15,0 km/h (3 Bft) W-NW 296 ° 0 min 0,000 mm 0,0 UV-I 46 W/m² 12,0 °C 15,0 °C 22,5 km/h (4 Bft)
14.09.2017 11:58 14,7 °C 15,0 °C 83 % 1006,3 hPa 0,0 mm 15,7 km/h (3 Bft) W-NW 290 ° 0 min 0,000 mm 0,0 UV-I 35 W/m² 11,8 °C 14,7 °C 27,4 km/h (4 Bft)
14.09.2017 11:59 14,4 °C 14,7 °C 83 % 1006,5 hPa 0,0 mm 20,0 km/h (4 Bft) N-NO 27 ° 0 min 0,000 mm 0,0 UV-I 32 W/m² 11,5 °C 14,4 °C 32,2 km/h (5 Bft)
14.09.2017 12:00 14,1 °C 14,4 °C 83 % 1006,4 hPa 0,0 mm 13,8 km/h (3 Bft) N-NO 17 ° 0 min 0,000 mm 0,0 UV-I 46 W/m² 11,3 °C 14,1 °C 20,9 km/h (4 Bft)
14.09.2017 12:01 13,7 °C 14,1 °C 83 % 1006,5 hPa 0,0 mm 19,8 km/h (3 Bft) N-NO 24 ° 0 min 0,076 mm 0,0 UV-I 51 W/m² 10,9 °C 13,7 °C 32,2 km/h (5 Bft)
14.09.2017 12:02 13,2 °C 13,7 °C 83 % 1006,5 hPa 0,0 mm 13,6 km/h (3 Bft) N 351 ° 0 min 0,000 mm 0,0 UV-I 53 W/m² 10,4 °C 13,2 °C 22,5 km/h (4 Bft)
14.09.2017 12:03 12,8 °C 13,2 °C 85 % 1006,6 hPa 0,0 mm 15,3 km/h (3 Bft) N 350 ° 0 min 0,000 mm 0,0 UV-I 46 W/m² 10,3 °C 12,8 °C 27,4 km/h (4 Bft)
14.09.2017 12:04 12,4 °C 12,8 °C 85 % 1006,8 hPa 0,0 mm 16,8 km/h (3 Bft) NW 309 ° 0 min 0,000 mm 0,0 UV-I 40 W/m² 9,9 °C 12,4 °C 24,1 km/h (4 Bft)
14.09.2017 12:05 12,2 °C 12,4 °C 85 % 1006,9 hPa 0,0 mm 17,6 km/h (3 Bft) W-NW 293 ° 0 min 0,000 mm 0,0 UV-I 39 W/m² 9,8 °C 12,2 °C 32,2 km/h (5 Bft)
14.09.2017 12:06 11,9 °C 12,2 °C 85 % 1006,9 hPa 0,0 mm 16,4 km/h (3 Bft) N-NO 14 ° 0 min 0,000 mm 0,0 UV-I 40 W/m² 9,5 °C 11,9 °C 25,7 km/h (4 Bft)
14.09.2017 12:07 11,6 °C 11,9 °C 86 % 1006,9 hPa 0,0 mm 12,3 km/h (3 Bft) NW 324 ° 0 min 0,000 mm 0,0 UV-I 35 W/m² 9,3 °C 11,6 °C 20,9 km/h (4 Bft)
14.09.2017 12:08 11,4 °C 11,6 °C 86 % 1007,0 hPa 0,0 mm 14,4 km/h (3 Bft) NW 308 ° 0 min 0,000 mm 0,0 UV-I 32 W/m² 9,1 °C 11,4 °C 20,9 km/h (4 Bft)
14.09.2017 12:09 11,2 °C 11,4 °C 87 % 1007,1 hPa 0,0 mm 8,9 km/h (2 Bft) W 265 ° 0 min 0,000 mm 0,0 UV-I 25 W/m² 9,1 °C 11,2 °C 16,1 km/h (3 Bft)
14.09.2017 12:10 11,1 °C 11,2 °C 88 % 1007,2 hPa 0,0 mm 12,1 km/h (2 Bft) N-NW 348 ° 0 min 0,000 mm 0,0 UV-I 19 W/m² 9,2 °C 11,1 °C 25,7 km/h (4 Bft)
14.09.2017 12:11 10,9 °C 11,1 °C 88 % 1007,4 hPa 0,0 mm 13,2 km/h (3 Bft) N-NW 336 ° 0 min 0,000 mm 0,0 UV-I 16 W/m² 9,0 °C 10,9 °C 22,5 km/h (4 Bft)
14.09.2017 12:12 10,8 °C 10,9 °C 88 % 1007,5 hPa 0,0 mm 10,4 km/h (2 Bft) N-NW 340 ° 0 min 0,000 mm 0,0 UV-I 16 W/m² 8,9 °C 10,8 °C 19,3 km/h (3 Bft)
14.09.2017 12:13 10,7 °C 10,8 °C 89 % 1007,6 hPa 0,0 mm 19,0 km/h (3 Bft) N 351 ° 0 min 0,000 mm 0,0 UV-I 18 W/m² 9,0 °C 10,7 °C 25,7 km/h (4 Bft)
14.09.2017 12:14 10,6 °C 10,7 °C 89 % 1007,5 hPa 0,0 mm 12,5 km/h (3 Bft) NW 311 ° 0 min 0,000 mm 0,0 UV-I 21 W/m² 8,9 °C 10,6 °C 16,1 km/h (3 Bft)
14.09.2017 12:15 10,6 °C 10,6 °C 89 % 1007,4 hPa 0,0 mm 8,0 km/h (2 Bft) N-NW 345 ° 0 min 0,000 mm 0,0 UV-I 23 W/m² 8,9 °C 10,6 °C 12,9 km/h (3 Bft)
14.09.2017 12:16 10,4 °C 10,6 °C 90 % 1007,5 hPa 0,0 mm 12,3 km/h (3 Bft) N-NW 331 ° 0 min 0,000 mm 0,0 UV-I 23 W/m² 8,8 °C 10,4 °C 20,9 km/h (4 Bft)
14.09.2017 12:17 10,4 °C 10,4 °C 90 % 1007,4 hPa 0,0 mm 14,5 km/h (3 Bft) NW 320 ° 0 min 0,000 mm 0,0 UV-I 26 W/m² 8,8 °C 10,4 °C 20,9 km/h (4 Bft)
14.09.2017 12:18 10,3 °C 10,4 °C 90 % 1007,5 hPa 0,2 mm 9,9 km/h (2 Bft) N-NO 15 ° 0 min 0,000 mm 0,0 UV-I 25 W/m² 8,7 °C 10,3 °C 14,5 km/h (3 Bft)
14.09.2017 12:19 10,3 °C 10,3 °C 90 % 1007,5 hPa 0,0 mm 4,4 km/h (1 Bft) W-NW 300 ° 0 min 0,000 mm 0,0 UV-I 21 W/m² 8,7 °C 10,3 °C 8,0 km/h (2 Bft)
14.09.2017 12:20 10,2 °C 10,3 °C 90 % 1007,6 hPa 0,0 mm 7,9 km/h (2 Bft) NO 44 ° 0 min 0,000 mm 0,0 UV-I 25 W/m² 8,6 °C 10,2 °C 16,1 km/h (3 Bft)
14.09.2017 12:21 10,2 °C 10,2 °C 90 % 1007,6 hPa 0,0 mm 1,3 km/h (1 Bft) NO 34 ° 0 min 0,000 mm 0,0 UV-I 28 W/m² 8,6 °C 10,2 °C 3,2 km/h (1 Bft)
14.09.2017 12:22 10,1 °C 10,2 °C 90 % 1007,7 hPa 0,0 mm 5,1 km/h (1 Bft) N 9 ° 0 min 0,000 mm 0,0 UV-I 28 W/m² 8,5 °C 10,1 °C 16,1 km/h (3 Bft)
14.09.2017 12:23 10,1 °C 10,1 °C 91 % 1007,7 hPa 0,2 mm 8,0 km/h (2 Bft) N-NW 329 ° 0 min 0,000 mm 0,0 UV-I 18 W/m² 8,7 °C 10,1 °C 14,5 km/h (3 Bft)
14.09.2017 12:24 10,1 °C 10,1 °C 91 % 1007,8 hPa 0,0 mm 7,7 km/h (2 Bft) NW 319 ° 0 min 0,000 mm 0,0 UV-I 16 W/m² 8,7 °C 10,1 °C 14,5 km/h (3 Bft)
14.09.2017 12:25 10,1 °C 10,1 °C 91 % 1007,9 hPa 0,0 mm 7,0 km/h (2 Bft) N 5 ° 0 min 0,000 mm 0,0 UV-I 16 W/m² 8,7 °C 10,1 °C 12,9 km/h (3 Bft)
14.09.2017 12:26 10,0 °C 10,1 °C 91 % 1008,1 hPa 0,0 mm 9,1 km/h (2 Bft) NW 317 ° 0 min 0,000 mm 0,0 UV-I 12 W/m² 8,6 °C 8,8 °C 14,5 km/h (3 Bft)
14.09.2017 12:27 10,0 °C 10,0 °C 91 % 1008,1 hPa 0,0 mm 5,3 km/h (1 Bft) W-SW 243 ° 0 min 0,000 mm 0,0 UV-I 12 W/m² 8,6 °C 9,7 °C 9,7 km/h (2 Bft)
14.09.2017 12:28 10,0 °C 10,0 °C 91 % 1008,3 hPa 0,0 mm 7,0 km/h (2 Bft) W-SW 257 ° 0 min 0,000 mm 0,0 UV-I 12 W/m² 8,6 °C 9,2 °C 11,3 km/h (2 Bft)
14.09.2017 12:29 9,9 °C 10,0 °C 91 % 1008,4 hPa 0,2 mm 9,9 km/h (2 Bft) W-SW 257 ° 0 min 0,000 mm 0,0 UV-I 11 W/m² 8,5 °C 8,5 °C 16,1 km/h (3 Bft)
14.09.2017 12:30 9,9 °C 9,9 °C 91 % 1008,6 hPa 0,0 mm 9,5 km/h (2 Bft) W 274 ° 0 min 0,000 mm 0,0 UV-I 11 W/m² 8,5 °C 8,6 °C 12,9 km/h (3 Bft)
14.09.2017 12:31 9,8 °C 9,9 °C 91 % 1008,7 hPa 0,0 mm 9,8 km/h (2 Bft) W-NW 300 ° 0 min 0,000 mm 0,0 UV-I 14 W/m² 8,4 °C 8,4 °C 17,7 km/h (3 Bft)
14.09.2017 12:32 9,8 °C 9,8 °C 91 % 1008,8 hPa 0,2 mm 12,4 km/h (3 Bft) W 265 ° 0 min 0,000 mm 0,0 UV-I 14 W/m² 8,4 °C 8,0 °C 20,9 km/h (4 Bft)
14.09.2017 12:33 9,8 °C 9,8 °C 91 % 1008,9 hPa 0,0 mm 4,7 km/h (1 Bft) W 267 ° 0 min 0,000 mm 0,0 UV-I 14 W/m² 8,4 °C 9,6 °C 11,3 km/h (2 Bft)
14.09.2017 12:34 9,7 °C 9,8 °C 91 % 1008,9 hPa 0,2 mm 7,4 km/h (2 Bft) W 277 ° 0 min 0,000 mm 0,0 UV-I 16 W/m² 8,3 °C 8,8 °C 12,9 km/h (3 Bft)
14.09.2017 12:35 9,7 °C 9,7 °C 91 % 1008,9 hPa 0,0 mm 7,5 km/h (2 Bft) W-NW 292 ° 0 min 0,000 mm 0,0 UV-I 16 W/m² 8,3 °C 8,8 °C 12,9 km/h (3 Bft)
14.09.2017 12:36 9,7 °C 9,7 °C 91 % 1009,0 hPa 0,2 mm 5,6 km/h (1 Bft) W 277 ° 0 min 0,000 mm 0,0 UV-I 16 W/m² 8,3 °C 9,2 °C 12,9 km/h (3 Bft)
14.09.2017 12:37 9,6 °C 9,7 °C 91 % 1009,0 hPa 0,0 mm 12,8 km/h (3 Bft) NW 309 ° 0 min 0,000 mm 0,0 UV-I 14 W/m² 8,2 °C 7,7 °C 17,7 km/h (3 Bft)
14.09.2017 12:38 9,6 °C 9,6 °C 91 % 1009,2 hPa 0,0 mm 11,9 km/h (2 Bft) W 271 ° 0 min 0,000 mm 0,0 UV-I 14 W/m² 8,2 °C 7,8 °C 19,3 km/h (3 Bft)
14.09.2017 12:39 9,6 °C 9,6 °C 91 % 1009,3 hPa 0,0 mm 10,7 km/h (2 Bft) W 260 ° 0 min 0,000 mm 0,0 UV-I 16 W/m² 8,2 °C 8,0 °C 17,7 km/h (3 Bft)
14.09.2017 12:40 9,5 °C 9,6 °C 91 % 1009,3 hPa 0,2 mm 7,2 km/h (2 Bft) W-NW 287 ° 0 min 0,000 mm 0,0 UV-I 25 W/m² 8,1 °C 8,6 °C 11,3 km/h (2 Bft)
14.09.2017 12:41 9,5 °C 9,5 °C 91 % 1009,3 hPa 0,0 mm 8,1 km/h (2 Bft) W-NW 298 ° 0 min 0,000 mm 0,0 UV-I 32 W/m² 8,1 °C 8,4 °C 12,9 km/h (3 Bft)
14.09.2017 12:42 9,4 °C 9,5 °C 91 % 1009,3 hPa 0,2 mm 6,9 km/h (2 Bft) W 260 ° 0 min 0,000 mm 0,0 UV-I 35 W/m² 8,0 °C 8,6 °C 9,7 km/h (2 Bft)
14.09.2017 12:43 9,4 °C 9,5 °C 91 % 1009,3 hPa 0,2 mm 6,6 km/h (2 Bft) W 265 ° 0 min 0,000 mm 0,0 UV-I 28 W/m² 8,0 °C 8,6 °C 9,7 km/h (2 Bft)
14.09.2017 12:44 9,4 °C 9,4 °C 91 % 1009,5 hPa 0,2 mm 7,4 km/h (2 Bft) W-NW 290 ° 0 min 0,000 mm 0,0 UV-I 23 W/m² 8,0 °C 8,4 °C 16,1 km/h (3 Bft)
14.09.2017 12:45 9,4 °C 9,4 °C 91 % 1009,5 hPa 0,2 mm 7,4 km/h (2 Bft) NW 324 ° 0 min 0,000 mm 0,0 UV-I 23 W/m² 8,0 °C 8,4 °C 9,7 km/h (2 Bft)
14.09.2017 12:46 9,4 °C 9,4 °C 91 % 1009,6 hPa 0,2 mm 7,2 km/h (2 Bft) NW 313 ° 0 min 0,000 mm 0,0 UV-I 21 W/m² 8,0 °C 8,5 °C 12,9 km/h (3 Bft)
14.09.2017 12:47 9,3 °C 9,4 °C 91 % 1009,5 hPa 0,0 mm 5,3 km/h (1 Bft) W-NW 294 ° 0 min 0,000 mm 0,0 UV-I 23 W/m² 7,9 °C 8,9 °C 8,0 km/h (2 Bft)
14.09.2017 12:48 9,3 °C 9,4 °C 91 % 1009,6 hPa 0,2 mm 3,8 km/h (1 Bft) W-NW 294 ° 0 min 0,000 mm 0,0 UV-I 23 W/m² 7,9 °C 9,3 °C 4,8 km/h (1 Bft)
14.09.2017 12:49 9,3 °C 9,3 °C 91 % 1009,7 hPa 0,0 mm 2,9 km/h (1 Bft) W-NW 294 ° 0 min 0,000 mm 0,0 UV-I 26 W/m² 7,9 °C 9,3 °C 4,8 km/h (1 Bft)
14.09.2017 12:50 9,3 °C 9,3 °C 92 % 1009,6 hPa 0,0 mm 2,4 km/h (1 Bft) W 270 ° 0 min 0,000 mm 0,0 UV-I 33 W/m² 8,1 °C 9,3 °C 6,4 km/h (2 Bft)
14.09.2017 12:51 9,3 °C 9,3 °C 92 % 1009,6 hPa 0,0 mm 7,2 km/h (2 Bft) NW 325 ° 0 min 0,000 mm 0,0 UV-I 46 W/m² 8,1 °C 8,4 °C 11,3 km/h (2 Bft)
14.09.2017 12:52 9,3 °C 9,3 °C 92 % 1009,5 hPa 0,2 mm 4,4 km/h (1 Bft) W-NW 303 ° 0 min 0,000 mm 0,0 UV-I 54 W/m² 8,1 °C 9,3 °C 8,0 km/h (2 Bft)
14.09.2017 12:53 9,3 °C 9,3 °C 92 % 1009,5 hPa 0,0 mm 6,2 km/h (2 Bft) W 276 ° 0 min 0,000 mm 0,0 UV-I 53 W/m² 8,1 °C 8,6 °C 11,3 km/h (2 Bft)
14.09.2017 12:54 9,3 °C 9,3 °C 92 % 1009,5 hPa 0,0 mm 9,2 km/h (2 Bft) W-NW 289 ° 0 min 0,000 mm 0,0 UV-I 54 W/m² 8,1 °C 7,9 °C 11,3 km/h (2 Bft)
14.09.2017 12:55 9,3 °C 9,3 °C 92 % 1009,5 hPa 0,0 mm 8,3 km/h (2 Bft) W-NW 288 ° 0 min 0,000 mm 0,6 UV-I 58 W/m² 8,1 °C 8,1 °C 16,1 km/h (3 Bft)
14.09.2017 12:56 9,3 °C 9,3 °C 92 % 1009,6 hPa 0,0 mm 10,8 km/h (2 Bft) W-NW 303 ° 0 min 0,000 mm 0,6 UV-I 62 W/m² 8,1 °C 7,7 °C 14,5 km/h (3 Bft)
14.09.2017 12:57 9,3 °C 9,3 °C 92 % 1009,7 hPa 0,2 mm 5,2 km/h (1 Bft) W 277 ° 0 min 0,000 mm 0,6 UV-I 58 W/m² 8,1 °C 8,9 °C 9,7 km/h (2 Bft)
14.09.2017 12:58 9,3 °C 9,3 °C 92 % 1009,6 hPa 0,0 mm 3,1 km/h (1 Bft) W-NW 290 ° 0 min 0,000 mm 0,6 UV-I 70 W/m² 8,1 °C 9,3 °C 4,8 km/h (1 Bft)
14.09.2017 12:59 9,3 °C 9,3 °C 92 % 1009,6 hPa 0,0 mm 3,8 km/h (1 Bft) N-NW 327 ° 0 min 0,000 mm 0,7 UV-I 74 W/m² 8,1 °C 9,3 °C 8,0 km/h (2 Bft)
14.09.2017 13:00 9,2 °C 9,3 °C 92 % 1009,5 hPa 0,0 mm 5,4 km/h (1 Bft) W-NW 296 ° 0 min 0,000 mm 0,7 UV-I 67 W/m² 8,0 °C 8,7 °C 9,7 km/h (2 Bft)
14.09.2017 13:01 9,2 °C 9,3 °C 92 % 1009,6 hPa 0,0 mm 3,9 km/h (1 Bft) W-NW 299 ° 0 min 0,026 mm 0,6 UV-I 60 W/m² 8,0 °C 9,2 °C 6,4 km/h (2 Bft)
14.09.2017 13:02 9,2 °C 9,2 °C 92 % 1009,6 hPa 0,2 mm 2,6 km/h (1 Bft) W-NW 299 ° 0 min 0,000 mm 0,6 UV-I 58 W/m² 8,0 °C 9,2 °C 3,2 km/h (1 Bft)
14.09.2017 13:03 9,2 °C 9,2 °C 92 % 1009,6 hPa 0,0 mm 5,0 km/h (1 Bft) W 261 ° 0 min 0,000 mm 0,6 UV-I 60 W/m² 8,0 °C 8,8 °C 14,5 km/h (3 Bft)
14.09.2017 13:04 9,2 °C 9,2 °C 92 % 1009,5 hPa 0,0 mm 7,1 km/h (2 Bft) W-NW 294 ° 0 min 0,000 mm 0,7 UV-I 72 W/m² 8,0 °C 8,3 °C 12,9 km/h (3 Bft)
14.09.2017 13:05 9,2 °C 9,2 °C 92 % 1009,4 hPa 0,0 mm 7,5 km/h (2 Bft) W 265 ° 0 min 0,000 mm 0,7 UV-I 72 W/m² 8,0 °C 8,2 °C 9,7 km/h (2 Bft)
14.09.2017 13:06 9,2 °C 9,2 °C 92 % 1009,4 hPa 0,0 mm 8,1 km/h (2 Bft) W-NW 288 ° 0 min 0,000 mm 0,7 UV-I 72 W/m² 8,0 °C 8,0 °C 14,5 km/h (3 Bft)
14.09.2017 13:07 9,2 °C 9,2 °C 92 % 1009,4 hPa 0,0 mm 6,8 km/h (2 Bft) W-NW 302 ° 0 min 0,000 mm 0,7 UV-I 74 W/m² 8,0 °C 8,3 °C 9,7 km/h (2 Bft)
14.09.2017 13:08 9,2 °C 9,2 °C 92 % 1009,5 hPa 0,0 mm 4,2 km/h (1 Bft) W-NW 293 ° 0 min 0,000 mm 0,5 UV-I 60 W/m² 8,0 °C 9,2 °C 6,4 km/h (2 Bft)
14.09.2017 13:09 9,2 °C 9,2 °C 92 % 1009,7 hPa 0,2 mm 4,1 km/h (1 Bft) W 276 ° 0 min 0,000 mm 0,0 UV-I 40 W/m² 8,0 °C 9,2 °C 6,4 km/h (2 Bft)
14.09.2017 13:10 9,2 °C 9,2 °C 92 % 1009,7 hPa 0,0 mm 5,6 km/h (1 Bft) W 269 ° 0 min 0,000 mm 0,0 UV-I 30 W/m² 8,0 °C 8,7 °C 9,7 km/h (2 Bft)
14.09.2017 13:11 9,2 °C 9,2 °C 92 % 1009,7 hPa 0,0 mm 5,3 km/h (1 Bft) W 263 ° 0 min 0,000 mm 0,0 UV-I 33 W/m² 8,0 °C 8,8 °C 8,0 km/h (2 Bft)
14.09.2017 13:12 9,3 °C 9,3 °C 93 % 1009,7 hPa 0,0 mm 4,8 km/h (1 Bft) W-NW 292 ° 0 min 0,000 mm 0,0 UV-I 33 W/m² 8,2 °C 9,0 °C 6,4 km/h (2 Bft)
14.09.2017 13:13 9,2 °C 9,3 °C 93 % 1009,7 hPa 0,0 mm 3,5 km/h (1 Bft) W 274 ° 0 min 0,000 mm 0,0 UV-I 37 W/m² 8,1 °C 9,2 °C 4,8 km/h (1 Bft)
14.09.2017 13:14 9,3 °C 9,3 °C 93 % 1009,6 hPa 0,0 mm 5,0 km/h (1 Bft) NW 309 ° 0 min 0,000 mm 0,0 UV-I 39 W/m² 8,2 °C 9,0 °C 9,7 km/h (2 Bft)
14.09.2017 13:15 9,3 °C 9,3 °C 93 % 1009,5 hPa 0,0 mm 5,0 km/h (1 Bft) NW 312 ° 0 min 0,000 mm 0,0 UV-I 40 W/m² 8,2 °C 9,0 °C 8,0 km/h (2 Bft)
14.09.2017 13:16 9,3 °C 9,3 °C 93 % 1009,5 hPa 0,0 mm 4,8 km/h (1 Bft) W 260 ° 0 min 0,000 mm 0,0 UV-I 37 W/m² 8,2 °C 9,0 °C 9,7 km/h (2 Bft)
14.09.2017 13:17 9,3 °C 9,3 °C 93 % 1009,7 hPa 0,2 mm 7,1 km/h (2 Bft) NW 313 ° 0 min 0,000 mm 0,0 UV-I 30 W/m² 8,2 °C 8,4 °C 11,3 km/h (2 Bft)
14.09.2017 13:18 9,2 °C 9,3 °C 93 % 1009,8 hPa 0,0 mm 9,3 km/h (2 Bft) W 277 ° 0 min 0,000 mm 0,0 UV-I 33 W/m² 8,1 °C 7,8 °C 14,5 km/h (3 Bft)
14.09.2017 13:19 9,2 °C 9,3 °C 93 % 1009,8 hPa 0,0 mm 8,3 km/h (2 Bft) W-NW 292 ° 0 min 0,000 mm 0,0 UV-I 28 W/m² 8,1 °C 8,0 °C 12,9 km/h (3 Bft)
14.09.2017 13:20 9,2 °C 9,2 °C 93 % 1009,9 hPa 0,0 mm 5,5 km/h (1 Bft) NW 310 ° 0 min 0,000 mm 0,0 UV-I 26 W/m² 8,1 °C 8,7 °C 11,3 km/h (2 Bft)
14.09.2017 13:21 9,2 °C 9,2 °C 93 % 1010,0 hPa 0,0 mm 4,3 km/h (1 Bft) W 276 ° 0 min 0,000 mm 0,0 UV-I 30 W/m² 8,1 °C 9,2 °C 8,0 km/h (2 Bft)
14.09.2017 13:22 9,2 °C 9,2 °C 93 % 1010,1 hPa 0,0 mm 5,4 km/h (1 Bft) W-NW 294 ° 0 min 0,000 mm 0,0 UV-I 23 W/m² 8,1 °C 8,7 °C 9,7 km/h (2 Bft)
14.09.2017 13:23 9,2 °C 9,2 °C 93 % 1010,1 hPa 0,0 mm 6,3 km/h (2 Bft) W 276 ° 0 min 0,000 mm 0,0 UV-I 25 W/m² 8,1 °C 8,5 °C 11,3 km/h (2 Bft)
14.09.2017 13:24 9,2 °C 9,2 °C 93 % 1010,2 hPa 0,0 mm 6,3 km/h (2 Bft) W 281 ° 0 min 0,000 mm 0,0 UV-I 25 W/m² 8,1 °C 8,5 °C 11,3 km/h (2 Bft)
14.09.2017 13:25 9,2 °C 9,2 °C 93 % 1010,1 hPa 0,2 mm 7,0 km/h (2 Bft) NW 319 ° 0 min 0,000 mm 0,0 UV-I 33 W/m² 8,1 °C 8,3 °C 12,9 km/h (3 Bft)
14.09.2017 13:26 9,2 °C 9,2 °C 93 % 1010,2 hPa 0,0 mm 3,2 km/h (1 Bft) W 277 ° 0 min 0,000 mm 0,0 UV-I 37 W/m² 8,1 °C 9,2 °C 9,7 km/h (2 Bft)
14.09.2017 13:27 9,2 °C 9,2 °C 93 % 1010,1 hPa 0,0 mm 9,7 km/h (2 Bft) W-NW 290 ° 0 min 0,000 mm 0,0 UV-I 39 W/m² 8,1 °C 7,7 °C 17,7 km/h (3 Bft)
14.09.2017 13:28 9,2 °C 9,2 °C 93 % 1010,0 hPa 0,0 mm 8,3 km/h (2 Bft) W-NW 299 ° 0 min 0,000 mm 0,0 UV-I 51 W/m² 8,1 °C 8,0 °C 11,3 km/h (2 Bft)
14.09.2017 13:29 9,2 °C 9,2 °C 93 % 1010,0 hPa 0,0 mm 7,3 km/h (2 Bft) W 280 ° 0 min 0,000 mm 0,0 UV-I 46 W/m² 8,1 °C 8,2 °C 12,9 km/h (3 Bft)
14.09.2017 13:30 9,2 °C 9,2 °C 93 % 1010,1 hPa 0,2 mm 8,7 km/h (2 Bft) W-NW 302 ° 0 min 0,000 mm 0,0 UV-I 47 W/m² 8,1 °C 7,9 °C 12,9 km/h (3 Bft)
14.09.2017 13:31 9,2 °C 9,2 °C 93 % 1010,1 hPa 0,0 mm 5,0 km/h (1 Bft) W-SW 247 ° 0 min 0,000 mm 0,6 UV-I 62 W/m² 8,1 °C 8,8 °C 12,9 km/h (3 Bft)
14.09.2017 13:32 9,2 °C 9,2 °C 93 % 1010,1 hPa 0,0 mm 9,7 km/h (2 Bft) W 268 ° 0 min 0,000 mm 0,6 UV-I 63 W/m² 8,1 °C 7,7 °C 12,9 km/h (3 Bft)
14.09.2017 13:33 9,2 °C 9,2 °C 93 % 1010,1 hPa 0,0 mm 10,9 km/h (2 Bft) W-NW 292 ° 0 min 0,000 mm 0,6 UV-I 84 W/m² 8,1 °C 7,5 °C 14,5 km/h (3 Bft)
14.09.2017 13:34 9,2 °C 9,2 °C 92 % 1010,1 hPa 0,0 mm 6,8 km/h (2 Bft) W-NW 294 ° 0 min 0,000 mm 0,8 UV-I 104 W/m² 8,0 °C 8,3 °C 11,3 km/h (2 Bft)
14.09.2017 13:35 9,2 °C 9,2 °C 93 % 1010,0 hPa 0,0 mm 6,1 km/h (2 Bft) W-NW 292 ° 0 min 0,000 mm 1,0 UV-I 111 W/m² 8,1 °C 8,5 °C 9,7 km/h (2 Bft)
14.09.2017 13:36 9,2 °C 9,2 °C 93 % 1010,0 hPa 0,0 mm 5,2 km/h (1 Bft) W-NW 294 ° 0 min 0,000 mm 1,0 UV-I 107 W/m² 8,1 °C 8,8 °C 9,7 km/h (2 Bft)
14.09.2017 13:37 9,2 °C 9,2 °C 93 % 1010,0 hPa 0,2 mm 3,1 km/h (1 Bft) W 279 ° 0 min 0,000 mm 1,0 UV-I 91 W/m² 8,1 °C 9,2 °C 4,8 km/h (1 Bft)
14.09.2017 13:38 9,3 °C 9,3 °C 93 % 1010,0 hPa 0,0 mm 6,8 km/h (2 Bft) W-NW 284 ° 0 min 0,000 mm 0,9 UV-I 97 W/m² 8,2 °C 8,5 °C 19,3 km/h (3 Bft)
14.09.2017 13:39 9,3 °C 9,3 °C 93 % 1010,1 hPa 0,0 mm 12,5 km/h (3 Bft) W-NW 282 ° 0 min 0,000 mm 0,7 UV-I 76 W/m² 8,2 °C 7,4 °C 17,7 km/h (3 Bft)
14.09.2017 13:40 9,2 °C 9,3 °C 92 % 1010,1 hPa 0,0 mm 11,1 km/h (2 Bft) W-NW 289 ° 0 min 0,000 mm 0,8 UV-I 84 W/m² 8,0 °C 7,5 °C 12,9 km/h (3 Bft)
14.09.2017 13:41 9,2 °C 9,2 °C 92 % 1010,1 hPa 0,0 mm 8,4 km/h (2 Bft) S 171 ° 0 min 0,000 mm 1,0 UV-I 104 W/m² 8,0 °C 8,0 °C 14,5 km/h (3 Bft)
14.09.2017 13:42 9,2 °C 9,2 °C 92 % 1010,1 hPa 0,0 mm 5,6 km/h (1 Bft) NW 315 ° 0 min 0,000 mm 0,8 UV-I 104 W/m² 8,0 °C 8,7 °C 11,3 km/h (2 Bft)
14.09.2017 13:43 9,2 °C 9,2 °C 92 % 1010,2 hPa 0,0 mm 8,3 km/h (2 Bft) W 271 ° 0 min 0,000 mm 0,9 UV-I 86 W/m² 8,0 °C 8,0 °C 12,9 km/h (3 Bft)
14.09.2017 13:44 9,2 °C 9,2 °C 92 % 1010,2 hPa 0,0 mm 12,2 km/h (2 Bft) W 266 ° 0 min 0,000 mm 0,9 UV-I 95 W/m² 8,0 °C 7,3 °C 19,3 km/h (3 Bft)
14.09.2017 13:45 9,2 °C 9,2 °C 92 % 1010,2 hPa 0,2 mm 12,1 km/h (2 Bft) SW 234 ° 0 min 0,000 mm 0,9 UV-I 83 W/m² 8,0 °C 7,3 °C 16,1 km/h (3 Bft)
14.09.2017 13:46 9,2 °C 9,2 °C 92 % 1010,2 hPa 0,0 mm 8,4 km/h (2 Bft) W-NW 286 ° 0 min 0,000 mm 0,9 UV-I 88 W/m² 8,0 °C 8,0 °C 12,9 km/h (3 Bft)
14.09.2017 13:47 9,2 °C 9,2 °C 92 % 1010,3 hPa 0,0 mm 6,1 km/h (2 Bft) SW 235 ° 0 min 0,000 mm 1,0 UV-I 100 W/m² 8,0 °C 8,5 °C 9,7 km/h (2 Bft)
14.09.2017 13:48 9,1 °C 9,2 °C 92 % 1010,1 hPa 0,0 mm 6,6 km/h (2 Bft) NW 324 ° 0 min 0,000 mm 0,9 UV-I 93 W/m² 7,9 °C 8,3 °C 9,7 km/h (2 Bft)
14.09.2017 13:49 9,1 °C 9,1 °C 92 % 1010,2 hPa 0,0 mm 8,1 km/h (2 Bft) W-NW 297 ° 0 min 0,000 mm 1,0 UV-I 107 W/m² 7,9 °C 7,9 °C 16,1 km/h (3 Bft)
14.09.2017 13:50 9,1 °C 9,1 °C 92 % 1010,3 hPa 0,0 mm 9,0 km/h (2 Bft) W 273 ° 0 min 0,000 mm 1,0 UV-I 113 W/m² 7,9 °C 7,7 °C 17,7 km/h (3 Bft)
14.09.2017 13:51 9,1 °C 9,1 °C 92 % 1010,2 hPa 0,0 mm 12,9 km/h (3 Bft) W 259 ° 0 min 0,000 mm 0,7 UV-I 69 W/m² 7,9 °C 7,1 °C 19,3 km/h (3 Bft)
14.09.2017 13:52 9,1 °C 9,1 °C 92 % 1010,3 hPa 0,0 mm 9,1 km/h (2 Bft) W-SW 254 ° 0 min 0,000 mm 0,6 UV-I 69 W/m² 7,9 °C 7,7 °C 16,1 km/h (3 Bft)
14.09.2017 13:53 9,0 °C 9,1 °C 92 % 1010,3 hPa 0,0 mm 12,1 km/h (2 Bft) NW 315 ° 0 min 0,000 mm 0,7 UV-I 70 W/m² 7,8 °C 7,1 °C 17,7 km/h (3 Bft)
14.09.2017 13:54 9,0 °C 9,0 °C 92 % 1010,3 hPa 0,0 mm 7,3 km/h (2 Bft) W-NW 288 ° 0 min 0,000 mm 0,6 UV-I 67 W/m² 7,8 °C 8,0 °C 11,3 km/h (2 Bft)
14.09.2017 13:55 9,0 °C 9,0 °C 92 % 1010,5 hPa 0,0 mm 9,1 km/h (2 Bft) W-NW 288 ° 0 min 0,000 mm 0,6 UV-I 67 W/m² 7,8 °C 7,6 °C 12,9 km/h (3 Bft)
14.09.2017 13:56 9,0 °C 9,0 °C 92 % 1010,4 hPa 0,2 mm 12,8 km/h (3 Bft) W-SW 247 ° 0 min 0,000 mm 0,6 UV-I 67 W/m² 7,8 °C 7,0 °C 17,7 km/h (3 Bft)
14.09.2017 13:57 8,9 °C 9,0 °C 92 % 1010,5 hPa 0,0 mm 22,3 km/h (4 Bft) W-SW 238 ° 0 min 0,000 mm 0,7 UV-I 77 W/m² 7,7 °C 5,8 °C 29,0 km/h (5 Bft)
14.09.2017 13:58 8,9 °C 8,9 °C 92 % 1010,5 hPa 0,0 mm 14,8 km/h (3 Bft) W-SW 250 ° 0 min 0,000 mm 0,8 UV-I 84 W/m² 7,7 °C 6,6 °C 20,9 km/h (4 Bft)
14.09.2017 13:59 8,9 °C 8,9 °C 92 % 1010,6 hPa 0,0 mm 4,8 km/h (1 Bft) W 260 ° 0 min 0,000 mm 0,9 UV-I 86 W/m² 7,7 °C 8,6 °C 9,7 km/h (2 Bft)
14.09.2017 14:00 8,9 °C 8,9 °C 92 % 1010,6 hPa 0,0 mm 11,3 km/h (2 Bft) W-NW 302 ° 0 min 0,025 mm 1,3 UV-I 86 W/m² 7,7 °C 7,1 °C 19,3 km/h (3 Bft)
14.09.2017 14:01 8,9 °C 8,9 °C 92 % 1010,4 hPa 0,0 mm 10,6 km/h (2 Bft) W-SW 252 ° 0 min 0,000 mm 1,0 UV-I 111 W/m² 7,7 °C 7,2 °C 16,1 km/h (3 Bft)
14.09.2017 14:02 8,9 °C 8,9 °C 92 % 1010,5 hPa 0,0 mm 12,3 km/h (3 Bft) NW 319 ° 0 min 0,000 mm 0,9 UV-I 97 W/m² 7,7 °C 6,9 °C 19,3 km/h (3 Bft)
14.09.2017 14:03 8,9 °C 8,9 °C 92 % 1010,7 hPa 0,0 mm 17,5 km/h (3 Bft) W 259 ° 0 min 0,000 mm 1,0 UV-I 123 W/m² 7,7 °C 6,3 °C 24,1 km/h (4 Bft)
14.09.2017 14:04 8,9 °C 8,9 °C 92 % 1010,8 hPa 0,0 mm 16,5 km/h (3 Bft) W-SW 252 ° 0 min 0,000 mm 1,2 UV-I 127 W/m² 7,7 °C 6,4 °C 29,0 km/h (5 Bft)
14.09.2017 14:05 8,9 °C 8,9 °C 92 % 1010,8 hPa 0,0 mm 20,5 km/h (4 Bft) W-SW 257 ° 0 min 0,000 mm 1,2 UV-I 123 W/m² 7,7 °C 5,9 °C 38,6 km/h (5 Bft)
14.09.2017 14:06 8,8 °C 8,9 °C 91 % 1010,9 hPa 0,0 mm 20,0 km/h (4 Bft) NW 308 ° 0 min 0,000 mm 1,1 UV-I 116 W/m² 7,4 °C 5,9 °C 29,0 km/h (5 Bft)
14.09.2017 14:07 8,8 °C 8,8 °C 90 % 1011,0 hPa 0,0 mm 24,1 km/h (4 Bft) W 268 ° 0 min 0,000 mm 1,0 UV-I 105 W/m² 7,3 °C 5,5 °C 45,1 km/h (6 Bft)
14.09.2017 14:08 8,7 °C 8,8 °C 90 % 1011,1 hPa 0,0 mm 26,1 km/h (4 Bft) W-SW 246 ° 0 min 0,000 mm 1,0 UV-I 91 W/m² 7,2 °C 5,2 °C 46,7 km/h (6 Bft)
14.09.2017 14:09 8,6 °C 8,7 °C 89 % 1010,9 hPa 0,0 mm 17,6 km/h (3 Bft) NW 322 ° 0 min 0,000 mm 0,9 UV-I 88 W/m² 6,9 °C 5,9 °C 29,0 km/h (5 Bft)
14.09.2017 14:10 8,4 °C 8,6 °C 89 % 1011,0 hPa 0,0 mm 23,7 km/h (4 Bft) W 271 ° 0 min 0,000 mm 0,8 UV-I 86 W/m² 6,7 °C 5,0 °C 33,8 km/h (5 Bft)
14.09.2017 14:11 8,3 °C 8,4 °C 89 % 1011,1 hPa 0,0 mm 23,0 km/h (4 Bft) W-SW 242 ° 0 min 0,000 mm 0,8 UV-I 86 W/m² 6,6 °C 4,9 °C 35,4 km/h (5 Bft)
14.09.2017 14:12 8,2 °C 8,3 °C 89 % 1011,0 hPa 0,0 mm 15,6 km/h (3 Bft) W 269 ° 0 min 0,000 mm 0,8 UV-I 86 W/m² 6,5 °C 5,6 °C 24,1 km/h (4 Bft)
14.09.2017 14:13 8,1 °C 8,2 °C 89 % 1011,1 hPa 0,0 mm 34,4 km/h (5 Bft) W-SW 258 ° 0 min 0,000 mm 0,8 UV-I 84 W/m² 6,4 °C 3,8 °C 43,5 km/h (6 Bft)
14.09.2017 14:14 7,9 °C 8,1 °C 88 % 1011,0 hPa 0,0 mm 24,8 km/h (4 Bft) W 263 ° 0 min 0,000 mm 0,8 UV-I 90 W/m² 6,0 °C 4,3 °C 48,3 km/h (6 Bft)
14.09.2017 14:15 7,8 °C 7,9 °C 88 % 1011,1 hPa 0,0 mm 30,2 km/h (5 Bft) W-SW 242 ° 0 min 0,000 mm 0,9 UV-I 90 W/m² 5,9 °C 3,7 °C 45,1 km/h (6 Bft)
14.09.2017 14:16 7,7 °C 7,8 °C 88 % 1011,2 hPa 0,0 mm 22,5 km/h (4 Bft) W 273 ° 0 min 0,000 mm 0,8 UV-I 88 W/m² 5,8 °C 4,2 °C 40,2 km/h (6 Bft)
14.09.2017 14:17 7,6 °C 7,7 °C 88 % 1011,2 hPa 0,0 mm 20,6 km/h (4 Bft) W-SW 255 ° 0 min 0,000 mm 0,8 UV-I 84 W/m² 5,7 °C 4,3 °C 37,0 km/h (5 Bft)
14.09.2017 14:18 7,6 °C 7,6 °C 88 % 1011,0 hPa 0,0 mm 16,8 km/h (3 Bft) W-SW 257 ° 0 min 0,000 mm 0,8 UV-I 84 W/m² 5,7 °C 4,7 °C 24,1 km/h (4 Bft)
14.09.2017 14:19 7,4 °C 7,6 °C 89 % 1011,1 hPa 0,0 mm 26,7 km/h (4 Bft) W 269 ° 0 min 0,000 mm 0,9 UV-I 90 W/m² 5,7 °C 3,5 °C 37,0 km/h (5 Bft)
14.09.2017 14:20 7,3 °C 7,4 °C 88 % 1011,1 hPa 0,0 mm 29,6 km/h (5 Bft) SW 232 ° 0 min 0,000 mm 0,9 UV-I 81 W/m² 5,4 °C 3,1 °C 37,0 km/h (5 Bft)
14.09.2017 14:21 7,3 °C 7,3 °C 89 % 1011,2 hPa 0,0 mm 18,4 km/h (3 Bft) W 278 ° 0 min 0,000 mm 0,8 UV-I 69 W/m² 5,6 °C 4,2 °C 30,6 km/h (5 Bft)
14.09.2017 14:22 7,3 °C 7,3 °C 89 % 1011,2 hPa 0,0 mm 18,8 km/h (3 Bft) W-SW 254 ° 0 min 0,000 mm 0,6 UV-I 58 W/m² 5,6 °C 4,1 °C 37,0 km/h (5 Bft)
14.09.2017 14:23 7,2 °C 7,3 °C 89 % 1011,2 hPa 0,0 mm 17,6 km/h (3 Bft) W 267 ° 0 min 0,000 mm 0,0 UV-I 53 W/m² 5,5 °C 4,1 °C 27,4 km/h (4 Bft)
14.09.2017 14:24 7,2 °C 7,2 °C 89 % 1011,1 hPa 0,2 mm 8,6 km/h (2 Bft) N 360 ° 0 min 0,000 mm 0,0 UV-I 51 W/m² 5,5 °C 5,6 °C 16,1 km/h (3 Bft)
14.09.2017 14:25 7,1 °C 7,2 °C 89 % 1011,0 hPa 0,0 mm 8,7 km/h (2 Bft) W-SW 244 ° 0 min 0,000 mm 0,0 UV-I 49 W/m² 5,4 °C 5,4 °C 12,9 km/h (3 Bft)
14.09.2017 14:26 7,1 °C 7,1 °C 90 % 1011,0 hPa 0,0 mm 14,3 km/h (3 Bft) SW 215 ° 0 min 0,000 mm 0,0 UV-I 47 W/m² 5,6 °C 4,4 °C 20,9 km/h (4 Bft)
14.09.2017 14:27 6,9 °C 7,1 °C 90 % 1011,1 hPa 0,0 mm 19,6 km/h (3 Bft) NW 323 ° 0 min 0,000 mm 0,0 UV-I 46 W/m² 5,4 °C 3,5 °C 27,4 km/h (4 Bft)
14.09.2017 14:28 6,9 °C 7,0 °C 90 % 1011,0 hPa 0,0 mm 16,7 km/h (3 Bft) W-NW 290 ° 0 min 0,000 mm 0,0 UV-I 44 W/m² 5,4 °C 3,9 °C 25,7 km/h (4 Bft)
14.09.2017 14:29 6,9 °C 6,9 °C 90 % 1011,0 hPa 0,0 mm 17,5 km/h (3 Bft) NW 305 ° 0 min 0,000 mm 0,0 UV-I 44 W/m² 5,4 °C 3,8 °C 27,4 km/h (4 Bft)
14.09.2017 14:30 6,9 °C 6,9 °C 90 % 1011,1 hPa 0,0 mm 18,5 km/h (3 Bft) NW 304 ° 0 min 0,000 mm 0,0 UV-I 42 W/m² 5,4 °C 3,6 °C 30,6 km/h (5 Bft)
14.09.2017 14:31 6,8 °C 6,9 °C 90 % 1011,1 hPa 0,0 mm 20,7 km/h (4 Bft) W 279 ° 0 min 0,000 mm 0,0 UV-I 42 W/m² 5,3 °C 3,3 °C 37,0 km/h (5 Bft)
14.09.2017 14:32 6,8 °C 6,8 °C 90 % 1011,0 hPa 0,0 mm 14,7 km/h (3 Bft) W 273 ° 0 min 0,000 mm 0,0 UV-I 46 W/m² 5,3 °C 4,0 °C 20,9 km/h (4 Bft)
14.09.2017 14:33 6,8 °C 6,8 °C 90 % 1011,0 hPa 0,2 mm 9,2 km/h (2 Bft) W-SW 257 ° 0 min 0,000 mm 0,0 UV-I 49 W/m² 5,3 °C 5,0 °C 20,9 km/h (4 Bft)
14.09.2017 14:34 6,8 °C 6,8 °C 90 % 1011,0 hPa 0,0 mm 16,8 km/h (3 Bft) W 273 ° 0 min 0,000 mm 0,0 UV-I 53 W/m² 5,3 °C 3,7 °C 27,4 km/h (4 Bft)
14.09.2017 14:35 6,7 °C 6,8 °C 90 % 1011,0 hPa 0,2 mm 18,1 km/h (3 Bft) W-NW 284 ° 0 min 0,000 mm 0,0 UV-I 54 W/m² 5,2 °C 3,4 °C 24,1 km/h (4 Bft)
14.09.2017 14:36 6,7 °C 6,7 °C 91 % 1011,1 hPa 0,0 mm 14,7 km/h (3 Bft) W 275 ° 0 min 0,000 mm 0,5 UV-I 54 W/m² 5,3 °C 3,9 °C 30,6 km/h (5 Bft)
14.09.2017 14:37 6,7 °C 6,7 °C 91 % 1011,1 hPa 0,2 mm 21,9 km/h (4 Bft) W-NW 284 ° 0 min 0,000 mm 0,5 UV-I 56 W/m² 5,3 °C 3,0 °C 27,4 km/h (4 Bft)
14.09.2017 14:38 6,6 °C 6,7 °C 91 % 1011,1 hPa 0,0 mm 20,0 km/h (4 Bft) W 271 ° 0 min 0,000 mm 0,0 UV-I 60 W/m² 5,2 °C 3,1 °C 29,0 km/h (5 Bft)
14.09.2017 14:39 6,7 °C 6,7 °C 91 % 1011,0 hPa 0,0 mm 13,8 km/h (3 Bft) W-SW 239 ° 0 min 0,000 mm 0,6 UV-I 62 W/m² 5,3 °C 4,0 °C 22,5 km/h (4 Bft)
14.09.2017 14:40 6,6 °C 6,7 °C 91 % 1011,0 hPa 0,0 mm 13,9 km/h (3 Bft) W 277 ° 0 min 0,000 mm 0,6 UV-I 65 W/m² 5,2 °C 3,9 °C 25,7 km/h (4 Bft)
14.09.2017 14:41 6,7 °C 6,7 °C 91 % 1011,1 hPa 0,2 mm 9,8 km/h (2 Bft) W-SW 254 ° 0 min 0,000 mm 0,7 UV-I 69 W/m² 5,3 °C 4,7 °C 14,5 km/h (3 Bft)
14.09.2017 14:42 6,7 °C 6,7 °C 91 % 1011,1 hPa 0,0 mm 18,1 km/h (3 Bft) W-SW 254 ° 0 min 0,000 mm 0,7 UV-I 74 W/m² 5,3 °C 3,4 °C 25,7 km/h (4 Bft)
14.09.2017 14:43 6,7 °C 6,7 °C 91 % 1011,1 hPa 0,0 mm 10,7 km/h (2 Bft) W-SW 252 ° 0 min 0,000 mm 0,7 UV-I 76 W/m² 5,3 °C 4,6 °C 17,7 km/h (3 Bft)
14.09.2017 14:44 6,7 °C 6,7 °C 91 % 1011,0 hPa 0,0 mm 10,3 km/h (2 Bft) W 273 ° 0 min 0,000 mm 0,7 UV-I 77 W/m² 5,3 °C 4,6 °C 17,7 km/h (3 Bft)
14.09.2017 14:45 6,6 °C 6,7 °C 92 % 1011,0 hPa 0,0 mm 12,7 km/h (3 Bft) W-NW 290 ° 0 min 0,000 mm 0,7 UV-I 77 W/m² 5,4 °C 4,1 °C 17,7 km/h (3 Bft)
14.09.2017 14:46 6,7 °C 6,7 °C 92 % 1011,0 hPa 0,0 mm 13,4 km/h (3 Bft) W-SW 252 ° 0 min 0,000 mm 0,7 UV-I 77 W/m² 5,5 °C 4,1 °C 25,7 km/h (4 Bft)
14.09.2017 14:47 6,7 °C 6,7 °C 92 % 1010,8 hPa 0,0 mm 18,8 km/h (3 Bft) W 272 ° 0 min 0,000 mm 0,7 UV-I 79 W/m² 5,5 °C 3,4 °C 29,0 km/h (5 Bft)
14.09.2017 14:48 6,7 °C 6,7 °C 92 % 1011,0 hPa 0,0 mm 9,3 km/h (2 Bft) W 259 ° 0 min 0,000 mm 0,7 UV-I 76 W/m² 5,5 °C 4,8 °C 16,1 km/h (3 Bft)
14.09.2017 14:49 6,7 °C 6,7 °C 92 % 1011,0 hPa 0,2 mm 13,1 km/h (3 Bft) W 267 ° 0 min 0,000 mm 0,7 UV-I 70 W/m² 5,5 °C 4,1 °C 22,5 km/h (4 Bft)
14.09.2017 14:50 6,7 °C 6,7 °C 92 % 1011,0 hPa 0,0 mm 19,7 km/h (3 Bft) W-SW 250 ° 0 min 0,000 mm 0,6 UV-I 69 W/m² 5,5 °C 3,2 °C 33,8 km/h (5 Bft)
14.09.2017 14:51 6,7 °C 6,7 °C 91 % 1011,1 hPa 0,0 mm 16,6 km/h (3 Bft) W 272 ° 0 min 0,000 mm 0,6 UV-I 69 W/m² 5,3 °C 3,6 °C 27,4 km/h (4 Bft)
14.09.2017 14:52 6,7 °C 6,7 °C 91 % 1011,0 hPa 0,0 mm 15,9 km/h (3 Bft) W-SW 255 ° 0 min 0,000 mm 0,6 UV-I 67 W/m² 5,3 °C 3,7 °C 20,9 km/h (4 Bft)
14.09.2017 14:53 6,7 °C 6,7 °C 91 % 1011,0 hPa 0,0 mm 14,9 km/h (3 Bft) W-NW 291 ° 0 min 0,000 mm 0,6 UV-I 69 W/m² 5,3 °C 3,9 °C 24,1 km/h (4 Bft)
14.09.2017 14:54 6,7 °C 6,7 °C 91 % 1011,0 hPa 0,0 mm 16,8 km/h (3 Bft) W-NW 292 ° 0 min 0,000 mm 0,6 UV-I 72 W/m² 5,3 °C 3,6 °C 25,7 km/h (4 Bft)
14.09.2017 14:55 6,7 °C 6,7 °C 91 % 1011,1 hPa 0,0 mm 13,0 km/h (3 Bft) W-SW 248 ° 0 min 0,000 mm 0,6 UV-I 70 W/m² 5,3 °C 4,1 °C 20,9 km/h (4 Bft)
14.09.2017 14:56 6,7 °C 6,7 °C 91 % 1011,1 hPa 0,0 mm 20,6 km/h (4 Bft) W 259 ° 0 min 0,000 mm 0,6 UV-I 70 W/m² 5,3 °C 3,1 °C 30,6 km/h (5 Bft)
14.09.2017 14:57 6,7 °C 6,7 °C 91 % 1011,1 hPa 0,0 mm 10,6 km/h (2 Bft) NW 319 ° 0 min 0,000 mm 0,6 UV-I 72 W/m² 5,3 °C 4,6 °C 19,3 km/h (3 Bft)
14.09.2017 14:58 6,7 °C 6,7 °C 91 % 1011,1 hPa 0,0 mm 9,2 km/h (2 Bft) W-NW 284 ° 0 min 0,000 mm 0,6 UV-I 74 W/m² 5,3 °C 4,9 °C 12,9 km/h (3 Bft)
14.09.2017 14:59 6,7 °C 6,7 °C 91 % 1011,2 hPa 0,2 mm 10,4 km/h (2 Bft) W 271 ° 0 min 0,000 mm 0,7 UV-I 76 W/m² 5,3 °C 4,6 °C 14,5 km/h (3 Bft)
14.09.2017 15:00 6,7 °C 6,7 °C 92 % 1011,1 hPa 0,0 mm 11,3 km/h (2 Bft) W-SW 240 ° 0 min 0,000 mm 0,7 UV-I 79 W/m² 5,5 °C 4,4 °C 19,3 km/h (3 Bft)
14.09.2017 15:01 6,8 °C 6,8 °C 92 % 1011,1 hPa 0,0 mm 13,8 km/h (3 Bft) NW 316 ° 0 min 0,051 mm 0,7 UV-I 77 W/m² 5,6 °C 4,1 °C 24,1 km/h (4 Bft)
14.09.2017 15:02 6,8 °C 6,8 °C 92 % 1011,1 hPa 0,0 mm 12,2 km/h (2 Bft) W 281 ° 0 min 0,000 mm 0,7 UV-I 76 W/m² 5,6 °C 4,4 °C 19,3 km/h (3 Bft)
14.09.2017 15:03 6,8 °C 6,8 °C 92 % 1011,1 hPa 0,0 mm 8,1 km/h (2 Bft) W-NW 294 ° 0 min 0,000 mm 0,7 UV-I 74 W/m² 5,6 °C 5,2 °C 17,7 km/h (3 Bft)
14.09.2017 15:04 6,8 °C 6,8 °C 92 % 1011,2 hPa 0,0 mm 12,6 km/h (3 Bft) NW 318 ° 0 min 0,000 mm 0,6 UV-I 72 W/m² 5,6 °C 4,3 °C 17,7 km/h (3 Bft)
14.09.2017 15:05 6,8 °C 6,8 °C 92 % 1011,2 hPa 0,0 mm 8,9 km/h (2 Bft) W-SW 244 ° 0 min 0,000 mm 0,7 UV-I 76 W/m² 5,6 °C 5,0 °C 12,9 km/h (3 Bft)
14.09.2017 15:06 6,8 °C 6,8 °C 92 % 1011,2 hPa 0,0 mm 10,0 km/h (2 Bft) W 261 ° 0 min 0,000 mm 0,7 UV-I 79 W/m² 5,6 °C 4,8 °C 14,5 km/h (3 Bft)
14.09.2017 15:07 6,8 °C 6,8 °C 92 % 1011,2 hPa 0,0 mm 6,8 km/h (2 Bft) W-NW 287 ° 0 min 0,000 mm 0,7 UV-I 79 W/m² 5,6 °C 5,6 °C 14,5 km/h (3 Bft)
14.09.2017 15:08 6,8 °C 6,8 °C 92 % 1011,3 hPa 0,0 mm 10,7 km/h (2 Bft) W 272 ° 0 min 0,000 mm 0,7 UV-I 81 W/m² 5,6 °C 4,7 °C 17,7 km/h (3 Bft)
14.09.2017 15:09 6,8 °C 6,8 °C 92 % 1011,2 hPa 0,2 mm 9,0 km/h (2 Bft) W-SW 256 ° 0 min 0,000 mm 0,7 UV-I 81 W/m² 5,6 °C 5,0 °C 14,5 km/h (3 Bft)
14.09.2017 15:10 6,8 °C 6,8 °C 92 % 1011,2 hPa 0,0 mm 9,6 km/h (2 Bft) W-SW 239 ° 0 min 0,000 mm 0,7 UV-I 81 W/m² 5,6 °C 4,9 °C 16,1 km/h (3 Bft)
14.09.2017 15:11 6,8 °C 6,8 °C 92 % 1011,2 hPa 0,0 mm 16,8 km/h (3 Bft) W-SW 246 ° 0 min 0,000 mm 0,7 UV-I 81 W/m² 5,6 °C 3,7 °C 25,7 km/h (4 Bft)
14.09.2017 15:12 6,8 °C 6,8 °C 92 % 1011,2 hPa 0,0 mm 8,4 km/h (2 Bft) W-SW 257 ° 0 min 0,000 mm 0,7 UV-I 88 W/m² 5,6 °C 5,2 °C 25,7 km/h (4 Bft)
14.09.2017 15:13 6,8 °C 6,8 °C 92 % 1011,2 hPa 0,0 mm 15,2 km/h (3 Bft) W-SW 252 ° 0 min 0,000 mm 0,7 UV-I 88 W/m² 5,6 °C 3,9 °C 22,5 km/h (4 Bft)
14.09.2017 15:14 6,8 °C 6,8 °C 92 % 1011,3 hPa 0,0 mm 5,2 km/h (1 Bft) W 278 ° 0 min 0,000 mm 0,7 UV-I 86 W/m² 5,6 °C 6,1 °C 12,9 km/h (3 Bft)
14.09.2017 15:15 6,8 °C 6,8 °C 92 % 1011,2 hPa 0,0 mm 10,6 km/h (2 Bft) W 271 ° 0 min 0,000 mm 0,7 UV-I 84 W/m² 5,6 °C 4,7 °C 17,7 km/h (3 Bft)
14.09.2017 15:16 6,8 °C 6,8 °C 91 % 1011,3 hPa 0,0 mm 5,8 km/h (2 Bft) W-SW 249 ° 0 min 0,000 mm 0,7 UV-I 83 W/m² 5,4 °C 5,9 °C 11,3 km/h (2 Bft)
14.09.2017 15:17 6,8 °C 6,8 °C 91 % 1011,2 hPa 0,0 mm 8,6 km/h (2 Bft) W-SW 256 ° 0 min 0,000 mm 0,7 UV-I 83 W/m² 5,4 °C 5,1 °C 12,9 km/h (3 Bft)
14.09.2017 15:18 6,8 °C 6,8 °C 91 % 1011,2 hPa 0,0 mm 18,0 km/h (3 Bft) W-NW 285 ° 0 min 0,000 mm 0,7 UV-I 86 W/m² 5,4 °C 3,6 °C 22,5 km/h (4 Bft)
14.09.2017 15:19 6,9 °C 6,9 °C 91 % 1011,3 hPa 0,0 mm 15,0 km/h (3 Bft) W 271 ° 0 min 0,000 mm 0,7 UV-I 86 W/m² 5,5 °C 4,1 °C 22,5 km/h (4 Bft)
14.09.2017 15:20 6,8 °C 6,9 °C 91 % 1011,2 hPa 0,0 mm 16,2 km/h (3 Bft) W 276 ° 0 min 0,000 mm 0,7 UV-I 88 W/m² 5,4 °C 3,8 °C 24,1 km/h (4 Bft)
14.09.2017 15:21 6,9 °C 6,9 °C 91 % 1011,3 hPa 0,2 mm 15,7 km/h (3 Bft) W 267 ° 0 min 0,000 mm 0,8 UV-I 90 W/m² 5,5 °C 4,0 °C 22,5 km/h (4 Bft)
14.09.2017 15:22 6,9 °C 6,9 °C 91 % 1011,3 hPa 0,0 mm 6,5 km/h (2 Bft) W-NW 302 ° 0 min 0,000 mm 0,8 UV-I 90 W/m² 5,5 °C 5,8 °C 12,9 km/h (3 Bft)
14.09.2017 15:23 6,9 °C 6,9 °C 91 % 1011,3 hPa 0,0 mm 12,2 km/h (2 Bft) W 264 ° 0 min 0,000 mm 0,8 UV-I 91 W/m² 5,5 °C 4,5 °C 19,3 km/h (3 Bft)
14.09.2017 15:24 6,9 °C 6,9 °C 91 % 1011,3 hPa 0,0 mm 12,0 km/h (2 Bft) W 275 ° 0 min 0,000 mm 0,8 UV-I 95 W/m² 5,5 °C 4,6 °C 17,7 km/h (3 Bft)
14.09.2017 15:25 6,9 °C 6,9 °C 91 % 1011,3 hPa 0,0 mm 8,8 km/h (2 Bft) W 273 ° 0 min 0,000 mm 0,8 UV-I 95 W/m² 5,5 °C 5,2 °C 12,9 km/h (3 Bft)
14.09.2017 15:26 6,9 °C 6,9 °C 91 % 1011,2 hPa 0,0 mm 7,8 km/h (2 Bft) W-SW 250 ° 0 min 0,000 mm 0,8 UV-I 97 W/m² 5,5 °C 5,4 °C 11,3 km/h (2 Bft)
14.09.2017 15:27 6,9 °C 6,9 °C 92 % 1011,2 hPa 0,0 mm 7,1 km/h (2 Bft) W 260 ° 0 min 0,000 mm 0,8 UV-I 98 W/m² 5,7 °C 5,6 °C 11,3 km/h (2 Bft)
14.09.2017 15:28 6,9 °C 6,9 °C 92 % 1011,2 hPa 0,0 mm 5,8 km/h (2 Bft) W 273 ° 0 min 0,000 mm 0,8 UV-I 100 W/m² 5,7 °C 6,0 °C 6,4 km/h (2 Bft)
14.09.2017 15:29 6,9 °C 6,9 °C 92 % 1011,2 hPa 0,0 mm 2,7 km/h (1 Bft) W 273 ° 0 min 0,000 mm 0,8 UV-I 97 W/m² 5,7 °C 6,9 °C 4,8 km/h (1 Bft)
14.09.2017 15:30 6,9 °C 6,9 °C 92 % 1011,2 hPa 0,0 mm 6,2 km/h (2 Bft) NW 313 ° 0 min 0,000 mm 0,8 UV-I 97 W/m² 5,7 °C 5,8 °C 11,3 km/h (2 Bft)
14.09.2017 15:31 7,0 °C 7,0 °C 92 % 1011,2 hPa 0,0 mm 7,2 km/h (2 Bft) W 259 ° 0 min 0,000 mm 0,8 UV-I 100 W/m² 5,8 °C 5,7 °C 11,3 km/h (2 Bft)
14.09.2017 15:32 7,1 °C 7,1 °C 92 % 1011,3 hPa 0,0 mm 6,6 km/h (2 Bft) W 268 ° 0 min 0,000 mm 0,8 UV-I 100 W/m² 5,9 °C 6,0 °C 11,3 km/h (2 Bft)
14.09.2017 15:33 7,0 °C 7,1 °C 92 % 1011,3 hPa 0,0 mm 2,6 km/h (1 Bft) W 274 ° 0 min 0,000 mm 0,7 UV-I 91 W/m² 5,8 °C 7,0 °C 4,8 km/h (1 Bft)
14.09.2017 15:34 7,1 °C 7,1 °C 92 % 1011,3 hPa 0,0 mm 8,2 km/h (2 Bft) W-NW 298 ° 0 min 0,000 mm 0,7 UV-I 84 W/m² 5,9 °C 5,6 °C 12,9 km/h (3 Bft)
14.09.2017 15:35 7,1 °C 7,1 °C 92 % 1011,4 hPa 0,0 mm 9,2 km/h (2 Bft) W 271 ° 0 min 0,000 mm 0,7 UV-I 81 W/m² 5,9 °C 5,3 °C 14,5 km/h (3 Bft)
14.09.2017 15:36 7,1 °C 7,1 °C 92 % 1011,4 hPa 0,0 mm 11,7 km/h (2 Bft) W 270 ° 0 min 0,000 mm 0,7 UV-I 76 W/m² 5,9 °C 4,9 °C 20,9 km/h (4 Bft)
14.09.2017 15:37 7,0 °C 7,1 °C 92 % 1011,4 hPa 0,0 mm 8,2 km/h (2 Bft) SW 234 ° 0 min 0,000 mm 0,6 UV-I 70 W/m² 5,8 °C 5,4 °C 11,3 km/h (2 Bft)
14.09.2017 15:38 7,0 °C 7,0 °C 92 % 1011,4 hPa 0,0 mm 7,0 km/h (2 Bft) W-SW 256 ° 0 min 0,000 mm 0,6 UV-I 70 W/m² 5,8 °C 5,7 °C 16,1 km/h (3 Bft)
14.09.2017 15:39 7,0 °C 7,0 °C 91 % 1011,5 hPa 0,0 mm 15,2 km/h (3 Bft) W 270 ° 0 min 0,000 mm 0,6 UV-I 77 W/m² 5,6 °C 4,2 °C 20,9 km/h (4 Bft)
14.09.2017 15:40 7,0 °C 7,0 °C 91 % 1011,5 hPa 0,0 mm 14,0 km/h (3 Bft) W 262 ° 0 min 0,000 mm 0,7 UV-I 77 W/m² 5,6 °C 4,4 °C 24,1 km/h (4 Bft)
14.09.2017 15:41 6,9 °C 7,0 °C 91 % 1011,4 hPa 0,0 mm 9,4 km/h (2 Bft) W 279 ° 0 min 0,000 mm 0,7 UV-I 84 W/m² 5,5 °C 5,1 °C 14,5 km/h (3 Bft)
14.09.2017 15:42 6,9 °C 6,9 °C 91 % 1011,5 hPa 0,0 mm 4,2 km/h (1 Bft) W 268 ° 0 min 0,000 mm 0,7 UV-I 88 W/m² 5,5 °C 6,9 °C 9,7 km/h (2 Bft)
14.09.2017 15:43 6,9 °C 6,9 °C 91 % 1011,4 hPa 0,0 mm 11,5 km/h (2 Bft) SW 227 ° 0 min 0,000 mm 0,7 UV-I 86 W/m² 5,5 °C 4,6 °C 17,7 km/h (3 Bft)
14.09.2017 15:44 6,9 °C 6,9 °C 92 % 1011,5 hPa 0,0 mm 10,1 km/h (2 Bft) SW 223 ° 0 min 0,000 mm 0,6 UV-I 81 W/m² 5,7 °C 4,9 °C 14,5 km/h (3 Bft)
14.09.2017 15:45 6,9 °C 7,0 °C 92 % 1011,4 hPa 0,0 mm 12,2 km/h (2 Bft) W 265 ° 0 min 0,000 mm 0,7 UV-I 81 W/m² 5,7 °C 4,5 °C 16,1 km/h (3 Bft)
14.09.2017 15:46 6,9 °C 6,9 °C 92 % 1011,3 hPa 0,0 mm 5,8 km/h (2 Bft) W 270 ° 0 min 0,000 mm 0,7 UV-I 83 W/m² 5,7 °C 6,0 °C 11,3 km/h (2 Bft)
14.09.2017 15:47 6,9 °C 6,9 °C 92 % 1011,4 hPa 0,0 mm 1,4 km/h (1 Bft) W 261 ° 0 min 0,000 mm 0,6 UV-I 79 W/m² 5,7 °C 6,9 °C 3,2 km/h (1 Bft)
14.09.2017 15:48 6,9 °C 7,0 °C 92 % 1011,4 hPa 0,0 mm 11,5 km/h (2 Bft) W-NW 290 ° 0 min 0,000 mm 0,6 UV-I 69 W/m² 5,7 °C 4,6 °C 14,5 km/h (3 Bft)
14.09.2017 15:49 6,9 °C 7,0 °C 92 % 1011,4 hPa 0,2 mm 3,1 km/h (1 Bft) W 263 ° 0 min 0,000 mm 0,6 UV-I 69 W/m² 5,7 °C 6,9 °C 6,4 km/h (2 Bft)
14.09.2017 15:50 6,9 °C 6,9 °C 92 % 1011,5 hPa 0,0 mm 4,3 km/h (1 Bft) W-SW 252 ° 0 min 0,000 mm 0,5 UV-I 67 W/m² 5,7 °C 6,9 °C 6,4 km/h (2 Bft)
14.09.2017 15:51 6,9 °C 6,9 °C 92 % 1011,5 hPa 0,0 mm 4,5 km/h (1 Bft) NW 306 ° 0 min 0,000 mm 0,5 UV-I 65 W/m² 5,7 °C 6,9 °C 6,4 km/h (2 Bft)
14.09.2017 15:52 6,9 °C 6,9 °C 92 % 1011,5 hPa 0,0 mm 13,7 km/h (3 Bft) SW 227 ° 0 min 0,000 mm 0,5 UV-I 67 W/m² 5,7 °C 4,3 °C 17,7 km/h (3 Bft)
14.09.2017 15:53 6,9 °C 6,9 °C 92 % 1011,5 hPa 0,0 mm 6,1 km/h (2 Bft) W 264 ° 0 min 0,000 mm 0,6 UV-I 74 W/m² 5,7 °C 5,9 °C 11,3 km/h (2 Bft)
14.09.2017 15:54 6,9 °C 6,9 °C 92 % 1011,4 hPa 0,0 mm 2,1 km/h (1 Bft) W 259 ° 0 min 0,000 mm 0,6 UV-I 77 W/m² 5,7 °C 6,9 °C 4,8 km/h (1 Bft)
14.09.2017 15:55 6,9 °C 6,9 °C 92 % 1011,3 hPa 0,0 mm 0,5 km/h (0 Bft) W 259 ° 0 min 0,000 mm 0,6 UV-I 77 W/m² 5,7 °C 6,9 °C 1,6 km/h (1 Bft)
14.09.2017 15:56 6,9 °C 6,9 °C 92 % 1011,3 hPa 0,0 mm 0,6 km/h (0 Bft) W-SW 252 ° 0 min 0,000 mm 0,6 UV-I 79 W/m² 5,7 °C 6,9 °C 3,2 km/h (1 Bft)
14.09.2017 15:57 7,1 °C 7,1 °C 93 % 1011,2 hPa 0,0 mm 1,0 km/h (0 Bft) W-SW 245 ° 0 min 0,000 mm 0,6 UV-I 79 W/m² 6,0 °C 7,1 °C 3,2 km/h (1 Bft)
14.09.2017 15:58 7,1 °C 7,1 °C 92 % 1011,2 hPa 0,0 mm 1,8 km/h (1 Bft) W 276 ° 0 min 0,000 mm 0,6 UV-I 79 W/m² 5,9 °C 7,1 °C 3,2 km/h (1 Bft)
14.09.2017 15:59 7,1 °C 7,1 °C 92 % 1011,2 hPa 0,0 mm 4,4 km/h (1 Bft) W 270 ° 0 min 0,000 mm 0,6 UV-I 74 W/m² 5,9 °C 7,1 °C 9,7 km/h (2 Bft)
14.09.2017 16:00 7,0 °C 7,1 °C 92 % 1011,1 hPa 0,0 mm 8,0 km/h (2 Bft) S-SW 194 ° 0 min 0,000 mm 0,6 UV-I 69 W/m² 5,8 °C 5,5 °C 12,9 km/h (3 Bft)
14.09.2017 16:01 7,1 °C 7,1 °C 92 % 1011,1 hPa 0,0 mm 11,1 km/h (2 Bft) W-NW 282 ° 0 min 0,051 mm 0,5 UV-I 62 W/m² 5,9 °C 5,0 °C 16,1 km/h (3 Bft)
14.09.2017 16:02 7,1 °C 7,1 °C 92 % 1011,1 hPa 0,0 mm 5,6 km/h (1 Bft) SW 215 ° 0 min 0,000 mm 0,5 UV-I 58 W/m² 5,9 °C 6,3 °C 11,3 km/h (2 Bft)
14.09.2017 16:04 7,1 °C 7,1 °C 92 % 1011,1 hPa 0,0 mm 4,4 km/h (1 Bft) W 278 ° 0 min 0,000 mm 0,5 UV-I 56 W/m² 5,9 °C 7,1 °C 14,5 km/h (3 Bft)
14.09.2017 16:05 7,1 °C 7,1 °C 92 % 1011,1 hPa 0,0 mm 5,1 km/h (1 Bft) W 259 ° 0 min 0,000 mm 0,0 UV-I 54 W/m² 5,9 °C 6,4 °C 6,4 km/h (2 Bft)
14.09.2017 16:06 7,1 °C 7,1 °C 92 % 1011,2 hPa 0,0 mm 5,1 km/h (1 Bft) W-SW 247 ° 0 min 0,000 mm 0,0 UV-I 51 W/m² 5,9 °C 6,4 °C 11,3 km/h (2 Bft)
14.09.2017 16:07 7,1 °C 7,1 °C 92 % 1011,2 hPa 0,0 mm 12,8 km/h (3 Bft) W 269 ° 0 min 0,000 mm 0,0 UV-I 47 W/m² 5,9 °C 4,7 °C 17,7 km/h (3 Bft)
14.09.2017 16:09 7,1 °C 7,1 °C 92 % 1011,1 hPa 0,0 mm 9,3 km/h (2 Bft) W 268 ° 0 min 0,000 mm 0,0 UV-I 51 W/m² 5,9 °C 5,3 °C 16,1 km/h (3 Bft)
14.09.2017 16:10 7,1 °C 7,1 °C 91 % 1011,1 hPa 0,2 mm 10,7 km/h (2 Bft) W 277 ° 0 min 0,000 mm 0,0 UV-I 54 W/m² 5,7 °C 5,0 °C 19,3 km/h (3 Bft)
14.09.2017 16:11 7,1 °C 7,1 °C 91 % 1011,2 hPa 0,0 mm 6,7 km/h (2 Bft) W-SW 252 ° 0 min 0,000 mm 0,0 UV-I 51 W/m² 5,7 °C 5,9 °C 11,3 km/h (2 Bft)
14.09.2017 16:12 7,1 °C 7,2 °C 92 % 1011,2 hPa 0,0 mm 14,5 km/h (3 Bft) SW 223 ° 0 min 0,000 mm 0,0 UV-I 49 W/m² 5,9 °C 4,4 °C 22,5 km/h (4 Bft)
14.09.2017 16:13 7,2 °C 7,2 °C 91 % 1011,2 hPa 0,0 mm 11,1 km/h (2 Bft) W-NW 298 ° 0 min 0,000 mm 0,0 UV-I 49 W/m² 5,8 °C 5,1 °C 17,7 km/h (3 Bft)
14.09.2017 16:14 7,1 °C 7,2 °C 91 % 1011,2 hPa 0,0 mm 13,3 km/h (3 Bft) W 274 ° 0 min 0,000 mm 0,0 UV-I 44 W/m² 5,7 °C 4,6 °C 20,9 km/h (4 Bft)
14.09.2017 16:15 7,2 °C 7,2 °C 91 % 1011,0 hPa 0,0 mm 7,2 km/h (2 Bft) W-NW 293 ° 0 min 0,000 mm 0,0 UV-I 42 W/m² 5,8 °C 5,9 °C 12,9 km/h (3 Bft)
14.09.2017 16:16 7,2 °C 7,2 °C 91 % 1011,1 hPa 0,0 mm 12,1 km/h (2 Bft) W 259 ° 0 min 0,000 mm 0,0 UV-I 44 W/m² 5,8 °C 4,9 °C 17,7 km/h (3 Bft)
14.09.2017 16:17 7,2 °C 7,2 °C 91 % 1011,2 hPa 0,0 mm 11,1 km/h (2 Bft) W 268 ° 0 min 0,000 mm 0,0 UV-I 47 W/m² 5,8 °C 5,1 °C 14,5 km/h (3 Bft)
14.09.2017 16:18 7,2 °C 7,2 °C 91 % 1011,1 hPa 0,0 mm 7,4 km/h (2 Bft) W 275 ° 0 min 0,000 mm 0,0 UV-I 47 W/m² 5,8 °C 5,9 °C 12,9 km/h (3 Bft)
14.09.2017 16:19 7,2 °C 7,2 °C 91 % 1011,1 hPa 0,0 mm 5,8 km/h (2 Bft) W-NW 290 ° 0 min 0,000 mm 0,0 UV-I 47 W/m² 5,8 °C 6,3 °C 9,7 km/h (2 Bft)
14.09.2017 16:20 7,1 °C 7,2 °C 91 % 1011,1 hPa 0,0 mm 6,5 km/h (2 Bft) W-SW 254 ° 0 min 0,000 mm 0,0 UV-I 46 W/m² 5,7 °C 6,0 °C 14,5 km/h (3 Bft)
14.09.2017 16:21 7,2 °C 7,2 °C 91 % 1011,1 hPa 0,0 mm 8,2 km/h (2 Bft) SW 234 ° 0 min 0,000 mm 0,0 UV-I 44 W/m² 5,8 °C 5,7 °C 14,5 km/h (3 Bft)
14.09.2017 16:22 7,1 °C 7,2 °C 91 % 1011,3 hPa 0,0 mm 17,2 km/h (3 Bft) W-SW 240 ° 0 min 0,000 mm 0,0 UV-I 42 W/m² 5,7 °C 4,0 °C 27,4 km/h (4 Bft)
14.09.2017 16:23 7,2 °C 7,2 °C 91 % 1011,1 hPa 0,0 mm 11,4 km/h (2 Bft) NW 306 ° 0 min 0,000 mm 0,0 UV-I 37 W/m² 5,8 °C 5,0 °C 14,5 km/h (3 Bft)
14.09.2017 16:24 7,2 °C 7,2 °C 91 % 1011,0 hPa 0,0 mm 12,7 km/h (3 Bft) SW 232 ° 0 min 0,000 mm 0,0 UV-I 39 W/m² 5,8 °C 4,8 °C 19,3 km/h (3 Bft)
14.09.2017 16:25 7,2 °C 7,2 °C 91 % 1011,1 hPa 0,0 mm 15,2 km/h (3 Bft) W 279 ° 0 min 0,000 mm 0,0 UV-I 37 W/m² 5,8 °C 4,4 °C 29,0 km/h (5 Bft)
14.09.2017 16:26 7,2 °C 7,2 °C 91 % 1011,0 hPa 0,0 mm 17,8 km/h (3 Bft) W 275 ° 0 min 0,000 mm 0,0 UV-I 40 W/m² 5,8 °C 4,1 °C 24,1 km/h (4 Bft)
14.09.2017 16:27 7,2 °C 7,2 °C 91 % 1011,0 hPa 0,0 mm 12,3 km/h (3 Bft) W 271 ° 0 min 0,000 mm 0,0 UV-I 44 W/m² 5,8 °C 4,9 °C 27,4 km/h (4 Bft)
14.09.2017 16:28 7,2 °C 7,2 °C 91 % 1010,9 hPa 0,0 mm 14,4 km/h (3 Bft) SW 226 ° 0 min 0,000 mm 0,0 UV-I 47 W/m² 5,8 °C 4,5 °C 17,7 km/h (3 Bft)
14.09.2017 16:29 7,2 °C 7,2 °C 90 % 1010,9 hPa 0,0 mm 17,5 km/h (3 Bft) W 276 ° 0 min 0,000 mm 0,0 UV-I 51 W/m² 5,7 °C 4,1 °C 29,0 km/h (5 Bft)
14.09.2017 16:30 7,2 °C 7,2 °C 90 % 1010,9 hPa 0,0 mm 17,3 km/h (3 Bft) W-NW 285 ° 0 min 0,000 mm 0,0 UV-I 53 W/m² 5,7 °C 4,2 °C 22,5 km/h (4 Bft)
14.09.2017 16:31 7,2 °C 7,3 °C 90 % 1011,0 hPa 0,0 mm 15,6 km/h (3 Bft) NW 313 ° 0 min 0,000 mm 0,0 UV-I 53 W/m² 5,7 °C 4,4 °C 22,5 km/h (4 Bft)
14.09.2017 16:32 7,3 °C 7,3 °C 90 % 1010,9 hPa 0,0 mm 13,2 km/h (3 Bft) W 276 ° 0 min 0,000 mm 0,0 UV-I 49 W/m² 5,8 °C 4,8 °C 24,1 km/h (4 Bft)
14.09.2017 16:34 7,3 °C 7,3 °C 89 % 1010,8 hPa 0,0 mm 18,1 km/h (3 Bft) W-SW 244 ° 0 min 0,000 mm 0,0 UV-I 49 W/m² 5,6 °C 4,2 °C 51,5 km/h (7 Bft)
14.09.2017 16:35 7,3 °C 7,3 °C 89 % 1010,8 hPa 0,0 mm 14,8 km/h (3 Bft) W 271 ° 0 min 0,000 mm 0,0 UV-I 51 W/m² 5,6 °C 4,6 °C 32,2 km/h (5 Bft)
14.09.2017 16:36 7,4 °C 7,4 °C 89 % 1010,8 hPa 0,0 mm 17,8 km/h (3 Bft) W 267 ° 0 min 0,000 mm 0,0 UV-I 51 W/m² 5,7 °C 4,3 °C 29,0 km/h (5 Bft)
14.09.2017 16:37 7,4 °C 7,4 °C 89 % 1010,7 hPa 0,0 mm 16,5 km/h (3 Bft) W 278 ° 0 min 0,000 mm 0,0 UV-I 51 W/m² 5,7 °C 4,5 °C 27,4 km/h (4 Bft)
14.09.2017 16:38 7,4 °C 7,4 °C 89 % 1010,6 hPa 0,0 mm 24,9 km/h (4 Bft) W 263 ° 0 min 0,000 mm 0,0 UV-I 47 W/m² 5,7 °C 3,6 °C 38,6 km/h (5 Bft)
14.09.2017 16:39 7,4 °C 7,4 °C 88 % 1010,6 hPa 0,0 mm 16,1 km/h (3 Bft) W 266 ° 0 min 0,000 mm 0,0 UV-I 44 W/m² 5,5 °C 4,6 °C 29,0 km/h (5 Bft)
14.09.2017 16:40 7,4 °C 7,4 °C 88 % 1010,6 hPa 0,0 mm 17,4 km/h (3 Bft) W-SW 246 ° 0 min 0,000 mm 0,0 UV-I 40 W/m² 5,5 °C 4,4 °C 37,0 km/h (5 Bft)
14.09.2017 16:41 7,4 °C 7,4 °C 88 % 1010,5 hPa 0,0 mm 22,1 km/h (4 Bft) W 260 ° 0 min 0,000 mm 0,0 UV-I 37 W/m² 5,5 °C 3,9 °C 38,6 km/h (5 Bft)
14.09.2017 16:42 7,4 °C 7,4 °C 88 % 1011,1 hPa 0,0 mm 19,4 km/h (3 Bft) W-SW 243 ° 0 min 0,000 mm 0,0 UV-I 35 W/m² 5,5 °C 4,2 °C 25,7 km/h (4 Bft)
14.09.2017 16:43 7,5 °C 7,5 °C 88 % 1010,8 hPa 0,0 mm 13,1 km/h (3 Bft) W 263 ° 0 min 0,000 mm 0,0 UV-I 35 W/m² 5,6 °C 5,1 °C 19,3 km/h (3 Bft)
14.09.2017 16:44 7,5 °C 7,5 °C 87 % 1010,8 hPa 0,0 mm 17,1 km/h (3 Bft) W 266 ° 0 min 0,000 mm 0,0 UV-I 35 W/m² 5,5 °C 4,6 °C 27,4 km/h (4 Bft)
14.09.2017 16:45 7,5 °C 7,6 °C 88 % 1010,8 hPa 0,0 mm 13,8 km/h (3 Bft) W-SW 249 ° 0 min 0,000 mm 0,0 UV-I 33 W/m² 5,6 °C 5,0 °C 20,9 km/h (4 Bft)
14.09.2017 16:46 7,6 °C 7,6 °C 88 % 1011,0 hPa 0,0 mm 12,3 km/h (3 Bft) W-SW 250 ° 0 min 0,000 mm 0,0 UV-I 33 W/m² 5,7 °C 5,4 °C 22,5 km/h (4 Bft)
14.09.2017 16:47 7,6 °C 7,6 °C 88 % 1010,8 hPa 0,0 mm 8,9 km/h (2 Bft) W-SW 258 ° 0 min 0,000 mm 0,0 UV-I 32 W/m² 5,7 °C 6,0 °C 16,1 km/h (3 Bft)
14.09.2017 16:48 7,5 °C 7,6 °C 88 % 1010,9 hPa 0,0 mm 17,6 km/h (3 Bft) W-SW 256 ° 0 min 0,000 mm 0,0 UV-I 32 W/m² 5,6 °C 4,5 °C 25,7 km/h (4 Bft)
14.09.2017 16:49 7,6 °C 7,6 °C 87 % 1010,9 hPa 0,0 mm 10,4 km/h (2 Bft) W 271 ° 0 min 0,000 mm 0,0 UV-I 33 W/m² 5,6 °C 5,7 °C 20,9 km/h (4 Bft)
14.09.2017 16:50 7,6 °C 7,6 °C 88 % 1010,9 hPa 0,0 mm 17,5 km/h (3 Bft) S 171 ° 0 min 0,000 mm 0,0 UV-I 35 W/m² 5,7 °C 4,6 °C 22,5 km/h (4 Bft)
14.09.2017 16:51 7,6 °C 7,6 °C 87 % 1010,8 hPa 0,0 mm 8,9 km/h (2 Bft) W-NW 288 ° 0 min 0,000 mm 0,0 UV-I 40 W/m² 5,6 °C 6,0 °C 20,9 km/h (4 Bft)
14.09.2017 16:52 7,6 °C 7,6 °C 87 % 1010,8 hPa 0,0 mm 17,2 km/h (3 Bft) W 273 ° 0 min 0,000 mm 0,0 UV-I 46 W/m² 5,6 °C 4,7 °C 25,7 km/h (4 Bft)
14.09.2017 16:53 7,6 °C 7,6 °C 87 % 1010,8 hPa 0,0 mm 14,9 km/h (3 Bft) SW 227 ° 0 min 0,000 mm 0,0 UV-I 47 W/m² 5,6 °C 5,0 °C 19,3 km/h (3 Bft)
14.09.2017 16:54 7,6 °C 7,6 °C 88 % 1010,8 hPa 0,0 mm 17,0 km/h (3 Bft) W 270 ° 0 min 0,000 mm 0,0 UV-I 44 W/m² 5,7 °C 4,7 °C 24,1 km/h (4 Bft)
14.09.2017 16:55 7,6 °C 7,6 °C 88 % 1010,9 hPa 0,0 mm 16,7 km/h (3 Bft) W-SW 246 ° 0 min 0,000 mm 0,0 UV-I 40 W/m² 5,7 °C 4,7 °C 24,1 km/h (4 Bft)
14.09.2017 16:56 7,6 °C 7,6 °C 87 % 1010,9 hPa 0,0 mm 12,1 km/h (2 Bft) S-SO 167 ° 0 min 0,000 mm 0,0 UV-I 40 W/m² 5,6 °C 5,4 °C 16,1 km/h (3 Bft)
14.09.2017 16:57 7,6 °C 7,6 °C 87 % 1010,7 hPa 0,0 mm 9,8 km/h (2 Bft) W-SW 256 ° 0 min 0,000 mm 0,0 UV-I 42 W/m² 5,6 °C 5,8 °C 14,5 km/h (3 Bft)
14.09.2017 16:58 7,6 °C 7,6 °C 87 % 1010,9 hPa 0,0 mm 14,0 km/h (3 Bft) W 262 ° 0 min 0,000 mm 0,0 UV-I 44 W/m² 5,6 °C 5,1 °C 19,3 km/h (3 Bft)
14.09.2017 16:59 7,6 °C 7,6 °C 88 % 1010,8 hPa 0,0 mm 11,5 km/h (2 Bft) W-NW 288 ° 0 min 0,000 mm 0,0 UV-I 44 W/m² 5,7 °C 5,5 °C 16,1 km/h (3 Bft)
14.09.2017 17:00 7,6 °C 7,6 °C 88 % 1010,8 hPa 0,0 mm 16,1 km/h (3 Bft) W 272 ° 0 min 0,000 mm 0,0 UV-I 44 W/m² 5,7 °C 4,8 °C 25,7 km/h (4 Bft)
14.09.2017 17:01 7,6 °C 7,6 °C 88 % 1010,8 hPa 0,0 mm 17,7 km/h (3 Bft) W 275 ° 0 min 0,025 mm 0,0 UV-I 42 W/m² 5,7 °C 4,6 °C 29,0 km/h (5 Bft)
14.09.2017 17:02 7,6 °C 7,6 °C 88 % 1010,8 hPa 0,0 mm 8,2 km/h (2 Bft) W-NW 291 ° 0 min 0,000 mm 0,0 UV-I 44 W/m² 5,7 °C 6,1 °C 14,5 km/h (3 Bft)
14.09.2017 17:03 7,6 °C 7,6 °C 88 % 1010,8 hPa 0,0 mm 7,1 km/h (2 Bft) W 261 ° 0 min 0,000 mm 0,0 UV-I 47 W/m² 5,7 °C 6,4 °C 16,1 km/h (3 Bft)
14.09.2017 17:04 7,7 °C 7,7 °C 88 % 1010,8 hPa 0,0 mm 12,6 km/h (3 Bft) W-SW 256 ° 0 min 0,000 mm 0,0 UV-I 46 W/m² 5,8 °C 5,4 °C 17,7 km/h (3 Bft)
14.09.2017 17:05 7,7 °C 7,7 °C 88 % 1010,9 hPa 0,0 mm 8,2 km/h (2 Bft) W-SW 252 ° 0 min 0,000 mm 0,0 UV-I 44 W/m² 5,8 °C 6,3 °C 14,5 km/h (3 Bft)
14.09.2017 17:06 7,7 °C 7,7 °C 88 % 1010,8 hPa 0,0 mm 11,0 km/h (2 Bft) W-SW 250 ° 0 min 0,000 mm 0,0 UV-I 42 W/m² 5,8 °C 5,7 °C 20,9 km/h (4 Bft)
14.09.2017 17:07 7,7 °C 7,7 °C 88 % 1010,9 hPa 0,0 mm 13,6 km/h (3 Bft) SW 224 ° 0 min 0,000 mm 0,0 UV-I 47 W/m² 5,8 °C 5,3 °C 20,9 km/h (4 Bft)
14.09.2017 17:08 7,7 °C 7,7 °C 88 % 1010,8 hPa 0,0 mm 14,2 km/h (3 Bft) W-SW 258 ° 0 min 0,000 mm 0,0 UV-I 47 W/m² 5,8 °C 5,2 °C 19,3 km/h (3 Bft)
14.09.2017 17:09 7,7 °C 7,7 °C 88 % 1010,8 hPa 0,0 mm 10,7 km/h (2 Bft) W 277 ° 0 min 0,000 mm 0,0 UV-I 47 W/m² 5,8 °C 5,8 °C 17,7 km/h (3 Bft)
14.09.2017 17:10 7,7 °C 7,7 °C 88 % 1010,9 hPa 0,0 mm 8,9 km/h (2 Bft) W 263 ° 0 min 0,000 mm 0,0 UV-I 49 W/m² 5,8 °C 6,1 °C 12,9 km/h (3 Bft)
14.09.2017 17:11 7,8 °C 7,8 °C 88 % 1010,7 hPa 0,0 mm 11,6 km/h (2 Bft) S-SW 212 ° 0 min 0,000 mm 0,0 UV-I 51 W/m² 5,9 °C 5,7 °C 16,1 km/h (3 Bft)
14.09.2017 17:12 7,8 °C 7,8 °C 88 % 1010,7 hPa 0,0 mm 10,0 km/h (2 Bft) W 260 ° 0 min 0,000 mm 0,0 UV-I 54 W/m² 5,9 °C 6,0 °C 14,5 km/h (3 Bft)
14.09.2017 17:13 7,8 °C 7,8 °C 87 % 1010,7 hPa 0,0 mm 10,1 km/h (2 Bft) SW 232 ° 0 min 0,000 mm 0,0 UV-I 60 W/m² 5,8 °C 6,0 °C 20,9 km/h (4 Bft)
14.09.2017 17:14 7,8 °C 7,8 °C 87 % 1010,7 hPa 0,0 mm 8,2 km/h (2 Bft) W-SW 248 ° 0 min 0,000 mm 0,0 UV-I 63 W/m² 5,8 °C 6,4 °C 12,9 km/h (3 Bft)
14.09.2017 17:15 7,9 °C 7,9 °C 87 % 1010,9 hPa 0,0 mm 4,4 km/h (1 Bft) W-SW 256 ° 0 min 0,000 mm 0,0 UV-I 67 W/m² 5,9 °C 7,9 °C 8,0 km/h (2 Bft)
14.09.2017 17:16 7,9 °C 7,9 °C 86 % 1010,7 hPa 0,0 mm 5,7 km/h (1 Bft) W 265 ° 0 min 0,000 mm 0,0 UV-I 70 W/m² 5,7 °C 7,1 °C 6,4 km/h (2 Bft)
14.09.2017 17:17 7,9 °C 7,9 °C 86 % 1010,8 hPa 0,0 mm 10,4 km/h (2 Bft) W 267 ° 0 min 0,000 mm 0,0 UV-I 69 W/m² 5,7 °C 6,0 °C 14,5 km/h (3 Bft)
14.09.2017 17:18 8,0 °C 8,0 °C 87 % 1010,9 hPa 0,0 mm 8,2 km/h (2 Bft) W-SW 251 ° 0 min 0,000 mm 0,0 UV-I 67 W/m² 6,0 °C 6,6 °C 11,3 km/h (2 Bft)
14.09.2017 17:19 8,0 °C 8,0 °C 86 % 1011,0 hPa 0,0 mm 11,9 km/h (2 Bft) W-SW 252 ° 0 min 0,000 mm 0,0 UV-I 62 W/m² 5,8 °C 5,9 °C 19,3 km/h (3 Bft)
14.09.2017 17:20 8,1 °C 8,1 °C 85 % 1011,2 hPa 0,0 mm 10,4 km/h (2 Bft) W 277 ° 0 min 0,000 mm 0,0 UV-I 53 W/m² 5,7 °C 6,3 °C 19,3 km/h (3 Bft)
14.09.2017 17:21 8,1 °C 8,1 °C 86 % 1011,2 hPa 0,2 mm 13,5 km/h (3 Bft) W 261 ° 0 min 0,000 mm 0,0 UV-I 46 W/m² 5,9 °C 5,8 °C 24,1 km/h (4 Bft)
14.09.2017 17:22 8,2 °C 8,2 °C 86 % 1011,3 hPa 0,0 mm 13,6 km/h (3 Bft) W 269 ° 0 min 0,000 mm 0,0 UV-I 42 W/m² 6,0 °C 5,9 °C 22,5 km/h (4 Bft)
14.09.2017 17:23 8,2 °C 8,2 °C 85 % 1011,3 hPa 0,0 mm 10,3 km/h (2 Bft) W-NW 286 ° 0 min 0,000 mm 0,0 UV-I 40 W/m² 5,8 °C 6,4 °C 17,7 km/h (3 Bft)
14.09.2017 17:24 8,2 °C 8,2 °C 86 % 1011,3 hPa 0,0 mm 19,5 km/h (3 Bft) SW 232 ° 0 min 0,000 mm 0,0 UV-I 39 W/m² 6,0 °C 5,2 °C 30,6 km/h (5 Bft)
14.09.2017 17:25 8,2 °C 8,2 °C 85 % 1011,2 hPa 0,0 mm 13,1 km/h (3 Bft) W-SW 254 ° 0 min 0,000 mm 0,0 UV-I 37 W/m² 5,8 °C 6,0 °C 19,3 km/h (3 Bft)
14.09.2017 17:26 8,2 °C 8,2 °C 85 % 1011,3 hPa 0,0 mm 14,9 km/h (3 Bft) S 186 ° 0 min 0,000 mm 0,0 UV-I 35 W/m² 5,8 °C 5,7 °C 20,9 km/h (4 Bft)
14.09.2017 17:27 8,2 °C 8,3 °C 84 % 1011,3 hPa 0,0 mm 16,9 km/h (3 Bft) W-NW 288 ° 0 min 0,000 mm 0,0 UV-I 32 W/m² 5,7 °C 5,5 °C 30,6 km/h (5 Bft)
14.09.2017 17:28 8,3 °C 8,3 °C 84 % 1011,4 hPa 0,0 mm 16,1 km/h (3 Bft) SW 227 ° 0 min 0,000 mm 0,0 UV-I 26 W/m² 5,8 °C 5,7 °C 22,5 km/h (4 Bft)
14.09.2017 17:29 8,3 °C 8,3 °C 85 % 1011,3 hPa 0,0 mm 9,1 km/h (2 Bft) W 279 ° 0 min 0,000 mm 0,0 UV-I 23 W/m² 5,9 °C 6,8 °C 14,5 km/h (3 Bft)
14.09.2017 17:30 8,3 °C 8,3 °C 85 % 1011,3 hPa 0,0 mm 10,6 km/h (2 Bft) SW 233 ° 0 min 0,000 mm 0,0 UV-I 21 W/m² 5,9 °C 6,5 °C 17,7 km/h (3 Bft)
14.09.2017 17:31 8,3 °C 8,3 °C 85 % 1011,3 hPa 0,0 mm 6,6 km/h (2 Bft) S-SW 197 ° 0 min 0,000 mm 0,0 UV-I 18 W/m² 5,9 °C 7,4 °C 16,1 km/h (3 Bft)
14.09.2017 17:32 8,2 °C 8,3 °C 84 % 1011,2 hPa 0,0 mm 9,1 km/h (2 Bft) W-SW 251 ° 0 min 0,000 mm 0,0 UV-I 18 W/m² 5,7 °C 6,7 °C 17,7 km/h (3 Bft)
14.09.2017 17:33 8,2 °C 8,2 °C 85 % 1011,3 hPa 0,0 mm 20,3 km/h (4 Bft) W 265 ° 0 min 0,000 mm 0,0 UV-I 16 W/m² 5,8 °C 5,1 °C 29,0 km/h (5 Bft)
14.09.2017 17:34 8,2 °C 8,2 °C 85 % 1011,4 hPa 0,0 mm 13,5 km/h (3 Bft) W 265 ° 0 min 0,000 mm 0,0 UV-I 16 W/m² 5,8 °C 5,9 °C 17,7 km/h (3 Bft)
14.09.2017 17:35 8,2 °C 8,2 °C 84 % 1011,5 hPa 0,0 mm 6,5 km/h (2 Bft) W 273 ° 0 min 0,000 mm 0,0 UV-I 16 W/m² 5,7 °C 7,3 °C 11,3 km/h (2 Bft)
14.09.2017 17:36 8,2 °C 8,2 °C 84 % 1011,4 hPa 0,0 mm 11,4 km/h (2 Bft) W-NW 290 ° 0 min 0,000 mm 0,0 UV-I 18 W/m² 5,7 °C 6,2 °C 16,1 km/h (3 Bft)
14.09.2017 17:37 8,2 °C 8,2 °C 84 % 1011,7 hPa 0,0 mm 8,0 km/h (2 Bft) SW 219 ° 0 min 0,000 mm 0,0 UV-I 19 W/m² 5,7 °C 6,9 °C 14,5 km/h (3 Bft)
14.09.2017 17:38 8,2 °C 8,2 °C 84 % 1011,6 hPa 0,0 mm 11,5 km/h (2 Bft) W-SW 240 ° 0 min 0,000 mm 0,0 UV-I 26 W/m² 5,7 °C 6,2 °C 17,7 km/h (3 Bft)
14.09.2017 17:39 8,2 °C 8,2 °C 84 % 1011,6 hPa 0,0 mm 9,6 km/h (2 Bft) W-NW 285 ° 0 min 0,000 mm 0,0 UV-I 32 W/m² 5,7 °C 6,6 °C 19,3 km/h (3 Bft)
14.09.2017 17:40 8,2 °C 8,3 °C 84 % 1011,6 hPa 0,0 mm 11,1 km/h (2 Bft) W 266 ° 0 min 0,000 mm 0,0 UV-I 33 W/m² 5,7 °C 6,3 °C 17,7 km/h (3 Bft)
14.09.2017 17:41 8,3 °C 8,3 °C 84 % 1011,5 hPa 0,0 mm 8,7 km/h (2 Bft) SW 227 ° 0 min 0,000 mm 0,0 UV-I 33 W/m² 5,8 °C 6,9 °C 14,5 km/h (3 Bft)
14.09.2017 17:42 8,2 °C 8,3 °C 83 % 1011,5 hPa 0,0 mm 9,5 km/h (2 Bft) W-SW 252 ° 0 min 0,000 mm 0,0 UV-I 37 W/m² 5,5 °C 6,6 °C 19,3 km/h (3 Bft)
14.09.2017 17:43 8,3 °C 8,3 °C 83 % 1011,5 hPa 0,0 mm 13,6 km/h (3 Bft) SW 215 ° 0 min 0,000 mm 0,0 UV-I 40 W/m² 5,6 °C 6,0 °C 19,3 km/h (3 Bft)
14.09.2017 17:44 8,3 °C 8,3 °C 83 % 1011,4 hPa 0,0 mm 12,9 km/h (3 Bft) W-SW 240 ° 0 min 0,000 mm 0,0 UV-I 42 W/m² 5,6 °C 6,1 °C 25,7 km/h (4 Bft)
14.09.2017 17:45 8,3 °C 8,3 °C 83 % 1011,3 hPa 0,0 mm 11,2 km/h (2 Bft) W-SW 250 ° 0 min 0,000 mm 0,0 UV-I 51 W/m² 5,6 °C 6,4 °C 19,3 km/h (3 Bft)
14.09.2017 17:46 8,3 °C 8,3 °C 83 % 1011,2 hPa 0,0 mm 10,5 km/h (2 Bft) N-NW 327 ° 0 min 0,000 mm 0,0 UV-I 62 W/m² 5,6 °C 6,5 °C 20,9 km/h (4 Bft)
14.09.2017 17:47 8,3 °C 8,3 °C 83 % 1011,2 hPa 0,0 mm 13,5 km/h (3 Bft) W 264 ° 0 min 0,000 mm 0,0 UV-I 72 W/m² 5,6 °C 6,0 °C 24,1 km/h (4 Bft)
14.09.2017 17:48 8,4 °C 8,4 °C 81 % 1011,2 hPa 0,0 mm 11,5 km/h (2 Bft) NW 310 ° 0 min 0,000 mm 0,0 UV-I 76 W/m² 5,3 °C 6,5 °C 17,7 km/h (3 Bft)
14.09.2017 17:49 8,4 °C 8,4 °C 81 % 1011,0 hPa 0,0 mm 12,7 km/h (3 Bft) W-SW 252 ° 0 min 0,000 mm 0,0 UV-I 72 W/m² 5,3 °C 6,3 °C 25,7 km/h (4 Bft)
14.09.2017 17:50 8,5 °C 8,5 °C 80 % 1011,3 hPa 0,0 mm 19,3 km/h (3 Bft) W 271 ° 0 min 0,000 mm 0,0 UV-I 69 W/m² 5,3 °C 5,6 °C 25,7 km/h (4 Bft)
14.09.2017 17:51 8,6 °C 8,6 °C 80 % 1011,3 hPa 0,0 mm 20,5 km/h (4 Bft) W 265 ° 0 min 0,000 mm 0,0 UV-I 63 W/m² 5,3 °C 5,6 °C 40,2 km/h (6 Bft)
14.09.2017 17:52 8,6 °C 8,6 °C 79 % 1011,3 hPa 0,0 mm 17,4 km/h (3 Bft) N-NW 329 ° 0 min 0,000 mm 0,0 UV-I 62 W/m² 5,2 °C 5,9 °C 29,0 km/h (5 Bft)
14.09.2017 17:53 8,7 °C 8,7 °C 79 % 1011,3 hPa 0,0 mm 6,7 km/h (2 Bft) W-SW 247 ° 0 min 0,000 mm 0,0 UV-I 62 W/m² 5,3 °C 7,8 °C 16,1 km/h (3 Bft)
14.09.2017 17:54 8,7 °C 8,7 °C 79 % 1011,3 hPa 0,0 mm 15,0 km/h (3 Bft) W 273 ° 0 min 0,000 mm 0,0 UV-I 58 W/m² 5,3 °C 6,3 °C 24,1 km/h (4 Bft)
14.09.2017 17:55 8,7 °C 8,7 °C 79 % 1011,3 hPa 0,0 mm 14,0 km/h (3 Bft) W-NW 303 ° 0 min 0,000 mm 0,0 UV-I 53 W/m² 5,3 °C 6,4 °C 22,5 km/h (4 Bft)
14.09.2017 17:56 8,7 °C 8,7 °C 79 % 1011,4 hPa 0,0 mm 22,5 km/h (4 Bft) W 269 ° 0 min 0,000 mm 0,0 UV-I 46 W/m² 5,3 °C 5,5 °C 35,4 km/h (5 Bft)
14.09.2017 17:57 8,7 °C 8,7 °C 79 % 1011,4 hPa 0,0 mm 8,3 km/h (2 Bft) W-NW 283 ° 0 min 0,000 mm 0,0 UV-I 39 W/m² 5,3 °C 7,4 °C 17,7 km/h (3 Bft)
14.09.2017 17:59 8,6 °C 8,7 °C 80 % 1011,4 hPa 0,0 mm 11,1 km/h (2 Bft) W 265 ° 0 min 0,000 mm 0,0 UV-I 30 W/m² 5,3 °C 6,8 °C 16,1 km/h (3 Bft)
14.09.2017 18:00 8,6 °C 8,6 °C 81 % 1011,4 hPa 0,0 mm 8,6 km/h (2 Bft) W-SW 244 ° 0 min 0,000 mm 0,0 UV-I 26 W/m² 5,5 °C 7,2 °C 12,9 km/h (3 Bft)
14.09.2017 18:01 8,5 °C 8,6 °C 80 % 1011,5 hPa 0,0 mm 8,3 km/h (2 Bft) W 276 ° 0 min 0,051 mm 0,0 UV-I 25 W/m² 5,3 °C 7,2 °C 12,9 km/h (3 Bft)
14.09.2017 18:02 8,4 °C 8,5 °C 79 % 1011,5 hPa 0,0 mm 11,9 km/h (2 Bft) W-SW 248 ° 0 min 0,000 mm 0,0 UV-I 21 W/m² 5,0 °C 6,4 °C 22,5 km/h (4 Bft)
14.09.2017 18:03 8,5 °C 8,5 °C 80 % 1011,7 hPa 0,0 mm 7,6 km/h (2 Bft) W-NW 284 ° 0 min 0,000 mm 0,0 UV-I 19 W/m² 5,3 °C 7,3 °C 14,5 km/h (3 Bft)
14.09.2017 18:04 8,4 °C 8,5 °C 80 % 1011,7 hPa 0,0 mm 14,6 km/h (3 Bft) W-NW 292 ° 0 min 0,000 mm 0,0 UV-I 19 W/m² 5,2 °C 6,0 °C 29,0 km/h (5 Bft)
14.09.2017 18:05 8,4 °C 8,4 °C 80 % 1011,7 hPa 0,0 mm 8,9 km/h (2 Bft) W-SW 250 ° 0 min 0,000 mm 0,0 UV-I 21 W/m² 5,2 °C 6,9 °C 12,9 km/h (3 Bft)
14.09.2017 18:06 8,5 °C 8,5 °C 79 % 1011,6 hPa 0,0 mm 6,8 km/h (2 Bft) W-NW 300 ° 0 min 0,000 mm 0,0 UV-I 25 W/m² 5,1 °C 7,5 °C 22,5 km/h (4 Bft)
14.09.2017 18:07 8,4 °C 8,5 °C 79 % 1011,7 hPa 0,0 mm 9,4 km/h (2 Bft) W-SW 250 ° 0 min 0,000 mm 0,0 UV-I 28 W/m² 5,0 °C 6,8 °C 20,9 km/h (4 Bft)
14.09.2017 18:08 8,5 °C 8,5 °C 79 % 1011,6 hPa 0,0 mm 3,5 km/h (1 Bft) N 355 ° 0 min 0,000 mm 0,0 UV-I 32 W/m² 5,1 °C 8,5 °C 9,7 km/h (2 Bft)
14.09.2017 18:09 8,5 °C 8,5 °C 79 % 1011,6 hPa 0,0 mm 2,1 km/h (1 Bft) W-SW 250 ° 0 min 0,000 mm 0,0 UV-I 33 W/m² 5,1 °C 8,5 °C 6,4 km/h (2 Bft)
14.09.2017 18:10 8,5 °C 8,5 °C 79 % 1011,7 hPa 0,0 mm 3,1 km/h (1 Bft) SW 225 ° 0 min 0,000 mm 0,0 UV-I 37 W/m² 5,1 °C 8,5 °C 4,8 km/h (1 Bft)
14.09.2017 18:11 8,5 °C 8,6 °C 79 % 1011,6 hPa 0,0 mm 7,2 km/h (2 Bft) W-SW 243 ° 0 min 0,000 mm 0,0 UV-I 42 W/m² 5,1 °C 7,4 °C 14,5 km/h (3 Bft)
14.09.2017 18:12 8,5 °C 8,6 °C 79 % 1011,5 hPa 0,0 mm 4,3 km/h (1 Bft) W 267 ° 0 min 0,000 mm 0,0 UV-I 49 W/m² 5,1 °C 8,5 °C 8,0 km/h (2 Bft)
14.09.2017 18:13 8,5 °C 8,6 °C 79 % 1011,5 hPa 0,0 mm 10,3 km/h (2 Bft) W 261 ° 0 min 0,000 mm 0,0 UV-I 56 W/m² 5,1 °C 6,8 °C 16,1 km/h (3 Bft)
14.09.2017 18:14 8,6 °C 8,6 °C 79 % 1011,5 hPa 0,0 mm 12,4 km/h (3 Bft) W 269 ° 0 min 0,000 mm 0,0 UV-I 56 W/m² 5,2 °C 6,6 °C 14,5 km/h (3 Bft)
14.09.2017 18:15 8,6 °C 8,6 °C 79 % 1011,4 hPa 0,0 mm 8,7 km/h (2 Bft) SW 222 ° 0 min 0,000 mm 0,0 UV-I 53 W/m² 5,2 °C 7,2 °C 16,1 km/h (3 Bft)
14.09.2017 18:16 8,6 °C 8,6 °C 80 % 1011,4 hPa 0,0 mm 10,8 km/h (2 Bft) W-SW 257 ° 0 min 0,000 mm 0,0 UV-I 47 W/m² 5,3 °C 6,8 °C 19,3 km/h (3 Bft)
14.09.2017 18:17 8,6 °C 8,6 °C 79 % 1011,4 hPa 0,0 mm 18,1 km/h (3 Bft) W 275 ° 0 min 0,000 mm 0,0 UV-I 44 W/m² 5,2 °C 5,8 °C 24,1 km/h (4 Bft)
14.09.2017 18:18 8,6 °C 8,6 °C 78 % 1011,4 hPa 0,0 mm 14,0 km/h (3 Bft) W 259 ° 0 min 0,000 mm 0,0 UV-I 44 W/m² 5,0 °C 6,3 °C 22,5 km/h (4 Bft)
14.09.2017 18:19 8,6 °C 8,6 °C 78 % 1011,5 hPa 0,0 mm 14,6 km/h (3 Bft) W 268 ° 0 min 0,000 mm 0,0 UV-I 49 W/m² 5,0 °C 6,2 °C 20,9 km/h (4 Bft)
14.09.2017 18:20 8,6 °C 8,6 °C 79 % 1011,5 hPa 0,0 mm 8,4 km/h (2 Bft) NW 304 ° 0 min 0,000 mm 0,0 UV-I 54 W/m² 5,2 °C 7,3 °C 14,5 km/h (3 Bft)
14.09.2017 18:21 8,6 °C 8,6 °C 79 % 1011,5 hPa 0,0 mm 14,7 km/h (3 Bft) W 259 ° 0 min 0,000 mm 0,0 UV-I 58 W/m² 5,2 °C 6,2 °C 19,3 km/h (3 Bft)
14.09.2017 18:22 8,6 °C 8,7 °C 79 % 1011,5 hPa 0,0 mm 9,4 km/h (2 Bft) W-SW 247 ° 0 min 0,000 mm 0,0 UV-I 63 W/m² 5,2 °C 7,1 °C 14,5 km/h (3 Bft)
14.09.2017 18:23 8,6 °C 8,6 °C 79 % 1011,6 hPa 0,0 mm 10,0 km/h (2 Bft) W-NW 302 ° 0 min 0,000 mm 0,0 UV-I 65 W/m² 5,2 °C 7,0 °C 17,7 km/h (3 Bft)
14.09.2017 18:24 8,6 °C 8,6 °C 79 % 1011,6 hPa 0,0 mm 9,7 km/h (2 Bft) S-SW 201 ° 0 min 0,000 mm 0,0 UV-I 65 W/m² 5,2 °C 7,0 °C 17,7 km/h (3 Bft)
14.09.2017 18:25 8,7 °C 8,7 °C 79 % 1011,6 hPa 0,0 mm 10,1 km/h (2 Bft) W 263 ° 0 min 0,000 mm 0,0 UV-I 60 W/m² 5,3 °C 7,1 °C 19,3 km/h (3 Bft)
14.09.2017 18:26 8,7 °C 8,7 °C 80 % 1011,7 hPa 0,0 mm 13,0 km/h (3 Bft) W-SW 257 ° 0 min 0,000 mm 0,0 UV-I 65 W/m² 5,4 °C 6,6 °C 19,3 km/h (3 Bft)
14.09.2017 18:27 8,7 °C 8,7 °C 79 % 1011,6 hPa 0,0 mm 7,0 km/h (2 Bft) W-SW 257 ° 0 min 0,000 mm 0,0 UV-I 72 W/m² 5,3 °C 7,7 °C 12,9 km/h (3 Bft)
14.09.2017 18:28 8,7 °C 8,7 °C 79 % 1011,8 hPa 0,0 mm 15,2 km/h (3 Bft) W-SW 246 ° 0 min 0,000 mm 0,0 UV-I 76 W/m² 5,3 °C 6,3 °C 27,4 km/h (4 Bft)
14.09.2017 18:29 8,7 °C 8,7 °C 80 % 1011,8 hPa 0,0 mm 14,0 km/h (3 Bft) W 265 ° 0 min 0,000 mm 0,0 UV-I 70 W/m² 5,4 °C 6,4 °C 19,3 km/h (3 Bft)
14.09.2017 18:30 8,8 °C 8,8 °C 80 % 1011,8 hPa 0,0 mm 11,6 km/h (2 Bft) W 271 ° 0 min 0,000 mm 0,0 UV-I 65 W/m² 5,5 °C 6,9 °C 16,1 km/h (3 Bft)
14.09.2017 18:31 8,8 °C 8,8 °C 79 % 1011,7 hPa 0,0 mm 18,2 km/h (3 Bft) SW 229 ° 0 min 0,000 mm 0,0 UV-I 60 W/m² 5,4 °C 6,1 °C 32,2 km/h (5 Bft)
14.09.2017 18:32 8,9 °C 8,9 °C 79 % 1011,6 hPa 0,0 mm 13,1 km/h (3 Bft) W-SW 246 ° 0 min 0,000 mm 0,0 UV-I 56 W/m² 5,5 °C 6,8 °C 22,5 km/h (4 Bft)
14.09.2017 18:33 8,9 °C 8,9 °C 79 % 1011,8 hPa 0,0 mm 6,7 km/h (2 Bft) S-SW 207 ° 0 min 0,000 mm 0,0 UV-I 54 W/m² 5,5 °C 8,0 °C 14,5 km/h (3 Bft)
14.09.2017 18:34 8,9 °C 8,9 °C 79 % 1011,8 hPa 0,0 mm 8,9 km/h (2 Bft) W-NW 291 ° 0 min 0,000 mm 0,0 UV-I 53 W/m² 5,5 °C 7,5 °C 16,1 km/h (3 Bft)
14.09.2017 18:35 8,9 °C 8,9 °C 79 % 1011,9 hPa 0,0 mm 10,6 km/h (2 Bft) W-NW 292 ° 0 min 0,000 mm 0,0 UV-I 54 W/m² 5,5 °C 7,2 °C 17,7 km/h (3 Bft)
14.09.2017 18:36 9,0 °C 9,0 °C 78 % 1011,8 hPa 0,0 mm 10,3 km/h (2 Bft) W 267 ° 0 min 0,000 mm 0,0 UV-I 56 W/m² 5,4 °C 7,4 °C 19,3 km/h (3 Bft)
14.09.2017 18:37 9,0 °C 9,0 °C 78 % 1011,9 hPa 0,0 mm 14,9 km/h (3 Bft) W 264 ° 0 min 0,000 mm 0,0 UV-I 60 W/m² 5,4 °C 6,7 °C 19,3 km/h (3 Bft)
14.09.2017 18:38 9,1 °C 9,1 °C 78 % 1011,6 hPa 0,0 mm 12,3 km/h (3 Bft) W-NW 283 ° 0 min 0,000 mm 0,0 UV-I 67 W/m² 5,5 °C 7,2 °C 22,5 km/h (4 Bft)
14.09.2017 18:39 9,1 °C 9,1 °C 77 % 1011,6 hPa 0,0 mm 16,6 km/h (3 Bft) W-SW 245 ° 0 min 0,000 mm 0,0 UV-I 69 W/m² 5,3 °C 6,6 °C 22,5 km/h (4 Bft)
14.09.2017 18:40 9,2 °C 9,2 °C 77 % 1011,6 hPa 0,0 mm 25,5 km/h (4 Bft) W-SW 257 ° 0 min 0,000 mm 0,0 UV-I 69 W/m² 5,4 °C 5,9 °C 33,8 km/h (5 Bft)
14.09.2017 18:41 9,2 °C 9,2 °C 78 % 1011,6 hPa 0,0 mm 16,1 km/h (3 Bft) W-SW 250 ° 0 min 0,000 mm 0,0 UV-I 67 W/m² 5,6 °C 6,8 °C 24,1 km/h (4 Bft)
14.09.2017 18:42 9,2 °C 9,2 °C 76 % 1011,6 hPa 0,0 mm 18,0 km/h (3 Bft) W 268 ° 0 min 0,000 mm 0,0 UV-I 62 W/m² 5,2 °C 6,6 °C 27,4 km/h (4 Bft)
14.09.2017 18:43 9,3 °C 9,3 °C 76 % 1011,4 hPa 0,0 mm 18,4 km/h (3 Bft) W-NW 284 ° 0 min 0,000 mm 0,0 UV-I 62 W/m² 5,3 °C 6,7 °C 27,4 km/h (4 Bft)
14.09.2017 18:44 9,3 °C 9,3 °C 76 % 1011,5 hPa 0,0 mm 13,5 km/h (3 Bft) SW 236 ° 0 min 0,000 mm 0,0 UV-I 58 W/m² 5,3 °C 7,2 °C 20,9 km/h (4 Bft)
14.09.2017 18:45 9,3 °C 9,3 °C 76 % 1011,5 hPa 0,0 mm 8,8 km/h (2 Bft) W 271 ° 0 min 0,000 mm 0,0 UV-I 58 W/m² 5,3 °C 8,0 °C 16,1 km/h (3 Bft)
14.09.2017 18:46 9,3 °C 9,3 °C 76 % 1011,6 hPa 0,0 mm 10,5 km/h (2 Bft) W-SW 254 ° 0 min 0,000 mm 0,0 UV-I 60 W/m² 5,3 °C 7,7 °C 22,5 km/h (4 Bft)
14.09.2017 18:47 9,3 °C 9,3 °C 75 % 1011,4 hPa 0,0 mm 13,9 km/h (3 Bft) W-NW 297 ° 0 min 0,000 mm 0,0 UV-I 63 W/m² 5,1 °C 7,2 °C 19,3 km/h (3 Bft)
14.09.2017 18:48 9,3 °C 9,3 °C 75 % 1011,5 hPa 0,0 mm 16,0 km/h (3 Bft) W-SW 256 ° 0 min 0,000 mm 0,0 UV-I 60 W/m² 5,1 °C 6,9 °C 22,5 km/h (4 Bft)
14.09.2017 18:49 9,3 °C 9,3 °C 75 % 1011,5 hPa 0,0 mm 15,8 km/h (3 Bft) W-SW 252 ° 0 min 0,000 mm 0,0 UV-I 60 W/m² 5,1 °C 7,0 °C 22,5 km/h (4 Bft)
14.09.2017 18:50 9,3 °C 9,3 °C 75 % 1011,4 hPa 0,0 mm 10,9 km/h (2 Bft) W-NW 289 ° 0 min 0,000 mm 0,0 UV-I 39 W/m² 5,1 °C 7,6 °C 19,3 km/h (3 Bft)
14.09.2017 18:51 9,3 °C 9,3 °C 75 % 1011,4 hPa 0,0 mm 13,0 km/h (3 Bft) W 267 ° 0 min 0,000 mm 0,0 UV-I 30 W/m² 5,1 °C 7,3 °C 32,2 km/h (5 Bft)
14.09.2017 18:52 9,3 °C 9,3 °C 73 % 1011,4 hPa 0,0 mm 17,8 km/h (3 Bft) W 269 ° 0 min 0,000 mm 0,0 UV-I 28 W/m² 4,7 °C 6,7 °C 41,8 km/h (6 Bft)
14.09.2017 18:53 9,3 °C 9,3 °C 73 % 1011,5 hPa 0,0 mm 11,7 km/h (2 Bft) W-SW 254 ° 0 min 0,000 mm 0,0 UV-I 21 W/m² 4,7 °C 7,5 °C 22,5 km/h (4 Bft)
14.09.2017 18:54 9,4 °C 9,4 °C 73 % 1011,4 hPa 0,0 mm 16,3 km/h (3 Bft) W-SW 241 ° 0 min 0,000 mm 0,0 UV-I 21 W/m² 4,8 °C 7,0 °C 20,9 km/h (4 Bft)
14.09.2017 18:55 9,3 °C 9,4 °C 74 % 1011,4 hPa 0,0 mm 9,4 km/h (2 Bft) W-NW 295 ° 0 min 0,000 mm 0,0 UV-I 19 W/m² 4,9 °C 7,9 °C 16,1 km/h (3 Bft)
14.09.2017 18:56 9,2 °C 9,3 °C 73 % 1011,5 hPa 0,0 mm 11,9 km/h (2 Bft) W 261 ° 0 min 0,000 mm 0,0 UV-I 19 W/m² 4,6 °C 7,4 °C 22,5 km/h (4 Bft)
14.09.2017 18:57 9,2 °C 9,2 °C 73 % 1011,4 hPa 0,0 mm 11,9 km/h (2 Bft) NW 305 ° 0 min 0,000 mm 0,0 UV-I 25 W/m² 4,6 °C 7,4 °C 17,7 km/h (3 Bft)
14.09.2017 18:59 9,1 °C 9,2 °C 73 % 1011,4 hPa 0,0 mm 9,4 km/h (2 Bft) W 272 ° 0 min 0,000 mm 0,0 UV-I 21 W/m² 4,5 °C 7,7 °C 22,5 km/h (4 Bft)
14.09.2017 19:00 9,1 °C 9,2 °C 72 % 1011,4 hPa 0,0 mm 16,5 km/h (3 Bft) W-SW 248 ° 0 min 0,000 mm 0,0 UV-I 21 W/m² 4,3 °C 6,6 °C 27,4 km/h (4 Bft)
14.09.2017 19:01 9,2 °C 9,2 °C 72 % 1011,4 hPa 0,0 mm 11,7 km/h (2 Bft) W 281 ° 0 min 0,051 mm 0,0 UV-I 19 W/m² 4,4 °C 7,4 °C 19,3 km/h (3 Bft)
14.09.2017 19:02 9,1 °C 9,2 °C 73 % 1011,6 hPa 0,0 mm 14,8 km/h (3 Bft) W 264 ° 0 min 0,000 mm 0,0 UV-I 18 W/m² 4,5 °C 6,8 °C 20,9 km/h (4 Bft)
14.09.2017 19:03 9,1 °C 9,1 °C 74 % 1011,6 hPa 0,0 mm 10,7 km/h (2 Bft) W 269 ° 0 min 0,000 mm 0,0 UV-I 16 W/m² 4,7 °C 7,4 °C 17,7 km/h (3 Bft)
14.09.2017 19:04 9,0 °C 9,1 °C 74 % 1011,6 hPa 0,0 mm 11,1 km/h (2 Bft) W 260 ° 0 min 0,000 mm 0,0 UV-I 16 W/m² 4,6 °C 7,2 °C 17,7 km/h (3 Bft)
14.09.2017 19:05 9,0 °C 9,0 °C 72 % 1011,7 hPa 0,0 mm 6,9 km/h (2 Bft) S-SW 207 ° 0 min 0,000 mm 0,0 UV-I 18 W/m² 4,2 °C 8,1 °C 12,9 km/h (3 Bft)
14.09.2017 19:06 9,0 °C 9,0 °C 73 % 1011,7 hPa 0,0 mm 7,0 km/h (2 Bft) W-NW 288 ° 0 min 0,000 mm 0,0 UV-I 16 W/m² 4,4 °C 8,1 °C 24,1 km/h (4 Bft)
14.09.2017 19:07 9,0 °C 9,0 °C 72 % 1011,7 hPa 0,0 mm 24,0 km/h (4 Bft) W-NW 288 ° 0 min 0,000 mm 0,0 UV-I 14 W/m² 4,2 °C 5,7 °C 33,8 km/h (5 Bft)
14.09.2017 19:08 9,1 °C 9,1 °C 73 % 1011,7 hPa 0,0 mm 10,6 km/h (2 Bft) W-SW 257 ° 0 min 0,000 mm 0,0 UV-I 14 W/m² 4,5 °C 7,5 °C 16,1 km/h (3 Bft)
14.09.2017 19:09 9,1 °C 9,1 °C 73 % 1011,7 hPa 0,0 mm 10,0 km/h (2 Bft) W 281 ° 0 min 0,000 mm 0,0 UV-I 14 W/m² 4,5 °C 7,6 °C 19,3 km/h (3 Bft)
14.09.2017 19:10 9,1 °C 9,1 °C 73 % 1011,7 hPa 0,0 mm 9,4 km/h (2 Bft) SW 227 ° 0 min 0,000 mm 0,0 UV-I 12 W/m² 4,5 °C 7,7 °C 14,5 km/h (3 Bft)
14.09.2017 19:11 9,1 °C 9,1 °C 73 % 1011,7 hPa 0,0 mm 11,5 km/h (2 Bft) W-NW 282 ° 0 min 0,000 mm 0,0 UV-I 12 W/m² 4,5 °C 7,3 °C 20,9 km/h (4 Bft)
14.09.2017 19:12 9,0 °C 9,1 °C 73 % 1011,9 hPa 0,0 mm 11,6 km/h (2 Bft) W 277 ° 0 min 0,000 mm 0,0 UV-I 11 W/m² 4,4 °C 7,2 °C 20,9 km/h (4 Bft)
14.09.2017 19:13 9,0 °C 9,0 °C 73 % 1011,9 hPa 0,0 mm 21,1 km/h (4 Bft) NW 310 ° 0 min 0,000 mm 0,0 UV-I 9 W/m² 4,4 °C 6,0 °C 35,4 km/h (5 Bft)
14.09.2017 19:14 9,0 °C 9,0 °C 73 % 1011,9 hPa 0,0 mm 15,9 km/h (3 Bft) W-NW 296 ° 0 min 0,000 mm 0,0 UV-I 9 W/m² 4,4 °C 6,6 °C 25,7 km/h (4 Bft)
14.09.2017 19:15 9,0 °C 9,0 °C 73 % 1012,0 hPa 0,0 mm 13,1 km/h (3 Bft) W-SW 248 ° 0 min 0,000 mm 0,0 UV-I 9 W/m² 4,4 °C 6,9 °C 17,7 km/h (3 Bft)
14.09.2017 19:16 9,0 °C 9,0 °C 73 % 1012,1 hPa 0,0 mm 13,9 km/h (3 Bft) S-SO 150 ° 0 min 0,000 mm 0,0 UV-I 9 W/m² 4,4 °C 6,8 °C 27,4 km/h (4 Bft)
14.09.2017 19:17 9,0 °C 9,0 °C 73 % 1011,9 hPa 0,0 mm 16,6 km/h (3 Bft) W 261 ° 0 min 0,000 mm 0,0 UV-I 7 W/m² 4,4 °C 6,5 °C 24,1 km/h (4 Bft)
14.09.2017 19:18 9,0 °C 9,0 °C 73 % 1012,1 hPa 0,0 mm 17,0 km/h (3 Bft) W-SW 258 ° 0 min 0,000 mm 0,0 UV-I 7 W/m² 4,4 °C 6,4 °C 22,5 km/h (4 Bft)
14.09.2017 19:19 9,0 °C 9,0 °C 73 % 1012,1 hPa 0,0 mm 16,1 km/h (3 Bft) W-SW 254 ° 0 min 0,000 mm 0,0 UV-I 7 W/m² 4,4 °C 6,5 °C 22,5 km/h (4 Bft)
14.09.2017 19:20 9,0 °C 9,0 °C 73 % 1012,1 hPa 0,0 mm 6,8 km/h (2 Bft) W-SW 250 ° 0 min 0,000 mm 0,0 UV-I 7 W/m² 4,4 °C 8,1 °C 14,5 km/h (3 Bft)
14.09.2017 19:21 9,0 °C 9,0 °C 72 % 1012,3 hPa 0,0 mm 15,5 km/h (3 Bft) W-SW 252 ° 0 min 0,000 mm 0,0 UV-I 7 W/m² 4,2 °C 6,6 °C 22,5 km/h (4 Bft)
14.09.2017 19:22 8,9 °C 9,0 °C 73 % 1012,4 hPa 0,0 mm 11,2 km/h (2 Bft) W-NW 297 ° 0 min 0,000 mm 0,0 UV-I 7 W/m² 4,3 °C 7,1 °C 14,5 km/h (3 Bft)
14.09.2017 19:24 8,9 °C 8,9 °C 74 % 1012,3 hPa 0,0 mm 12,1 km/h (2 Bft) W 264 ° 0 min 0,000 mm 0,0 UV-I 5 W/m² 4,5 °C 7,0 °C 17,7 km/h (3 Bft)
14.09.2017 19:25 8,7 °C 8,9 °C 74 % 1012,3 hPa 0,0 mm 8,5 km/h (2 Bft) W 278 ° 0 min 0,000 mm 0,0 UV-I 5 W/m² 4,3 °C 7,4 °C 14,5 km/h (3 Bft)
14.09.2017 19:26 8,7 °C 8,7 °C 74 % 1012,4 hPa 0,0 mm 5,6 km/h (1 Bft) W-NW 288 ° 0 min 0,000 mm 0,0 UV-I 5 W/m² 4,3 °C 8,1 °C 9,7 km/h (2 Bft)
14.09.2017 19:27 8,6 °C 8,7 °C 74 % 1012,4 hPa 0,0 mm 7,4 km/h (2 Bft) W 265 ° 0 min 0,000 mm 0,0 UV-I 5 W/m² 4,2 °C 7,5 °C 11,3 km/h (2 Bft)
14.09.2017 19:29 8,4 °C 8,6 °C 76 % 1012,3 hPa 0,0 mm 9,1 km/h (2 Bft) W-SW 252 ° 0 min 0,000 mm 0,0 UV-I 5 W/m² 4,4 °C 6,9 °C 20,9 km/h (4 Bft)
14.09.2017 19:30 8,3 °C 8,4 °C 75 % 1012,3 hPa 0,0 mm 5,6 km/h (1 Bft) W 277 ° 0 min 0,000 mm 0,0 UV-I 0 W/m² 4,1 °C 7,6 °C 11,3 km/h (2 Bft)
14.09.2017 19:31 8,3 °C 8,3 °C 75 % 1012,4 hPa 0,0 mm 13,3 km/h (3 Bft) W 278 ° 0 min 0,000 mm 0,0 UV-I 0 W/m² 4,1 °C 6,1 °C 24,1 km/h (4 Bft)
14.09.2017 19:32 8,3 °C 8,3 °C 76 % 1012,5 hPa 0,0 mm 11,1 km/h (2 Bft) W 277 ° 0 min 0,000 mm 0,0 UV-I 0 W/m² 4,3 °C 6,4 °C 16,1 km/h (3 Bft)
14.09.2017 19:33 8,3 °C 8,3 °C 76 % 1012,5 hPa 0,0 mm 14,7 km/h (3 Bft) W-NW 303 ° 0 min 0,000 mm 0,0 UV-I 0 W/m² 4,3 °C 5,9 °C 20,9 km/h (4 Bft)
14.09.2017 19:34 8,2 °C 8,3 °C 76 % 1012,5 hPa 0,0 mm 6,0 km/h (2 Bft) W 281 ° 0 min 0,000 mm 0,0 UV-I 0 W/m² 4,2 °C 7,4 °C 14,5 km/h (3 Bft)
14.09.2017 19:35 8,2 °C 8,3 °C 76 % 1012,5 hPa 0,0 mm 12,1 km/h (2 Bft) W 259 ° 0 min 0,000 mm 0,0 UV-I 0 W/m² 4,2 °C 6,1 °C 20,9 km/h (4 Bft)
14.09.2017 19:36 8,3 °C 8,3 °C 75 % 1012,6 hPa 0,0 mm 11,5 km/h (2 Bft) W-NW 284 ° 0 min 0,000 mm 0,0 UV-I 0 W/m² 4,1 °C 6,3 °C 20,9 km/h (4 Bft)
14.09.2017 19:37 8,3 °C 8,3 °C 76 % 1012,5 hPa 0,0 mm 15,5 km/h (3 Bft) W 271 ° 0 min 0,000 mm 0,0 UV-I 0 W/m² 4,3 °C 5,8 °C 20,9 km/h (4 Bft)
14.09.2017 19:38 8,3 °C 8,3 °C 76 % 1012,6 hPa 0,0 mm 16,0 km/h (3 Bft) W 272 ° 0 min 0,000 mm 0,0 UV-I 0 W/m² 4,3 °C 5,7 °C 25,7 km/h (4 Bft)
14.09.2017 19:39 8,3 °C 8,3 °C 75 % 1012,6 hPa 0,0 mm 9,6 km/h (2 Bft) W 265 ° 0 min 0,000 mm 0,0 UV-I 0 W/m² 4,1 °C 6,7 °C 12,9 km/h (3 Bft)
14.09.2017 19:40 8,3 °C 8,3 °C 75 % 1012,7 hPa 0,0 mm 9,5 km/h (2 Bft) W-SW 253 ° 0 min 0,000 mm 0,0 UV-I 0 W/m² 4,1 °C 6,7 °C 20,9 km/h (4 Bft)
14.09.2017 19:41 8,4 °C 8,4 °C 75 % 1012,7 hPa 0,0 mm 12,2 km/h (2 Bft) SW 231 ° 0 min 0,000 mm 0,0 UV-I 0 W/m² 4,2 °C 6,3 °C 19,3 km/h (3 Bft)
14.09.2017 19:42 8,3 °C 8,4 °C 75 % 1012,6 hPa 0,0 mm 13,7 km/h (3 Bft) SW 223 ° 0 min 0,000 mm 0,0 UV-I 0 W/m² 4,1 °C 6,0 °C 29,0 km/h (5 Bft)
14.09.2017 19:43 8,3 °C 8,3 °C 75 % 1012,7 hPa 0,0 mm 18,8 km/h (3 Bft) W-SW 255 ° 0 min 0,000 mm 0,0 UV-I 0 W/m² 4,1 °C 5,4 °C 27,4 km/h (4 Bft)
14.09.2017 19:44 8,3 °C 8,3 °C 75 % 1012,8 hPa 0,0 mm 10,6 km/h (2 Bft) W-NW 298 ° 0 min 0,000 mm 0,0 UV-I 0 W/m² 4,1 °C 6,5 °C 17,7 km/h (3 Bft)
14.09.2017 19:45 8,4 °C 8,4 °C 75 % 1012,8 hPa 0,0 mm 10,7 km/h (2 Bft) W-NW 296 ° 0 min 0,000 mm 0,0 UV-I 0 W/m² 4,2 °C 6,6 °C 16,1 km/h (3 Bft)
14.09.2017 19:46 8,4 °C 8,4 °C 75 % 1012,8 hPa 0,0 mm 14,6 km/h (3 Bft) W-NW 302 ° 0 min 0,000 mm 0,0 UV-I 0 W/m² 4,2 °C 6,0 °C 22,5 km/h (4 Bft)
14.09.2017 19:47 8,4 °C 8,4 °C 75 % 1012,9 hPa 0,0 mm 16,3 km/h (3 Bft) W-SW 250 ° 0 min 0,000 mm 0,0 UV-I 0 W/m² 4,2 °C 5,8 °C 30,6 km/h (5 Bft)
14.09.2017 19:48 8,4 °C 8,4 °C 74 % 1012,9 hPa 0,0 mm 12,4 km/h (3 Bft) W 259 ° 0 min 0,000 mm 0,0 UV-I 0 W/m² 4,0 °C 6,3 °C 20,9 km/h (4 Bft)
14.09.2017 19:49 8,3 °C 8,4 °C 75 % 1012,9 hPa 0,0 mm 5,9 km/h (2 Bft) W-NW 286 ° 0 min 0,000 mm 0,0 UV-I 0 W/m² 4,1 °C 7,5 °C 9,7 km/h (2 Bft)
14.09.2017 19:50 8,3 °C 8,3 °C 75 % 1012,9 hPa 0,0 mm 11,7 km/h (2 Bft) W 261 ° 0 min 0,000 mm 0,0 UV-I 0 W/m² 4,1 °C 6,3 °C 22,5 km/h (4 Bft)
14.09.2017 19:51 8,4 °C 8,4 °C 74 % 1012,9 hPa 0,0 mm 12,3 km/h (3 Bft) W-SW 258 ° 0 min 0,000 mm 0,0 UV-I 0 W/m² 4,0 °C 6,3 °C 17,7 km/h (3 Bft)
14.09.2017 19:52 8,4 °C 8,4 °C 74 % 1013,0 hPa 0,0 mm 11,6 km/h (2 Bft) W 263 ° 0 min 0,000 mm 0,0 UV-I 0 W/m² 4,0 °C 6,4 °C 16,1 km/h (3 Bft)
14.09.2017 19:53 8,4 °C 8,4 °C 74 % 1013,0 hPa 0,0 mm 18,2 km/h (3 Bft) W-NW 284 ° 0 min 0,000 mm 0,0 UV-I 0 W/m² 4,0 °C 5,6 °C 27,4 km/h (4 Bft)
14.09.2017 19:54 8,5 °C 8,5 °C 74 % 1013,1 hPa 0,0 mm 13,9 km/h (3 Bft) W 279 ° 0 min 0,000 mm 0,0 UV-I 0 W/m² 4,1 °C 6,2 °C 20,9 km/h (4 Bft)
14.09.2017 19:55 8,5 °C 8,6 °C 74 % 1013,1 hPa 0,0 mm 14,5 km/h (3 Bft) W 270 ° 0 min 0,000 mm 0,0 UV-I 0 W/m² 4,1 °C 6,1 °C 19,3 km/h (3 Bft)
14.09.2017 19:56 8,6 °C 8,6 °C 74 % 1013,1 hPa 0,0 mm 3,8 km/h (1 Bft) W 267 ° 0 min 0,000 mm 0,0 UV-I 0 W/m² 4,2 °C 8,6 °C 6,4 km/h (2 Bft)
14.09.2017 19:57 8,6 °C 8,6 °C 74 % 1013,1 hPa 0,0 mm 6,4 km/h (2 Bft) W 276 ° 0 min 0,000 mm 0,0 UV-I 0 W/m² 4,2 °C 7,8 °C 12,9 km/h (3 Bft)
14.09.2017 19:59 8,5 °C 8,6 °C 75 % 1013,3 hPa 0,0 mm 13,1 km/h (3 Bft) W-SW 256 ° 0 min 0,000 mm 0,0 UV-I 0 W/m² 4,3 °C 6,3 °C 20,9 km/h (4 Bft)
14.09.2017 20:00 8,5 °C 8,5 °C 75 % 1013,3 hPa 0,0 mm 6,9 km/h (2 Bft) W 267 ° 0 min 0,000 mm 0,0 UV-I 0 W/m² 4,3 °C 7,5 °C 12,9 km/h (3 Bft)
14.09.2017 20:01 8,5 °C 8,5 °C 75 % 1013,3 hPa 0,0 mm 9,6 km/h (2 Bft) W-NW 284 ° 0 min 0,025 mm 0,0 UV-I 0 W/m² 4,3 °C 6,9 °C 16,1 km/h (3 Bft)
14.09.2017 20:02 8,5 °C 8,5 °C 75 % 1013,3 hPa 0,0 mm 6,8 km/h (2 Bft) W-SW 257 ° 0 min 0,000 mm 0,0 UV-I 0 W/m² 4,3 °C 7,5 °C 8,0 km/h (2 Bft)
14.09.2017 20:03 8,6 °C 8,6 °C 75 % 1013,4 hPa 0,0 mm 9,5 km/h (2 Bft) W 281 ° 0 min 0,000 mm 0,0 UV-I 0 W/m² 4,4 °C 7,1 °C 17,7 km/h (3 Bft)
14.09.2017 20:04 8,6 °C 8,6 °C 74 % 1013,4 hPa 0,0 mm 13,6 km/h (3 Bft) W 267 ° 0 min 0,000 mm 0,0 UV-I 0 W/m² 4,2 °C 6,4 °C 20,9 km/h (4 Bft)
14.09.2017 20:05 8,6 °C 8,6 °C 75 % 1013,4 hPa 0,0 mm 11,0 km/h (2 Bft) W 272 ° 0 min 0,000 mm 0,0 UV-I 0 W/m² 4,4 °C 6,8 °C 17,7 km/h (3 Bft)
14.09.2017 20:06 8,6 °C 8,6 °C 75 % 1013,5 hPa 0,0 mm 9,7 km/h (2 Bft) W-SW 240 ° 0 min 0,000 mm 0,0 UV-I 0 W/m² 4,4 °C 7,0 °C 17,7 km/h (3 Bft)
14.09.2017 20:07 8,6 °C 8,6 °C 75 % 1013,5 hPa 0,0 mm 6,3 km/h (2 Bft) W-NW 282 ° 0 min 0,000 mm 0,0 UV-I 0 W/m² 4,4 °C 7,8 °C 12,9 km/h (3 Bft)
14.09.2017 20:08 8,7 °C 8,7 °C 74 % 1013,6 hPa 0,0 mm 7,6 km/h (2 Bft) W-SW 251 ° 0 min 0,000 mm 0,0 UV-I 0 W/m² 4,3 °C 7,6 °C 14,5 km/h (3 Bft)
14.09.2017 20:09 8,7 °C 8,7 °C 74 % 1013,6 hPa 0,0 mm 7,0 km/h (2 Bft) W 272 ° 0 min 0,000 mm 0,0 UV-I 0 W/m² 4,3 °C 7,7 °C 14,5 km/h (3 Bft)
14.09.2017 20:10 8,7 °C 8,7 °C 75 % 1013,6 hPa 0,0 mm 10,2 km/h (2 Bft) W-NW 289 ° 0 min 0,000 mm 0,0 UV-I 0 W/m² 4,5 °C 7,0 °C 14,5 km/h (3 Bft)
14.09.2017 20:11 8,7 °C 8,8 °C 74 % 1013,6 hPa 0,0 mm 16,4 km/h (3 Bft) W-NW 287 ° 0 min 0,000 mm 0,0 UV-I 0 W/m² 4,3 °C 6,1 °C 20,9 km/h (4 Bft)
14.09.2017 20:12 8,8 °C 8,8 °C 74 % 1013,7 hPa 0,0 mm 14,8 km/h (3 Bft) SW 226 ° 0 min 0,000 mm 0,0 UV-I 0 W/m² 4,4 °C 6,5 °C 17,7 km/h (3 Bft)
14.09.2017 20:13 8,8 °C 8,8 °C 74 % 1013,7 hPa 0,0 mm 9,8 km/h (2 Bft) W 269 ° 0 min 0,000 mm 0,0 UV-I 0 W/m² 4,4 °C 7,2 °C 12,9 km/h (3 Bft)
14.09.2017 20:14 8,9 °C 8,9 °C 74 % 1013,7 hPa 0,0 mm 9,6 km/h (2 Bft) W 263 ° 0 min 0,000 mm 0,0 UV-I 0 W/m² 4,5 °C 7,4 °C 14,5 km/h (3 Bft)
14.09.2017 20:15 8,9 °C 8,9 °C 75 % 1013,6 hPa 0,0 mm 8,0 km/h (2 Bft) W-NW 292 ° 0 min 0,000 mm 0,0 UV-I 0 W/m² 4,7 °C 7,7 °C 14,5 km/h (3 Bft)
14.09.2017 20:16 8,9 °C 8,9 °C 74 % 1013,7 hPa 0,0 mm 7,2 km/h (2 Bft) W 270 ° 0 min 0,000 mm 0,0 UV-I 0 W/m² 4,5 °C 7,9 °C 11,3 km/h (2 Bft)
14.09.2017 20:17 8,9 °C 8,9 °C 74 % 1013,7 hPa 0,0 mm 14,0 km/h (3 Bft) NW 307 ° 0 min 0,000 mm 0,0 UV-I 0 W/m² 4,5 °C 6,7 °C 22,5 km/h (4 Bft)
14.09.2017 20:19 8,9 °C 8,9 °C 74 % 1013,9 hPa 0,0 mm 12,5 km/h (3 Bft) W-NW 298 ° 0 min 0,000 mm 0,0 UV-I 0 W/m² 4,5 °C 6,9 °C 20,9 km/h (4 Bft)
14.09.2017 20:20 8,9 °C 8,9 °C 74 % 1013,9 hPa 0,0 mm 17,4 km/h (3 Bft) W 275 ° 0 min 0,000 mm 0,0 UV-I 0 W/m² 4,5 °C 6,3 °C 29,0 km/h (5 Bft)
14.09.2017 20:21 8,9 °C 8,9 °C 75 % 1014,0 hPa 0,0 mm 17,2 km/h (3 Bft) W 269 ° 0 min 0,000 mm 0,0 UV-I 0 W/m² 4,7 °C 6,3 °C 24,1 km/h (4 Bft)
14.09.2017 20:22 8,9 °C 8,9 °C 76 % 1013,8 hPa 0,0 mm 16,9 km/h (3 Bft) W 269 ° 0 min 0,000 mm 0,0 UV-I 0 W/m² 4,9 °C 6,3 °C 29,0 km/h (5 Bft)
14.09.2017 20:23 8,8 °C 8,9 °C 76 % 1013,9 hPa 0,0 mm 16,4 km/h (3 Bft) S 174 ° 0 min 0,000 mm 0,0 UV-I 0 W/m² 4,8 °C 6,3 °C 22,5 km/h (4 Bft)
14.09.2017 20:24 8,8 °C 8,8 °C 77 % 1013,9 hPa 0,0 mm 11,5 km/h (2 Bft) NW 306 ° 0 min 0,000 mm 0,0 UV-I 0 W/m² 5,0 °C 6,9 °C 19,3 km/h (3 Bft)
14.09.2017 20:25 8,7 °C 8,8 °C 77 % 1013,9 hPa 0,0 mm 15,4 km/h (3 Bft) W-NW 288 ° 0 min 0,000 mm 0,0 UV-I 0 W/m² 4,9 °C 6,3 °C 20,9 km/h (4 Bft)
14.09.2017 20:26 8,6 °C 8,7 °C 77 % 1013,9 hPa 0,0 mm 13,9 km/h (3 Bft) W-SW 258 ° 0 min 0,000 mm 0,0 UV-I 0 W/m² 4,8 °C 6,3 °C 20,9 km/h (4 Bft)
14.09.2017 20:27 8,6 °C 8,7 °C 78 % 1013,7 hPa 0,0 mm 18,2 km/h (3 Bft) W-NW 290 ° 0 min 0,000 mm 0,0 UV-I 0 W/m² 5,0 °C 5,8 °C 20,9 km/h (4 Bft)
14.09.2017 20:28 8,6 °C 8,6 °C 78 % 1013,9 hPa 0,0 mm 13,8 km/h (3 Bft) W-NW 301 ° 0 min 0,000 mm 0,0 UV-I 0 W/m² 5,0 °C 6,4 °C 20,9 km/h (4 Bft)
14.09.2017 20:29 8,4 °C 8,6 °C 78 % 1013,7 hPa 0,0 mm 9,0 km/h (2 Bft) W-SW 253 ° 0 min 0,000 mm 0,0 UV-I 0 W/m² 4,8 °C 6,9 °C 17,7 km/h (3 Bft)
14.09.2017 20:30 8,4 °C 8,4 °C 78 % 1013,7 hPa 0,0 mm 6,2 km/h (2 Bft) SW 227 ° 0 min 0,000 mm 0,0 UV-I 0 W/m² 4,8 °C 7,6 °C 14,5 km/h (3 Bft)
14.09.2017 20:31 8,3 °C 8,4 °C 78 % 1013,8 hPa 0,0 mm 15,2 km/h (3 Bft) W 268 ° 0 min 0,000 mm 0,0 UV-I 0 W/m² 4,7 °C 5,8 °C 24,1 km/h (4 Bft)
14.09.2017 20:32 8,3 °C 8,3 °C 78 % 1014,0 hPa 0,0 mm 17,4 km/h (3 Bft) SW 219 ° 0 min 0,000 mm 0,0 UV-I 0 W/m² 4,7 °C 5,5 °C 30,6 km/h (5 Bft)
14.09.2017 20:34 8,2 °C 8,3 °C 78 % 1013,8 hPa 0,0 mm 15,9 km/h (3 Bft) W 275 ° 0 min 0,000 mm 0,0 UV-I 0 W/m² 4,6 °C 5,6 °C 40,2 km/h (6 Bft)
14.09.2017 20:35 8,2 °C 8,3 °C 78 % 1013,8 hPa 0,0 mm 19,8 km/h (3 Bft) W-SW 248 ° 0 min 0,000 mm 0,0 UV-I 0 W/m² 4,6 °C 5,1 °C 32,2 km/h (5 Bft)
14.09.2017 20:36 8,3 °C 8,3 °C 78 % 1013,8 hPa 0,0 mm 12,9 km/h (3 Bft) W 268 ° 0 min 0,000 mm 0,0 UV-I 0 W/m² 4,7 °C 6,1 °C 22,5 km/h (4 Bft)
14.09.2017 20:37 8,2 °C 8,3 °C 78 % 1013,9 hPa 0,0 mm 18,6 km/h (3 Bft) W-SW 258 ° 0 min 0,000 mm 0,0 UV-I 0 W/m² 4,6 °C 5,3 °C 27,4 km/h (4 Bft)
14.09.2017 20:38 8,3 °C 8,3 °C 77 % 1013,8 hPa 0,0 mm 17,5 km/h (3 Bft) W-SW 258 ° 0 min 0,000 mm 0,0 UV-I 0 W/m² 4,5 °C 5,5 °C 22,5 km/h (4 Bft)
14.09.2017 20:39 8,3 °C 8,3 °C 78 % 1013,8 hPa 0,0 mm 16,5 km/h (3 Bft) W 278 ° 0 min 0,000 mm 0,0 UV-I 0 W/m² 4,7 °C 5,6 °C 25,7 km/h (4 Bft)
14.09.2017 20:40 8,3 °C 8,3 °C 77 % 1013,9 hPa 0,0 mm 10,9 km/h (2 Bft) W-SW 254 ° 0 min 0,000 mm 0,0 UV-I 0 W/m² 4,5 °C 6,4 °C 16,1 km/h (3 Bft)
14.09.2017 20:41 8,2 °C 8,3 °C 77 % 1013,9 hPa 0,0 mm 8,9 km/h (2 Bft) W 266 ° 0 min 0,000 mm 0,0 UV-I 0 W/m² 4,4 °C 6,7 °C 12,9 km/h (3 Bft)
14.09.2017 20:42 8,2 °C 8,3 °C 77 % 1013,9 hPa 0,0 mm 5,3 km/h (1 Bft) W 269 ° 0 min 0,000 mm 0,0 UV-I 0 W/m² 4,4 °C 7,6 °C 9,7 km/h (2 Bft)
14.09.2017 20:43 8,3 °C 8,3 °C 76 % 1013,9 hPa 0,0 mm 7,8 km/h (2 Bft) W-SW 257 ° 0 min 0,000 mm 0,0 UV-I 0 W/m² 4,3 °C 7,1 °C 14,5 km/h (3 Bft)
14.09.2017 20:44 8,2 °C 8,3 °C 77 % 1013,9 hPa 0,0 mm 5,6 km/h (1 Bft) SW 232 ° 0 min 0,000 mm 0,0 UV-I 0 W/m² 4,4 °C 7,5 °C 9,7 km/h (2 Bft)
14.09.2017 20:45 8,2 °C 8,2 °C 77 % 1013,8 hPa 0,0 mm 8,0 km/h (2 Bft) W-SW 240 ° 0 min 0,000 mm 0,0 UV-I 0 W/m² 4,4 °C 6,9 °C 14,5 km/h (3 Bft)
14.09.2017 20:46 8,2 °C 8,2 °C 77 % 1014,1 hPa 0,0 mm 9,5 km/h (2 Bft) W 281 ° 0 min 0,000 mm 0,0 UV-I 0 W/m² 4,4 °C 6,6 °C 17,7 km/h (3 Bft)
14.09.2017 20:47 8,1 °C 8,2 °C 77 % 1014,0 hPa 0,0 mm 9,7 km/h (2 Bft) SW 232 ° 0 min 0,000 mm 0,0 UV-I 0 W/m² 4,3 °C 6,4 °C 16,1 km/h (3 Bft)
14.09.2017 20:48 8,1 °C 8,1 °C 77 % 1014,1 hPa 0,0 mm 14,4 km/h (3 Bft) W 271 ° 0 min 0,000 mm 0,0 UV-I 0 W/m² 4,3 °C 5,7 °C 27,4 km/h (4 Bft)
14.09.2017 20:49 8,1 °C 8,2 °C 77 % 1014,1 hPa 0,0 mm 20,3 km/h (4 Bft) W 274 ° 0 min 0,000 mm 0,0 UV-I 0 W/m² 4,3 °C 4,9 °C 27,4 km/h (4 Bft)
14.09.2017 20:50 8,2 °C 8,2 °C 76 % 1014,1 hPa 0,0 mm 19,2 km/h (3 Bft) W-SW 252 ° 0 min 0,000 mm 0,0 UV-I 0 W/m² 4,2 °C 5,2 °C 30,6 km/h (5 Bft)
14.09.2017 20:51 8,3 °C 8,3 °C 76 % 1014,1 hPa 0,0 mm 15,9 km/h (3 Bft) SW 215 ° 0 min 0,000 mm 0,0 UV-I 0 W/m² 4,3 °C 5,7 °C 27,4 km/h (4 Bft)
14.09.2017 20:52 8,3 °C 8,3 °C 75 % 1014,0 hPa 0,0 mm 14,0 km/h (3 Bft) W 265 ° 0 min 0,000 mm 0,0 UV-I 0 W/m² 4,1 °C 6,0 °C 20,9 km/h (4 Bft)
14.09.2017 20:53 8,3 °C 8,3 °C 75 % 1014,2 hPa 0,0 mm 15,6 km/h (3 Bft) SW 225 ° 0 min 0,000 mm 0,0 UV-I 0 W/m² 4,1 °C 5,7 °C 20,9 km/h (4 Bft)
14.09.2017 20:54 8,3 °C 8,3 °C 75 % 1014,1 hPa 0,0 mm 6,8 km/h (2 Bft) W 260 ° 0 min 0,000 mm 0,0 UV-I 0 W/m² 4,1 °C 7,3 °C 16,1 km/h (3 Bft)
14.09.2017 20:55 8,3 °C 8,3 °C 75 % 1014,1 hPa 0,0 mm 10,9 km/h (2 Bft) SW 227 ° 0 min 0,000 mm 0,0 UV-I 0 W/m² 4,1 °C 6,4 °C 19,3 km/h (3 Bft)
14.09.2017 20:56 8,3 °C 8,3 °C 74 % 1014,2 hPa 0,0 mm 7,9 km/h (2 Bft) W-SW 243 ° 0 min 0,000 mm 0,0 UV-I 0 W/m² 3,9 °C 7,0 °C 12,9 km/h (3 Bft)
14.09.2017 20:57 8,3 °C 8,3 °C 75 % 1014,2 hPa 0,0 mm 12,7 km/h (3 Bft) W-SW 250 ° 0 min 0,000 mm 0,0 UV-I 0 W/m² 4,1 °C 6,1 °C 17,7 km/h (3 Bft)
14.09.2017 20:58 8,3 °C 8,4 °C 75 % 1014,3 hPa 0,0 mm 8,8 km/h (2 Bft) W 262 ° 0 min 0,000 mm 0,0 UV-I 0 W/m² 4,1 °C 6,8 °C 12,9 km/h (3 Bft)
14.09.2017 20:59 8,3 °C 8,3 °C 75 % 1014,2 hPa 0,0 mm 8,3 km/h (2 Bft) S-SW 193 ° 0 min 0,000 mm 0,0 UV-I 0 W/m² 4,1 °C 6,9 °C 12,9 km/h (3 Bft)
14.09.2017 21:00 8,3 °C 8,3 °C 74 % 1014,3 hPa 0,0 mm 4,1 km/h (1 Bft) S-SW 194 ° 0 min 0,000 mm 0,0 UV-I 0 W/m² 3,9 °C 8,3 °C 6,4 km/h (2 Bft)
14.09.2017 21:01 8,3 °C 8,3 °C 75 % 1014,3 hPa 0,0 mm 7,1 km/h (2 Bft) W-SW 255 ° 0 min 0,026 mm 0,0 UV-I 0 W/m² 4,1 °C 7,2 °C 9,7 km/h (2 Bft)
14.09.2017 21:02 8,4 °C 8,4 °C 74 % 1014,4 hPa 0,0 mm 6,4 km/h (2 Bft) S-SW 203 ° 0 min 0,000 mm 0,0 UV-I 0 W/m² 4,0 °C 7,5 °C 11,3 km/h (2 Bft)
14.09.2017 21:03 8,4 °C 8,4 °C 75 % 1014,3 hPa 0,0 mm 7,8 km/h (2 Bft) SW 234 ° 0 min 0,000 mm 0,0 UV-I 0 W/m² 4,2 °C 7,2 °C 12,9 km/h (3 Bft)
14.09.2017 21:04 8,4 °C 8,4 °C 75 % 1014,4 hPa 0,0 mm 5,8 km/h (2 Bft) W-SW 247 ° 0 min 0,000 mm 0,0 UV-I 0 W/m² 4,2 °C 7,7 °C 11,3 km/h (2 Bft)
14.09.2017 21:05 8,3 °C 8,4 °C 75 % 1014,4 hPa 0,0 mm 9,5 km/h (2 Bft) W-SW 255 ° 0 min 0,000 mm 0,0 UV-I 0 W/m² 4,1 °C 6,7 °C 22,5 km/h (4 Bft)
14.09.2017 21:06 8,3 °C 8,3 °C 74 % 1014,5 hPa 0,0 mm 11,8 km/h (2 Bft) W-SW 250 ° 0 min 0,000 mm 0,0 UV-I 0 W/m² 3,9 °C 6,3 °C 16,1 km/h (3 Bft)
14.09.2017 21:07 8,3 °C 8,4 °C 74 % 1014,4 hPa 0,0 mm 10,6 km/h (2 Bft) W-SW 253 ° 0 min 0,000 mm 0,0 UV-I 0 W/m² 3,9 °C 6,5 °C 17,7 km/h (3 Bft)
14.09.2017 21:08 8,3 °C 8,3 °C 75 % 1014,5 hPa 0,0 mm 10,9 km/h (2 Bft) W-NW 300 ° 0 min 0,000 mm 0,0 UV-I 0 W/m² 4,1 °C 6,4 °C 14,5 km/h (3 Bft)
14.09.2017 21:09 8,2 °C 8,3 °C 75 % 1014,5 hPa 0,0 mm 7,9 km/h (2 Bft) W 266 ° 0 min 0,000 mm 0,0 UV-I 0 W/m² 4,0 °C 6,9 °C 12,9 km/h (3 Bft)
14.09.2017 21:10 8,2 °C 8,2 °C 75 % 1014,5 hPa 0,0 mm 11,6 km/h (2 Bft) W-SW 238 ° 0 min 0,000 mm 0,0 UV-I 0 W/m² 4,0 °C 6,2 °C 14,5 km/h (3 Bft)
14.09.2017 21:11 8,2 °C 8,2 °C 75 % 1014,5 hPa 0,0 mm 10,1 km/h (2 Bft) W 271 ° 0 min 0,000 mm 0,0 UV-I 0 W/m² 4,0 °C 6,5 °C 17,7 km/h (3 Bft)
14.09.2017 21:12 8,1 °C 8,2 °C 75 % 1014,5 hPa 0,0 mm 9,9 km/h (2 Bft) W 273 ° 0 min 0,000 mm 0,0 UV-I 0 W/m² 3,9 °C 6,4 °C 16,1 km/h (3 Bft)
14.09.2017 21:13 8,1 °C 8,1 °C 75 % 1014,6 hPa 0,0 mm 9,2 km/h (2 Bft) W-SW 257 ° 0 min 0,000 mm 0,0 UV-I 0 W/m² 3,9 °C 6,5 °C 16,1 km/h (3 Bft)
14.09.2017 21:14 8,1 °C 8,1 °C 75 % 1014,6 hPa 0,0 mm 9,2 km/h (2 Bft) SW 234 ° 0 min 0,000 mm 0,0 UV-I 0 W/m² 3,9 °C 6,5 °C 16,1 km/h (3 Bft)
14.09.2017 21:15 8,1 °C 8,1 °C 75 % 1014,7 hPa 0,0 mm 9,4 km/h (2 Bft) W 267 ° 0 min 0,000 mm 0,0 UV-I 0 W/m² 3,9 °C 6,5 °C 16,1 km/h (3 Bft)
14.09.2017 21:16 8,1 °C 8,1 °C 76 % 1014,8 hPa 0,0 mm 11,0 km/h (2 Bft) W-NW 285 ° 0 min 0,000 mm 0,0 UV-I 0 W/m² 4,1 °C 6,2 °C 16,1 km/h (3 Bft)
14.09.2017 21:17 8,1 °C 8,1 °C 76 % 1014,9 hPa 0,0 mm 9,2 km/h (2 Bft) W-NW 286 ° 0 min 0,000 mm 0,0 UV-I 0 W/m² 4,1 °C 6,5 °C 14,5 km/h (3 Bft)
14.09.2017 21:18 8,1 °C 8,1 °C 76 % 1014,9 hPa 0,0 mm 18,7 km/h (3 Bft) W 277 ° 0 min 0,000 mm 0,0 UV-I 0 W/m² 4,1 °C 5,1 °C 25,7 km/h (4 Bft)
14.09.2017 21:19 8,1 °C 8,1 °C 75 % 1014,9 hPa 0,0 mm 20,5 km/h (4 Bft) W 269 ° 0 min 0,000 mm 0,0 UV-I 0 W/m² 3,9 °C 4,9 °C 30,6 km/h (5 Bft)
14.09.2017 21:20 8,2 °C 8,2 °C 75 % 1014,9 hPa 0,0 mm 11,3 km/h (2 Bft) W 275 ° 0 min 0,000 mm 0,0 UV-I 0 W/m² 4,0 °C 6,2 °C 19,3 km/h (3 Bft)
14.09.2017 21:21 8,2 °C 8,2 °C 76 % 1014,9 hPa 0,0 mm 21,3 km/h (4 Bft) W 261 ° 0 min 0,000 mm 0,0 UV-I 0 W/m² 4,2 °C 5,0 °C 32,2 km/h (5 Bft)
14.09.2017 21:22 8,2 °C 8,2 °C 75 % 1015,0 hPa 0,0 mm 21,1 km/h (4 Bft) W 271 ° 0 min 0,000 mm 0,0 UV-I 0 W/m² 4,0 °C 5,0 °C 29,0 km/h (5 Bft)
14.09.2017 21:23 8,3 °C 8,3 °C 76 % 1015,0 hPa 0,0 mm 17,9 km/h (3 Bft) S-SW 201 ° 0 min 0,000 mm 0,0 UV-I 0 W/m² 4,3 °C 5,5 °C 33,8 km/h (5 Bft)
14.09.2017 21:24 8,3 °C 8,3 °C 76 % 1014,9 hPa 0,0 mm 20,6 km/h (4 Bft) W 265 ° 0 min 0,000 mm 0,0 UV-I 0 W/m² 4,3 °C 5,2 °C 32,2 km/h (5 Bft)
14.09.2017 21:25 8,3 °C 8,3 °C 76 % 1015,0 hPa 0,0 mm 15,9 km/h (3 Bft) W-NW 299 ° 0 min 0,000 mm 0,0 UV-I 0 W/m² 4,3 °C 5,7 °C 27,4 km/h (4 Bft)
14.09.2017 21:26 8,3 °C 8,3 °C 76 % 1015,0 hPa 0,0 mm 15,0 km/h (3 Bft) NW 311 ° 0 min 0,000 mm 0,0 UV-I 0 W/m² 4,3 °C 5,8 °C 19,3 km/h (3 Bft)
14.09.2017 21:27 8,3 °C 8,3 °C 76 % 1015,0 hPa 0,0 mm 9,5 km/h (2 Bft) W-SW 249 ° 0 min 0,000 mm 0,0 UV-I 0 W/m² 4,3 °C 6,7 °C 19,3 km/h (3 Bft)
14.09.2017 21:28 8,3 °C 8,3 °C 76 % 1015,1 hPa 0,0 mm 11,9 km/h (2 Bft) W-NW 288 ° 0 min 0,000 mm 0,0 UV-I 0 W/m² 4,3 °C 6,3 °C 20,9 km/h (4 Bft)
14.09.2017 21:29 8,3 °C 8,3 °C 76 % 1015,0 hPa 0,0 mm 12,8 km/h (3 Bft) W-NW 282 ° 0 min 0,000 mm 0,0 UV-I 0 W/m² 4,3 °C 6,1 °C 19,3 km/h (3 Bft)
14.09.2017 21:30 8,2 °C 8,3 °C 76 % 1015,1 hPa 0,0 mm 10,6 km/h (2 Bft) W-SW 246 ° 0 min 0,000 mm 0,0 UV-I 0 W/m² 4,2 °C 6,4 °C 14,5 km/h (3 Bft)
14.09.2017 21:31 8,2 °C 8,2 °C 77 % 1015,1 hPa 0,0 mm 11,6 km/h (2 Bft) W-SW 257 ° 0 min 0,000 mm 0,0 UV-I 0 W/m² 4,4 °C 6,2 °C 19,3 km/h (3 Bft)
14.09.2017 21:32 8,2 °C 8,2 °C 77 % 1015,1 hPa 0,0 mm 14,6 km/h (3 Bft) W 261 ° 0 min 0,000 mm 0,0 UV-I 0 W/m² 4,4 °C 5,7 °C 20,9 km/h (4 Bft)
14.09.2017 21:33 8,1 °C 8,2 °C 77 % 1015,1 hPa 0,0 mm 11,0 km/h (2 Bft) W 261 ° 0 min 0,000 mm 0,0 UV-I 0 W/m² 4,3 °C 6,2 °C 17,7 km/h (3 Bft)
14.09.2017 21:34 8,1 °C 8,1 °C 77 % 1015,1 hPa 0,0 mm 9,5 km/h (2 Bft) W-SW 252 ° 0 min 0,000 mm 0,0 UV-I 0 W/m² 4,3 °C 6,5 °C 12,9 km/h (3 Bft)
14.09.2017 21:35 8,0 °C 8,1 °C 77 % 1015,1 hPa 0,0 mm 4,2 km/h (1 Bft) W 265 ° 0 min 0,000 mm 0,0 UV-I 0 W/m² 4,2 °C 8,0 °C 8,0 km/h (2 Bft)
14.09.2017 21:36 7,9 °C 8,0 °C 78 % 1015,0 hPa 0,0 mm 5,0 km/h (1 Bft) SW 228 ° 0 min 0,000 mm 0,0 UV-I 0 W/m² 4,3 °C 7,4 °C 8,0 km/h (2 Bft)
14.09.2017 21:37 7,8 °C 7,9 °C 78 % 1015,1 hPa 0,0 mm 3,9 km/h (1 Bft) W-SW 258 ° 0 min 0,000 mm 0,0 UV-I 0 W/m² 4,2 °C 7,8 °C 6,4 km/h (2 Bft)
14.09.2017 21:38 7,8 °C 7,8 °C 78 % 1015,1 hPa 0,0 mm 6,1 km/h (2 Bft) W 281 ° 0 min 0,000 mm 0,0 UV-I 0 W/m² 4,2 °C 6,9 °C 11,3 km/h (2 Bft)
14.09.2017 21:39 7,8 °C 7,8 °C 79 % 1015,1 hPa 0,0 mm 3,5 km/h (1 Bft) S-SW 213 ° 0 min 0,000 mm 0,0 UV-I 0 W/m² 4,4 °C 7,8 °C 6,4 km/h (2 Bft)
14.09.2017 21:40 7,8 °C 7,8 °C 79 % 1015,1 hPa 0,0 mm 6,9 km/h (2 Bft) W 259 ° 0 min 0,000 mm 0,0 UV-I 0 W/m² 4,4 °C 6,7 °C 11,3 km/h (2 Bft)
14.09.2017 21:41 7,7 °C 7,8 °C 79 % 1015,1 hPa 0,0 mm 4,0 km/h (1 Bft) W 260 ° 0 min 0,000 mm 0,0 UV-I 0 W/m² 4,3 °C 7,7 °C 4,8 km/h (1 Bft)
14.09.2017 21:42 7,8 °C 7,8 °C 79 % 1015,1 hPa 0,0 mm 5,1 km/h (1 Bft) W 264 ° 0 min 0,000 mm 0,0 UV-I 0 W/m² 4,4 °C 7,2 °C 9,7 km/h (2 Bft)
14.09.2017 21:43 7,7 °C 7,8 °C 79 % 1015,2 hPa 0,0 mm 7,7 km/h (2 Bft) S 190 ° 0 min 0,000 mm 0,0 UV-I 0 W/m² 4,3 °C 6,4 °C 14,5 km/h (3 Bft)
14.09.2017 21:44 7,7 °C 7,7 °C 79 % 1015,2 hPa 0,0 mm 5,6 km/h (1 Bft) W-SW 251 ° 0 min 0,000 mm 0,0 UV-I 0 W/m² 4,3 °C 6,9 °C 8,0 km/h (2 Bft)
14.09.2017 21:45 7,7 °C 7,7 °C 79 % 1015,2 hPa 0,0 mm 6,4 km/h (2 Bft) S-SW 192 ° 0 min 0,000 mm 0,0 UV-I 0 W/m² 4,3 °C 6,7 °C 11,3 km/h (2 Bft)
14.09.2017 21:46 7,7 °C 7,7 °C 79 % 1015,2 hPa 0,0 mm 2,5 km/h (1 Bft) SW 215 ° 0 min 0,000 mm 0,0 UV-I 0 W/m² 4,3 °C 7,7 °C 6,4 km/h (2 Bft)
14.09.2017 21:47 7,7 °C 7,7 °C 79 % 1015,2 hPa 0,0 mm 1,0 km/h (0 Bft) SW 215 ° 0 min 0,000 mm 0,0 UV-I 0 W/m² 4,3 °C 7,7 °C 1,6 km/h (1 Bft)
14.09.2017 21:48 7,7 °C 7,7 °C 79 % 1015,2 hPa 0,0 mm 5,5 km/h (1 Bft) SW 236 ° 0 min 0,000 mm 0,0 UV-I 0 W/m² 4,3 °C 7,0 °C 9,7 km/h (2 Bft)
14.09.2017 21:49 7,7 °C 7,7 °C 79 % 1015,3 hPa 0,0 mm 4,4 km/h (1 Bft) W 278 ° 0 min 0,000 mm 0,0 UV-I 0 W/m² 4,3 °C 7,7 °C 9,7 km/h (2 Bft)
14.09.2017 21:50 7,6 °C 7,7 °C 79 % 1015,3 hPa 0,0 mm 4,2 km/h (1 Bft) S-SW 205 ° 0 min 0,000 mm 0,0 UV-I 0 W/m² 4,2 °C 7,6 °C 8,0 km/h (2 Bft)
14.09.2017 21:51 7,6 °C 7,6 °C 79 % 1015,3 hPa 0,0 mm 2,8 km/h (1 Bft) SW 234 ° 0 min 0,000 mm 0,0 UV-I 0 W/m² 4,2 °C 7,6 °C 4,8 km/h (1 Bft)
14.09.2017 21:52 7,6 °C 7,6 °C 80 % 1015,3 hPa 0,0 mm 6,9 km/h (2 Bft) SW 234 ° 0 min 0,000 mm 0,0 UV-I 0 W/m² 4,4 °C 6,5 °C 14,5 km/h (3 Bft)
14.09.2017 21:53 7,6 °C 7,6 °C 80 % 1015,3 hPa 0,0 mm 3,9 km/h (1 Bft) W 265 ° 0 min 0,000 mm 0,0 UV-I 0 W/m² 4,4 °C 7,6 °C 11,3 km/h (2 Bft)
14.09.2017 21:54 7,6 °C 7,6 °C 80 % 1015,3 hPa 0,0 mm 6,3 km/h (2 Bft) W 271 ° 0 min 0,000 mm 0,0 UV-I 0 W/m² 4,4 °C 6,6 °C 9,7 km/h (2 Bft)
14.09.2017 21:55 7,4 °C 7,6 °C 80 % 1015,4 hPa 0,0 mm 10,8 km/h (2 Bft) W-NW 294 ° 0 min 0,000 mm 0,0 UV-I 0 W/m² 4,2 °C 5,4 °C 16,1 km/h (3 Bft)
14.09.2017 21:56 7,4 °C 7,5 °C 80 % 1015,4 hPa 0,0 mm 9,3 km/h (2 Bft) SW 231 ° 0 min 0,000 mm 0,0 UV-I 0 W/m² 4,2 °C 5,7 °C 14,5 km/h (3 Bft)
14.09.2017 21:57 7,4 °C 7,4 °C 80 % 1015,5 hPa 0,0 mm 3,9 km/h (1 Bft) W-SW 242 ° 0 min 0,000 mm 0,0 UV-I 0 W/m² 4,2 °C 7,4 °C 9,7 km/h (2 Bft)
14.09.2017 21:58 7,4 °C 7,4 °C 81 % 1015,5 hPa 0,0 mm 6,0 km/h (2 Bft) NW 323 ° 0 min 0,000 mm 0,0 UV-I 0 W/m² 4,4 °C 6,5 °C 9,7 km/h (2 Bft)
14.09.2017 21:59 7,4 °C 7,4 °C 81 % 1015,5 hPa 0,0 mm 6,9 km/h (2 Bft) W-SW 252 ° 0 min 0,000 mm 0,0 UV-I 0 W/m² 4,4 °C 6,2 °C 12,9 km/h (3 Bft)
14.09.2017 22:00 7,3 °C 7,4 °C 81 % 1015,5 hPa 0,0 mm 5,1 km/h (1 Bft) W 263 ° 0 min 0,000 mm 0,0 UV-I 0 W/m² 4,3 °C 6,7 °C 14,5 km/h (3 Bft)
14.09.2017 22:01 7,3 °C 7,3 °C 81 % 1015,4 hPa 0,0 mm 3,1 km/h (1 Bft) SW 234 ° 0 min 0,025 mm 0,0 UV-I 0 W/m² 4,3 °C 7,3 °C 4,8 km/h (1 Bft)
14.09.2017 22:02 7,2 °C 7,3 °C 81 % 1015,5 hPa 0,0 mm 3,9 km/h (1 Bft) W 272 ° 0 min 0,000 mm 0,0 UV-I 0 W/m² 4,2 °C 7,2 °C 6,4 km/h (2 Bft)
14.09.2017 22:03 7,2 °C 7,3 °C 81 % 1015,5 hPa 0,0 mm 5,6 km/h (1 Bft) SW 230 ° 0 min 0,000 mm 0,0 UV-I 0 W/m² 4,2 °C 6,4 °C 14,5 km/h (3 Bft)
14.09.2017 22:04 7,2 °C 7,2 °C 81 % 1015,5 hPa 0,0 mm 5,8 km/h (2 Bft) S-SW 211 ° 0 min 0,000 mm 0,0 UV-I 0 W/m² 4,2 °C 6,3 °C 14,5 km/h (3 Bft)
14.09.2017 22:05 7,2 °C 7,2 °C 81 % 1015,4 hPa 0,0 mm 4,7 km/h (1 Bft) SW 225 ° 0 min 0,000 mm 0,0 UV-I 0 W/m² 4,2 °C 6,7 °C 8,0 km/h (2 Bft)
14.09.2017 22:06 7,2 °C 7,2 °C 81 % 1015,5 hPa 0,0 mm 7,4 km/h (2 Bft) S-SW 198 ° 0 min 0,000 mm 0,0 UV-I 0 W/m² 4,2 °C 5,9 °C 12,9 km/h (3 Bft)
14.09.2017 22:07 7,2 °C 7,3 °C 81 % 1015,5 hPa 0,0 mm 9,9 km/h (2 Bft) W-SW 257 ° 0 min 0,000 mm 0,0 UV-I 0 W/m² 4,2 °C 5,3 °C 19,3 km/h (3 Bft)
14.09.2017 22:08 7,3 °C 7,3 °C 80 % 1015,4 hPa 0,0 mm 8,3 km/h (2 Bft) W-SW 257 ° 0 min 0,000 mm 0,0 UV-I 0 W/m² 4,1 °C 5,8 °C 14,5 km/h (3 Bft)
14.09.2017 22:09 7,3 °C 7,3 °C 80 % 1015,5 hPa 0,0 mm 6,2 km/h (2 Bft) W 266 ° 0 min 0,000 mm 0,0 UV-I 0 W/m² 4,1 °C 6,3 °C 11,3 km/h (2 Bft)
14.09.2017 22:10 7,3 °C 7,3 °C 80 % 1015,5 hPa 0,0 mm 11,3 km/h (2 Bft) W-SW 246 ° 0 min 0,000 mm 0,0 UV-I 0 W/m² 4,1 °C 5,2 °C 20,9 km/h (4 Bft)
14.09.2017 22:11 7,3 °C 7,3 °C 80 % 1015,6 hPa 0,0 mm 7,8 km/h (2 Bft) W-NW 284 ° 0 min 0,000 mm 0,0 UV-I 0 W/m² 4,1 °C 5,9 °C 12,9 km/h (3 Bft)
14.09.2017 22:12 7,3 °C 7,4 °C 80 % 1015,5 hPa 0,0 mm 11,8 km/h (2 Bft) W 275 ° 0 min 0,000 mm 0,0 UV-I 0 W/m² 4,1 °C 5,1 °C 22,5 km/h (4 Bft)
14.09.2017 22:13 7,4 °C 7,4 °C 80 % 1015,6 hPa 0,0 mm 8,9 km/h (2 Bft) W 269 ° 0 min 0,000 mm 0,0 UV-I 0 W/m² 4,2 °C 5,8 °C 12,9 km/h (3 Bft)
14.09.2017 22:14 7,4 °C 7,4 °C 80 % 1015,6 hPa 0,0 mm 11,8 km/h (2 Bft) W-SW 257 ° 0 min 0,000 mm 0,0 UV-I 0 W/m² 4,2 °C 5,2 °C 17,7 km/h (3 Bft)
14.09.2017 22:15 7,3 °C 7,4 °C 80 % 1015,6 hPa 0,0 mm 8,7 km/h (2 Bft) W 265 ° 0 min 0,000 mm 0,0 UV-I 0 W/m² 4,1 °C 5,7 °C 12,9 km/h (3 Bft)
14.09.2017 22:16 7,4 °C 7,4 °C 79 % 1015,6 hPa 0,0 mm 11,5 km/h (2 Bft) W 261 ° 0 min 0,000 mm 0,0 UV-I 0 W/m² 4,0 °C 5,2 °C 19,3 km/h (3 Bft)
14.09.2017 22:17 7,4 °C 7,4 °C 79 % 1015,6 hPa 0,0 mm 12,8 km/h (3 Bft) W-NW 296 ° 0 min 0,000 mm 0,0 UV-I 0 W/m² 4,0 °C 5,0 °C 22,5 km/h (4 Bft)
14.09.2017 22:18 7,4 °C 7,5 °C 79 % 1015,6 hPa 0,0 mm 7,6 km/h (2 Bft) W 275 ° 0 min 0,000 mm 0,0 UV-I 0 W/m² 4,0 °C 6,0 °C 16,1 km/h (3 Bft)
14.09.2017 22:19 7,5 °C 7,6 °C 79 % 1015,7 hPa 0,0 mm 8,7 km/h (2 Bft) W-SW 242 ° 0 min 0,000 mm 0,0 UV-I 0 W/m² 4,1 °C 5,9 °C 12,9 km/h (3 Bft)
14.09.2017 22:20 7,6 °C 7,6 °C 79 % 1015,8 hPa 0,0 mm 6,3 km/h (2 Bft) W 259 ° 0 min 0,000 mm 0,0 UV-I 0 W/m² 4,2 °C 6,6 °C 9,7 km/h (2 Bft)
14.09.2017 22:21 7,6 °C 7,6 °C 79 % 1015,8 hPa 0,0 mm 12,0 km/h (2 Bft) W 259 ° 0 min 0,000 mm 0,0 UV-I 0 W/m² 4,2 °C 5,4 °C 16,1 km/h (3 Bft)
14.09.2017 22:22 7,6 °C 7,6 °C 80 % 1015,8 hPa 0,0 mm 15,1 km/h (3 Bft) W 279 ° 0 min 0,000 mm 0,0 UV-I 0 W/m² 4,4 °C 4,9 °C 20,9 km/h (4 Bft)
14.09.2017 22:23 7,6 °C 7,6 °C 79 % 1015,7 hPa 0,0 mm 8,6 km/h (2 Bft) W-SW 240 ° 0 min 0,000 mm 0,0 UV-I 0 W/m² 4,2 °C 6,1 °C 14,5 km/h (3 Bft)
14.09.2017 22:24 7,7 °C 7,7 °C 79 % 1015,7 hPa 0,0 mm 8,5 km/h (2 Bft) W 261 ° 0 min 0,000 mm 0,0 UV-I 0 W/m² 4,3 °C 6,2 °C 14,5 km/h (3 Bft)
14.09.2017 22:25 7,7 °C 7,7 °C 80 % 1015,7 hPa 0,0 mm 11,7 km/h (2 Bft) W-SW 250 ° 0 min 0,000 mm 0,0 UV-I 0 W/m² 4,5 °C 5,6 °C 17,7 km/h (3 Bft)
14.09.2017 22:26 7,8 °C 7,8 °C 79 % 1015,8 hPa 0,0 mm 8,9 km/h (2 Bft) W 263 ° 0 min 0,000 mm 0,0 UV-I 0 W/m² 4,4 °C 6,2 °C 17,7 km/h (3 Bft)
14.09.2017 22:27 7,8 °C 7,8 °C 80 % 1015,8 hPa 0,0 mm 8,7 km/h (2 Bft) W 264 ° 0 min 0,000 mm 0,0 UV-I 0 W/m² 4,6 °C 6,3 °C 14,5 km/h (3 Bft)
14.09.2017 22:28 7,8 °C 7,8 °C 79 % 1015,8 hPa 0,0 mm 7,4 km/h (2 Bft) NW 325 ° 0 min 0,000 mm 0,0 UV-I 0 W/m² 4,4 °C 6,6 °C 12,9 km/h (3 Bft)
14.09.2017 22:29 7,8 °C 7,8 °C 79 % 1015,8 hPa 0,0 mm 10,4 km/h (2 Bft) W-SW 254 ° 0 min 0,000 mm 0,0 UV-I 0 W/m² 4,4 °C 5,9 °C 12,9 km/h (3 Bft)
14.09.2017 22:30 7,8 °C 7,8 °C 79 % 1015,8 hPa 0,0 mm 7,4 km/h (2 Bft) W-NW 288 ° 0 min 0,000 mm 0,0 UV-I 0 W/m² 4,4 °C 6,6 °C 11,3 km/h (2 Bft)
14.09.2017 22:31 7,8 °C 7,8 °C 79 % 1015,9 hPa 0,0 mm 9,8 km/h (2 Bft) W 268 ° 0 min 0,000 mm 0,0 UV-I 0 W/m² 4,4 °C 6,0 °C 14,5 km/h (3 Bft)
14.09.2017 22:32 7,8 °C 7,8 °C 80 % 1016,0 hPa 0,0 mm 10,0 km/h (2 Bft) W-NW 292 ° 0 min 0,000 mm 0,0 UV-I 0 W/m² 4,6 °C 6,0 °C 16,1 km/h (3 Bft)
14.09.2017 22:33 7,8 °C 7,8 °C 79 % 1016,0 hPa 0,0 mm 14,0 km/h (3 Bft) W 275 ° 0 min 0,000 mm 0,0 UV-I 0 W/m² 4,4 °C 5,3 °C 20,9 km/h (4 Bft)
14.09.2017 22:34 7,8 °C 7,8 °C 80 % 1016,1 hPa 0,0 mm 14,7 km/h (3 Bft) W-NW 296 ° 0 min 0,000 mm 0,0 UV-I 0 W/m² 4,6 °C 5,2 °C 22,5 km/h (4 Bft)
14.09.2017 22:35 7,8 °C 7,8 °C 79 % 1016,0 hPa 0,0 mm 12,3 km/h (3 Bft) W 261 ° 0 min 0,000 mm 0,0 UV-I 0 W/m² 4,4 °C 5,6 °C 20,9 km/h (4 Bft)
14.09.2017 22:36 7,9 °C 7,9 °C 80 % 1016,0 hPa 0,0 mm 9,1 km/h (2 Bft) W-SW 248 ° 0 min 0,000 mm 0,0 UV-I 0 W/m² 4,7 °C 6,3 °C 17,7 km/h (3 Bft)
14.09.2017 22:37 7,9 °C 7,9 °C 80 % 1016,0 hPa 0,0 mm 12,1 km/h (2 Bft) W-SW 237 ° 0 min 0,000 mm 0,0 UV-I 0 W/m² 4,7 °C 5,8 °C 19,3 km/h (3 Bft)
14.09.2017 22:38 7,9 °C 7,9 °C 80 % 1015,9 hPa 0,0 mm 15,8 km/h (3 Bft) NW 311 ° 0 min 0,000 mm 0,0 UV-I 0 W/m² 4,7 °C 5,2 °C 25,7 km/h (4 Bft)
14.09.2017 22:39 7,8 °C 7,9 °C 80 % 1015,9 hPa 0,0 mm 12,5 km/h (3 Bft) W 271 ° 0 min 0,000 mm 0,0 UV-I 0 W/m² 4,6 °C 5,6 °C 17,7 km/h (3 Bft)
14.09.2017 22:40 7,8 °C 7,9 °C 80 % 1016,0 hPa 0,0 mm 16,6 km/h (3 Bft) W 266 ° 0 min 0,000 mm 0,0 UV-I 0 W/m² 4,6 °C 5,0 °C 22,5 km/h (4 Bft)
14.09.2017 22:41 7,8 °C 7,8 °C 80 % 1015,9 hPa 0,0 mm 12,6 km/h (3 Bft) W-NW 292 ° 0 min 0,000 mm 0,0 UV-I 0 W/m² 4,6 °C 5,6 °C 20,9 km/h (4 Bft)
14.09.2017 22:42 7,8 °C 7,8 °C 80 % 1015,9 hPa 0,0 mm 10,1 km/h (2 Bft) W 262 ° 0 min 0,000 mm 0,0 UV-I 0 W/m² 4,6 °C 6,0 °C 17,7 km/h (3 Bft)
14.09.2017 22:43 7,8 °C 7,8 °C 80 % 1015,9 hPa 0,0 mm 11,2 km/h (2 Bft) W 280 ° 0 min 0,000 mm 0,0 UV-I 0 W/m² 4,6 °C 5,8 °C 17,7 km/h (3 Bft)
14.09.2017 22:44 7,7 °C 7,8 °C 81 % 1015,9 hPa 0,0 mm 14,0 km/h (3 Bft) W 265 ° 0 min 0,000 mm 0,0 UV-I 0 W/m² 4,7 °C 5,2 °C 25,7 km/h (4 Bft)
14.09.2017 22:45 7,7 °C 7,7 °C 81 % 1016,1 hPa 0,0 mm 12,3 km/h (3 Bft) SW 225 ° 0 min 0,000 mm 0,0 UV-I 0 W/m² 4,7 °C 5,5 °C 22,5 km/h (4 Bft)
14.09.2017 22:46 7,7 °C 7,7 °C 80 % 1015,9 hPa 0,0 mm 12,5 km/h (3 Bft) W-NW 296 ° 0 min 0,000 mm 0,0 UV-I 0 W/m² 4,5 °C 5,4 °C 20,9 km/h (4 Bft)
14.09.2017 22:47 7,7 °C 7,7 °C 81 % 1015,9 hPa 0,0 mm 12,9 km/h (3 Bft) W 275 ° 0 min 0,000 mm 0,0 UV-I 0 W/m² 4,7 °C 5,4 °C 22,5 km/h (4 Bft)
14.09.2017 22:48 7,7 °C 7,7 °C 80 % 1016,0 hPa 0,0 mm 12,0 km/h (2 Bft) W-SW 238 ° 0 min 0,000 mm 0,0 UV-I 0 W/m² 4,5 °C 5,5 °C 16,1 km/h (3 Bft)
14.09.2017 22:49 7,7 °C 7,7 °C 80 % 1016,0 hPa 0,0 mm 7,1 km/h (2 Bft) W 272 ° 0 min 0,000 mm 0,0 UV-I 0 W/m² 4,5 °C 6,5 °C 14,5 km/h (3 Bft)
14.09.2017 22:50 7,7 °C 7,7 °C 80 % 1015,9 hPa 0,0 mm 11,1 km/h (2 Bft) W 277 ° 0 min 0,000 mm 0,0 UV-I 0 W/m² 4,5 °C 5,7 °C 16,1 km/h (3 Bft)
14.09.2017 22:51 7,7 °C 7,7 °C 80 % 1015,8 hPa 0,0 mm 11,5 km/h (2 Bft) W 259 ° 0 min 0,000 mm 0,0 UV-I 0 W/m² 4,5 °C 5,6 °C 17,7 km/h (3 Bft)
14.09.2017 22:52 7,6 °C 7,7 °C 80 % 1015,9 hPa 0,0 mm 15,6 km/h (3 Bft) W 259 ° 0 min 0,000 mm 0,0 UV-I 0 W/m² 4,4 °C 4,9 °C 22,5 km/h (4 Bft)
14.09.2017 22:53 7,6 °C 7,6 °C 80 % 1015,8 hPa 0,0 mm 10,7 km/h (2 Bft) W 269 ° 0 min 0,000 mm 0,0 UV-I 0 W/m² 4,4 °C 5,6 °C 17,7 km/h (3 Bft)
14.09.2017 22:54 7,5 °C 7,6 °C 81 % 1015,7 hPa 0,0 mm 13,9 km/h (3 Bft) W 263 ° 0 min 0,000 mm 0,0 UV-I 0 W/m² 4,5 °C 5,0 °C 20,9 km/h (4 Bft)
14.09.2017 22:55 7,5 °C 7,6 °C 81 % 1015,7 hPa 0,0 mm 12,0 km/h (2 Bft) SW 227 ° 0 min 0,000 mm 0,0 UV-I 0 W/m² 4,5 °C 5,3 °C 17,7 km/h (3 Bft)
14.09.2017 22:56 7,5 °C 7,5 °C 80 % 1015,7 hPa 0,0 mm 11,9 km/h (2 Bft) W-SW 239 ° 0 min 0,000 mm 0,0 UV-I 0 W/m² 4,3 °C 5,3 °C 17,7 km/h (3 Bft)
14.09.2017 22:57 7,5 °C 7,5 °C 81 % 1015,8 hPa 0,0 mm 10,5 km/h (2 Bft) W-SW 237 ° 0 min 0,000 mm 0,0 UV-I 0 W/m² 4,5 °C 5,5 °C 16,1 km/h (3 Bft)
14.09.2017 22:58 7,4 °C 7,5 °C 81 % 1015,8 hPa 0,0 mm 8,3 km/h (2 Bft) W 263 ° 0 min 0,000 mm 0,0 UV-I 0 W/m² 4,4 °C 5,9 °C 12,9 km/h (3 Bft)
14.09.2017 22:59 7,5 °C 7,5 °C 81 % 1015,9 hPa 0,0 mm 13,3 km/h (3 Bft) W-SW 245 ° 0 min 0,000 mm 0,0 UV-I 0 W/m² 4,5 °C 5,1 °C 16,1 km/h (3 Bft)
14.09.2017 23:00 7,4 °C 7,5 °C 81 % 1015,9 hPa 0,0 mm 12,3 km/h (3 Bft) SW 220 ° 0 min 0,000 mm 0,0 UV-I 0 W/m² 4,4 °C 5,1 °C 27,4 km/h (4 Bft)
14.09.2017 23:01 7,4 °C 7,5 °C 80 % 1015,9 hPa 0,0 mm 10,5 km/h (2 Bft) W-NW 285 ° 0 min 0,025 mm 0,0 UV-I 0 W/m² 4,2 °C 5,4 °C 16,1 km/h (3 Bft)
14.09.2017 23:02 7,4 °C 7,4 °C 81 % 1015,8 hPa 0,0 mm 14,6 km/h (3 Bft) W 278 ° 0 min 0,000 mm 0,0 UV-I 0 W/m² 4,4 °C 4,8 °C 19,3 km/h (3 Bft)
14.09.2017 23:03 7,4 °C 7,5 °C 81 % 1015,8 hPa 0,0 mm 14,5 km/h (3 Bft) S-SW 211 ° 0 min 0,000 mm 0,0 UV-I 0 W/m² 4,4 °C 4,8 °C 20,9 km/h (4 Bft)
14.09.2017 23:04 7,5 °C 7,5 °C 80 % 1015,8 hPa 0,0 mm 5,9 km/h (2 Bft) SW 229 ° 0 min 0,000 mm 0,0 UV-I 0 W/m² 4,3 °C 6,6 °C 11,3 km/h (2 Bft)
14.09.2017 23:05 7,5 °C 7,5 °C 80 % 1015,8 hPa 0,0 mm 4,8 km/h (1 Bft) W 281 ° 0 min 0,000 mm 0,0 UV-I 0 W/m² 4,3 °C 7,0 °C 6,4 km/h (2 Bft)
14.09.2017 23:06 7,6 °C 7,6 °C 80 % 1015,9 hPa 0,0 mm 11,3 km/h (2 Bft) W-SW 248 ° 0 min 0,000 mm 0,0 UV-I 0 W/m² 4,4 °C 5,5 °C 20,9 km/h (4 Bft)
14.09.2017 23:07 7,5 °C 7,6 °C 80 % 1015,9 hPa 0,0 mm 16,0 km/h (3 Bft) W 264 ° 0 min 0,000 mm 0,0 UV-I 0 W/m² 4,3 °C 4,7 °C 20,9 km/h (4 Bft)
14.09.2017 23:08 7,5 °C 7,5 °C 80 % 1015,9 hPa 0,0 mm 11,8 km/h (2 Bft) W 273 ° 0 min 0,000 mm 0,0 UV-I 0 W/m² 4,3 °C 5,3 °C 20,9 km/h (4 Bft)
14.09.2017 23:09 7,4 °C 7,5 °C 80 % 1015,9 hPa 0,0 mm 13,1 km/h (3 Bft) W 277 ° 0 min 0,000 mm 0,0 UV-I 0 W/m² 4,2 °C 5,0 °C 22,5 km/h (4 Bft)
14.09.2017 23:10 7,4 °C 7,5 °C 80 % 1015,9 hPa 0,0 mm 10,6 km/h (2 Bft) NW 304 ° 0 min 0,000 mm 0,0 UV-I 0 W/m² 4,2 °C 5,4 °C 17,7 km/h (3 Bft)
14.09.2017 23:11 7,4 °C 7,4 °C 81 % 1016,0 hPa 0,0 mm 13,6 km/h (3 Bft) W 279 ° 0 min 0,000 mm 0,0 UV-I 0 W/m² 4,4 °C 4,9 °C 17,7 km/h (3 Bft)
14.09.2017 23:12 7,4 °C 7,4 °C 80 % 1015,9 hPa 0,0 mm 11,9 km/h (2 Bft) W 275 ° 0 min 0,000 mm 0,0 UV-I 0 W/m² 4,2 °C 5,2 °C 16,1 km/h (3 Bft)
14.09.2017 23:13 7,4 °C 7,4 °C 80 % 1016,0 hPa 0,0 mm 10,3 km/h (2 Bft) SW 232 ° 0 min 0,000 mm 0,0 UV-I 0 W/m² 4,2 °C 5,5 °C 14,5 km/h (3 Bft)
14.09.2017 23:14 7,4 °C 7,4 °C 80 % 1016,0 hPa 0,0 mm 13,5 km/h (3 Bft) W-NW 296 ° 0 min 0,000 mm 0,0 UV-I 0 W/m² 4,2 °C 4,9 °C 20,9 km/h (4 Bft)
14.09.2017 23:15 7,4 °C 7,4 °C 80 % 1016,0 hPa 0,0 mm 12,5 km/h (3 Bft) W-SW 246 ° 0 min 0,000 mm 0,0 UV-I 0 W/m² 4,2 °C 5,1 °C 17,7 km/h (3 Bft)
14.09.2017 23:16 7,4 °C 7,4 °C 80 % 1016,1 hPa 0,0 mm 15,8 km/h (3 Bft) W-SW 258 ° 0 min 0,000 mm 0,0 UV-I 0 W/m² 4,2 °C 4,6 °C 24,1 km/h (4 Bft)
14.09.2017 23:17 7,4 °C 7,4 °C 80 % 1016,0 hPa 0,0 mm 8,4 km/h (2 Bft) W 273 ° 0 min 0,000 mm 0,0 UV-I 0 W/m² 4,2 °C 5,9 °C 11,3 km/h (2 Bft)
14.09.2017 23:18 7,4 °C 7,4 °C 80 % 1016,1 hPa 0,0 mm 11,3 km/h (2 Bft) SW 225 ° 0 min 0,000 mm 0,0 UV-I 0 W/m² 4,2 °C 5,3 °C 17,7 km/h (3 Bft)
14.09.2017 23:19 7,5 °C 7,5 °C 79 % 1016,0 hPa 0,0 mm 12,0 km/h (2 Bft) W 265 ° 0 min 0,000 mm 0,0 UV-I 0 W/m² 4,1 °C 5,3 °C 19,3 km/h (3 Bft)
14.09.2017 23:20 7,5 °C 7,5 °C 79 % 1016,0 hPa 0,0 mm 11,4 km/h (2 Bft) W 271 ° 0 min 0,000 mm 0,0 UV-I 0 W/m² 4,1 °C 5,4 °C 14,5 km/h (3 Bft)
14.09.2017 23:21 7,6 °C 7,6 °C 79 % 1016,0 hPa 0,0 mm 13,9 km/h (3 Bft) W-NW 282 ° 0 min 0,000 mm 0,0 UV-I 0 W/m² 4,2 °C 5,1 °C 19,3 km/h (3 Bft)
14.09.2017 23:22 7,6 °C 7,6 °C 78 % 1015,9 hPa 0,0 mm 12,6 km/h (3 Bft) W 268 ° 0 min 0,000 mm 0,0 UV-I 0 W/m² 4,0 °C 5,3 °C 16,1 km/h (3 Bft)
14.09.2017 23:23 7,6 °C 7,6 °C 79 % 1015,9 hPa 0,0 mm 10,3 km/h (2 Bft) W 263 ° 0 min 0,000 mm 0,0 UV-I 0 W/m² 4,2 °C 5,7 °C 14,5 km/h (3 Bft)
14.09.2017 23:24 7,6 °C 7,6 °C 78 % 1015,9 hPa 0,0 mm 12,5 km/h (3 Bft) W-NW 287 ° 0 min 0,000 mm 0,0 UV-I 0 W/m² 4,0 °C 5,3 °C 17,7 km/h (3 Bft)
14.09.2017 23:25 7,6 °C 7,6 °C 78 % 1015,9 hPa 0,0 mm 12,1 km/h (2 Bft) NW 319 ° 0 min 0,000 mm 0,0 UV-I 0 W/m² 4,0 °C 5,4 °C 17,7 km/h (3 Bft)
14.09.2017 23:26 7,6 °C 7,6 °C 78 % 1015,9 hPa 0,0 mm 10,7 km/h (2 Bft) W 264 ° 0 min 0,000 mm 0,0 UV-I 0 W/m² 4,0 °C 5,6 °C 14,5 km/h (3 Bft)
14.09.2017 23:27 7,6 °C 7,6 °C 78 % 1015,9 hPa 0,0 mm 12,9 km/h (3 Bft) W-SW 256 ° 0 min 0,000 mm 0,0 UV-I 0 W/m² 4,0 °C 5,3 °C 17,7 km/h (3 Bft)
14.09.2017 23:28 7,6 °C 7,6 °C 78 % 1015,9 hPa 0,0 mm 12,8 km/h (3 Bft) NW 304 ° 0 min 0,000 mm 0,0 UV-I 0 W/m² 4,0 °C 5,3 °C 19,3 km/h (3 Bft)
14.09.2017 23:29 7,6 °C 7,6 °C 78 % 1015,9 hPa 0,0 mm 12,6 km/h (3 Bft) W 279 ° 0 min 0,000 mm 0,0 UV-I 0 W/m² 4,0 °C 5,3 °C 17,7 km/h (3 Bft)
14.09.2017 23:30 7,6 °C 7,6 °C 78 % 1015,9 hPa 0,0 mm 14,2 km/h (3 Bft) W-SW 257 ° 0 min 0,000 mm 0,0 UV-I 0 W/m² 4,0 °C 5,1 °C 20,9 km/h (4 Bft)
14.09.2017 23:31 7,7 °C 7,7 °C 78 % 1015,9 hPa 0,0 mm 12,9 km/h (3 Bft) W-SW 255 ° 0 min 0,000 mm 0,0 UV-I 0 W/m² 4,1 °C 5,4 °C 19,3 km/h (3 Bft)
14.09.2017 23:32 7,6 °C 7,7 °C 78 % 1015,9 hPa 0,0 mm 10,8 km/h (2 Bft) W 275 ° 0 min 0,000 mm 0,0 UV-I 0 W/m² 4,0 °C 5,6 °C 17,7 km/h (3 Bft)
14.09.2017 23:33 7,6 °C 7,6 °C 78 % 1015,9 hPa 0,0 mm 9,7 km/h (2 Bft) W 263 ° 0 min 0,000 mm 0,0 UV-I 0 W/m² 4,0 °C 5,8 °C 19,3 km/h (3 Bft)
14.09.2017 23:34 7,6 °C 7,6 °C 78 % 1016,0 hPa 0,0 mm 10,3 km/h (2 Bft) W 276 ° 0 min 0,000 mm 0,0 UV-I 0 W/m² 4,0 °C 5,7 °C 14,5 km/h (3 Bft)
14.09.2017 23:35 7,6 °C 7,6 °C 78 % 1015,9 hPa 0,0 mm 10,8 km/h (2 Bft) W-SW 252 ° 0 min 0,000 mm 0,0 UV-I 0 W/m² 4,0 °C 5,6 °C 17,7 km/h (3 Bft)
14.09.2017 23:36 7,6 °C 7,6 °C 78 % 1015,9 hPa 0,0 mm 6,4 km/h (2 Bft) W 263 ° 0 min 0,000 mm 0,0 UV-I 0 W/m² 4,0 °C 6,6 °C 11,3 km/h (2 Bft)
14.09.2017 23:37 7,6 °C 7,6 °C 78 % 1016,0 hPa 0,0 mm 5,6 km/h (1 Bft) W-NW 295 ° 0 min 0,000 mm 0,0 UV-I 0 W/m² 4,0 °C 6,8 °C 14,5 km/h (3 Bft)
14.09.2017 23:38 7,5 °C 7,6 °C 78 % 1016,0 hPa 0,0 mm 12,6 km/h (3 Bft) W 261 ° 0 min 0,000 mm 0,0 UV-I 0 W/m² 3,9 °C 5,2 °C 19,3 km/h (3 Bft)
14.09.2017 23:39 7,6 °C 7,6 °C 78 % 1016,0 hPa 0,0 mm 12,3 km/h (3 Bft) W-SW 240 ° 0 min 0,000 mm 0,0 UV-I 0 W/m² 4,0 °C 5,4 °C 17,7 km/h (3 Bft)
14.09.2017 23:40 7,6 °C 7,6 °C 78 % 1015,9 hPa 0,0 mm 7,0 km/h (2 Bft) W 259 ° 0 min 0,000 mm 0,0 UV-I 0 W/m² 4,0 °C 6,4 °C 12,9 km/h (3 Bft)
14.09.2017 23:41 7,6 °C 7,6 °C 78 % 1016,0 hPa 0,0 mm 4,2 km/h (1 Bft) SW 221 ° 0 min 0,000 mm 0,0 UV-I 0 W/m² 4,0 °C 7,6 °C 6,4 km/h (2 Bft)
14.09.2017 23:42 7,6 °C 7,6 °C 78 % 1015,9 hPa 0,0 mm 4,0 km/h (1 Bft) SW 218 ° 0 min 0,000 mm 0,0 UV-I 0 W/m² 4,0 °C 7,6 °C 6,4 km/h (2 Bft)
14.09.2017 23:43 7,6 °C 7,6 °C 78 % 1016,0 hPa 0,0 mm 4,3 km/h (1 Bft) W 259 ° 0 min 0,000 mm 0,0 UV-I 0 W/m² 4,0 °C 7,6 °C 9,7 km/h (2 Bft)
14.09.2017 23:44 7,5 °C 7,6 °C 78 % 1015,9 hPa 0,0 mm 6,4 km/h (2 Bft) S-SW 196 ° 0 min 0,000 mm 0,0 UV-I 0 W/m² 3,9 °C 6,5 °C 14,5 km/h (3 Bft)
14.09.2017 23:45 7,5 °C 7,5 °C 78 % 1016,0 hPa 0,0 mm 8,3 km/h (2 Bft) S-SW 211 ° 0 min 0,000 mm 0,0 UV-I 0 W/m² 3,9 °C 6,0 °C 16,1 km/h (3 Bft)
14.09.2017 23:46 7,4 °C 7,5 °C 78 % 1016,0 hPa 0,0 mm 3,2 km/h (1 Bft) S-SW 211 ° 0 min 0,000 mm 0,0 UV-I 0 W/m² 3,8 °C 7,4 °C 6,4 km/h (2 Bft)
14.09.2017 23:47 7,4 °C 7,4 °C 78 % 1015,9 hPa 0,0 mm 1,4 km/h (1 Bft) S-SW 211 ° 0 min 0,000 mm 0,0 UV-I 0 W/m² 3,8 °C 7,4 °C 3,2 km/h (1 Bft)
14.09.2017 23:48 7,4 °C 7,4 °C 78 % 1016,0 hPa 0,0 mm 3,4 km/h (1 Bft) SW 227 ° 0 min 0,000 mm 0,0 UV-I 0 W/m² 3,8 °C 7,4 °C 6,4 km/h (2 Bft)
14.09.2017 23:49 7,3 °C 7,4 °C 78 % 1016,1 hPa 0,0 mm 4,5 km/h (1 Bft) SW 231 ° 0 min 0,000 mm 0,0 UV-I 0 W/m² 3,7 °C 7,3 °C 8,0 km/h (2 Bft)
14.09.2017 23:50 7,3 °C 7,3 °C 78 % 1016,1 hPa 0,0 mm 4,9 km/h (1 Bft) S-SW 195 ° 0 min 0,000 mm 0,0 UV-I 0 W/m² 3,7 °C 6,7 °C 9,7 km/h (2 Bft)
14.09.2017 23:51 7,3 °C 7,3 °C 78 % 1016,0 hPa 0,0 mm 2,7 km/h (1 Bft) S-SW 198 ° 0 min 0,000 mm 0,0 UV-I 0 W/m² 3,7 °C 7,3 °C 8,0 km/h (2 Bft)
14.09.2017 23:52 7,3 °C 7,3 °C 78 % 1016,1 hPa 0,0 mm 4,7 km/h (1 Bft) W-SW 246 ° 0 min 0,000 mm 0,0 UV-I 0 W/m² 3,7 °C 6,8 °C 9,7 km/h (2 Bft)
14.09.2017 23:53 7,3 °C 7,3 °C 78 % 1016,1 hPa 0,0 mm 7,8 km/h (2 Bft) W-SW 245 ° 0 min 0,000 mm 0,0 UV-I 0 W/m² 3,7 °C 5,9 °C 16,1 km/h (3 Bft)
14.09.2017 23:54 7,3 °C 7,3 °C 78 % 1016,1 hPa 0,0 mm 4,6 km/h (1 Bft) W 259 ° 0 min 0,000 mm 0,0 UV-I 0 W/m² 3,7 °C 6,8 °C 9,7 km/h (2 Bft)
14.09.2017 23:55 7,2 °C 7,3 °C 79 % 1016,1 hPa 0,0 mm 3,4 km/h (1 Bft) W-SW 240 ° 0 min 0,000 mm 0,0 UV-I 0 W/m² 3,8 °C 7,2 °C 12,9 km/h (3 Bft)
14.09.2017 23:56 7,2 °C 7,2 °C 79 % 1016,1 hPa 0,0 mm 4,1 km/h (1 Bft) W-SW 258 ° 0 min 0,000 mm 0,0 UV-I 0 W/m² 3,8 °C 7,2 °C 6,4 km/h (2 Bft)
14.09.2017 23:57 7,2 °C 7,2 °C 78 % 1016,1 hPa 0,0 mm 3,8 km/h (1 Bft) W 265 ° 0 min 0,000 mm 0,0 UV-I 0 W/m² 3,6 °C 7,2 °C 8,0 km/h (2 Bft)
14.09.2017 23:58 7,2 °C 7,2 °C 78 % 1016,1 hPa 0,0 mm 3,0 km/h (1 Bft) SW 234 ° 0 min 0,000 mm 0,0 UV-I 0 W/m² 3,6 °C 7,2 °C 4,8 km/h (1 Bft)
14.09.2017 23:59 7,2 °C 7,2 °C 78 % 1016,2 hPa 0,0 mm 4,2 km/h (1 Bft) W-NW 284 ° 0 min 0,000 mm 0,0 UV-I 0 W/m² 3,6 °C 7,2 °C 6,4 km/h (2 Bft)
_ Min-Zeit 14:45 15:00 10:31 10:41 - 11:24 - - - - - - 23:59 14:37 11:24
Minimum _ 6,6 °C 6,7 °C 62 % 1003,7 hPa - 0,0 km/h (0 Bft) - - - - - - 3,6 °C 3,0 °C 0,0 km/h (0 Bft)
_ Max-Zeit 10:17 10:19 15:57 23:59 17:21 14:13 - - 09:59 10:00 10:10 10:11 09:25 10:17 16:34
Maximum _ 18,3 °C 18,3 °C 93 % 1016,2 hPa 0,2 mm 34,4 km/h
W-SW (5 Bft)
- - 2 min 0,228 mm 3,1 UV-I 691 W/m² 12,8 °C 18,3 °C 51,5 km/h
W (7 Bft)
Durchschnitt _ 9,9 °C 9,9 °C 84 % 1009,0 hPa #7,0 mm 6,4 km/h (2 Bft) W - #1:12 h #0,914 mm 1,2 UV-I 54 W/m² 7,3 °C 9,1 °C 10,6 km/h (2 Bft)